<?xml version="1.0" encoding="UTF-8" standalone="no" ?>
<gpx xmlns="http://www.topografix.com/GPX/1/1" xmlns:xsi="http://www.w3.org/2001/XMLSchema-instance" xsi:schemaLocation="http://www.topografix.com/GPX/1/1 http://www.topografix.com/GPX/1/1/gpx.xsd" version="1.1" creator="VisuGPX - https://www.visugpx.com">
  <metadata>
    <name>Biviers-L\'Enverse d\'Oz</name>
    <desc><![CDATA[par le pas de la Coche]]></desc>
  </metadata>
  <trk>
    <name><![CDATA[2015-08-24 Biviers-Oz]]></name>
    <trkseg>
      <trkpt lat="45.23709" lon="5.81325">
        <ele>337.20001220703</ele>
        <time>2015-08-24T05:02:18.000Z</time>
      </trkpt>
      <trkpt lat="45.23718" lon="5.81334">
        <ele>337.39999389648</ele>
        <time>2015-08-24T05:02:24.000Z</time>
      </trkpt>
      <trkpt lat="45.23732" lon="5.81341">
        <ele>337.79998779297</ele>
        <time>2015-08-24T05:02:30.000Z</time>
      </trkpt>
      <trkpt lat="45.23749" lon="5.81336">
        <ele>339.39999389648</ele>
        <time>2015-08-24T05:02:36.000Z</time>
      </trkpt>
      <trkpt lat="45.23766" lon="5.8133">
        <ele>340.79998779297</ele>
        <time>2015-08-24T05:02:43.000Z</time>
      </trkpt>
      <trkpt lat="45.23778" lon="5.81332">
        <ele>341.39999389648</ele>
        <time>2015-08-24T05:02:48.000Z</time>
      </trkpt>
      <trkpt lat="45.23787" lon="5.81349">
        <ele>340.79998779297</ele>
        <time>2015-08-24T05:02:53.000Z</time>
      </trkpt>
      <trkpt lat="45.238" lon="5.81368">
        <ele>340.39999389648</ele>
        <time>2015-08-24T05:02:58.000Z</time>
      </trkpt>
      <trkpt lat="45.23808" lon="5.8138">
        <ele>340.39999389648</ele>
        <time>2015-08-24T05:03:01.000Z</time>
      </trkpt>
      <trkpt lat="45.23822" lon="5.81404">
        <ele>340</ele>
        <time>2015-08-24T05:03:07.000Z</time>
      </trkpt>
      <trkpt lat="45.23833" lon="5.81426">
        <ele>339.39999389648</ele>
        <time>2015-08-24T05:03:11.000Z</time>
      </trkpt>
      <trkpt lat="45.23845" lon="5.81448">
        <ele>339</ele>
        <time>2015-08-24T05:03:15.000Z</time>
      </trkpt>
      <trkpt lat="45.23857" lon="5.8147">
        <ele>338.39999389648</ele>
        <time>2015-08-24T05:03:18.000Z</time>
      </trkpt>
      <trkpt lat="45.23868" lon="5.81496">
        <ele>337.20001220703</ele>
        <time>2015-08-24T05:03:21.000Z</time>
      </trkpt>
      <trkpt lat="45.23882" lon="5.81515">
        <ele>336.60000610352</ele>
        <time>2015-08-24T05:03:25.000Z</time>
      </trkpt>
      <trkpt lat="45.23888" lon="5.81526">
        <ele>336.20001220703</ele>
        <time>2015-08-24T05:03:27.000Z</time>
      </trkpt>
      <trkpt lat="45.23899" lon="5.81549">
        <ele>335.20001220703</ele>
        <time>2015-08-24T05:03:32.000Z</time>
      </trkpt>
      <trkpt lat="45.23901" lon="5.81558">
        <ele>334.60000610352</ele>
        <time>2015-08-24T05:03:34.000Z</time>
      </trkpt>
      <trkpt lat="45.23896" lon="5.81581">
        <ele>332.60000610352</ele>
        <time>2015-08-24T05:03:38.000Z</time>
      </trkpt>
      <trkpt lat="45.23892" lon="5.81603">
        <ele>331.39999389648</ele>
        <time>2015-08-24T05:03:42.000Z</time>
      </trkpt>
      <trkpt lat="45.23885" lon="5.81629">
        <ele>329.79998779297</ele>
        <time>2015-08-24T05:03:45.000Z</time>
      </trkpt>
      <trkpt lat="45.23882" lon="5.81639">
        <ele>329.20001220703</ele>
        <time>2015-08-24T05:03:46.000Z</time>
      </trkpt>
      <trkpt lat="45.23873" lon="5.8167">
        <ele>327.60000610352</ele>
        <time>2015-08-24T05:03:49.000Z</time>
      </trkpt>
      <trkpt lat="45.23871" lon="5.8168">
        <ele>327.20001220703</ele>
        <time>2015-08-24T05:03:50.000Z</time>
      </trkpt>
      <trkpt lat="45.23864" lon="5.81698">
        <ele>326.20001220703</ele>
        <time>2015-08-24T05:03:52.000Z</time>
      </trkpt>
      <trkpt lat="45.23854" lon="5.81711">
        <ele>324.79998779297</ele>
        <time>2015-08-24T05:03:54.000Z</time>
      </trkpt>
      <trkpt lat="45.23842" lon="5.8173">
        <ele>323</ele>
        <time>2015-08-24T05:03:58.000Z</time>
      </trkpt>
      <trkpt lat="45.23838" lon="5.81736">
        <ele>322.60000610352</ele>
        <time>2015-08-24T05:04:00.000Z</time>
      </trkpt>
      <trkpt lat="45.23832" lon="5.8175">
        <ele>321.60000610352</ele>
        <time>2015-08-24T05:04:03.000Z</time>
      </trkpt>
      <trkpt lat="45.23825" lon="5.81761">
        <ele>320.60000610352</ele>
        <time>2015-08-24T05:04:05.000Z</time>
      </trkpt>
      <trkpt lat="45.23817" lon="5.81771">
        <ele>319.79998779297</ele>
        <time>2015-08-24T05:04:07.000Z</time>
      </trkpt>
      <trkpt lat="45.23802" lon="5.81795">
        <ele>317.79998779297</ele>
        <time>2015-08-24T05:04:10.000Z</time>
      </trkpt>
      <trkpt lat="45.23798" lon="5.81802">
        <ele>317.39999389648</ele>
        <time>2015-08-24T05:04:11.000Z</time>
      </trkpt>
      <trkpt lat="45.23785" lon="5.81822">
        <ele>315.79998779297</ele>
        <time>2015-08-24T05:04:15.000Z</time>
      </trkpt>
      <trkpt lat="45.23781" lon="5.81827">
        <ele>315.39999389648</ele>
        <time>2015-08-24T05:04:16.000Z</time>
      </trkpt>
      <trkpt lat="45.23773" lon="5.81838">
        <ele>314.39999389648</ele>
        <time>2015-08-24T05:04:18.000Z</time>
      </trkpt>
      <trkpt lat="45.23766" lon="5.81851">
        <ele>313.60000610352</ele>
        <time>2015-08-24T05:04:20.000Z</time>
      </trkpt>
      <trkpt lat="45.23752" lon="5.81872">
        <ele>312</ele>
        <time>2015-08-24T05:04:23.000Z</time>
      </trkpt>
      <trkpt lat="45.23739" lon="5.81894">
        <ele>310.39999389648</ele>
        <time>2015-08-24T05:04:26.000Z</time>
      </trkpt>
      <trkpt lat="45.23726" lon="5.81914">
        <ele>309</ele>
        <time>2015-08-24T05:04:29.000Z</time>
      </trkpt>
      <trkpt lat="45.23721" lon="5.81924">
        <ele>308.79998779297</ele>
        <time>2015-08-24T05:04:31.000Z</time>
      </trkpt>
      <trkpt lat="45.2372" lon="5.81941">
        <ele>308.60000610352</ele>
        <time>2015-08-24T05:04:34.000Z</time>
      </trkpt>
      <trkpt lat="45.23729" lon="5.81959">
        <ele>308.60000610352</ele>
        <time>2015-08-24T05:04:37.000Z</time>
      </trkpt>
      <trkpt lat="45.23732" lon="5.81964">
        <ele>308.60000610352</ele>
        <time>2015-08-24T05:04:38.000Z</time>
      </trkpt>
      <trkpt lat="45.23747" lon="5.81988">
        <ele>308</ele>
        <time>2015-08-24T05:04:42.000Z</time>
      </trkpt>
      <trkpt lat="45.23751" lon="5.81994">
        <ele>307.79998779297</ele>
        <time>2015-08-24T05:04:43.000Z</time>
      </trkpt>
      <trkpt lat="45.23764" lon="5.82012">
        <ele>307.39999389648</ele>
        <time>2015-08-24T05:04:46.000Z</time>
      </trkpt>
      <trkpt lat="45.23773" lon="5.82023">
        <ele>307</ele>
        <time>2015-08-24T05:04:49.000Z</time>
      </trkpt>
      <trkpt lat="45.23777" lon="5.8203">
        <ele>306.79998779297</ele>
        <time>2015-08-24T05:04:52.000Z</time>
      </trkpt>
      <trkpt lat="45.23778" lon="5.82033">
        <ele>306.60000610352</ele>
        <time>2015-08-24T05:04:54.000Z</time>
      </trkpt>
      <trkpt lat="45.23778" lon="5.82038">
        <ele>306.39999389648</ele>
        <time>2015-08-24T05:04:56.000Z</time>
      </trkpt>
      <trkpt lat="45.23775" lon="5.82047">
        <ele>305.60000610352</ele>
        <time>2015-08-24T05:04:58.000Z</time>
      </trkpt>
      <trkpt lat="45.23769" lon="5.82054">
        <ele>304.79998779297</ele>
        <time>2015-08-24T05:05:00.000Z</time>
      </trkpt>
      <trkpt lat="45.23759" lon="5.82072">
        <ele>303.79998779297</ele>
        <time>2015-08-24T05:05:04.000Z</time>
      </trkpt>
      <trkpt lat="45.23747" lon="5.82098">
        <ele>302.39999389648</ele>
        <time>2015-08-24T05:05:08.000Z</time>
      </trkpt>
      <trkpt lat="45.23744" lon="5.82103">
        <ele>302</ele>
        <time>2015-08-24T05:05:09.000Z</time>
      </trkpt>
      <trkpt lat="45.23739" lon="5.82111">
        <ele>301.20001220703</ele>
        <time>2015-08-24T05:05:11.000Z</time>
      </trkpt>
      <trkpt lat="45.23733" lon="5.82125">
        <ele>300.20001220703</ele>
        <time>2015-08-24T05:05:14.000Z</time>
      </trkpt>
      <trkpt lat="45.23725" lon="5.82138">
        <ele>299</ele>
        <time>2015-08-24T05:05:18.000Z</time>
      </trkpt>
      <trkpt lat="45.23718" lon="5.82143">
        <ele>298.39999389648</ele>
        <time>2015-08-24T05:05:21.000Z</time>
      </trkpt>
      <trkpt lat="45.23716" lon="5.82146">
        <ele>298.20001220703</ele>
        <time>2015-08-24T05:05:23.000Z</time>
      </trkpt>
      <trkpt lat="45.23713" lon="5.82154">
        <ele>297.60000610352</ele>
        <time>2015-08-24T05:05:25.000Z</time>
      </trkpt>
      <trkpt lat="45.23713" lon="5.82159">
        <ele>297.60000610352</ele>
        <time>2015-08-24T05:05:26.000Z</time>
      </trkpt>
      <trkpt lat="45.2371" lon="5.82186">
        <ele>296.79998779297</ele>
        <time>2015-08-24T05:05:30.000Z</time>
      </trkpt>
      <trkpt lat="45.237" lon="5.8221">
        <ele>296.39999389648</ele>
        <time>2015-08-24T05:05:33.000Z</time>
      </trkpt>
      <trkpt lat="45.23696" lon="5.82218">
        <ele>296</ele>
        <time>2015-08-24T05:05:34.000Z</time>
      </trkpt>
      <trkpt lat="45.23685" lon="5.82239">
        <ele>295.20001220703</ele>
        <time>2015-08-24T05:05:37.000Z</time>
      </trkpt>
      <trkpt lat="45.2368" lon="5.82251">
        <ele>295</ele>
        <time>2015-08-24T05:05:39.000Z</time>
      </trkpt>
      <trkpt lat="45.23677" lon="5.82264">
        <ele>294.60000610352</ele>
        <time>2015-08-24T05:05:41.000Z</time>
      </trkpt>
      <trkpt lat="45.23675" lon="5.82271">
        <ele>294.20001220703</ele>
        <time>2015-08-24T05:05:42.000Z</time>
      </trkpt>
      <trkpt lat="45.2367" lon="5.82294">
        <ele>291.79998779297</ele>
        <time>2015-08-24T05:05:45.000Z</time>
      </trkpt>
      <trkpt lat="45.23666" lon="5.82308">
        <ele>290.60000610352</ele>
        <time>2015-08-24T05:05:47.000Z</time>
      </trkpt>
      <trkpt lat="45.2366" lon="5.82321">
        <ele>290</ele>
        <time>2015-08-24T05:05:49.000Z</time>
      </trkpt>
      <trkpt lat="45.23646" lon="5.82336">
        <ele>289.39999389648</ele>
        <time>2015-08-24T05:05:52.000Z</time>
      </trkpt>
      <trkpt lat="45.23642" lon="5.82341">
        <ele>289.39999389648</ele>
        <time>2015-08-24T05:05:53.000Z</time>
      </trkpt>
      <trkpt lat="45.23625" lon="5.82356">
        <ele>289</ele>
        <time>2015-08-24T05:05:56.000Z</time>
      </trkpt>
      <trkpt lat="45.23619" lon="5.82362">
        <ele>288.79998779297</ele>
        <time>2015-08-24T05:05:57.000Z</time>
      </trkpt>
      <trkpt lat="45.23615" lon="5.82364">
        <ele>288.60000610352</ele>
        <time>2015-08-24T05:05:58.000Z</time>
      </trkpt>
      <trkpt lat="45.23605" lon="5.82369">
        <ele>287.79998779297</ele>
        <time>2015-08-24T05:06:00.000Z</time>
      </trkpt>
      <trkpt lat="45.23598" lon="5.82369">
        <ele>287</ele>
        <time>2015-08-24T05:06:01.000Z</time>
      </trkpt>
      <trkpt lat="45.23582" lon="5.82364">
        <ele>285.20001220703</ele>
        <time>2015-08-24T05:06:04.000Z</time>
      </trkpt>
      <trkpt lat="45.23577" lon="5.82361">
        <ele>284.79998779297</ele>
        <time>2015-08-24T05:06:05.000Z</time>
      </trkpt>
      <trkpt lat="45.23559" lon="5.82344">
        <ele>283.20001220703</ele>
        <time>2015-08-24T05:06:09.000Z</time>
      </trkpt>
      <trkpt lat="45.23553" lon="5.8234">
        <ele>282.60000610352</ele>
        <time>2015-08-24T05:06:10.000Z</time>
      </trkpt>
      <trkpt lat="45.23547" lon="5.82335">
        <ele>282.20001220703</ele>
        <time>2015-08-24T05:06:11.000Z</time>
      </trkpt>
      <trkpt lat="45.23525" lon="5.82323">
        <ele>279.39999389648</ele>
        <time>2015-08-24T05:06:14.000Z</time>
      </trkpt>
      <trkpt lat="45.23517" lon="5.8232">
        <ele>278.39999389648</ele>
        <time>2015-08-24T05:06:15.000Z</time>
      </trkpt>
      <trkpt lat="45.23495" lon="5.82313">
        <ele>275.39999389648</ele>
        <time>2015-08-24T05:06:18.000Z</time>
      </trkpt>
      <trkpt lat="45.23488" lon="5.82309">
        <ele>274.60000610352</ele>
        <time>2015-08-24T05:06:19.000Z</time>
      </trkpt>
      <trkpt lat="45.23483" lon="5.82306">
        <ele>274</ele>
        <time>2015-08-24T05:06:20.000Z</time>
      </trkpt>
      <trkpt lat="45.23463" lon="5.82304">
        <ele>271</ele>
        <time>2015-08-24T05:06:24.000Z</time>
      </trkpt>
      <trkpt lat="45.23443" lon="5.82315">
        <ele>269.60000610352</ele>
        <time>2015-08-24T05:06:28.000Z</time>
      </trkpt>
      <trkpt lat="45.23425" lon="5.8232">
        <ele>268.39999389648</ele>
        <time>2015-08-24T05:06:31.000Z</time>
      </trkpt>
      <trkpt lat="45.23419" lon="5.82322">
        <ele>267.79998779297</ele>
        <time>2015-08-24T05:06:32.000Z</time>
      </trkpt>
      <trkpt lat="45.23413" lon="5.82322">
        <ele>267.39999389648</ele>
        <time>2015-08-24T05:06:33.000Z</time>
      </trkpt>
      <trkpt lat="45.23394" lon="5.82321">
        <ele>266</ele>
        <time>2015-08-24T05:06:36.000Z</time>
      </trkpt>
      <trkpt lat="45.23388" lon="5.82319">
        <ele>265.60000610352</ele>
        <time>2015-08-24T05:06:37.000Z</time>
      </trkpt>
      <trkpt lat="45.23364" lon="5.82316">
        <ele>263.79998779297</ele>
        <time>2015-08-24T05:06:40.000Z</time>
      </trkpt>
      <trkpt lat="45.23359" lon="5.82314">
        <ele>263.39999389648</ele>
        <time>2015-08-24T05:06:41.000Z</time>
      </trkpt>
      <trkpt lat="45.23346" lon="5.82307">
        <ele>262.60000610352</ele>
        <time>2015-08-24T05:06:45.000Z</time>
      </trkpt>
      <trkpt lat="45.23344" lon="5.82306">
        <ele>262.39999389648</ele>
        <time>2015-08-24T05:06:46.000Z</time>
      </trkpt>
      <trkpt lat="45.23339" lon="5.82307">
        <ele>262.20001220703</ele>
        <time>2015-08-24T05:06:49.000Z</time>
      </trkpt>
      <trkpt lat="45.23338" lon="5.8231">
        <ele>262</ele>
        <time>2015-08-24T05:06:50.000Z</time>
      </trkpt>
      <trkpt lat="45.23339" lon="5.82322">
        <ele>262</ele>
        <time>2015-08-24T05:06:54.000Z</time>
      </trkpt>
      <trkpt lat="45.2334" lon="5.82327">
        <ele>262</ele>
        <time>2015-08-24T05:06:56.000Z</time>
      </trkpt>
      <trkpt lat="45.23347" lon="5.82343">
        <ele>262.20001220703</ele>
        <time>2015-08-24T05:07:00.000Z</time>
      </trkpt>
      <trkpt lat="45.23347" lon="5.82369">
        <ele>262</ele>
        <time>2015-08-24T05:07:06.000Z</time>
      </trkpt>
      <trkpt lat="45.23342" lon="5.82396">
        <ele>261.79998779297</ele>
        <time>2015-08-24T05:07:12.000Z</time>
      </trkpt>
      <trkpt lat="45.23343" lon="5.82425">
        <ele>261.79998779297</ele>
        <time>2015-08-24T05:07:18.000Z</time>
      </trkpt>
      <trkpt lat="45.23344" lon="5.82445">
        <ele>262</ele>
        <time>2015-08-24T05:07:22.000Z</time>
      </trkpt>
      <trkpt lat="45.23342" lon="5.82448">
        <ele>261.79998779297</ele>
        <time>2015-08-24T05:07:23.000Z</time>
      </trkpt>
      <trkpt lat="45.23335" lon="5.82458">
        <ele>261.39999389648</ele>
        <time>2015-08-24T05:07:26.000Z</time>
      </trkpt>
      <trkpt lat="45.23331" lon="5.82462">
        <ele>261.20001220703</ele>
        <time>2015-08-24T05:07:28.000Z</time>
      </trkpt>
      <trkpt lat="45.23325" lon="5.82468">
        <ele>260.79998779297</ele>
        <time>2015-08-24T05:07:33.000Z</time>
      </trkpt>
      <trkpt lat="45.23317" lon="5.82488">
        <ele>260.20001220703</ele>
        <time>2015-08-24T05:07:37.000Z</time>
      </trkpt>
      <trkpt lat="45.23302" lon="5.82513">
        <ele>259</ele>
        <time>2015-08-24T05:07:41.000Z</time>
      </trkpt>
      <trkpt lat="45.23299" lon="5.8252">
        <ele>258.60000610352</ele>
        <time>2015-08-24T05:07:42.000Z</time>
      </trkpt>
      <trkpt lat="45.23287" lon="5.82543">
        <ele>257.79998779297</ele>
        <time>2015-08-24T05:07:45.000Z</time>
      </trkpt>
      <trkpt lat="45.23274" lon="5.82567">
        <ele>257</ele>
        <time>2015-08-24T05:07:48.000Z</time>
      </trkpt>
      <trkpt lat="45.23269" lon="5.82575">
        <ele>256.79998779297</ele>
        <time>2015-08-24T05:07:49.000Z</time>
      </trkpt>
      <trkpt lat="45.23254" lon="5.82601">
        <ele>256</ele>
        <time>2015-08-24T05:07:52.000Z</time>
      </trkpt>
      <trkpt lat="45.23238" lon="5.82623">
        <ele>254.60000610352</ele>
        <time>2015-08-24T05:07:55.000Z</time>
      </trkpt>
      <trkpt lat="45.23214" lon="5.82635">
        <ele>253.19999694824</ele>
        <time>2015-08-24T05:07:58.000Z</time>
      </trkpt>
      <trkpt lat="45.23209" lon="5.82635">
        <ele>252.80000305176</ele>
        <time>2015-08-24T05:07:59.000Z</time>
      </trkpt>
      <trkpt lat="45.23189" lon="5.82636">
        <ele>251.60000610352</ele>
        <time>2015-08-24T05:08:02.000Z</time>
      </trkpt>
      <trkpt lat="45.23185" lon="5.82635">
        <ele>251.39999389648</ele>
        <time>2015-08-24T05:08:03.000Z</time>
      </trkpt>
      <trkpt lat="45.23171" lon="5.82635">
        <ele>250.60000610352</ele>
        <time>2015-08-24T05:08:05.000Z</time>
      </trkpt>
      <trkpt lat="45.23157" lon="5.82642">
        <ele>249.60000610352</ele>
        <time>2015-08-24T05:08:07.000Z</time>
      </trkpt>
      <trkpt lat="45.23136" lon="5.82662">
        <ele>247.80000305176</ele>
        <time>2015-08-24T05:08:10.000Z</time>
      </trkpt>
      <trkpt lat="45.2313" lon="5.82669">
        <ele>247.39999389648</ele>
        <time>2015-08-24T05:08:11.000Z</time>
      </trkpt>
      <trkpt lat="45.23111" lon="5.82691">
        <ele>245.19999694824</ele>
        <time>2015-08-24T05:08:14.000Z</time>
      </trkpt>
      <trkpt lat="45.23103" lon="5.82704">
        <ele>244.39999389648</ele>
        <time>2015-08-24T05:08:16.000Z</time>
      </trkpt>
      <trkpt lat="45.23089" lon="5.82728">
        <ele>242.80000305176</ele>
        <time>2015-08-24T05:08:19.000Z</time>
      </trkpt>
      <trkpt lat="45.23082" lon="5.82746">
        <ele>241.60000610352</ele>
        <time>2015-08-24T05:08:21.000Z</time>
      </trkpt>
      <trkpt lat="45.2308" lon="5.82776">
        <ele>240.60000610352</ele>
        <time>2015-08-24T05:08:24.000Z</time>
      </trkpt>
      <trkpt lat="45.23079" lon="5.82785">
        <ele>240.39999389648</ele>
        <time>2015-08-24T05:08:25.000Z</time>
      </trkpt>
      <trkpt lat="45.23076" lon="5.828">
        <ele>240.19999694824</ele>
        <time>2015-08-24T05:08:27.000Z</time>
      </trkpt>
      <trkpt lat="45.23073" lon="5.82814">
        <ele>239.80000305176</ele>
        <time>2015-08-24T05:08:29.000Z</time>
      </trkpt>
      <trkpt lat="45.23069" lon="5.8283">
        <ele>239.19999694824</ele>
        <time>2015-08-24T05:08:31.000Z</time>
      </trkpt>
      <trkpt lat="45.23063" lon="5.82855">
        <ele>238</ele>
        <time>2015-08-24T05:08:34.000Z</time>
      </trkpt>
      <trkpt lat="45.23058" lon="5.82872">
        <ele>237.19999694824</ele>
        <time>2015-08-24T05:08:36.000Z</time>
      </trkpt>
      <trkpt lat="45.23048" lon="5.82897">
        <ele>235.60000610352</ele>
        <time>2015-08-24T05:08:39.000Z</time>
      </trkpt>
      <trkpt lat="45.23035" lon="5.82922">
        <ele>233</ele>
        <time>2015-08-24T05:08:42.000Z</time>
      </trkpt>
      <trkpt lat="45.2302" lon="5.82946">
        <ele>230.39999389648</ele>
        <time>2015-08-24T05:08:45.000Z</time>
      </trkpt>
      <trkpt lat="45.23005" lon="5.8297">
        <ele>229.19999694824</ele>
        <time>2015-08-24T05:08:48.000Z</time>
      </trkpt>
      <trkpt lat="45.2299" lon="5.82994">
        <ele>227.39999389648</ele>
        <time>2015-08-24T05:08:51.000Z</time>
      </trkpt>
      <trkpt lat="45.22975" lon="5.83017">
        <ele>226.19999694824</ele>
        <time>2015-08-24T05:08:54.000Z</time>
      </trkpt>
      <trkpt lat="45.2296" lon="5.83043">
        <ele>225.19999694824</ele>
        <time>2015-08-24T05:08:57.000Z</time>
      </trkpt>
      <trkpt lat="45.22941" lon="5.83068">
        <ele>223.80000305176</ele>
        <time>2015-08-24T05:09:00.000Z</time>
      </trkpt>
      <trkpt lat="45.22927" lon="5.83085">
        <ele>222.39999389648</ele>
        <time>2015-08-24T05:09:02.000Z</time>
      </trkpt>
      <trkpt lat="45.22913" lon="5.83097">
        <ele>221.39999389648</ele>
        <time>2015-08-24T05:09:04.000Z</time>
      </trkpt>
      <trkpt lat="45.22898" lon="5.83107">
        <ele>220.80000305176</ele>
        <time>2015-08-24T05:09:06.000Z</time>
      </trkpt>
      <trkpt lat="45.22876" lon="5.83122">
        <ele>219.80000305176</ele>
        <time>2015-08-24T05:09:10.000Z</time>
      </trkpt>
      <trkpt lat="45.22858" lon="5.83137">
        <ele>220</ele>
        <time>2015-08-24T05:09:13.000Z</time>
      </trkpt>
      <trkpt lat="45.22845" lon="5.83144">
        <ele>220.60000610352</ele>
        <time>2015-08-24T05:09:15.000Z</time>
      </trkpt>
      <trkpt lat="45.22839" lon="5.8315">
        <ele>220.80000305176</ele>
        <time>2015-08-24T05:09:16.000Z</time>
      </trkpt>
      <trkpt lat="45.22825" lon="5.83165">
        <ele>221.60000610352</ele>
        <time>2015-08-24T05:09:19.000Z</time>
      </trkpt>
      <trkpt lat="45.2282" lon="5.83168">
        <ele>221.80000305176</ele>
        <time>2015-08-24T05:09:20.000Z</time>
      </trkpt>
      <trkpt lat="45.22806" lon="5.83178">
        <ele>222.60000610352</ele>
        <time>2015-08-24T05:09:23.000Z</time>
      </trkpt>
      <trkpt lat="45.22801" lon="5.83182">
        <ele>222.80000305176</ele>
        <time>2015-08-24T05:09:24.000Z</time>
      </trkpt>
      <trkpt lat="45.22793" lon="5.8319">
        <ele>223</ele>
        <time>2015-08-24T05:09:26.000Z</time>
      </trkpt>
      <trkpt lat="45.22784" lon="5.83198">
        <ele>222.80000305176</ele>
        <time>2015-08-24T05:09:28.000Z</time>
      </trkpt>
      <trkpt lat="45.22778" lon="5.83202">
        <ele>222.60000610352</ele>
        <time>2015-08-24T05:09:29.000Z</time>
      </trkpt>
      <trkpt lat="45.22764" lon="5.8321">
        <ele>221.80000305176</ele>
        <time>2015-08-24T05:09:32.000Z</time>
      </trkpt>
      <trkpt lat="45.22755" lon="5.83219">
        <ele>221.19999694824</ele>
        <time>2015-08-24T05:09:34.000Z</time>
      </trkpt>
      <trkpt lat="45.2274" lon="5.83228">
        <ele>220</ele>
        <time>2015-08-24T05:09:37.000Z</time>
      </trkpt>
      <trkpt lat="45.2273" lon="5.83234">
        <ele>219.39999389648</ele>
        <time>2015-08-24T05:09:39.000Z</time>
      </trkpt>
      <trkpt lat="45.22716" lon="5.83245">
        <ele>218.60000610352</ele>
        <time>2015-08-24T05:09:42.000Z</time>
      </trkpt>
      <trkpt lat="45.22709" lon="5.83254">
        <ele>218.19999694824</ele>
        <time>2015-08-24T05:09:44.000Z</time>
      </trkpt>
      <trkpt lat="45.22701" lon="5.83263">
        <ele>218.19999694824</ele>
        <time>2015-08-24T05:09:46.000Z</time>
      </trkpt>
      <trkpt lat="45.22692" lon="5.83279">
        <ele>217.80000305176</ele>
        <time>2015-08-24T05:09:49.000Z</time>
      </trkpt>
      <trkpt lat="45.22684" lon="5.8329">
        <ele>218</ele>
        <time>2015-08-24T05:09:51.000Z</time>
      </trkpt>
      <trkpt lat="45.22669" lon="5.83308">
        <ele>218.80000305176</ele>
        <time>2015-08-24T05:09:55.000Z</time>
      </trkpt>
      <trkpt lat="45.22654" lon="5.83327">
        <ele>220.39999389648</ele>
        <time>2015-08-24T05:09:59.000Z</time>
      </trkpt>
      <trkpt lat="45.22647" lon="5.83337">
        <ele>220</ele>
        <time>2015-08-24T05:10:01.000Z</time>
      </trkpt>
      <trkpt lat="45.22633" lon="5.83355">
        <ele>218.39999389648</ele>
        <time>2015-08-24T05:10:05.000Z</time>
      </trkpt>
      <trkpt lat="45.2263" lon="5.8336">
        <ele>218.19999694824</ele>
        <time>2015-08-24T05:10:06.000Z</time>
      </trkpt>
      <trkpt lat="45.22624" lon="5.83368">
        <ele>217.60000610352</ele>
        <time>2015-08-24T05:10:08.000Z</time>
      </trkpt>
      <trkpt lat="45.22622" lon="5.83372">
        <ele>217.39999389648</ele>
        <time>2015-08-24T05:10:09.000Z</time>
      </trkpt>
      <trkpt lat="45.22615" lon="5.83379">
        <ele>217.19999694824</ele>
        <time>2015-08-24T05:10:11.000Z</time>
      </trkpt>
      <trkpt lat="45.2261" lon="5.83387">
        <ele>217</ele>
        <time>2015-08-24T05:10:13.000Z</time>
      </trkpt>
      <trkpt lat="45.22604" lon="5.83395">
        <ele>217.19999694824</ele>
        <time>2015-08-24T05:10:15.000Z</time>
      </trkpt>
      <trkpt lat="45.22595" lon="5.83405">
        <ele>217.39999389648</ele>
        <time>2015-08-24T05:10:18.000Z</time>
      </trkpt>
      <trkpt lat="45.22591" lon="5.83408">
        <ele>217.39999389648</ele>
        <time>2015-08-24T05:10:19.000Z</time>
      </trkpt>
      <trkpt lat="45.22585" lon="5.83425">
        <ele>217.80000305176</ele>
        <time>2015-08-24T05:10:23.000Z</time>
      </trkpt>
      <trkpt lat="45.22591" lon="5.83437">
        <ele>218.19999694824</ele>
        <time>2015-08-24T05:10:26.000Z</time>
      </trkpt>
      <trkpt lat="45.22598" lon="5.83442">
        <ele>218.19999694824</ele>
        <time>2015-08-24T05:10:28.000Z</time>
      </trkpt>
      <trkpt lat="45.22609" lon="5.83454">
        <ele>218.60000610352</ele>
        <time>2015-08-24T05:10:31.000Z</time>
      </trkpt>
      <trkpt lat="45.22627" lon="5.83475">
        <ele>219</ele>
        <time>2015-08-24T05:10:36.000Z</time>
      </trkpt>
      <trkpt lat="45.22643" lon="5.83496">
        <ele>219.39999389648</ele>
        <time>2015-08-24T05:10:40.000Z</time>
      </trkpt>
      <trkpt lat="45.22659" lon="5.83515">
        <ele>219.80000305176</ele>
        <time>2015-08-24T05:10:44.000Z</time>
      </trkpt>
      <trkpt lat="45.22662" lon="5.83521">
        <ele>219.80000305176</ele>
        <time>2015-08-24T05:10:45.000Z</time>
      </trkpt>
      <trkpt lat="45.22668" lon="5.8353">
        <ele>220</ele>
        <time>2015-08-24T05:10:47.000Z</time>
      </trkpt>
      <trkpt lat="45.22686" lon="5.83551">
        <ele>220.39999389648</ele>
        <time>2015-08-24T05:10:52.000Z</time>
      </trkpt>
      <trkpt lat="45.2269" lon="5.83557">
        <ele>220.39999389648</ele>
        <time>2015-08-24T05:10:53.000Z</time>
      </trkpt>
      <trkpt lat="45.22706" lon="5.83577">
        <ele>221.19999694824</ele>
        <time>2015-08-24T05:10:57.000Z</time>
      </trkpt>
      <trkpt lat="45.22714" lon="5.83587">
        <ele>221.39999389648</ele>
        <time>2015-08-24T05:10:59.000Z</time>
      </trkpt>
      <trkpt lat="45.22718" lon="5.83591">
        <ele>221.39999389648</ele>
        <time>2015-08-24T05:11:00.000Z</time>
      </trkpt>
      <trkpt lat="45.22734" lon="5.8361">
        <ele>221.39999389648</ele>
        <time>2015-08-24T05:11:04.000Z</time>
      </trkpt>
      <trkpt lat="45.22743" lon="5.83621">
        <ele>221.39999389648</ele>
        <time>2015-08-24T05:11:06.000Z</time>
      </trkpt>
      <trkpt lat="45.22747" lon="5.83624">
        <ele>221.39999389648</ele>
        <time>2015-08-24T05:11:07.000Z</time>
      </trkpt>
      <trkpt lat="45.22755" lon="5.83632">
        <ele>221.39999389648</ele>
        <time>2015-08-24T05:11:09.000Z</time>
      </trkpt>
      <trkpt lat="45.22763" lon="5.8364">
        <ele>221.39999389648</ele>
        <time>2015-08-24T05:11:11.000Z</time>
      </trkpt>
      <trkpt lat="45.22771" lon="5.83647">
        <ele>221.19999694824</ele>
        <time>2015-08-24T05:11:13.000Z</time>
      </trkpt>
      <trkpt lat="45.22778" lon="5.83655">
        <ele>220.80000305176</ele>
        <time>2015-08-24T05:11:15.000Z</time>
      </trkpt>
      <trkpt lat="45.22787" lon="5.83666">
        <ele>220.39999389648</ele>
        <time>2015-08-24T05:11:17.000Z</time>
      </trkpt>
      <trkpt lat="45.22802" lon="5.83687">
        <ele>220</ele>
        <time>2015-08-24T05:11:21.000Z</time>
      </trkpt>
      <trkpt lat="45.22807" lon="5.83695">
        <ele>220</ele>
        <time>2015-08-24T05:11:23.000Z</time>
      </trkpt>
      <trkpt lat="45.22813" lon="5.83704">
        <ele>219.80000305176</ele>
        <time>2015-08-24T05:11:27.000Z</time>
      </trkpt>
      <trkpt lat="45.22816" lon="5.83711">
        <ele>219.80000305176</ele>
        <time>2015-08-24T05:11:30.000Z</time>
      </trkpt>
      <trkpt lat="45.22814" lon="5.83721">
        <ele>219.39999389648</ele>
        <time>2015-08-24T05:11:32.000Z</time>
      </trkpt>
      <trkpt lat="45.22805" lon="5.83736">
        <ele>219.60000610352</ele>
        <time>2015-08-24T05:11:35.000Z</time>
      </trkpt>
      <trkpt lat="45.22801" lon="5.83742">
        <ele>219.60000610352</ele>
        <time>2015-08-24T05:11:36.000Z</time>
      </trkpt>
      <trkpt lat="45.22787" lon="5.83762">
        <ele>220.19999694824</ele>
        <time>2015-08-24T05:11:40.000Z</time>
      </trkpt>
      <trkpt lat="45.22784" lon="5.83768">
        <ele>220.39999389648</ele>
        <time>2015-08-24T05:11:41.000Z</time>
      </trkpt>
      <trkpt lat="45.22768" lon="5.83786">
        <ele>220.80000305176</ele>
        <time>2015-08-24T05:11:45.000Z</time>
      </trkpt>
      <trkpt lat="45.22766" lon="5.8379">
        <ele>220.60000610352</ele>
        <time>2015-08-24T05:11:46.000Z</time>
      </trkpt>
      <trkpt lat="45.22757" lon="5.83806">
        <ele>220</ele>
        <time>2015-08-24T05:11:49.000Z</time>
      </trkpt>
      <trkpt lat="45.22753" lon="5.83812">
        <ele>220</ele>
        <time>2015-08-24T05:11:50.000Z</time>
      </trkpt>
      <trkpt lat="45.22742" lon="5.83826">
        <ele>220</ele>
        <time>2015-08-24T05:11:53.000Z</time>
      </trkpt>
      <trkpt lat="45.22735" lon="5.83836">
        <ele>219.80000305176</ele>
        <time>2015-08-24T05:11:55.000Z</time>
      </trkpt>
      <trkpt lat="45.22732" lon="5.83841">
        <ele>219.80000305176</ele>
        <time>2015-08-24T05:11:56.000Z</time>
      </trkpt>
      <trkpt lat="45.2273" lon="5.83847">
        <ele>219.60000610352</ele>
        <time>2015-08-24T05:11:57.000Z</time>
      </trkpt>
      <trkpt lat="45.22717" lon="5.83856">
        <ele>219.19999694824</ele>
        <time>2015-08-24T05:12:00.000Z</time>
      </trkpt>
      <trkpt lat="45.22698" lon="5.83849">
        <ele>219.60000610352</ele>
        <time>2015-08-24T05:12:04.000Z</time>
      </trkpt>
      <trkpt lat="45.22691" lon="5.83839">
        <ele>219.80000305176</ele>
        <time>2015-08-24T05:12:06.000Z</time>
      </trkpt>
      <trkpt lat="45.2268" lon="5.83829">
        <ele>220.19999694824</ele>
        <time>2015-08-24T05:12:08.000Z</time>
      </trkpt>
      <trkpt lat="45.22675" lon="5.83821">
        <ele>220.39999389648</ele>
        <time>2015-08-24T05:12:09.000Z</time>
      </trkpt>
      <trkpt lat="45.2266" lon="5.83801">
        <ele>220.80000305176</ele>
        <time>2015-08-24T05:12:12.000Z</time>
      </trkpt>
      <trkpt lat="45.22644" lon="5.8378">
        <ele>220.60000610352</ele>
        <time>2015-08-24T05:12:15.000Z</time>
      </trkpt>
      <trkpt lat="45.22628" lon="5.83762">
        <ele>220.39999389648</ele>
        <time>2015-08-24T05:12:18.000Z</time>
      </trkpt>
      <trkpt lat="45.22619" lon="5.83752">
        <ele>220.19999694824</ele>
        <time>2015-08-24T05:12:20.000Z</time>
      </trkpt>
      <trkpt lat="45.2261" lon="5.83742">
        <ele>220.19999694824</ele>
        <time>2015-08-24T05:12:22.000Z</time>
      </trkpt>
      <trkpt lat="45.22604" lon="5.83738">
        <ele>220.19999694824</ele>
        <time>2015-08-24T05:12:23.000Z</time>
      </trkpt>
      <trkpt lat="45.22593" lon="5.83731">
        <ele>220.19999694824</ele>
        <time>2015-08-24T05:12:26.000Z</time>
      </trkpt>
      <trkpt lat="45.22582" lon="5.83737">
        <ele>220.60000610352</ele>
        <time>2015-08-24T05:12:30.000Z</time>
      </trkpt>
      <trkpt lat="45.22568" lon="5.83749">
        <ele>221.39999389648</ele>
        <time>2015-08-24T05:12:34.000Z</time>
      </trkpt>
      <trkpt lat="45.22551" lon="5.83766">
        <ele>221.60000610352</ele>
        <time>2015-08-24T05:12:38.000Z</time>
      </trkpt>
      <trkpt lat="45.22537" lon="5.83774">
        <ele>222</ele>
        <time>2015-08-24T05:12:42.000Z</time>
      </trkpt>
      <trkpt lat="45.22535" lon="5.83777">
        <ele>222</ele>
        <time>2015-08-24T05:12:43.000Z</time>
      </trkpt>
      <trkpt lat="45.22523" lon="5.83784">
        <ele>222.60000610352</ele>
        <time>2015-08-24T05:12:46.000Z</time>
      </trkpt>
      <trkpt lat="45.22519" lon="5.83788">
        <ele>222.60000610352</ele>
        <time>2015-08-24T05:12:47.000Z</time>
      </trkpt>
      <trkpt lat="45.225" lon="5.83804">
        <ele>223</ele>
        <time>2015-08-24T05:12:51.000Z</time>
      </trkpt>
      <trkpt lat="45.22488" lon="5.83817">
        <ele>223.60000610352</ele>
        <time>2015-08-24T05:12:54.000Z</time>
      </trkpt>
      <trkpt lat="45.22475" lon="5.83834">
        <ele>223.39999389648</ele>
        <time>2015-08-24T05:12:57.000Z</time>
      </trkpt>
      <trkpt lat="45.22462" lon="5.83852">
        <ele>222.80000305176</ele>
        <time>2015-08-24T05:13:00.000Z</time>
      </trkpt>
      <trkpt lat="45.22448" lon="5.83868">
        <ele>222.39999389648</ele>
        <time>2015-08-24T05:13:03.000Z</time>
      </trkpt>
      <trkpt lat="45.22428" lon="5.83869">
        <ele>222.39999389648</ele>
        <time>2015-08-24T05:13:06.000Z</time>
      </trkpt>
      <trkpt lat="45.22411" lon="5.83848">
        <ele>222.60000610352</ele>
        <time>2015-08-24T05:13:10.000Z</time>
      </trkpt>
      <trkpt lat="45.22403" lon="5.83823">
        <ele>222.80000305176</ele>
        <time>2015-08-24T05:13:13.000Z</time>
      </trkpt>
      <trkpt lat="45.22397" lon="5.83812">
        <ele>223</ele>
        <time>2015-08-24T05:13:15.000Z</time>
      </trkpt>
      <trkpt lat="45.22396" lon="5.83812">
        <ele>223</ele>
        <time>2015-08-24T05:13:16.000Z</time>
      </trkpt>
      <trkpt lat="45.22394" lon="5.83817">
        <ele>223</ele>
        <time>2015-08-24T05:13:17.000Z</time>
      </trkpt>
      <trkpt lat="45.22382" lon="5.83836">
        <ele>223</ele>
        <time>2015-08-24T05:13:20.000Z</time>
      </trkpt>
      <trkpt lat="45.22367" lon="5.83858">
        <ele>223.19999694824</ele>
        <time>2015-08-24T05:13:24.000Z</time>
      </trkpt>
      <trkpt lat="45.22355" lon="5.83875">
        <ele>223.39999389648</ele>
        <time>2015-08-24T05:13:27.000Z</time>
      </trkpt>
      <trkpt lat="45.22344" lon="5.83891">
        <ele>223.39999389648</ele>
        <time>2015-08-24T05:13:30.000Z</time>
      </trkpt>
      <trkpt lat="45.22329" lon="5.83912">
        <ele>224.39999389648</ele>
        <time>2015-08-24T05:13:34.000Z</time>
      </trkpt>
      <trkpt lat="45.22323" lon="5.83924">
        <ele>224.60000610352</ele>
        <time>2015-08-24T05:13:36.000Z</time>
      </trkpt>
      <trkpt lat="45.2232" lon="5.8393">
        <ele>224.39999389648</ele>
        <time>2015-08-24T05:13:37.000Z</time>
      </trkpt>
      <trkpt lat="45.2231" lon="5.83947">
        <ele>223.80000305176</ele>
        <time>2015-08-24T05:13:40.000Z</time>
      </trkpt>
      <trkpt lat="45.22306" lon="5.83954">
        <ele>223.60000610352</ele>
        <time>2015-08-24T05:13:41.000Z</time>
      </trkpt>
      <trkpt lat="45.22299" lon="5.83968">
        <ele>223.19999694824</ele>
        <time>2015-08-24T05:13:43.000Z</time>
      </trkpt>
      <trkpt lat="45.22285" lon="5.83983">
        <ele>223.80000305176</ele>
        <time>2015-08-24T05:13:46.000Z</time>
      </trkpt>
      <trkpt lat="45.22267" lon="5.83989">
        <ele>224.60000610352</ele>
        <time>2015-08-24T05:13:49.000Z</time>
      </trkpt>
      <trkpt lat="45.22262" lon="5.83989">
        <ele>224.60000610352</ele>
        <time>2015-08-24T05:13:50.000Z</time>
      </trkpt>
      <trkpt lat="45.2224" lon="5.83989">
        <ele>224.80000305176</ele>
        <time>2015-08-24T05:13:54.000Z</time>
      </trkpt>
      <trkpt lat="45.2223" lon="5.83989">
        <ele>225</ele>
        <time>2015-08-24T05:13:56.000Z</time>
      </trkpt>
      <trkpt lat="45.22225" lon="5.8399">
        <ele>225.19999694824</ele>
        <time>2015-08-24T05:13:57.000Z</time>
      </trkpt>
      <trkpt lat="45.22205" lon="5.83991">
        <ele>226</ele>
        <time>2015-08-24T05:14:01.000Z</time>
      </trkpt>
      <trkpt lat="45.22198" lon="5.84">
        <ele>227.19999694824</ele>
        <time>2015-08-24T05:14:03.000Z</time>
      </trkpt>
      <trkpt lat="45.2219" lon="5.84015">
        <ele>229</ele>
        <time>2015-08-24T05:14:06.000Z</time>
      </trkpt>
      <trkpt lat="45.22185" lon="5.84027">
        <ele>230.19999694824</ele>
        <time>2015-08-24T05:14:08.000Z</time>
      </trkpt>
      <trkpt lat="45.22179" lon="5.8404">
        <ele>230.19999694824</ele>
        <time>2015-08-24T05:14:10.000Z</time>
      </trkpt>
      <trkpt lat="45.22169" lon="5.8406">
        <ele>229.80000305176</ele>
        <time>2015-08-24T05:14:13.000Z</time>
      </trkpt>
      <trkpt lat="45.22162" lon="5.8407">
        <ele>229.19999694824</ele>
        <time>2015-08-24T05:14:15.000Z</time>
      </trkpt>
      <trkpt lat="45.22149" lon="5.84092">
        <ele>228.39999389648</ele>
        <time>2015-08-24T05:14:19.000Z</time>
      </trkpt>
      <trkpt lat="45.22145" lon="5.84098">
        <ele>228.39999389648</ele>
        <time>2015-08-24T05:14:20.000Z</time>
      </trkpt>
      <trkpt lat="45.22129" lon="5.84116">
        <ele>228</ele>
        <time>2015-08-24T05:14:24.000Z</time>
      </trkpt>
      <trkpt lat="45.22121" lon="5.84126">
        <ele>228</ele>
        <time>2015-08-24T05:14:26.000Z</time>
      </trkpt>
      <trkpt lat="45.22107" lon="5.84146">
        <ele>227.60000610352</ele>
        <time>2015-08-24T05:14:31.000Z</time>
      </trkpt>
      <trkpt lat="45.22102" lon="5.84163">
        <ele>228</ele>
        <time>2015-08-24T05:14:35.000Z</time>
      </trkpt>
      <trkpt lat="45.22106" lon="5.84167">
        <ele>228.19999694824</ele>
        <time>2015-08-24T05:14:38.000Z</time>
      </trkpt>
      <trkpt lat="45.22113" lon="5.84171">
        <ele>228.39999389648</ele>
        <time>2015-08-24T05:14:40.000Z</time>
      </trkpt>
      <trkpt lat="45.22121" lon="5.84179">
        <ele>228.80000305176</ele>
        <time>2015-08-24T05:14:42.000Z</time>
      </trkpt>
      <trkpt lat="45.22138" lon="5.84202">
        <ele>229.80000305176</ele>
        <time>2015-08-24T05:14:46.000Z</time>
      </trkpt>
      <trkpt lat="45.22142" lon="5.84208">
        <ele>230.19999694824</ele>
        <time>2015-08-24T05:14:47.000Z</time>
      </trkpt>
      <trkpt lat="45.22156" lon="5.84224">
        <ele>231</ele>
        <time>2015-08-24T05:14:50.000Z</time>
      </trkpt>
      <trkpt lat="45.22164" lon="5.84234">
        <ele>231</ele>
        <time>2015-08-24T05:14:52.000Z</time>
      </trkpt>
      <trkpt lat="45.22182" lon="5.84257">
        <ele>231</ele>
        <time>2015-08-24T05:14:56.000Z</time>
      </trkpt>
      <trkpt lat="45.22193" lon="5.8427">
        <ele>231.19999694824</ele>
        <time>2015-08-24T05:14:58.000Z</time>
      </trkpt>
      <trkpt lat="45.22209" lon="5.84291">
        <ele>231.19999694824</ele>
        <time>2015-08-24T05:15:02.000Z</time>
      </trkpt>
      <trkpt lat="45.22224" lon="5.84307">
        <ele>231</ele>
        <time>2015-08-24T05:15:05.000Z</time>
      </trkpt>
      <trkpt lat="45.22227" lon="5.8431">
        <ele>230.80000305176</ele>
        <time>2015-08-24T05:15:06.000Z</time>
      </trkpt>
      <trkpt lat="45.22231" lon="5.84316">
        <ele>230.60000610352</ele>
        <time>2015-08-24T05:15:07.000Z</time>
      </trkpt>
      <trkpt lat="45.22249" lon="5.84338">
        <ele>229.39999389648</ele>
        <time>2015-08-24T05:15:11.000Z</time>
      </trkpt>
      <trkpt lat="45.22269" lon="5.84353">
        <ele>228.80000305176</ele>
        <time>2015-08-24T05:15:15.000Z</time>
      </trkpt>
      <trkpt lat="45.22278" lon="5.84359">
        <ele>228.39999389648</ele>
        <time>2015-08-24T05:15:17.000Z</time>
      </trkpt>
      <trkpt lat="45.22291" lon="5.8437">
        <ele>228</ele>
        <time>2015-08-24T05:15:20.000Z</time>
      </trkpt>
      <trkpt lat="45.22294" lon="5.84373">
        <ele>227.80000305176</ele>
        <time>2015-08-24T05:15:21.000Z</time>
      </trkpt>
      <trkpt lat="45.22309" lon="5.84385">
        <ele>227.19999694824</ele>
        <time>2015-08-24T05:15:25.000Z</time>
      </trkpt>
      <trkpt lat="45.22312" lon="5.84389">
        <ele>227</ele>
        <time>2015-08-24T05:15:26.000Z</time>
      </trkpt>
      <trkpt lat="45.22326" lon="5.84405">
        <ele>225.60000610352</ele>
        <time>2015-08-24T05:15:29.000Z</time>
      </trkpt>
      <trkpt lat="45.22333" lon="5.84414">
        <ele>224.80000305176</ele>
        <time>2015-08-24T05:15:31.000Z</time>
      </trkpt>
      <trkpt lat="45.22338" lon="5.84429">
        <ele>223.60000610352</ele>
        <time>2015-08-24T05:15:33.000Z</time>
      </trkpt>
      <trkpt lat="45.22344" lon="5.84444">
        <ele>222.60000610352</ele>
        <time>2015-08-24T05:15:35.000Z</time>
      </trkpt>
      <trkpt lat="45.22347" lon="5.84449">
        <ele>222.19999694824</ele>
        <time>2015-08-24T05:15:36.000Z</time>
      </trkpt>
      <trkpt lat="45.22351" lon="5.84455">
        <ele>221.80000305176</ele>
        <time>2015-08-24T05:15:37.000Z</time>
      </trkpt>
      <trkpt lat="45.22363" lon="5.84469">
        <ele>220.60000610352</ele>
        <time>2015-08-24T05:15:41.000Z</time>
      </trkpt>
      <trkpt lat="45.22367" lon="5.84474">
        <ele>220.19999694824</ele>
        <time>2015-08-24T05:15:42.000Z</time>
      </trkpt>
      <trkpt lat="45.22376" lon="5.84482">
        <ele>220</ele>
        <time>2015-08-24T05:15:44.000Z</time>
      </trkpt>
      <trkpt lat="45.22387" lon="5.8449">
        <ele>220</ele>
        <time>2015-08-24T05:15:46.000Z</time>
      </trkpt>
      <trkpt lat="45.22401" lon="5.84505">
        <ele>220.19999694824</ele>
        <time>2015-08-24T05:15:49.000Z</time>
      </trkpt>
      <trkpt lat="45.22413" lon="5.84518">
        <ele>220.39999389648</ele>
        <time>2015-08-24T05:15:52.000Z</time>
      </trkpt>
      <trkpt lat="45.22416" lon="5.84523">
        <ele>220.39999389648</ele>
        <time>2015-08-24T05:15:53.000Z</time>
      </trkpt>
      <trkpt lat="45.22428" lon="5.84542">
        <ele>220.60000610352</ele>
        <time>2015-08-24T05:15:57.000Z</time>
      </trkpt>
      <trkpt lat="45.2243" lon="5.84547">
        <ele>220.60000610352</ele>
        <time>2015-08-24T05:15:58.000Z</time>
      </trkpt>
      <trkpt lat="45.22439" lon="5.8456">
        <ele>221</ele>
        <time>2015-08-24T05:16:01.000Z</time>
      </trkpt>
      <trkpt lat="45.22442" lon="5.84565">
        <ele>221.19999694824</ele>
        <time>2015-08-24T05:16:02.000Z</time>
      </trkpt>
      <trkpt lat="45.22459" lon="5.84585">
        <ele>222.39999389648</ele>
        <time>2015-08-24T05:16:07.000Z</time>
      </trkpt>
      <trkpt lat="45.22464" lon="5.846">
        <ele>223</ele>
        <time>2015-08-24T05:16:11.000Z</time>
      </trkpt>
      <trkpt lat="45.22473" lon="5.84614">
        <ele>223</ele>
        <time>2015-08-24T05:16:15.000Z</time>
      </trkpt>
      <trkpt lat="45.22488" lon="5.84631">
        <ele>222.80000305176</ele>
        <time>2015-08-24T05:16:19.000Z</time>
      </trkpt>
      <trkpt lat="45.22502" lon="5.8465">
        <ele>222.19999694824</ele>
        <time>2015-08-24T05:16:23.000Z</time>
      </trkpt>
      <trkpt lat="45.22518" lon="5.84672">
        <ele>221.39999389648</ele>
        <time>2015-08-24T05:16:27.000Z</time>
      </trkpt>
      <trkpt lat="45.22524" lon="5.84677">
        <ele>221</ele>
        <time>2015-08-24T05:16:28.000Z</time>
      </trkpt>
      <trkpt lat="45.22535" lon="5.84688">
        <ele>220.39999389648</ele>
        <time>2015-08-24T05:16:31.000Z</time>
      </trkpt>
      <trkpt lat="45.22548" lon="5.84704">
        <ele>219.80000305176</ele>
        <time>2015-08-24T05:16:35.000Z</time>
      </trkpt>
      <trkpt lat="45.22557" lon="5.84714">
        <ele>219.80000305176</ele>
        <time>2015-08-24T05:16:37.000Z</time>
      </trkpt>
      <trkpt lat="45.22562" lon="5.8472">
        <ele>219.80000305176</ele>
        <time>2015-08-24T05:16:38.000Z</time>
      </trkpt>
      <trkpt lat="45.22566" lon="5.84726">
        <ele>219.80000305176</ele>
        <time>2015-08-24T05:16:39.000Z</time>
      </trkpt>
      <trkpt lat="45.2258" lon="5.84742">
        <ele>219.39999389648</ele>
        <time>2015-08-24T05:16:42.000Z</time>
      </trkpt>
      <trkpt lat="45.22585" lon="5.84748">
        <ele>219.19999694824</ele>
        <time>2015-08-24T05:16:43.000Z</time>
      </trkpt>
      <trkpt lat="45.22596" lon="5.84765">
        <ele>218.80000305176</ele>
        <time>2015-08-24T05:16:46.000Z</time>
      </trkpt>
      <trkpt lat="45.22601" lon="5.84772">
        <ele>218.80000305176</ele>
        <time>2015-08-24T05:16:47.000Z</time>
      </trkpt>
      <trkpt lat="45.22607" lon="5.84778">
        <ele>218.60000610352</ele>
        <time>2015-08-24T05:16:48.000Z</time>
      </trkpt>
      <trkpt lat="45.22619" lon="5.84795">
        <ele>218.19999694824</ele>
        <time>2015-08-24T05:16:51.000Z</time>
      </trkpt>
      <trkpt lat="45.22633" lon="5.84812">
        <ele>218.19999694824</ele>
        <time>2015-08-24T05:16:54.000Z</time>
      </trkpt>
      <trkpt lat="45.22643" lon="5.84823">
        <ele>218.19999694824</ele>
        <time>2015-08-24T05:16:56.000Z</time>
      </trkpt>
      <trkpt lat="45.22647" lon="5.84828">
        <ele>218.39999389648</ele>
        <time>2015-08-24T05:16:57.000Z</time>
      </trkpt>
      <trkpt lat="45.22661" lon="5.8485">
        <ele>218.80000305176</ele>
        <time>2015-08-24T05:17:01.000Z</time>
      </trkpt>
      <trkpt lat="45.22665" lon="5.84855">
        <ele>219</ele>
        <time>2015-08-24T05:17:02.000Z</time>
      </trkpt>
      <trkpt lat="45.22674" lon="5.84866">
        <ele>219.19999694824</ele>
        <time>2015-08-24T05:17:04.000Z</time>
      </trkpt>
      <trkpt lat="45.22688" lon="5.84882">
        <ele>219.39999389648</ele>
        <time>2015-08-24T05:17:07.000Z</time>
      </trkpt>
      <trkpt lat="45.22692" lon="5.84889">
        <ele>219.39999389648</ele>
        <time>2015-08-24T05:17:08.000Z</time>
      </trkpt>
      <trkpt lat="45.22697" lon="5.84893">
        <ele>219.60000610352</ele>
        <time>2015-08-24T05:17:09.000Z</time>
      </trkpt>
      <trkpt lat="45.22714" lon="5.84915">
        <ele>219.80000305176</ele>
        <time>2015-08-24T05:17:13.000Z</time>
      </trkpt>
      <trkpt lat="45.2273" lon="5.84934">
        <ele>219.80000305176</ele>
        <time>2015-08-24T05:17:17.000Z</time>
      </trkpt>
      <trkpt lat="45.22739" lon="5.84945">
        <ele>219.80000305176</ele>
        <time>2015-08-24T05:17:19.000Z</time>
      </trkpt>
      <trkpt lat="45.22756" lon="5.84967">
        <ele>219.60000610352</ele>
        <time>2015-08-24T05:17:23.000Z</time>
      </trkpt>
      <trkpt lat="45.22764" lon="5.84978">
        <ele>219.80000305176</ele>
        <time>2015-08-24T05:17:25.000Z</time>
      </trkpt>
      <trkpt lat="45.2278" lon="5.84998">
        <ele>220</ele>
        <time>2015-08-24T05:17:29.000Z</time>
      </trkpt>
      <trkpt lat="45.22785" lon="5.85003">
        <ele>220</ele>
        <time>2015-08-24T05:17:30.000Z</time>
      </trkpt>
      <trkpt lat="45.22802" lon="5.85027">
        <ele>220.80000305176</ele>
        <time>2015-08-24T05:17:34.000Z</time>
      </trkpt>
      <trkpt lat="45.22807" lon="5.85034">
        <ele>221.19999694824</ele>
        <time>2015-08-24T05:17:35.000Z</time>
      </trkpt>
      <trkpt lat="45.2282" lon="5.85053">
        <ele>222.39999389648</ele>
        <time>2015-08-24T05:17:38.000Z</time>
      </trkpt>
      <trkpt lat="45.22828" lon="5.85061">
        <ele>222.80000305176</ele>
        <time>2015-08-24T05:17:40.000Z</time>
      </trkpt>
      <trkpt lat="45.22842" lon="5.85076">
        <ele>222.80000305176</ele>
        <time>2015-08-24T05:17:44.000Z</time>
      </trkpt>
      <trkpt lat="45.22859" lon="5.85093">
        <ele>223</ele>
        <time>2015-08-24T05:17:48.000Z</time>
      </trkpt>
      <trkpt lat="45.22863" lon="5.85098">
        <ele>223.19999694824</ele>
        <time>2015-08-24T05:17:49.000Z</time>
      </trkpt>
      <trkpt lat="45.22878" lon="5.85115">
        <ele>223.19999694824</ele>
        <time>2015-08-24T05:17:52.000Z</time>
      </trkpt>
      <trkpt lat="45.22887" lon="5.85127">
        <ele>223.39999389648</ele>
        <time>2015-08-24T05:17:54.000Z</time>
      </trkpt>
      <trkpt lat="45.2289" lon="5.85131">
        <ele>223.39999389648</ele>
        <time>2015-08-24T05:17:55.000Z</time>
      </trkpt>
      <trkpt lat="45.22903" lon="5.85146">
        <ele>223.60000610352</ele>
        <time>2015-08-24T05:17:58.000Z</time>
      </trkpt>
      <trkpt lat="45.22908" lon="5.85152">
        <ele>223.39999389648</ele>
        <time>2015-08-24T05:17:59.000Z</time>
      </trkpt>
      <trkpt lat="45.22924" lon="5.8517">
        <ele>223.19999694824</ele>
        <time>2015-08-24T05:18:03.000Z</time>
      </trkpt>
      <trkpt lat="45.22926" lon="5.85174">
        <ele>223</ele>
        <time>2015-08-24T05:18:04.000Z</time>
      </trkpt>
      <trkpt lat="45.22938" lon="5.85185">
        <ele>223</ele>
        <time>2015-08-24T05:18:07.000Z</time>
      </trkpt>
      <trkpt lat="45.22942" lon="5.85189">
        <ele>223</ele>
        <time>2015-08-24T05:18:08.000Z</time>
      </trkpt>
      <trkpt lat="45.22947" lon="5.85198">
        <ele>222.60000610352</ele>
        <time>2015-08-24T05:18:09.000Z</time>
      </trkpt>
      <trkpt lat="45.22963" lon="5.8522">
        <ele>222.19999694824</ele>
        <time>2015-08-24T05:18:13.000Z</time>
      </trkpt>
      <trkpt lat="45.22976" lon="5.85237">
        <ele>221.80000305176</ele>
        <time>2015-08-24T05:18:16.000Z</time>
      </trkpt>
      <trkpt lat="45.22984" lon="5.85248">
        <ele>221.80000305176</ele>
        <time>2015-08-24T05:18:18.000Z</time>
      </trkpt>
      <trkpt lat="45.23001" lon="5.85265">
        <ele>221.60000610352</ele>
        <time>2015-08-24T05:18:22.000Z</time>
      </trkpt>
      <trkpt lat="45.23008" lon="5.85274">
        <ele>221.39999389648</ele>
        <time>2015-08-24T05:18:24.000Z</time>
      </trkpt>
      <trkpt lat="45.23022" lon="5.85293">
        <ele>221.19999694824</ele>
        <time>2015-08-24T05:18:28.000Z</time>
      </trkpt>
      <trkpt lat="45.23037" lon="5.8531">
        <ele>221.19999694824</ele>
        <time>2015-08-24T05:18:32.000Z</time>
      </trkpt>
      <trkpt lat="45.2304" lon="5.85315">
        <ele>221.19999694824</ele>
        <time>2015-08-24T05:18:33.000Z</time>
      </trkpt>
      <trkpt lat="45.23053" lon="5.8533">
        <ele>221.19999694824</ele>
        <time>2015-08-24T05:18:37.000Z</time>
      </trkpt>
      <trkpt lat="45.23062" lon="5.8534">
        <ele>221.39999389648</ele>
        <time>2015-08-24T05:18:40.000Z</time>
      </trkpt>
      <trkpt lat="45.23066" lon="5.85339">
        <ele>221.39999389648</ele>
        <time>2015-08-24T05:18:41.000Z</time>
      </trkpt>
      <trkpt lat="45.23077" lon="5.85337">
        <ele>221.39999389648</ele>
        <time>2015-08-24T05:18:44.000Z</time>
      </trkpt>
      <trkpt lat="45.2308" lon="5.85342">
        <ele>221.39999389648</ele>
        <time>2015-08-24T05:18:45.000Z</time>
      </trkpt>
      <trkpt lat="45.23081" lon="5.8535">
        <ele>221.60000610352</ele>
        <time>2015-08-24T05:18:47.000Z</time>
      </trkpt>
      <trkpt lat="45.23075" lon="5.85367">
        <ele>221.80000305176</ele>
        <time>2015-08-24T05:18:51.000Z</time>
      </trkpt>
      <trkpt lat="45.23063" lon="5.85387">
        <ele>222</ele>
        <time>2015-08-24T05:18:56.000Z</time>
      </trkpt>
      <trkpt lat="45.23059" lon="5.85396">
        <ele>222.19999694824</ele>
        <time>2015-08-24T05:18:58.000Z</time>
      </trkpt>
      <trkpt lat="45.23046" lon="5.85419">
        <ele>222.39999389648</ele>
        <time>2015-08-24T05:19:03.000Z</time>
      </trkpt>
      <trkpt lat="45.23034" lon="5.85439">
        <ele>222.60000610352</ele>
        <time>2015-08-24T05:19:07.000Z</time>
      </trkpt>
      <trkpt lat="45.2302" lon="5.85463">
        <ele>223</ele>
        <time>2015-08-24T05:19:11.000Z</time>
      </trkpt>
      <trkpt lat="45.2301" lon="5.85482">
        <ele>223.60000610352</ele>
        <time>2015-08-24T05:19:14.000Z</time>
      </trkpt>
      <trkpt lat="45.23001" lon="5.85498">
        <ele>224.19999694824</ele>
        <time>2015-08-24T05:19:17.000Z</time>
      </trkpt>
      <trkpt lat="45.22997" lon="5.85511">
        <ele>224.39999389648</ele>
        <time>2015-08-24T05:19:19.000Z</time>
      </trkpt>
      <trkpt lat="45.22993" lon="5.85543">
        <ele>224.39999389648</ele>
        <time>2015-08-24T05:19:23.000Z</time>
      </trkpt>
      <trkpt lat="45.22994" lon="5.8556">
        <ele>224.19999694824</ele>
        <time>2015-08-24T05:19:25.000Z</time>
      </trkpt>
      <trkpt lat="45.23" lon="5.85578">
        <ele>224</ele>
        <time>2015-08-24T05:19:28.000Z</time>
      </trkpt>
      <trkpt lat="45.23006" lon="5.85588">
        <ele>223.80000305176</ele>
        <time>2015-08-24T05:19:30.000Z</time>
      </trkpt>
      <trkpt lat="45.23019" lon="5.85605">
        <ele>223.60000610352</ele>
        <time>2015-08-24T05:19:34.000Z</time>
      </trkpt>
      <trkpt lat="45.23035" lon="5.8562">
        <ele>223.39999389648</ele>
        <time>2015-08-24T05:19:38.000Z</time>
      </trkpt>
      <trkpt lat="45.23043" lon="5.85627">
        <ele>223.19999694824</ele>
        <time>2015-08-24T05:19:40.000Z</time>
      </trkpt>
      <trkpt lat="45.23046" lon="5.85631">
        <ele>223.19999694824</ele>
        <time>2015-08-24T05:19:41.000Z</time>
      </trkpt>
      <trkpt lat="45.23052" lon="5.85646">
        <ele>222.80000305176</ele>
        <time>2015-08-24T05:19:44.000Z</time>
      </trkpt>
      <trkpt lat="45.23054" lon="5.85651">
        <ele>222.80000305176</ele>
        <time>2015-08-24T05:19:45.000Z</time>
      </trkpt>
      <trkpt lat="45.23056" lon="5.8566">
        <ele>222.39999389648</ele>
        <time>2015-08-24T05:19:48.000Z</time>
      </trkpt>
      <trkpt lat="45.23056" lon="5.85662">
        <ele>222.39999389648</ele>
        <time>2015-08-24T05:19:49.000Z</time>
      </trkpt>
      <trkpt lat="45.23056" lon="5.85685">
        <ele>222</ele>
        <time>2015-08-24T05:19:53.000Z</time>
      </trkpt>
      <trkpt lat="45.23058" lon="5.85711">
        <ele>221.19999694824</ele>
        <time>2015-08-24T05:19:56.000Z</time>
      </trkpt>
      <trkpt lat="45.23059" lon="5.85728">
        <ele>221</ele>
        <time>2015-08-24T05:19:58.000Z</time>
      </trkpt>
      <trkpt lat="45.2306" lon="5.85761">
        <ele>221.39999389648</ele>
        <time>2015-08-24T05:20:02.000Z</time>
      </trkpt>
      <trkpt lat="45.23059" lon="5.85779">
        <ele>221.60000610352</ele>
        <time>2015-08-24T05:20:05.000Z</time>
      </trkpt>
      <trkpt lat="45.23058" lon="5.85784">
        <ele>221.80000305176</ele>
        <time>2015-08-24T05:20:06.000Z</time>
      </trkpt>
      <trkpt lat="45.23059" lon="5.85801">
        <ele>222</ele>
        <time>2015-08-24T05:20:09.000Z</time>
      </trkpt>
      <trkpt lat="45.23061" lon="5.85807">
        <ele>222</ele>
        <time>2015-08-24T05:20:10.000Z</time>
      </trkpt>
      <trkpt lat="45.23064" lon="5.85813">
        <ele>222.39999389648</ele>
        <time>2015-08-24T05:20:11.000Z</time>
      </trkpt>
      <trkpt lat="45.2307" lon="5.85825">
        <ele>223.39999389648</ele>
        <time>2015-08-24T05:20:13.000Z</time>
      </trkpt>
      <trkpt lat="45.23074" lon="5.85837">
        <ele>224.19999694824</ele>
        <time>2015-08-24T05:20:15.000Z</time>
      </trkpt>
      <trkpt lat="45.23076" lon="5.85843">
        <ele>224.39999389648</ele>
        <time>2015-08-24T05:20:16.000Z</time>
      </trkpt>
      <trkpt lat="45.23076" lon="5.85866">
        <ele>225.19999694824</ele>
        <time>2015-08-24T05:20:19.000Z</time>
      </trkpt>
      <trkpt lat="45.23072" lon="5.85894">
        <ele>225.80000305176</ele>
        <time>2015-08-24T05:20:23.000Z</time>
      </trkpt>
      <trkpt lat="45.23073" lon="5.85901">
        <ele>225.60000610352</ele>
        <time>2015-08-24T05:20:24.000Z</time>
      </trkpt>
      <trkpt lat="45.23079" lon="5.85921">
        <ele>225</ele>
        <time>2015-08-24T05:20:27.000Z</time>
      </trkpt>
      <trkpt lat="45.23081" lon="5.85928">
        <ele>225</ele>
        <time>2015-08-24T05:20:28.000Z</time>
      </trkpt>
      <trkpt lat="45.23089" lon="5.85954">
        <ele>225.19999694824</ele>
        <time>2015-08-24T05:20:32.000Z</time>
      </trkpt>
      <trkpt lat="45.23097" lon="5.85972">
        <ele>225.39999389648</ele>
        <time>2015-08-24T05:20:35.000Z</time>
      </trkpt>
      <trkpt lat="45.23109" lon="5.85998">
        <ele>224.60000610352</ele>
        <time>2015-08-24T05:20:39.000Z</time>
      </trkpt>
      <trkpt lat="45.2312" lon="5.86023">
        <ele>224</ele>
        <time>2015-08-24T05:20:43.000Z</time>
      </trkpt>
      <trkpt lat="45.2313" lon="5.8605">
        <ele>223.19999694824</ele>
        <time>2015-08-24T05:20:47.000Z</time>
      </trkpt>
      <trkpt lat="45.23132" lon="5.86064">
        <ele>222.80000305176</ele>
        <time>2015-08-24T05:20:49.000Z</time>
      </trkpt>
      <trkpt lat="45.23132" lon="5.86071">
        <ele>222.80000305176</ele>
        <time>2015-08-24T05:20:50.000Z</time>
      </trkpt>
      <trkpt lat="45.23134" lon="5.861">
        <ele>222.39999389648</ele>
        <time>2015-08-24T05:20:54.000Z</time>
      </trkpt>
      <trkpt lat="45.23137" lon="5.86114">
        <ele>222.19999694824</ele>
        <time>2015-08-24T05:20:56.000Z</time>
      </trkpt>
      <trkpt lat="45.23139" lon="5.86121">
        <ele>222</ele>
        <time>2015-08-24T05:20:57.000Z</time>
      </trkpt>
      <trkpt lat="45.23148" lon="5.8614">
        <ele>221.60000610352</ele>
        <time>2015-08-24T05:21:00.000Z</time>
      </trkpt>
      <trkpt lat="45.23153" lon="5.86153">
        <ele>221.80000305176</ele>
        <time>2015-08-24T05:21:02.000Z</time>
      </trkpt>
      <trkpt lat="45.23155" lon="5.86164">
        <ele>222</ele>
        <time>2015-08-24T05:21:04.000Z</time>
      </trkpt>
      <trkpt lat="45.23152" lon="5.86177">
        <ele>222</ele>
        <time>2015-08-24T05:21:06.000Z</time>
      </trkpt>
      <trkpt lat="45.23162" lon="5.86194">
        <ele>222</ele>
        <time>2015-08-24T05:21:09.000Z</time>
      </trkpt>
      <trkpt lat="45.2317" lon="5.86207">
        <ele>222</ele>
        <time>2015-08-24T05:21:11.000Z</time>
      </trkpt>
      <trkpt lat="45.23182" lon="5.86222">
        <ele>222</ele>
        <time>2015-08-24T05:21:14.000Z</time>
      </trkpt>
      <trkpt lat="45.23186" lon="5.86227">
        <ele>222</ele>
        <time>2015-08-24T05:21:15.000Z</time>
      </trkpt>
      <trkpt lat="45.23202" lon="5.86247">
        <ele>222.19999694824</ele>
        <time>2015-08-24T05:21:19.000Z</time>
      </trkpt>
      <trkpt lat="45.23214" lon="5.8626">
        <ele>222.60000610352</ele>
        <time>2015-08-24T05:21:22.000Z</time>
      </trkpt>
      <trkpt lat="45.23229" lon="5.86276">
        <ele>223.80000305176</ele>
        <time>2015-08-24T05:21:26.000Z</time>
      </trkpt>
      <trkpt lat="45.23236" lon="5.86285">
        <ele>224.39999389648</ele>
        <time>2015-08-24T05:21:29.000Z</time>
      </trkpt>
      <trkpt lat="45.2324" lon="5.86289">
        <ele>224.80000305176</ele>
        <time>2015-08-24T05:21:31.000Z</time>
      </trkpt>
      <trkpt lat="45.23246" lon="5.86293">
        <ele>225.19999694824</ele>
        <time>2015-08-24T05:21:33.000Z</time>
      </trkpt>
      <trkpt lat="45.23254" lon="5.86311">
        <ele>225.80000305176</ele>
        <time>2015-08-24T05:21:39.000Z</time>
      </trkpt>
      <trkpt lat="45.23257" lon="5.86313">
        <ele>226</ele>
        <time>2015-08-24T05:21:40.000Z</time>
      </trkpt>
      <trkpt lat="45.23264" lon="5.86312">
        <ele>226.60000610352</ele>
        <time>2015-08-24T05:21:42.000Z</time>
      </trkpt>
      <trkpt lat="45.23279" lon="5.86321">
        <ele>227.39999389648</ele>
        <time>2015-08-24T05:21:47.000Z</time>
      </trkpt>
      <trkpt lat="45.23282" lon="5.86345">
        <ele>227</ele>
        <time>2015-08-24T05:21:51.000Z</time>
      </trkpt>
      <trkpt lat="45.2328" lon="5.86372">
        <ele>226.19999694824</ele>
        <time>2015-08-24T05:21:55.000Z</time>
      </trkpt>
      <trkpt lat="45.23276" lon="5.86404">
        <ele>224.80000305176</ele>
        <time>2015-08-24T05:21:59.000Z</time>
      </trkpt>
      <trkpt lat="45.23277" lon="5.86428">
        <ele>223</ele>
        <time>2015-08-24T05:22:02.000Z</time>
      </trkpt>
      <trkpt lat="45.2328" lon="5.8645">
        <ele>221.80000305176</ele>
        <time>2015-08-24T05:22:05.000Z</time>
      </trkpt>
      <trkpt lat="45.23285" lon="5.86479">
        <ele>221</ele>
        <time>2015-08-24T05:22:09.000Z</time>
      </trkpt>
      <trkpt lat="45.2329" lon="5.86506">
        <ele>221.39999389648</ele>
        <time>2015-08-24T05:22:13.000Z</time>
      </trkpt>
      <trkpt lat="45.23296" lon="5.86534">
        <ele>221.80000305176</ele>
        <time>2015-08-24T05:22:17.000Z</time>
      </trkpt>
      <trkpt lat="45.23303" lon="5.8656">
        <ele>222</ele>
        <time>2015-08-24T05:22:21.000Z</time>
      </trkpt>
      <trkpt lat="45.23304" lon="5.86568">
        <ele>222</ele>
        <time>2015-08-24T05:22:22.000Z</time>
      </trkpt>
      <trkpt lat="45.23309" lon="5.86596">
        <ele>222</ele>
        <time>2015-08-24T05:22:26.000Z</time>
      </trkpt>
      <trkpt lat="45.23315" lon="5.86626">
        <ele>222</ele>
        <time>2015-08-24T05:22:30.000Z</time>
      </trkpt>
      <trkpt lat="45.2332" lon="5.86651">
        <ele>222.19999694824</ele>
        <time>2015-08-24T05:22:34.000Z</time>
      </trkpt>
      <trkpt lat="45.23321" lon="5.86657">
        <ele>222.19999694824</ele>
        <time>2015-08-24T05:22:35.000Z</time>
      </trkpt>
      <trkpt lat="45.23323" lon="5.86667">
        <ele>222.39999389648</ele>
        <time>2015-08-24T05:22:37.000Z</time>
      </trkpt>
      <trkpt lat="45.23323" lon="5.86673">
        <ele>222.39999389648</ele>
        <time>2015-08-24T05:22:38.000Z</time>
      </trkpt>
      <trkpt lat="45.2333" lon="5.86684">
        <ele>222.39999389648</ele>
        <time>2015-08-24T05:22:41.000Z</time>
      </trkpt>
      <trkpt lat="45.23338" lon="5.86689">
        <ele>222.60000610352</ele>
        <time>2015-08-24T05:22:44.000Z</time>
      </trkpt>
      <trkpt lat="45.2334" lon="5.86691">
        <ele>222.60000610352</ele>
        <time>2015-08-24T05:22:45.000Z</time>
      </trkpt>
      <trkpt lat="45.23342" lon="5.86696">
        <ele>222.60000610352</ele>
        <time>2015-08-24T05:22:46.000Z</time>
      </trkpt>
      <trkpt lat="45.23341" lon="5.86705">
        <ele>222.60000610352</ele>
        <time>2015-08-24T05:22:48.000Z</time>
      </trkpt>
      <trkpt lat="45.23331" lon="5.86716">
        <ele>222.39999389648</ele>
        <time>2015-08-24T05:22:51.000Z</time>
      </trkpt>
      <trkpt lat="45.23325" lon="5.86731">
        <ele>222.39999389648</ele>
        <time>2015-08-24T05:22:53.000Z</time>
      </trkpt>
      <trkpt lat="45.23318" lon="5.86744">
        <ele>222.19999694824</ele>
        <time>2015-08-24T05:22:55.000Z</time>
      </trkpt>
      <trkpt lat="45.23311" lon="5.86755">
        <ele>222.19999694824</ele>
        <time>2015-08-24T05:22:57.000Z</time>
      </trkpt>
      <trkpt lat="45.23299" lon="5.86775">
        <ele>222</ele>
        <time>2015-08-24T05:23:01.000Z</time>
      </trkpt>
      <trkpt lat="45.23287" lon="5.868">
        <ele>222.19999694824</ele>
        <time>2015-08-24T05:23:06.000Z</time>
      </trkpt>
      <trkpt lat="45.23277" lon="5.86819">
        <ele>222.39999389648</ele>
        <time>2015-08-24T05:23:10.000Z</time>
      </trkpt>
      <trkpt lat="45.23267" lon="5.86837">
        <ele>222.80000305176</ele>
        <time>2015-08-24T05:23:14.000Z</time>
      </trkpt>
      <trkpt lat="45.23258" lon="5.86849">
        <ele>223</ele>
        <time>2015-08-24T05:23:17.000Z</time>
      </trkpt>
      <trkpt lat="45.23253" lon="5.86857">
        <ele>223.19999694824</ele>
        <time>2015-08-24T05:23:19.000Z</time>
      </trkpt>
      <trkpt lat="45.23242" lon="5.86876">
        <ele>223.39999389648</ele>
        <time>2015-08-24T05:23:23.000Z</time>
      </trkpt>
      <trkpt lat="45.23229" lon="5.869">
        <ele>224</ele>
        <time>2015-08-24T05:23:28.000Z</time>
      </trkpt>
      <trkpt lat="45.23222" lon="5.86913">
        <ele>224.19999694824</ele>
        <time>2015-08-24T05:23:31.000Z</time>
      </trkpt>
      <trkpt lat="45.23216" lon="5.86917">
        <ele>224</ele>
        <time>2015-08-24T05:23:33.000Z</time>
      </trkpt>
      <trkpt lat="45.23203" lon="5.86933">
        <ele>223.60000610352</ele>
        <time>2015-08-24T05:23:37.000Z</time>
      </trkpt>
      <trkpt lat="45.2319" lon="5.86959">
        <ele>223</ele>
        <time>2015-08-24T05:23:41.000Z</time>
      </trkpt>
      <trkpt lat="45.23183" lon="5.86973">
        <ele>222.60000610352</ele>
        <time>2015-08-24T05:23:43.000Z</time>
      </trkpt>
      <trkpt lat="45.23169" lon="5.86997">
        <ele>221.60000610352</ele>
        <time>2015-08-24T05:23:47.000Z</time>
      </trkpt>
      <trkpt lat="45.23161" lon="5.87014">
        <ele>221.19999694824</ele>
        <time>2015-08-24T05:23:50.000Z</time>
      </trkpt>
      <trkpt lat="45.23148" lon="5.87039">
        <ele>220.60000610352</ele>
        <time>2015-08-24T05:23:54.000Z</time>
      </trkpt>
      <trkpt lat="45.23137" lon="5.87064">
        <ele>220.19999694824</ele>
        <time>2015-08-24T05:23:58.000Z</time>
      </trkpt>
      <trkpt lat="45.23132" lon="5.87094">
        <ele>220.39999389648</ele>
        <time>2015-08-24T05:24:02.000Z</time>
      </trkpt>
      <trkpt lat="45.23131" lon="5.87106">
        <ele>220.60000610352</ele>
        <time>2015-08-24T05:24:04.000Z</time>
      </trkpt>
      <trkpt lat="45.23136" lon="5.87115">
        <ele>220.80000305176</ele>
        <time>2015-08-24T05:24:06.000Z</time>
      </trkpt>
      <trkpt lat="45.23143" lon="5.8712">
        <ele>221</ele>
        <time>2015-08-24T05:24:08.000Z</time>
      </trkpt>
      <trkpt lat="45.23154" lon="5.8712">
        <ele>221</ele>
        <time>2015-08-24T05:24:10.000Z</time>
      </trkpt>
      <trkpt lat="45.23166" lon="5.87122">
        <ele>221.19999694824</ele>
        <time>2015-08-24T05:24:12.000Z</time>
      </trkpt>
      <trkpt lat="45.23176" lon="5.87126">
        <ele>221.39999389648</ele>
        <time>2015-08-24T05:24:14.000Z</time>
      </trkpt>
      <trkpt lat="45.23198" lon="5.87136">
        <ele>221.80000305176</ele>
        <time>2015-08-24T05:24:18.000Z</time>
      </trkpt>
      <trkpt lat="45.23217" lon="5.87148">
        <ele>222.19999694824</ele>
        <time>2015-08-24T05:24:22.000Z</time>
      </trkpt>
      <trkpt lat="45.23224" lon="5.8715">
        <ele>222.19999694824</ele>
        <time>2015-08-24T05:24:23.000Z</time>
      </trkpt>
      <trkpt lat="45.23246" lon="5.87159">
        <ele>222.80000305176</ele>
        <time>2015-08-24T05:24:27.000Z</time>
      </trkpt>
      <trkpt lat="45.23267" lon="5.87169">
        <ele>223.39999389648</ele>
        <time>2015-08-24T05:24:31.000Z</time>
      </trkpt>
      <trkpt lat="45.23287" lon="5.87181">
        <ele>223.80000305176</ele>
        <time>2015-08-24T05:24:35.000Z</time>
      </trkpt>
      <trkpt lat="45.23292" lon="5.87183">
        <ele>224</ele>
        <time>2015-08-24T05:24:36.000Z</time>
      </trkpt>
      <trkpt lat="45.23311" lon="5.87194">
        <ele>223.80000305176</ele>
        <time>2015-08-24T05:24:40.000Z</time>
      </trkpt>
      <trkpt lat="45.23331" lon="5.87205">
        <ele>223.60000610352</ele>
        <time>2015-08-24T05:24:44.000Z</time>
      </trkpt>
      <trkpt lat="45.23336" lon="5.87208">
        <ele>223.60000610352</ele>
        <time>2015-08-24T05:24:45.000Z</time>
      </trkpt>
      <trkpt lat="45.23353" lon="5.87218">
        <ele>223.39999389648</ele>
        <time>2015-08-24T05:24:49.000Z</time>
      </trkpt>
      <trkpt lat="45.23363" lon="5.87224">
        <ele>223.19999694824</ele>
        <time>2015-08-24T05:24:52.000Z</time>
      </trkpt>
      <trkpt lat="45.23381" lon="5.87234">
        <ele>223.19999694824</ele>
        <time>2015-08-24T05:24:57.000Z</time>
      </trkpt>
      <trkpt lat="45.23388" lon="5.8724">
        <ele>223.39999389648</ele>
        <time>2015-08-24T05:24:59.000Z</time>
      </trkpt>
      <trkpt lat="45.2339" lon="5.87245">
        <ele>223.39999389648</ele>
        <time>2015-08-24T05:25:00.000Z</time>
      </trkpt>
      <trkpt lat="45.23391" lon="5.87271">
        <ele>224</ele>
        <time>2015-08-24T05:25:04.000Z</time>
      </trkpt>
      <trkpt lat="45.23389" lon="5.87302">
        <ele>224.80000305176</ele>
        <time>2015-08-24T05:25:08.000Z</time>
      </trkpt>
      <trkpt lat="45.23389" lon="5.87317">
        <ele>225.19999694824</ele>
        <time>2015-08-24T05:25:10.000Z</time>
      </trkpt>
      <trkpt lat="45.23391" lon="5.87342">
        <ele>225.60000610352</ele>
        <time>2015-08-24T05:25:13.000Z</time>
      </trkpt>
      <trkpt lat="45.23389" lon="5.87358">
        <ele>225.80000305176</ele>
        <time>2015-08-24T05:25:15.000Z</time>
      </trkpt>
      <trkpt lat="45.23387" lon="5.87384">
        <ele>226</ele>
        <time>2015-08-24T05:25:18.000Z</time>
      </trkpt>
      <trkpt lat="45.23386" lon="5.87416">
        <ele>226.60000610352</ele>
        <time>2015-08-24T05:25:22.000Z</time>
      </trkpt>
      <trkpt lat="45.23386" lon="5.87425">
        <ele>226.60000610352</ele>
        <time>2015-08-24T05:25:23.000Z</time>
      </trkpt>
      <trkpt lat="45.23385" lon="5.87452">
        <ele>227</ele>
        <time>2015-08-24T05:25:26.000Z</time>
      </trkpt>
      <trkpt lat="45.23383" lon="5.87483">
        <ele>227</ele>
        <time>2015-08-24T05:25:30.000Z</time>
      </trkpt>
      <trkpt lat="45.23383" lon="5.87499">
        <ele>226.80000305176</ele>
        <time>2015-08-24T05:25:32.000Z</time>
      </trkpt>
      <trkpt lat="45.23384" lon="5.87525">
        <ele>226.60000610352</ele>
        <time>2015-08-24T05:25:35.000Z</time>
      </trkpt>
      <trkpt lat="45.23383" lon="5.8755">
        <ele>226.19999694824</ele>
        <time>2015-08-24T05:25:38.000Z</time>
      </trkpt>
      <trkpt lat="45.23385" lon="5.87582">
        <ele>226.39999389648</ele>
        <time>2015-08-24T05:25:42.000Z</time>
      </trkpt>
      <trkpt lat="45.23389" lon="5.87604">
        <ele>226.80000305176</ele>
        <time>2015-08-24T05:25:45.000Z</time>
      </trkpt>
      <trkpt lat="45.23394" lon="5.87634">
        <ele>227.19999694824</ele>
        <time>2015-08-24T05:25:49.000Z</time>
      </trkpt>
      <trkpt lat="45.23398" lon="5.87665">
        <ele>227.19999694824</ele>
        <time>2015-08-24T05:25:53.000Z</time>
      </trkpt>
      <trkpt lat="45.23402" lon="5.87696">
        <ele>227.19999694824</ele>
        <time>2015-08-24T05:25:57.000Z</time>
      </trkpt>
      <trkpt lat="45.23407" lon="5.87725">
        <ele>227.39999389648</ele>
        <time>2015-08-24T05:26:01.000Z</time>
      </trkpt>
      <trkpt lat="45.2341" lon="5.87739">
        <ele>227.39999389648</ele>
        <time>2015-08-24T05:26:03.000Z</time>
      </trkpt>
      <trkpt lat="45.23414" lon="5.87769">
        <ele>227.39999389648</ele>
        <time>2015-08-24T05:26:07.000Z</time>
      </trkpt>
      <trkpt lat="45.23417" lon="5.87783">
        <ele>227.39999389648</ele>
        <time>2015-08-24T05:26:09.000Z</time>
      </trkpt>
      <trkpt lat="45.23424" lon="5.87811">
        <ele>227.39999389648</ele>
        <time>2015-08-24T05:26:13.000Z</time>
      </trkpt>
      <trkpt lat="45.23428" lon="5.87826">
        <ele>226.80000305176</ele>
        <time>2015-08-24T05:26:15.000Z</time>
      </trkpt>
      <trkpt lat="45.23436" lon="5.87854">
        <ele>226</ele>
        <time>2015-08-24T05:26:19.000Z</time>
      </trkpt>
      <trkpt lat="45.23444" lon="5.87886">
        <ele>225.39999389648</ele>
        <time>2015-08-24T05:26:23.000Z</time>
      </trkpt>
      <trkpt lat="45.23448" lon="5.87909">
        <ele>225.19999694824</ele>
        <time>2015-08-24T05:26:26.000Z</time>
      </trkpt>
      <trkpt lat="45.23451" lon="5.87917">
        <ele>225</ele>
        <time>2015-08-24T05:26:27.000Z</time>
      </trkpt>
      <trkpt lat="45.23459" lon="5.8794">
        <ele>224.39999389648</ele>
        <time>2015-08-24T05:26:30.000Z</time>
      </trkpt>
      <trkpt lat="45.23464" lon="5.87955">
        <ele>224.19999694824</ele>
        <time>2015-08-24T05:26:32.000Z</time>
      </trkpt>
      <trkpt lat="45.23474" lon="5.87983">
        <ele>224.19999694824</ele>
        <time>2015-08-24T05:26:36.000Z</time>
      </trkpt>
      <trkpt lat="45.23483" lon="5.8801">
        <ele>225</ele>
        <time>2015-08-24T05:26:40.000Z</time>
      </trkpt>
      <trkpt lat="45.23486" lon="5.88017">
        <ele>225.39999389648</ele>
        <time>2015-08-24T05:26:41.000Z</time>
      </trkpt>
      <trkpt lat="45.23494" lon="5.88047">
        <ele>226.19999694824</ele>
        <time>2015-08-24T05:26:45.000Z</time>
      </trkpt>
      <trkpt lat="45.23502" lon="5.88073">
        <ele>226.80000305176</ele>
        <time>2015-08-24T05:26:49.000Z</time>
      </trkpt>
      <trkpt lat="45.23504" lon="5.8808">
        <ele>226.80000305176</ele>
        <time>2015-08-24T05:26:50.000Z</time>
      </trkpt>
      <trkpt lat="45.23509" lon="5.8811">
        <ele>227</ele>
        <time>2015-08-24T05:26:54.000Z</time>
      </trkpt>
      <trkpt lat="45.23506" lon="5.88124">
        <ele>227.19999694824</ele>
        <time>2015-08-24T05:26:56.000Z</time>
      </trkpt>
      <trkpt lat="45.23496" lon="5.88145">
        <ele>227.60000610352</ele>
        <time>2015-08-24T05:27:00.000Z</time>
      </trkpt>
      <trkpt lat="45.23486" lon="5.88156">
        <ele>228</ele>
        <time>2015-08-24T05:27:03.000Z</time>
      </trkpt>
      <trkpt lat="45.2348" lon="5.88164">
        <ele>228.19999694824</ele>
        <time>2015-08-24T05:27:05.000Z</time>
      </trkpt>
      <trkpt lat="45.23464" lon="5.88183">
        <ele>229.60000610352</ele>
        <time>2015-08-24T05:27:10.000Z</time>
      </trkpt>
      <trkpt lat="45.23461" lon="5.88187">
        <ele>229.80000305176</ele>
        <time>2015-08-24T05:27:11.000Z</time>
      </trkpt>
      <trkpt lat="45.23442" lon="5.88204">
        <ele>230.60000610352</ele>
        <time>2015-08-24T05:27:16.000Z</time>
      </trkpt>
      <trkpt lat="45.23439" lon="5.88209">
        <ele>230.80000305176</ele>
        <time>2015-08-24T05:27:17.000Z</time>
      </trkpt>
      <trkpt lat="45.23436" lon="5.88213">
        <ele>231.19999694824</ele>
        <time>2015-08-24T05:27:18.000Z</time>
      </trkpt>
      <trkpt lat="45.23423" lon="5.88231">
        <ele>232.19999694824</ele>
        <time>2015-08-24T05:27:23.000Z</time>
      </trkpt>
      <trkpt lat="45.23417" lon="5.88237">
        <ele>232.60000610352</ele>
        <time>2015-08-24T05:27:25.000Z</time>
      </trkpt>
      <trkpt lat="45.23411" lon="5.88246">
        <ele>233</ele>
        <time>2015-08-24T05:27:30.000Z</time>
      </trkpt>
      <trkpt lat="45.23407" lon="5.8825">
        <ele>233.19999694824</ele>
        <time>2015-08-24T05:27:34.000Z</time>
      </trkpt>
      <trkpt lat="45.23407" lon="5.8825">
        <ele>233.19999694824</ele>
        <time>2015-08-24T05:27:35.000Z</time>
      </trkpt>
      <trkpt lat="45.23397" lon="5.88264">
        <ele>234.19999694824</ele>
        <time>2015-08-24T05:27:58.000Z</time>
      </trkpt>
      <trkpt lat="45.23397" lon="5.88266">
        <ele>234.39999389648</ele>
        <time>2015-08-24T05:27:59.000Z</time>
      </trkpt>
      <trkpt lat="45.23398" lon="5.8828">
        <ele>235</ele>
        <time>2015-08-24T05:28:02.000Z</time>
      </trkpt>
      <trkpt lat="45.2341" lon="5.88286">
        <ele>234.80000305176</ele>
        <time>2015-08-24T05:28:05.000Z</time>
      </trkpt>
      <trkpt lat="45.23417" lon="5.8829">
        <ele>234.80000305176</ele>
        <time>2015-08-24T05:28:07.000Z</time>
      </trkpt>
      <trkpt lat="45.23429" lon="5.88299">
        <ele>234.80000305176</ele>
        <time>2015-08-24T05:28:11.000Z</time>
      </trkpt>
      <trkpt lat="45.23447" lon="5.88311">
        <ele>234.80000305176</ele>
        <time>2015-08-24T05:28:16.000Z</time>
      </trkpt>
      <trkpt lat="45.23451" lon="5.88312">
        <ele>234.80000305176</ele>
        <time>2015-08-24T05:28:17.000Z</time>
      </trkpt>
      <trkpt lat="45.23465" lon="5.8832">
        <ele>234.60000610352</ele>
        <time>2015-08-24T05:28:21.000Z</time>
      </trkpt>
      <trkpt lat="45.23474" lon="5.88333">
        <ele>235</ele>
        <time>2015-08-24T05:28:24.000Z</time>
      </trkpt>
      <trkpt lat="45.23482" lon="5.88338">
        <ele>235</ele>
        <time>2015-08-24T05:28:26.000Z</time>
      </trkpt>
      <trkpt lat="45.23497" lon="5.88359">
        <ele>235.60000610352</ele>
        <time>2015-08-24T05:28:30.000Z</time>
      </trkpt>
      <trkpt lat="45.23501" lon="5.88363">
        <ele>235.60000610352</ele>
        <time>2015-08-24T05:28:31.000Z</time>
      </trkpt>
      <trkpt lat="45.23505" lon="5.88372">
        <ele>235.80000305176</ele>
        <time>2015-08-24T05:28:33.000Z</time>
      </trkpt>
      <trkpt lat="45.23512" lon="5.88382">
        <ele>236.19999694824</ele>
        <time>2015-08-24T05:28:35.000Z</time>
      </trkpt>
      <trkpt lat="45.23519" lon="5.88392">
        <ele>236.39999389648</ele>
        <time>2015-08-24T05:28:37.000Z</time>
      </trkpt>
      <trkpt lat="45.23523" lon="5.88395">
        <ele>236.39999389648</ele>
        <time>2015-08-24T05:28:38.000Z</time>
      </trkpt>
      <trkpt lat="45.23534" lon="5.88415">
        <ele>236.80000305176</ele>
        <time>2015-08-24T05:28:42.000Z</time>
      </trkpt>
      <trkpt lat="45.23546" lon="5.88434">
        <ele>237.19999694824</ele>
        <time>2015-08-24T05:28:46.000Z</time>
      </trkpt>
      <trkpt lat="45.23553" lon="5.88442">
        <ele>237.19999694824</ele>
        <time>2015-08-24T05:28:48.000Z</time>
      </trkpt>
      <trkpt lat="45.23565" lon="5.88451">
        <ele>237</ele>
        <time>2015-08-24T05:28:51.000Z</time>
      </trkpt>
      <trkpt lat="45.23577" lon="5.8846">
        <ele>236.80000305176</ele>
        <time>2015-08-24T05:28:54.000Z</time>
      </trkpt>
      <trkpt lat="45.23583" lon="5.88468">
        <ele>237</ele>
        <time>2015-08-24T05:28:56.000Z</time>
      </trkpt>
      <trkpt lat="45.23592" lon="5.88479">
        <ele>236.80000305176</ele>
        <time>2015-08-24T05:28:59.000Z</time>
      </trkpt>
      <trkpt lat="45.23606" lon="5.88501">
        <ele>236.19999694824</ele>
        <time>2015-08-24T05:29:04.000Z</time>
      </trkpt>
      <trkpt lat="45.2361" lon="5.88505">
        <ele>236</ele>
        <time>2015-08-24T05:29:05.000Z</time>
      </trkpt>
      <trkpt lat="45.23622" lon="5.88525">
        <ele>235.39999389648</ele>
        <time>2015-08-24T05:29:09.000Z</time>
      </trkpt>
      <trkpt lat="45.23626" lon="5.88529">
        <ele>235.19999694824</ele>
        <time>2015-08-24T05:29:10.000Z</time>
      </trkpt>
      <trkpt lat="45.23629" lon="5.88534">
        <ele>235</ele>
        <time>2015-08-24T05:29:11.000Z</time>
      </trkpt>
      <trkpt lat="45.23631" lon="5.88541">
        <ele>235</ele>
        <time>2015-08-24T05:29:12.000Z</time>
      </trkpt>
      <trkpt lat="45.23643" lon="5.88553">
        <ele>234.60000610352</ele>
        <time>2015-08-24T05:29:15.000Z</time>
      </trkpt>
      <trkpt lat="45.23652" lon="5.88562">
        <ele>234.39999389648</ele>
        <time>2015-08-24T05:29:17.000Z</time>
      </trkpt>
      <trkpt lat="45.23659" lon="5.88573">
        <ele>234</ele>
        <time>2015-08-24T05:29:19.000Z</time>
      </trkpt>
      <trkpt lat="45.23668" lon="5.88594">
        <ele>233.60000610352</ele>
        <time>2015-08-24T05:29:22.000Z</time>
      </trkpt>
      <trkpt lat="45.23675" lon="5.88605">
        <ele>233.39999389648</ele>
        <time>2015-08-24T05:29:24.000Z</time>
      </trkpt>
      <trkpt lat="45.23686" lon="5.88621">
        <ele>233.19999694824</ele>
        <time>2015-08-24T05:29:27.000Z</time>
      </trkpt>
      <trkpt lat="45.23691" lon="5.88625">
        <ele>233</ele>
        <time>2015-08-24T05:29:28.000Z</time>
      </trkpt>
      <trkpt lat="45.23704" lon="5.88637">
        <ele>232.60000610352</ele>
        <time>2015-08-24T05:29:31.000Z</time>
      </trkpt>
      <trkpt lat="45.23707" lon="5.88641">
        <ele>232.39999389648</ele>
        <time>2015-08-24T05:29:32.000Z</time>
      </trkpt>
      <trkpt lat="45.23723" lon="5.88667">
        <ele>231.80000305176</ele>
        <time>2015-08-24T05:29:37.000Z</time>
      </trkpt>
      <trkpt lat="45.23728" lon="5.88675">
        <ele>231.60000610352</ele>
        <time>2015-08-24T05:29:39.000Z</time>
      </trkpt>
      <trkpt lat="45.23743" lon="5.88689">
        <ele>231.19999694824</ele>
        <time>2015-08-24T05:29:45.000Z</time>
      </trkpt>
      <trkpt lat="45.23744" lon="5.88686">
        <ele>231.19999694824</ele>
        <time>2015-08-24T05:29:49.000Z</time>
      </trkpt>
      <trkpt lat="45.23747" lon="5.88685">
        <ele>231.19999694824</ele>
        <time>2015-08-24T05:29:54.000Z</time>
      </trkpt>
      <trkpt lat="45.23747" lon="5.88687">
        <ele>231.19999694824</ele>
        <time>2015-08-24T05:29:57.000Z</time>
      </trkpt>
      <trkpt lat="45.23747" lon="5.88688">
        <ele>231.19999694824</ele>
        <time>2015-08-24T05:29:58.000Z</time>
      </trkpt>
      <trkpt lat="45.23748" lon="5.88691">
        <ele>231.19999694824</ele>
        <time>2015-08-24T05:30:04.000Z</time>
      </trkpt>
      <trkpt lat="45.23759" lon="5.88694">
        <ele>230.80000305176</ele>
        <time>2015-08-24T05:32:45.000Z</time>
      </trkpt>
      <trkpt lat="45.23745" lon="5.88697">
        <ele>231.19999694824</ele>
        <time>2015-08-24T05:34:15.000Z</time>
      </trkpt>
      <trkpt lat="45.23746" lon="5.88701">
        <ele>231.19999694824</ele>
        <time>2015-08-24T05:34:54.000Z</time>
      </trkpt>
      <trkpt lat="45.23752" lon="5.88708">
        <ele>231</ele>
        <time>2015-08-24T05:34:57.000Z</time>
      </trkpt>
      <trkpt lat="45.23757" lon="5.88717">
        <ele>231</ele>
        <time>2015-08-24T05:35:00.000Z</time>
      </trkpt>
      <trkpt lat="45.2377" lon="5.88739">
        <ele>230.60000610352</ele>
        <time>2015-08-24T05:35:06.000Z</time>
      </trkpt>
      <trkpt lat="45.23785" lon="5.8876">
        <ele>230.19999694824</ele>
        <time>2015-08-24T05:35:11.000Z</time>
      </trkpt>
      <trkpt lat="45.23789" lon="5.88764">
        <ele>230.19999694824</ele>
        <time>2015-08-24T05:35:12.000Z</time>
      </trkpt>
      <trkpt lat="45.23802" lon="5.88786">
        <ele>230</ele>
        <time>2015-08-24T05:35:16.000Z</time>
      </trkpt>
      <trkpt lat="45.23814" lon="5.88803">
        <ele>230.19999694824</ele>
        <time>2015-08-24T05:35:19.000Z</time>
      </trkpt>
      <trkpt lat="45.23828" lon="5.88822">
        <ele>230</ele>
        <time>2015-08-24T05:35:22.000Z</time>
      </trkpt>
      <trkpt lat="45.23841" lon="5.8884">
        <ele>229.80000305176</ele>
        <time>2015-08-24T05:35:25.000Z</time>
      </trkpt>
      <trkpt lat="45.23856" lon="5.88858">
        <ele>229.39999389648</ele>
        <time>2015-08-24T05:35:28.000Z</time>
      </trkpt>
      <trkpt lat="45.2386" lon="5.88864">
        <ele>229.39999389648</ele>
        <time>2015-08-24T05:35:29.000Z</time>
      </trkpt>
      <trkpt lat="45.23874" lon="5.88883">
        <ele>229.19999694824</ele>
        <time>2015-08-24T05:35:32.000Z</time>
      </trkpt>
      <trkpt lat="45.23886" lon="5.88902">
        <ele>229.39999389648</ele>
        <time>2015-08-24T05:35:35.000Z</time>
      </trkpt>
      <trkpt lat="45.23902" lon="5.88926">
        <ele>230</ele>
        <time>2015-08-24T05:35:39.000Z</time>
      </trkpt>
      <trkpt lat="45.23918" lon="5.8895">
        <ele>230.60000610352</ele>
        <time>2015-08-24T05:35:43.000Z</time>
      </trkpt>
      <trkpt lat="45.23931" lon="5.88967">
        <ele>231.19999694824</ele>
        <time>2015-08-24T05:35:46.000Z</time>
      </trkpt>
      <trkpt lat="45.23947" lon="5.88988">
        <ele>232.60000610352</ele>
        <time>2015-08-24T05:35:50.000Z</time>
      </trkpt>
      <trkpt lat="45.23961" lon="5.89008">
        <ele>234</ele>
        <time>2015-08-24T05:35:54.000Z</time>
      </trkpt>
      <trkpt lat="45.23964" lon="5.89014">
        <ele>234.39999389648</ele>
        <time>2015-08-24T05:35:55.000Z</time>
      </trkpt>
      <trkpt lat="45.2397" lon="5.89023">
        <ele>235</ele>
        <time>2015-08-24T05:35:57.000Z</time>
      </trkpt>
      <trkpt lat="45.23982" lon="5.89038">
        <ele>235.80000305176</ele>
        <time>2015-08-24T05:36:01.000Z</time>
      </trkpt>
      <trkpt lat="45.23992" lon="5.89047">
        <ele>236.39999389648</ele>
        <time>2015-08-24T05:36:04.000Z</time>
      </trkpt>
      <trkpt lat="45.24009" lon="5.89057">
        <ele>237</ele>
        <time>2015-08-24T05:36:08.000Z</time>
      </trkpt>
      <trkpt lat="45.24029" lon="5.89067">
        <ele>237.19999694824</ele>
        <time>2015-08-24T05:36:13.000Z</time>
      </trkpt>
      <trkpt lat="45.24036" lon="5.89069">
        <ele>237.39999389648</ele>
        <time>2015-08-24T05:36:15.000Z</time>
      </trkpt>
      <trkpt lat="45.24048" lon="5.89073">
        <ele>237.39999389648</ele>
        <time>2015-08-24T05:36:18.000Z</time>
      </trkpt>
      <trkpt lat="45.2406" lon="5.89076">
        <ele>237.39999389648</ele>
        <time>2015-08-24T05:36:21.000Z</time>
      </trkpt>
      <trkpt lat="45.24079" lon="5.89085">
        <ele>237.60000610352</ele>
        <time>2015-08-24T05:36:26.000Z</time>
      </trkpt>
      <trkpt lat="45.24098" lon="5.89097">
        <ele>237.80000305176</ele>
        <time>2015-08-24T05:36:31.000Z</time>
      </trkpt>
      <trkpt lat="45.24105" lon="5.89102">
        <ele>238</ele>
        <time>2015-08-24T05:36:33.000Z</time>
      </trkpt>
      <trkpt lat="45.2412" lon="5.8911">
        <ele>238</ele>
        <time>2015-08-24T05:36:37.000Z</time>
      </trkpt>
      <trkpt lat="45.24135" lon="5.8912">
        <ele>238.19999694824</ele>
        <time>2015-08-24T05:36:41.000Z</time>
      </trkpt>
      <trkpt lat="45.24147" lon="5.89127">
        <ele>238.39999389648</ele>
        <time>2015-08-24T05:36:44.000Z</time>
      </trkpt>
      <trkpt lat="45.24158" lon="5.89139">
        <ele>238.60000610352</ele>
        <time>2015-08-24T05:36:47.000Z</time>
      </trkpt>
      <trkpt lat="45.24174" lon="5.8915">
        <ele>238.80000305176</ele>
        <time>2015-08-24T05:36:51.000Z</time>
      </trkpt>
      <trkpt lat="45.24181" lon="5.89154">
        <ele>238.80000305176</ele>
        <time>2015-08-24T05:36:53.000Z</time>
      </trkpt>
      <trkpt lat="45.24184" lon="5.89155">
        <ele>238.80000305176</ele>
        <time>2015-08-24T05:36:54.000Z</time>
      </trkpt>
      <trkpt lat="45.24191" lon="5.89161">
        <ele>239</ele>
        <time>2015-08-24T05:36:56.000Z</time>
      </trkpt>
      <trkpt lat="45.24197" lon="5.89168">
        <ele>239.19999694824</ele>
        <time>2015-08-24T05:36:58.000Z</time>
      </trkpt>
      <trkpt lat="45.24201" lon="5.89172">
        <ele>239.39999389648</ele>
        <time>2015-08-24T05:36:59.000Z</time>
      </trkpt>
      <trkpt lat="45.24216" lon="5.89191">
        <ele>239.80000305176</ele>
        <time>2015-08-24T05:37:03.000Z</time>
      </trkpt>
      <trkpt lat="45.24221" lon="5.89195">
        <ele>240</ele>
        <time>2015-08-24T05:37:04.000Z</time>
      </trkpt>
      <trkpt lat="45.24234" lon="5.8921">
        <ele>240.60000610352</ele>
        <time>2015-08-24T05:37:07.000Z</time>
      </trkpt>
      <trkpt lat="45.24241" lon="5.89218">
        <ele>240.80000305176</ele>
        <time>2015-08-24T05:37:09.000Z</time>
      </trkpt>
      <trkpt lat="45.24255" lon="5.89239">
        <ele>241.60000610352</ele>
        <time>2015-08-24T05:37:14.000Z</time>
      </trkpt>
      <trkpt lat="45.24261" lon="5.89246">
        <ele>241.80000305176</ele>
        <time>2015-08-24T05:37:16.000Z</time>
      </trkpt>
      <trkpt lat="45.24277" lon="5.89265">
        <ele>242.39999389648</ele>
        <time>2015-08-24T05:37:21.000Z</time>
      </trkpt>
      <trkpt lat="45.24286" lon="5.89275">
        <ele>242.80000305176</ele>
        <time>2015-08-24T05:37:24.000Z</time>
      </trkpt>
      <trkpt lat="45.24301" lon="5.89293">
        <ele>243.80000305176</ele>
        <time>2015-08-24T05:37:29.000Z</time>
      </trkpt>
      <trkpt lat="45.24307" lon="5.89297">
        <ele>244.39999389648</ele>
        <time>2015-08-24T05:37:31.000Z</time>
      </trkpt>
      <trkpt lat="45.24324" lon="5.89314">
        <ele>245.80000305176</ele>
        <time>2015-08-24T05:37:37.000Z</time>
      </trkpt>
      <trkpt lat="45.2434" lon="5.8933">
        <ele>247</ele>
        <time>2015-08-24T05:37:43.000Z</time>
      </trkpt>
      <trkpt lat="45.24343" lon="5.89332">
        <ele>247.19999694824</ele>
        <time>2015-08-24T05:37:44.000Z</time>
      </trkpt>
      <trkpt lat="45.24359" lon="5.89346">
        <ele>248.19999694824</ele>
        <time>2015-08-24T05:37:50.000Z</time>
      </trkpt>
      <trkpt lat="45.24363" lon="5.89348">
        <ele>248.60000610352</ele>
        <time>2015-08-24T05:37:51.000Z</time>
      </trkpt>
      <trkpt lat="45.24376" lon="5.8936">
        <ele>249.39999389648</ele>
        <time>2015-08-24T05:37:56.000Z</time>
      </trkpt>
      <trkpt lat="45.24392" lon="5.89374">
        <ele>250.60000610352</ele>
        <time>2015-08-24T05:38:01.000Z</time>
      </trkpt>
      <trkpt lat="45.24395" lon="5.89377">
        <ele>250.80000305176</ele>
        <time>2015-08-24T05:38:02.000Z</time>
      </trkpt>
      <trkpt lat="45.24412" lon="5.89392">
        <ele>252</ele>
        <time>2015-08-24T05:38:08.000Z</time>
      </trkpt>
      <trkpt lat="45.24415" lon="5.89397">
        <ele>252.19999694824</ele>
        <time>2015-08-24T05:38:09.000Z</time>
      </trkpt>
      <trkpt lat="45.24433" lon="5.89404">
        <ele>253.39999389648</ele>
        <time>2015-08-24T05:38:14.000Z</time>
      </trkpt>
      <trkpt lat="45.2445" lon="5.89415">
        <ele>254.60000610352</ele>
        <time>2015-08-24T05:38:19.000Z</time>
      </trkpt>
      <trkpt lat="45.24468" lon="5.89427">
        <ele>255.60000610352</ele>
        <time>2015-08-24T05:38:25.000Z</time>
      </trkpt>
      <trkpt lat="45.24476" lon="5.89433">
        <ele>256</ele>
        <time>2015-08-24T05:38:27.000Z</time>
      </trkpt>
      <trkpt lat="45.24488" lon="5.89455">
        <ele>256.79998779297</ele>
        <time>2015-08-24T05:38:33.000Z</time>
      </trkpt>
      <trkpt lat="45.24492" lon="5.89458">
        <ele>256.79998779297</ele>
        <time>2015-08-24T05:38:34.000Z</time>
      </trkpt>
      <trkpt lat="45.24509" lon="5.89476">
        <ele>257.60000610352</ele>
        <time>2015-08-24T05:38:40.000Z</time>
      </trkpt>
      <trkpt lat="45.24512" lon="5.8948">
        <ele>257.79998779297</ele>
        <time>2015-08-24T05:38:41.000Z</time>
      </trkpt>
      <trkpt lat="45.24529" lon="5.89495">
        <ele>258.20001220703</ele>
        <time>2015-08-24T05:38:46.000Z</time>
      </trkpt>
      <trkpt lat="45.24536" lon="5.89501">
        <ele>258.39999389648</ele>
        <time>2015-08-24T05:38:48.000Z</time>
      </trkpt>
      <trkpt lat="45.24553" lon="5.89514">
        <ele>258.39999389648</ele>
        <time>2015-08-24T05:38:53.000Z</time>
      </trkpt>
      <trkpt lat="45.24563" lon="5.89521">
        <ele>258.20001220703</ele>
        <time>2015-08-24T05:38:56.000Z</time>
      </trkpt>
      <trkpt lat="45.24582" lon="5.89534">
        <ele>257.79998779297</ele>
        <time>2015-08-24T05:39:01.000Z</time>
      </trkpt>
      <trkpt lat="45.24594" lon="5.89544">
        <ele>257.60000610352</ele>
        <time>2015-08-24T05:39:04.000Z</time>
      </trkpt>
      <trkpt lat="45.24614" lon="5.89558">
        <ele>257.20001220703</ele>
        <time>2015-08-24T05:39:09.000Z</time>
      </trkpt>
      <trkpt lat="45.24624" lon="5.89565">
        <ele>257.39999389648</ele>
        <time>2015-08-24T05:39:11.000Z</time>
      </trkpt>
      <trkpt lat="45.24641" lon="5.89581">
        <ele>256.79998779297</ele>
        <time>2015-08-24T05:39:15.000Z</time>
      </trkpt>
      <trkpt lat="45.24646" lon="5.89585">
        <ele>256.60000610352</ele>
        <time>2015-08-24T05:39:16.000Z</time>
      </trkpt>
      <trkpt lat="45.24664" lon="5.89597">
        <ele>255.60000610352</ele>
        <time>2015-08-24T05:39:20.000Z</time>
      </trkpt>
      <trkpt lat="45.24669" lon="5.896">
        <ele>255.19999694824</ele>
        <time>2015-08-24T05:39:21.000Z</time>
      </trkpt>
      <trkpt lat="45.24675" lon="5.89597">
        <ele>254.80000305176</ele>
        <time>2015-08-24T05:39:24.000Z</time>
      </trkpt>
      <trkpt lat="45.24689" lon="5.89602">
        <ele>254.39999389648</ele>
        <time>2015-08-24T05:39:28.000Z</time>
      </trkpt>
      <trkpt lat="45.24706" lon="5.89612">
        <ele>253.60000610352</ele>
        <time>2015-08-24T05:39:32.000Z</time>
      </trkpt>
      <trkpt lat="45.24716" lon="5.89617">
        <ele>253</ele>
        <time>2015-08-24T05:39:34.000Z</time>
      </trkpt>
      <trkpt lat="45.24732" lon="5.89631">
        <ele>252.19999694824</ele>
        <time>2015-08-24T05:39:37.000Z</time>
      </trkpt>
      <trkpt lat="45.24749" lon="5.89648">
        <ele>251</ele>
        <time>2015-08-24T05:39:40.000Z</time>
      </trkpt>
      <trkpt lat="45.24767" lon="5.89667">
        <ele>249.80000305176</ele>
        <time>2015-08-24T05:39:43.000Z</time>
      </trkpt>
      <trkpt lat="45.24785" lon="5.89687">
        <ele>248.39999389648</ele>
        <time>2015-08-24T05:39:46.000Z</time>
      </trkpt>
      <trkpt lat="45.24791" lon="5.89694">
        <ele>248</ele>
        <time>2015-08-24T05:39:47.000Z</time>
      </trkpt>
      <trkpt lat="45.24808" lon="5.89713">
        <ele>246.60000610352</ele>
        <time>2015-08-24T05:39:50.000Z</time>
      </trkpt>
      <trkpt lat="45.24825" lon="5.89731">
        <ele>246</ele>
        <time>2015-08-24T05:39:53.000Z</time>
      </trkpt>
      <trkpt lat="45.24831" lon="5.89738">
        <ele>246</ele>
        <time>2015-08-24T05:39:54.000Z</time>
      </trkpt>
      <trkpt lat="45.24845" lon="5.89757">
        <ele>246.19999694824</ele>
        <time>2015-08-24T05:39:57.000Z</time>
      </trkpt>
      <trkpt lat="45.24862" lon="5.89772">
        <ele>246.19999694824</ele>
        <time>2015-08-24T05:40:01.000Z</time>
      </trkpt>
      <trkpt lat="45.24879" lon="5.8979">
        <ele>246.19999694824</ele>
        <time>2015-08-24T05:40:05.000Z</time>
      </trkpt>
      <trkpt lat="45.24895" lon="5.89806">
        <ele>246.19999694824</ele>
        <time>2015-08-24T05:40:09.000Z</time>
      </trkpt>
      <trkpt lat="45.24899" lon="5.8981">
        <ele>246</ele>
        <time>2015-08-24T05:40:10.000Z</time>
      </trkpt>
      <trkpt lat="45.24916" lon="5.89829">
        <ele>245</ele>
        <time>2015-08-24T05:40:14.000Z</time>
      </trkpt>
      <trkpt lat="45.2492" lon="5.89834">
        <ele>244.80000305176</ele>
        <time>2015-08-24T05:40:15.000Z</time>
      </trkpt>
      <trkpt lat="45.24927" lon="5.89844">
        <ele>244.19999694824</ele>
        <time>2015-08-24T05:40:17.000Z</time>
      </trkpt>
      <trkpt lat="45.2494" lon="5.89853">
        <ele>243.60000610352</ele>
        <time>2015-08-24T05:40:20.000Z</time>
      </trkpt>
      <trkpt lat="45.24946" lon="5.89855">
        <ele>243.19999694824</ele>
        <time>2015-08-24T05:40:21.000Z</time>
      </trkpt>
      <trkpt lat="45.24951" lon="5.89857">
        <ele>243</ele>
        <time>2015-08-24T05:40:22.000Z</time>
      </trkpt>
      <trkpt lat="45.24967" lon="5.89857">
        <ele>242.19999694824</ele>
        <time>2015-08-24T05:40:25.000Z</time>
      </trkpt>
      <trkpt lat="45.2498" lon="5.89847">
        <ele>241.80000305176</ele>
        <time>2015-08-24T05:40:28.000Z</time>
      </trkpt>
      <trkpt lat="45.24983" lon="5.89844">
        <ele>241.80000305176</ele>
        <time>2015-08-24T05:40:29.000Z</time>
      </trkpt>
      <trkpt lat="45.24987" lon="5.8984">
        <ele>241.80000305176</ele>
        <time>2015-08-24T05:40:30.000Z</time>
      </trkpt>
      <trkpt lat="45.24993" lon="5.89828">
        <ele>241.60000610352</ele>
        <time>2015-08-24T05:40:33.000Z</time>
      </trkpt>
      <trkpt lat="45.25002" lon="5.8983">
        <ele>241.19999694824</ele>
        <time>2015-08-24T05:40:36.000Z</time>
      </trkpt>
      <trkpt lat="45.25006" lon="5.89842">
        <ele>241</ele>
        <time>2015-08-24T05:40:39.000Z</time>
      </trkpt>
      <trkpt lat="45.25014" lon="5.89863">
        <ele>240.39999389648</ele>
        <time>2015-08-24T05:40:44.000Z</time>
      </trkpt>
      <trkpt lat="45.25026" lon="5.89883">
        <ele>239.80000305176</ele>
        <time>2015-08-24T05:40:47.000Z</time>
      </trkpt>
      <trkpt lat="45.2503" lon="5.89891">
        <ele>239.60000610352</ele>
        <time>2015-08-24T05:40:48.000Z</time>
      </trkpt>
      <trkpt lat="45.25035" lon="5.89917">
        <ele>239.80000305176</ele>
        <time>2015-08-24T05:40:51.000Z</time>
      </trkpt>
      <trkpt lat="45.25036" lon="5.89943">
        <ele>240</ele>
        <time>2015-08-24T05:40:54.000Z</time>
      </trkpt>
      <trkpt lat="45.25039" lon="5.89949">
        <ele>240</ele>
        <time>2015-08-24T05:40:55.000Z</time>
      </trkpt>
      <trkpt lat="45.25044" lon="5.89962">
        <ele>240</ele>
        <time>2015-08-24T05:40:57.000Z</time>
      </trkpt>
      <trkpt lat="45.25046" lon="5.89966">
        <ele>240</ele>
        <time>2015-08-24T05:40:58.000Z</time>
      </trkpt>
      <trkpt lat="45.25052" lon="5.89974">
        <ele>240</ele>
        <time>2015-08-24T05:41:00.000Z</time>
      </trkpt>
      <trkpt lat="45.25069" lon="5.89996">
        <ele>239.80000305176</ele>
        <time>2015-08-24T05:41:05.000Z</time>
      </trkpt>
      <trkpt lat="45.25087" lon="5.90014">
        <ele>239.60000610352</ele>
        <time>2015-08-24T05:41:09.000Z</time>
      </trkpt>
      <trkpt lat="45.25104" lon="5.90032">
        <ele>239.39999389648</ele>
        <time>2015-08-24T05:41:13.000Z</time>
      </trkpt>
      <trkpt lat="45.25112" lon="5.9004">
        <ele>239.19999694824</ele>
        <time>2015-08-24T05:41:15.000Z</time>
      </trkpt>
      <trkpt lat="45.25128" lon="5.90042">
        <ele>239</ele>
        <time>2015-08-24T05:41:19.000Z</time>
      </trkpt>
      <trkpt lat="45.25134" lon="5.90041">
        <ele>238.80000305176</ele>
        <time>2015-08-24T05:41:21.000Z</time>
      </trkpt>
      <trkpt lat="45.25138" lon="5.90046">
        <ele>238.60000610352</ele>
        <time>2015-08-24T05:41:23.000Z</time>
      </trkpt>
      <trkpt lat="45.25141" lon="5.90064">
        <ele>238.39999389648</ele>
        <time>2015-08-24T05:41:27.000Z</time>
      </trkpt>
      <trkpt lat="45.25146" lon="5.90074">
        <ele>238.19999694824</ele>
        <time>2015-08-24T05:41:29.000Z</time>
      </trkpt>
      <trkpt lat="45.25155" lon="5.90086">
        <ele>237.60000610352</ele>
        <time>2015-08-24T05:41:31.000Z</time>
      </trkpt>
      <trkpt lat="45.2517" lon="5.90104">
        <ele>236.80000305176</ele>
        <time>2015-08-24T05:41:34.000Z</time>
      </trkpt>
      <trkpt lat="45.25182" lon="5.90117">
        <ele>236.19999694824</ele>
        <time>2015-08-24T05:41:36.000Z</time>
      </trkpt>
      <trkpt lat="45.25199" lon="5.90136">
        <ele>235.39999389648</ele>
        <time>2015-08-24T05:41:39.000Z</time>
      </trkpt>
      <trkpt lat="45.25216" lon="5.90153">
        <ele>234.80000305176</ele>
        <time>2015-08-24T05:41:42.000Z</time>
      </trkpt>
      <trkpt lat="45.25232" lon="5.9017">
        <ele>234.39999389648</ele>
        <time>2015-08-24T05:41:45.000Z</time>
      </trkpt>
      <trkpt lat="45.25237" lon="5.90175">
        <ele>234.19999694824</ele>
        <time>2015-08-24T05:41:46.000Z</time>
      </trkpt>
      <trkpt lat="45.25252" lon="5.90192">
        <ele>233.60000610352</ele>
        <time>2015-08-24T05:41:49.000Z</time>
      </trkpt>
      <trkpt lat="45.25267" lon="5.90207">
        <ele>233</ele>
        <time>2015-08-24T05:41:52.000Z</time>
      </trkpt>
      <trkpt lat="45.25277" lon="5.90219">
        <ele>232.60000610352</ele>
        <time>2015-08-24T05:41:54.000Z</time>
      </trkpt>
      <trkpt lat="45.25295" lon="5.90236">
        <ele>232</ele>
        <time>2015-08-24T05:41:58.000Z</time>
      </trkpt>
      <trkpt lat="45.25304" lon="5.90243">
        <ele>232</ele>
        <time>2015-08-24T05:42:00.000Z</time>
      </trkpt>
      <trkpt lat="45.25312" lon="5.90253">
        <ele>231.80000305176</ele>
        <time>2015-08-24T05:42:02.000Z</time>
      </trkpt>
      <trkpt lat="45.25324" lon="5.9027">
        <ele>231.60000610352</ele>
        <time>2015-08-24T05:42:05.000Z</time>
      </trkpt>
      <trkpt lat="45.2534" lon="5.90289">
        <ele>231.39999389648</ele>
        <time>2015-08-24T05:42:09.000Z</time>
      </trkpt>
      <trkpt lat="45.25351" lon="5.90301">
        <ele>231.39999389648</ele>
        <time>2015-08-24T05:42:12.000Z</time>
      </trkpt>
      <trkpt lat="45.25365" lon="5.90313">
        <ele>231.19999694824</ele>
        <time>2015-08-24T05:42:16.000Z</time>
      </trkpt>
      <trkpt lat="45.25369" lon="5.90317">
        <ele>231.19999694824</ele>
        <time>2015-08-24T05:42:17.000Z</time>
      </trkpt>
      <trkpt lat="45.25386" lon="5.90337">
        <ele>230.80000305176</ele>
        <time>2015-08-24T05:42:21.000Z</time>
      </trkpt>
      <trkpt lat="45.25403" lon="5.90357">
        <ele>230.39999389648</ele>
        <time>2015-08-24T05:42:25.000Z</time>
      </trkpt>
      <trkpt lat="45.25417" lon="5.90373">
        <ele>230</ele>
        <time>2015-08-24T05:42:29.000Z</time>
      </trkpt>
      <trkpt lat="45.25421" lon="5.90376">
        <ele>230</ele>
        <time>2015-08-24T05:42:30.000Z</time>
      </trkpt>
      <trkpt lat="45.25436" lon="5.9039">
        <ele>229.60000610352</ele>
        <time>2015-08-24T05:42:34.000Z</time>
      </trkpt>
      <trkpt lat="45.25447" lon="5.90403">
        <ele>229.60000610352</ele>
        <time>2015-08-24T05:42:37.000Z</time>
      </trkpt>
      <trkpt lat="45.25463" lon="5.90419">
        <ele>229.60000610352</ele>
        <time>2015-08-24T05:42:41.000Z</time>
      </trkpt>
      <trkpt lat="45.25474" lon="5.90427">
        <ele>229.80000305176</ele>
        <time>2015-08-24T05:42:44.000Z</time>
      </trkpt>
      <trkpt lat="45.25489" lon="5.90447">
        <ele>230.39999389648</ele>
        <time>2015-08-24T05:42:48.000Z</time>
      </trkpt>
      <trkpt lat="45.25496" lon="5.90458">
        <ele>230.60000610352</ele>
        <time>2015-08-24T05:42:50.000Z</time>
      </trkpt>
      <trkpt lat="45.25511" lon="5.90475">
        <ele>231</ele>
        <time>2015-08-24T05:42:54.000Z</time>
      </trkpt>
      <trkpt lat="45.25522" lon="5.90486">
        <ele>231.60000610352</ele>
        <time>2015-08-24T05:42:57.000Z</time>
      </trkpt>
      <trkpt lat="45.25538" lon="5.90503">
        <ele>232.39999389648</ele>
        <time>2015-08-24T05:43:02.000Z</time>
      </trkpt>
      <trkpt lat="45.25548" lon="5.9051">
        <ele>232.80000305176</ele>
        <time>2015-08-24T05:43:05.000Z</time>
      </trkpt>
      <trkpt lat="45.25563" lon="5.90525">
        <ele>233.39999389648</ele>
        <time>2015-08-24T05:43:10.000Z</time>
      </trkpt>
      <trkpt lat="45.25574" lon="5.90537">
        <ele>234</ele>
        <time>2015-08-24T05:43:14.000Z</time>
      </trkpt>
      <trkpt lat="45.25589" lon="5.90553">
        <ele>234.80000305176</ele>
        <time>2015-08-24T05:43:20.000Z</time>
      </trkpt>
      <trkpt lat="45.25596" lon="5.90561">
        <ele>235.19999694824</ele>
        <time>2015-08-24T05:43:23.000Z</time>
      </trkpt>
      <trkpt lat="45.25599" lon="5.90566">
        <ele>235.19999694824</ele>
        <time>2015-08-24T05:43:25.000Z</time>
      </trkpt>
      <trkpt lat="45.25603" lon="5.90579">
        <ele>235.60000610352</ele>
        <time>2015-08-24T05:43:28.000Z</time>
      </trkpt>
      <trkpt lat="45.25612" lon="5.90596">
        <ele>236</ele>
        <time>2015-08-24T05:43:33.000Z</time>
      </trkpt>
      <trkpt lat="45.25619" lon="5.90604">
        <ele>236.19999694824</ele>
        <time>2015-08-24T05:43:38.000Z</time>
      </trkpt>
      <trkpt lat="45.25621" lon="5.90606">
        <ele>236.19999694824</ele>
        <time>2015-08-24T05:43:46.000Z</time>
      </trkpt>
      <trkpt lat="45.25617" lon="5.90589">
        <ele>235.80000305176</ele>
        <time>2015-08-24T05:50:16.000Z</time>
      </trkpt>
      <trkpt lat="45.25618" lon="5.90593">
        <ele>235.80000305176</ele>
        <time>2015-08-24T05:50:18.000Z</time>
      </trkpt>
      <trkpt lat="45.25629" lon="5.90607">
        <ele>236.19999694824</ele>
        <time>2015-08-24T05:50:23.000Z</time>
      </trkpt>
      <trkpt lat="45.2563" lon="5.9061">
        <ele>236.19999694824</ele>
        <time>2015-08-24T05:50:24.000Z</time>
      </trkpt>
      <trkpt lat="45.25644" lon="5.9062">
        <ele>236.60000610352</ele>
        <time>2015-08-24T05:50:28.000Z</time>
      </trkpt>
      <trkpt lat="45.25657" lon="5.90641">
        <ele>237</ele>
        <time>2015-08-24T05:50:34.000Z</time>
      </trkpt>
      <trkpt lat="45.25665" lon="5.9065">
        <ele>237.39999389648</ele>
        <time>2015-08-24T05:50:37.000Z</time>
      </trkpt>
      <trkpt lat="45.25679" lon="5.90667">
        <ele>238</ele>
        <time>2015-08-24T05:50:42.000Z</time>
      </trkpt>
      <trkpt lat="45.25683" lon="5.90669">
        <ele>238</ele>
        <time>2015-08-24T05:50:43.000Z</time>
      </trkpt>
      <trkpt lat="45.25698" lon="5.90685">
        <ele>238.60000610352</ele>
        <time>2015-08-24T05:50:48.000Z</time>
      </trkpt>
      <trkpt lat="45.25711" lon="5.90696">
        <ele>239</ele>
        <time>2015-08-24T05:50:52.000Z</time>
      </trkpt>
      <trkpt lat="45.25715" lon="5.90709">
        <ele>239.39999389648</ele>
        <time>2015-08-24T05:50:54.000Z</time>
      </trkpt>
      <trkpt lat="45.2573" lon="5.90724">
        <ele>240</ele>
        <time>2015-08-24T05:50:57.000Z</time>
      </trkpt>
      <trkpt lat="45.25732" lon="5.9073">
        <ele>240.19999694824</ele>
        <time>2015-08-24T05:50:58.000Z</time>
      </trkpt>
      <trkpt lat="45.25743" lon="5.90739">
        <ele>240.60000610352</ele>
        <time>2015-08-24T05:51:01.000Z</time>
      </trkpt>
      <trkpt lat="45.25747" lon="5.90748">
        <ele>240.80000305176</ele>
        <time>2015-08-24T05:51:03.000Z</time>
      </trkpt>
      <trkpt lat="45.2575" lon="5.90751">
        <ele>241</ele>
        <time>2015-08-24T05:51:04.000Z</time>
      </trkpt>
      <trkpt lat="45.25762" lon="5.90763">
        <ele>241.39999389648</ele>
        <time>2015-08-24T05:51:08.000Z</time>
      </trkpt>
      <trkpt lat="45.25766" lon="5.90766">
        <ele>241.60000610352</ele>
        <time>2015-08-24T05:51:09.000Z</time>
      </trkpt>
      <trkpt lat="45.25779" lon="5.90781">
        <ele>242</ele>
        <time>2015-08-24T05:51:14.000Z</time>
      </trkpt>
      <trkpt lat="45.25796" lon="5.90796">
        <ele>242.60000610352</ele>
        <time>2015-08-24T05:51:20.000Z</time>
      </trkpt>
      <trkpt lat="45.25802" lon="5.90803">
        <ele>242.80000305176</ele>
        <time>2015-08-24T05:51:22.000Z</time>
      </trkpt>
      <trkpt lat="45.25818" lon="5.90813">
        <ele>242.80000305176</ele>
        <time>2015-08-24T05:51:27.000Z</time>
      </trkpt>
      <trkpt lat="45.25823" lon="5.90834">
        <ele>243</ele>
        <time>2015-08-24T05:51:30.000Z</time>
      </trkpt>
      <trkpt lat="45.25829" lon="5.90835">
        <ele>243</ele>
        <time>2015-08-24T05:51:31.000Z</time>
      </trkpt>
      <trkpt lat="45.25843" lon="5.9084">
        <ele>242.80000305176</ele>
        <time>2015-08-24T05:51:34.000Z</time>
      </trkpt>
      <trkpt lat="45.25851" lon="5.90846">
        <ele>242.80000305176</ele>
        <time>2015-08-24T05:51:36.000Z</time>
      </trkpt>
      <trkpt lat="45.25853" lon="5.90849">
        <ele>242.80000305176</ele>
        <time>2015-08-24T05:51:37.000Z</time>
      </trkpt>
      <trkpt lat="45.25847" lon="5.9086">
        <ele>243</ele>
        <time>2015-08-24T05:51:39.000Z</time>
      </trkpt>
      <trkpt lat="45.25846" lon="5.90864">
        <ele>243.19999694824</ele>
        <time>2015-08-24T05:51:40.000Z</time>
      </trkpt>
      <trkpt lat="45.25845" lon="5.90888">
        <ele>244.19999694824</ele>
        <time>2015-08-24T05:51:46.000Z</time>
      </trkpt>
      <trkpt lat="45.2584" lon="5.90914">
        <ele>245</ele>
        <time>2015-08-24T05:51:52.000Z</time>
      </trkpt>
      <trkpt lat="45.25835" lon="5.9094">
        <ele>245.80000305176</ele>
        <time>2015-08-24T05:51:58.000Z</time>
      </trkpt>
      <trkpt lat="45.25834" lon="5.90949">
        <ele>246</ele>
        <time>2015-08-24T05:52:00.000Z</time>
      </trkpt>
      <trkpt lat="45.25832" lon="5.90976">
        <ele>246.80000305176</ele>
        <time>2015-08-24T05:52:06.000Z</time>
      </trkpt>
      <trkpt lat="45.25832" lon="5.90983">
        <ele>247.19999694824</ele>
        <time>2015-08-24T05:52:08.000Z</time>
      </trkpt>
      <trkpt lat="45.25828" lon="5.91006">
        <ele>248.39999389648</ele>
        <time>2015-08-24T05:52:14.000Z</time>
      </trkpt>
      <trkpt lat="45.25826" lon="5.91009">
        <ele>248.39999389648</ele>
        <time>2015-08-24T05:52:15.000Z</time>
      </trkpt>
      <trkpt lat="45.25829" lon="5.91023">
        <ele>248.80000305176</ele>
        <time>2015-08-24T05:52:18.000Z</time>
      </trkpt>
      <trkpt lat="45.25838" lon="5.91045">
        <ele>249.19999694824</ele>
        <time>2015-08-24T05:52:23.000Z</time>
      </trkpt>
      <trkpt lat="45.25844" lon="5.91059">
        <ele>249.80000305176</ele>
        <time>2015-08-24T05:52:27.000Z</time>
      </trkpt>
      <trkpt lat="45.25855" lon="5.91079">
        <ele>252.80000305176</ele>
        <time>2015-08-24T05:52:35.000Z</time>
      </trkpt>
      <trkpt lat="45.25866" lon="5.91102">
        <ele>256.20001220703</ele>
        <time>2015-08-24T05:52:44.000Z</time>
      </trkpt>
      <trkpt lat="45.25876" lon="5.91122">
        <ele>259.20001220703</ele>
        <time>2015-08-24T05:52:52.000Z</time>
      </trkpt>
      <trkpt lat="45.25887" lon="5.91142">
        <ele>261</ele>
        <time>2015-08-24T05:53:00.000Z</time>
      </trkpt>
      <trkpt lat="45.25899" lon="5.91163">
        <ele>264</ele>
        <time>2015-08-24T05:53:08.000Z</time>
      </trkpt>
      <trkpt lat="45.25906" lon="5.91175">
        <ele>265.79998779297</ele>
        <time>2015-08-24T05:53:14.000Z</time>
      </trkpt>
      <trkpt lat="45.25915" lon="5.91186">
        <ele>267</ele>
        <time>2015-08-24T05:53:20.000Z</time>
      </trkpt>
      <trkpt lat="45.25926" lon="5.912">
        <ele>268.20001220703</ele>
        <time>2015-08-24T05:53:27.000Z</time>
      </trkpt>
      <trkpt lat="45.25938" lon="5.91211">
        <ele>268.39999389648</ele>
        <time>2015-08-24T05:53:33.000Z</time>
      </trkpt>
      <trkpt lat="45.25939" lon="5.91213">
        <ele>268.60000610352</ele>
        <time>2015-08-24T05:53:34.000Z</time>
      </trkpt>
      <trkpt lat="45.25943" lon="5.9122">
        <ele>270</ele>
        <time>2015-08-24T05:53:38.000Z</time>
      </trkpt>
      <trkpt lat="45.25954" lon="5.91234">
        <ele>270.79998779297</ele>
        <time>2015-08-24T05:53:44.000Z</time>
      </trkpt>
      <trkpt lat="45.25964" lon="5.91244">
        <ele>270.39999389648</ele>
        <time>2015-08-24T05:53:50.000Z</time>
      </trkpt>
      <trkpt lat="45.25976" lon="5.91261">
        <ele>271.20001220703</ele>
        <time>2015-08-24T05:53:57.000Z</time>
      </trkpt>
      <trkpt lat="45.25983" lon="5.91274">
        <ele>272.39999389648</ele>
        <time>2015-08-24T05:54:02.000Z</time>
      </trkpt>
      <trkpt lat="45.25991" lon="5.91295">
        <ele>275.60000610352</ele>
        <time>2015-08-24T05:54:09.000Z</time>
      </trkpt>
      <trkpt lat="45.26001" lon="5.9132">
        <ele>280.20001220703</ele>
        <time>2015-08-24T05:54:17.000Z</time>
      </trkpt>
      <trkpt lat="45.26016" lon="5.91337">
        <ele>281.20001220703</ele>
        <time>2015-08-24T05:54:23.000Z</time>
      </trkpt>
      <trkpt lat="45.26024" lon="5.91349">
        <ele>282.79998779297</ele>
        <time>2015-08-24T05:54:27.000Z</time>
      </trkpt>
      <trkpt lat="45.26038" lon="5.91367">
        <ele>284.39999389648</ele>
        <time>2015-08-24T05:54:35.000Z</time>
      </trkpt>
      <trkpt lat="45.26052" lon="5.91382">
        <ele>285</ele>
        <time>2015-08-24T05:54:42.000Z</time>
      </trkpt>
      <trkpt lat="45.26063" lon="5.91394">
        <ele>285.79998779297</ele>
        <time>2015-08-24T05:54:48.000Z</time>
      </trkpt>
      <trkpt lat="45.26073" lon="5.9141">
        <ele>287.20001220703</ele>
        <time>2015-08-24T05:54:55.000Z</time>
      </trkpt>
      <trkpt lat="45.26082" lon="5.91428">
        <ele>290</ele>
        <time>2015-08-24T05:55:02.000Z</time>
      </trkpt>
      <trkpt lat="45.26094" lon="5.91451">
        <ele>293.79998779297</ele>
        <time>2015-08-24T05:55:10.000Z</time>
      </trkpt>
      <trkpt lat="45.26104" lon="5.91471">
        <ele>297.39999389648</ele>
        <time>2015-08-24T05:55:17.000Z</time>
      </trkpt>
      <trkpt lat="45.26119" lon="5.91487">
        <ele>297.79998779297</ele>
        <time>2015-08-24T05:55:25.000Z</time>
      </trkpt>
      <trkpt lat="45.26129" lon="5.91502">
        <ele>299.79998779297</ele>
        <time>2015-08-24T05:55:32.000Z</time>
      </trkpt>
      <trkpt lat="45.26139" lon="5.91519">
        <ele>302</ele>
        <time>2015-08-24T05:55:39.000Z</time>
      </trkpt>
      <trkpt lat="45.26151" lon="5.91536">
        <ele>304</ele>
        <time>2015-08-24T05:55:46.000Z</time>
      </trkpt>
      <trkpt lat="45.26165" lon="5.91557">
        <ele>306.60000610352</ele>
        <time>2015-08-24T05:55:54.000Z</time>
      </trkpt>
      <trkpt lat="45.26174" lon="5.91582">
        <ele>311.60000610352</ele>
        <time>2015-08-24T05:56:02.000Z</time>
      </trkpt>
      <trkpt lat="45.26178" lon="5.91586">
        <ele>311.60000610352</ele>
        <time>2015-08-24T05:56:04.000Z</time>
      </trkpt>
      <trkpt lat="45.26195" lon="5.91604">
        <ele>311</ele>
        <time>2015-08-24T05:56:12.000Z</time>
      </trkpt>
      <trkpt lat="45.26199" lon="5.91608">
        <ele>310.79998779297</ele>
        <time>2015-08-24T05:56:14.000Z</time>
      </trkpt>
      <trkpt lat="45.26214" lon="5.91623">
        <ele>309.79998779297</ele>
        <time>2015-08-24T05:56:21.000Z</time>
      </trkpt>
      <trkpt lat="45.26226" lon="5.91641">
        <ele>312</ele>
        <time>2015-08-24T05:56:29.000Z</time>
      </trkpt>
      <trkpt lat="45.26239" lon="5.9165">
        <ele>310.60000610352</ele>
        <time>2015-08-24T05:56:35.000Z</time>
      </trkpt>
      <trkpt lat="45.26249" lon="5.91661">
        <ele>310.79998779297</ele>
        <time>2015-08-24T05:56:40.000Z</time>
      </trkpt>
      <trkpt lat="45.26264" lon="5.91674">
        <ele>309.79998779297</ele>
        <time>2015-08-24T05:56:47.000Z</time>
      </trkpt>
      <trkpt lat="45.26273" lon="5.91692">
        <ele>312.60000610352</ele>
        <time>2015-08-24T05:56:54.000Z</time>
      </trkpt>
      <trkpt lat="45.26285" lon="5.91708">
        <ele>313.60000610352</ele>
        <time>2015-08-24T05:57:01.000Z</time>
      </trkpt>
      <trkpt lat="45.26294" lon="5.91726">
        <ele>316.39999389648</ele>
        <time>2015-08-24T05:57:08.000Z</time>
      </trkpt>
      <trkpt lat="45.26306" lon="5.91744">
        <ele>317.39999389648</ele>
        <time>2015-08-24T05:57:16.000Z</time>
      </trkpt>
      <trkpt lat="45.2632" lon="5.9175">
        <ele>314.79998779297</ele>
        <time>2015-08-24T05:57:22.000Z</time>
      </trkpt>
      <trkpt lat="45.2633" lon="5.91755">
        <ele>313</ele>
        <time>2015-08-24T05:57:28.000Z</time>
      </trkpt>
      <trkpt lat="45.26349" lon="5.91757">
        <ele>304.79998779297</ele>
        <time>2015-08-24T05:57:33.000Z</time>
      </trkpt>
      <trkpt lat="45.26351" lon="5.91759">
        <ele>304.39999389648</ele>
        <time>2015-08-24T05:57:34.000Z</time>
      </trkpt>
      <trkpt lat="45.26361" lon="5.91771">
        <ele>305</ele>
        <time>2015-08-24T05:57:39.000Z</time>
      </trkpt>
      <trkpt lat="45.26366" lon="5.91785">
        <ele>308.79998779297</ele>
        <time>2015-08-24T05:57:43.000Z</time>
      </trkpt>
      <trkpt lat="45.26367" lon="5.91788">
        <ele>309.79998779297</ele>
        <time>2015-08-24T05:57:44.000Z</time>
      </trkpt>
      <trkpt lat="45.26366" lon="5.91804">
        <ele>315.60000610352</ele>
        <time>2015-08-24T05:57:50.000Z</time>
      </trkpt>
      <trkpt lat="45.26363" lon="5.91826">
        <ele>323.79998779297</ele>
        <time>2015-08-24T05:57:57.000Z</time>
      </trkpt>
      <trkpt lat="45.26368" lon="5.91842">
        <ele>327.79998779297</ele>
        <time>2015-08-24T05:58:02.000Z</time>
      </trkpt>
      <trkpt lat="45.26376" lon="5.91857">
        <ele>330.39999389648</ele>
        <time>2015-08-24T05:58:08.000Z</time>
      </trkpt>
      <trkpt lat="45.26387" lon="5.9187">
        <ele>331.20001220703</ele>
        <time>2015-08-24T05:58:15.000Z</time>
      </trkpt>
      <trkpt lat="45.26399" lon="5.91884">
        <ele>331.79998779297</ele>
        <time>2015-08-24T05:58:22.000Z</time>
      </trkpt>
      <trkpt lat="45.26404" lon="5.91898">
        <ele>334.79998779297</ele>
        <time>2015-08-24T05:58:28.000Z</time>
      </trkpt>
      <trkpt lat="45.2641" lon="5.91907">
        <ele>335.79998779297</ele>
        <time>2015-08-24T05:58:33.000Z</time>
      </trkpt>
      <trkpt lat="45.26418" lon="5.91917">
        <ele>336.20001220703</ele>
        <time>2015-08-24T05:58:37.000Z</time>
      </trkpt>
      <trkpt lat="45.26434" lon="5.91933">
        <ele>336</ele>
        <time>2015-08-24T05:58:44.000Z</time>
      </trkpt>
      <trkpt lat="45.26449" lon="5.91949">
        <ele>336.20001220703</ele>
        <time>2015-08-24T05:58:51.000Z</time>
      </trkpt>
      <trkpt lat="45.26451" lon="5.91951">
        <ele>336.20001220703</ele>
        <time>2015-08-24T05:58:52.000Z</time>
      </trkpt>
      <trkpt lat="45.26463" lon="5.91969">
        <ele>338</ele>
        <time>2015-08-24T05:58:59.000Z</time>
      </trkpt>
      <trkpt lat="45.26474" lon="5.91986">
        <ele>340.20001220703</ele>
        <time>2015-08-24T05:59:06.000Z</time>
      </trkpt>
      <trkpt lat="45.26489" lon="5.92004">
        <ele>341</ele>
        <time>2015-08-24T05:59:14.000Z</time>
      </trkpt>
      <trkpt lat="45.2649" lon="5.92006">
        <ele>341.20001220703</ele>
        <time>2015-08-24T05:59:15.000Z</time>
      </trkpt>
      <trkpt lat="45.26503" lon="5.92018">
        <ele>341</ele>
        <time>2015-08-24T05:59:21.000Z</time>
      </trkpt>
      <trkpt lat="45.26518" lon="5.92034">
        <ele>341.39999389648</ele>
        <time>2015-08-24T05:59:28.000Z</time>
      </trkpt>
      <trkpt lat="45.26524" lon="5.9204">
        <ele>341.20001220703</ele>
        <time>2015-08-24T05:59:31.000Z</time>
      </trkpt>
      <trkpt lat="45.26539" lon="5.92056">
        <ele>341.39999389648</ele>
        <time>2015-08-24T05:59:39.000Z</time>
      </trkpt>
      <trkpt lat="45.26547" lon="5.92074">
        <ele>342.79998779297</ele>
        <time>2015-08-24T05:59:46.000Z</time>
      </trkpt>
      <trkpt lat="45.26557" lon="5.9209">
        <ele>343</ele>
        <time>2015-08-24T05:59:53.000Z</time>
      </trkpt>
      <trkpt lat="45.26566" lon="5.92105">
        <ele>343.60000610352</ele>
        <time>2015-08-24T05:59:59.000Z</time>
      </trkpt>
      <trkpt lat="45.26575" lon="5.92123">
        <ele>344.39999389648</ele>
        <time>2015-08-24T06:00:06.000Z</time>
      </trkpt>
      <trkpt lat="45.2658" lon="5.92132">
        <ele>345</ele>
        <time>2015-08-24T06:00:09.000Z</time>
      </trkpt>
      <trkpt lat="45.26581" lon="5.92135">
        <ele>345.39999389648</ele>
        <time>2015-08-24T06:00:10.000Z</time>
      </trkpt>
      <trkpt lat="45.26589" lon="5.92155">
        <ele>347.20001220703</ele>
        <time>2015-08-24T06:00:18.000Z</time>
      </trkpt>
      <trkpt lat="45.26598" lon="5.92178">
        <ele>349.60000610352</ele>
        <time>2015-08-24T06:00:26.000Z</time>
      </trkpt>
      <trkpt lat="45.26601" lon="5.92193">
        <ele>351.79998779297</ele>
        <time>2015-08-24T06:00:31.000Z</time>
      </trkpt>
      <trkpt lat="45.26609" lon="5.92217">
        <ele>354.39999389648</ele>
        <time>2015-08-24T06:00:39.000Z</time>
      </trkpt>
      <trkpt lat="45.26617" lon="5.92238">
        <ele>356.39999389648</ele>
        <time>2015-08-24T06:00:46.000Z</time>
      </trkpt>
      <trkpt lat="45.26628" lon="5.92257">
        <ele>357.39999389648</ele>
        <time>2015-08-24T06:00:54.000Z</time>
      </trkpt>
      <trkpt lat="45.26643" lon="5.9227">
        <ele>355</ele>
        <time>2015-08-24T06:01:02.000Z</time>
      </trkpt>
      <trkpt lat="45.26659" lon="5.9228">
        <ele>351.60000610352</ele>
        <time>2015-08-24T06:01:10.000Z</time>
      </trkpt>
      <trkpt lat="45.26673" lon="5.92295">
        <ele>349.60000610352</ele>
        <time>2015-08-24T06:01:17.000Z</time>
      </trkpt>
      <trkpt lat="45.26676" lon="5.92314">
        <ele>352.20001220703</ele>
        <time>2015-08-24T06:01:22.000Z</time>
      </trkpt>
      <trkpt lat="45.26673" lon="5.92321">
        <ele>354</ele>
        <time>2015-08-24T06:01:24.000Z</time>
      </trkpt>
      <trkpt lat="45.26669" lon="5.92324">
        <ele>356</ele>
        <time>2015-08-24T06:01:26.000Z</time>
      </trkpt>
      <trkpt lat="45.26657" lon="5.9232">
        <ele>359.20001220703</ele>
        <time>2015-08-24T06:01:31.000Z</time>
      </trkpt>
      <trkpt lat="45.26655" lon="5.92318">
        <ele>359.39999389648</ele>
        <time>2015-08-24T06:01:32.000Z</time>
      </trkpt>
      <trkpt lat="45.26639" lon="5.92301">
        <ele>361.79998779297</ele>
        <time>2015-08-24T06:01:40.000Z</time>
      </trkpt>
      <trkpt lat="45.26623" lon="5.92284">
        <ele>363.39999389648</ele>
        <time>2015-08-24T06:01:48.000Z</time>
      </trkpt>
      <trkpt lat="45.2661" lon="5.92272">
        <ele>364.20001220703</ele>
        <time>2015-08-24T06:01:55.000Z</time>
      </trkpt>
      <trkpt lat="45.26596" lon="5.92263">
        <ele>365.79998779297</ele>
        <time>2015-08-24T06:02:01.000Z</time>
      </trkpt>
      <trkpt lat="45.26581" lon="5.92251">
        <ele>366.79998779297</ele>
        <time>2015-08-24T06:02:08.000Z</time>
      </trkpt>
      <trkpt lat="45.26564" lon="5.92238">
        <ele>368.39999389648</ele>
        <time>2015-08-24T06:02:16.000Z</time>
      </trkpt>
      <trkpt lat="45.26561" lon="5.92236">
        <ele>368.79998779297</ele>
        <time>2015-08-24T06:02:17.000Z</time>
      </trkpt>
      <trkpt lat="45.26546" lon="5.92222">
        <ele>369.79998779297</ele>
        <time>2015-08-24T06:02:25.000Z</time>
      </trkpt>
      <trkpt lat="45.26533" lon="5.92209">
        <ele>370.20001220703</ele>
        <time>2015-08-24T06:02:32.000Z</time>
      </trkpt>
      <trkpt lat="45.26516" lon="5.92195">
        <ele>371.79998779297</ele>
        <time>2015-08-24T06:02:40.000Z</time>
      </trkpt>
      <trkpt lat="45.26514" lon="5.92194">
        <ele>372</ele>
        <time>2015-08-24T06:02:41.000Z</time>
      </trkpt>
      <trkpt lat="45.26497" lon="5.92182">
        <ele>373.79998779297</ele>
        <time>2015-08-24T06:02:49.000Z</time>
      </trkpt>
      <trkpt lat="45.26495" lon="5.9218">
        <ele>374</ele>
        <time>2015-08-24T06:02:50.000Z</time>
      </trkpt>
      <trkpt lat="45.26474" lon="5.92175">
        <ele>378.20001220703</ele>
        <time>2015-08-24T06:02:57.000Z</time>
      </trkpt>
      <trkpt lat="45.26472" lon="5.92174">
        <ele>378.60000610352</ele>
        <time>2015-08-24T06:02:58.000Z</time>
      </trkpt>
      <trkpt lat="45.26454" lon="5.92164">
        <ele>381</ele>
        <time>2015-08-24T06:03:06.000Z</time>
      </trkpt>
      <trkpt lat="45.26452" lon="5.92163">
        <ele>381.20001220703</ele>
        <time>2015-08-24T06:03:07.000Z</time>
      </trkpt>
      <trkpt lat="45.26438" lon="5.92151">
        <ele>382.39999389648</ele>
        <time>2015-08-24T06:03:14.000Z</time>
      </trkpt>
      <trkpt lat="45.26422" lon="5.92138">
        <ele>384</ele>
        <time>2015-08-24T06:03:22.000Z</time>
      </trkpt>
      <trkpt lat="45.2642" lon="5.92136">
        <ele>384</ele>
        <time>2015-08-24T06:03:23.000Z</time>
      </trkpt>
      <trkpt lat="45.26403" lon="5.92123">
        <ele>385.39999389648</ele>
        <time>2015-08-24T06:03:31.000Z</time>
      </trkpt>
      <trkpt lat="45.26398" lon="5.9212">
        <ele>386</ele>
        <time>2015-08-24T06:03:33.000Z</time>
      </trkpt>
      <trkpt lat="45.26379" lon="5.92111">
        <ele>389</ele>
        <time>2015-08-24T06:03:40.000Z</time>
      </trkpt>
      <trkpt lat="45.26363" lon="5.92098">
        <ele>389.60000610352</ele>
        <time>2015-08-24T06:03:47.000Z</time>
      </trkpt>
      <trkpt lat="45.26352" lon="5.9209">
        <ele>390.39999389648</ele>
        <time>2015-08-24T06:03:53.000Z</time>
      </trkpt>
      <trkpt lat="45.26332" lon="5.92084">
        <ele>393.20001220703</ele>
        <time>2015-08-24T06:04:01.000Z</time>
      </trkpt>
      <trkpt lat="45.2633" lon="5.92083">
        <ele>393.39999389648</ele>
        <time>2015-08-24T06:04:02.000Z</time>
      </trkpt>
      <trkpt lat="45.26322" lon="5.92081">
        <ele>394.60000610352</ele>
        <time>2015-08-24T06:04:06.000Z</time>
      </trkpt>
      <trkpt lat="45.26305" lon="5.92077">
        <ele>397.20001220703</ele>
        <time>2015-08-24T06:04:13.000Z</time>
      </trkpt>
      <trkpt lat="45.26289" lon="5.92074">
        <ele>399.39999389648</ele>
        <time>2015-08-24T06:04:19.000Z</time>
      </trkpt>
      <trkpt lat="45.26273" lon="5.92066">
        <ele>400.60000610352</ele>
        <time>2015-08-24T06:04:24.000Z</time>
      </trkpt>
      <trkpt lat="45.26255" lon="5.9206">
        <ele>402.60000610352</ele>
        <time>2015-08-24T06:04:31.000Z</time>
      </trkpt>
      <trkpt lat="45.26252" lon="5.92059">
        <ele>402.79998779297</ele>
        <time>2015-08-24T06:04:32.000Z</time>
      </trkpt>
      <trkpt lat="45.26242" lon="5.92052">
        <ele>403.39999389648</ele>
        <time>2015-08-24T06:04:38.000Z</time>
      </trkpt>
      <trkpt lat="45.26229" lon="5.9204">
        <ele>403.60000610352</ele>
        <time>2015-08-24T06:04:43.000Z</time>
      </trkpt>
      <trkpt lat="45.26228" lon="5.92037">
        <ele>403.20001220703</ele>
        <time>2015-08-24T06:04:45.000Z</time>
      </trkpt>
      <trkpt lat="45.26226" lon="5.92029">
        <ele>402.39999389648</ele>
        <time>2015-08-24T06:04:48.000Z</time>
      </trkpt>
      <trkpt lat="45.26219" lon="5.9202">
        <ele>402.20001220703</ele>
        <time>2015-08-24T06:04:52.000Z</time>
      </trkpt>
      <trkpt lat="45.26215" lon="5.92015">
        <ele>402.20001220703</ele>
        <time>2015-08-24T06:04:54.000Z</time>
      </trkpt>
      <trkpt lat="45.262" lon="5.91997">
        <ele>403</ele>
        <time>2015-08-24T06:05:01.000Z</time>
      </trkpt>
      <trkpt lat="45.26188" lon="5.91982">
        <ele>403.79998779297</ele>
        <time>2015-08-24T06:05:08.000Z</time>
      </trkpt>
      <trkpt lat="45.26175" lon="5.91965">
        <ele>404.39999389648</ele>
        <time>2015-08-24T06:05:15.000Z</time>
      </trkpt>
      <trkpt lat="45.26165" lon="5.91951">
        <ele>404.39999389648</ele>
        <time>2015-08-24T06:05:21.000Z</time>
      </trkpt>
      <trkpt lat="45.26155" lon="5.9194">
        <ele>404.79998779297</ele>
        <time>2015-08-24T06:05:26.000Z</time>
      </trkpt>
      <trkpt lat="45.26141" lon="5.91928">
        <ele>406.20001220703</ele>
        <time>2015-08-24T06:05:32.000Z</time>
      </trkpt>
      <trkpt lat="45.26122" lon="5.91917">
        <ele>408.79998779297</ele>
        <time>2015-08-24T06:05:40.000Z</time>
      </trkpt>
      <trkpt lat="45.26106" lon="5.91907">
        <ele>410.60000610352</ele>
        <time>2015-08-24T06:05:48.000Z</time>
      </trkpt>
      <trkpt lat="45.26089" lon="5.91898">
        <ele>412.60000610352</ele>
        <time>2015-08-24T06:05:56.000Z</time>
      </trkpt>
      <trkpt lat="45.26078" lon="5.91892">
        <ele>414</ele>
        <time>2015-08-24T06:06:01.000Z</time>
      </trkpt>
      <trkpt lat="45.26066" lon="5.91886">
        <ele>415.39999389648</ele>
        <time>2015-08-24T06:06:06.000Z</time>
      </trkpt>
      <trkpt lat="45.26054" lon="5.9188">
        <ele>416.39999389648</ele>
        <time>2015-08-24T06:06:11.000Z</time>
      </trkpt>
      <trkpt lat="45.26042" lon="5.91877">
        <ele>418</ele>
        <time>2015-08-24T06:06:16.000Z</time>
      </trkpt>
      <trkpt lat="45.26035" lon="5.91876">
        <ele>419.79998779297</ele>
        <time>2015-08-24T06:06:20.000Z</time>
      </trkpt>
      <trkpt lat="45.2603" lon="5.91875">
        <ele>420.39999389648</ele>
        <time>2015-08-24T06:06:22.000Z</time>
      </trkpt>
      <trkpt lat="45.26015" lon="5.91875">
        <ele>424.20001220703</ele>
        <time>2015-08-24T06:06:28.000Z</time>
      </trkpt>
      <trkpt lat="45.26006" lon="5.91876">
        <ele>426.79998779297</ele>
        <time>2015-08-24T06:06:31.000Z</time>
      </trkpt>
      <trkpt lat="45.25996" lon="5.91876">
        <ele>429.39999389648</ele>
        <time>2015-08-24T06:06:34.000Z</time>
      </trkpt>
      <trkpt lat="45.25985" lon="5.91875">
        <ele>432</ele>
        <time>2015-08-24T06:06:38.000Z</time>
      </trkpt>
      <trkpt lat="45.25967" lon="5.91874">
        <ele>436</ele>
        <time>2015-08-24T06:06:44.000Z</time>
      </trkpt>
      <trkpt lat="45.25947" lon="5.91866">
        <ele>438.79998779297</ele>
        <time>2015-08-24T06:06:51.000Z</time>
      </trkpt>
      <trkpt lat="45.25933" lon="5.91857">
        <ele>439.79998779297</ele>
        <time>2015-08-24T06:06:58.000Z</time>
      </trkpt>
      <trkpt lat="45.25922" lon="5.91847">
        <ele>439.79998779297</ele>
        <time>2015-08-24T06:07:03.000Z</time>
      </trkpt>
      <trkpt lat="45.25906" lon="5.91831">
        <ele>439.39999389648</ele>
        <time>2015-08-24T06:07:10.000Z</time>
      </trkpt>
      <trkpt lat="45.25892" lon="5.91818">
        <ele>439.20001220703</ele>
        <time>2015-08-24T06:07:17.000Z</time>
      </trkpt>
      <trkpt lat="45.25878" lon="5.91802">
        <ele>437.79998779297</ele>
        <time>2015-08-24T06:07:23.000Z</time>
      </trkpt>
      <trkpt lat="45.25865" lon="5.91789">
        <ele>439.20001220703</ele>
        <time>2015-08-24T06:07:28.000Z</time>
      </trkpt>
      <trkpt lat="45.25852" lon="5.91782">
        <ele>442.60000610352</ele>
        <time>2015-08-24T06:07:33.000Z</time>
      </trkpt>
      <trkpt lat="45.25846" lon="5.91769">
        <ele>441.20001220703</ele>
        <time>2015-08-24T06:07:39.000Z</time>
      </trkpt>
      <trkpt lat="45.25839" lon="5.91759">
        <ele>440.60000610352</ele>
        <time>2015-08-24T06:07:44.000Z</time>
      </trkpt>
      <trkpt lat="45.25824" lon="5.91739">
        <ele>440.79998779297</ele>
        <time>2015-08-24T06:07:50.000Z</time>
      </trkpt>
      <trkpt lat="45.25815" lon="5.91729">
        <ele>441.20001220703</ele>
        <time>2015-08-24T06:07:54.000Z</time>
      </trkpt>
      <trkpt lat="45.25813" lon="5.91724">
        <ele>440.39999389648</ele>
        <time>2015-08-24T06:07:56.000Z</time>
      </trkpt>
      <trkpt lat="45.25811" lon="5.91722">
        <ele>440.79998779297</ele>
        <time>2015-08-24T06:07:57.000Z</time>
      </trkpt>
      <trkpt lat="45.25803" lon="5.91714">
        <ele>441.39999389648</ele>
        <time>2015-08-24T06:08:01.000Z</time>
      </trkpt>
      <trkpt lat="45.25789" lon="5.91703">
        <ele>443.60000610352</ele>
        <time>2015-08-24T06:08:07.000Z</time>
      </trkpt>
      <trkpt lat="45.25775" lon="5.91689">
        <ele>445</ele>
        <time>2015-08-24T06:08:13.000Z</time>
      </trkpt>
      <trkpt lat="45.25765" lon="5.91681">
        <ele>446.20001220703</ele>
        <time>2015-08-24T06:08:18.000Z</time>
      </trkpt>
      <trkpt lat="45.25764" lon="5.91679">
        <ele>446</ele>
        <time>2015-08-24T06:08:19.000Z</time>
      </trkpt>
      <trkpt lat="45.25751" lon="5.91668">
        <ele>447.20001220703</ele>
        <time>2015-08-24T06:08:24.000Z</time>
      </trkpt>
      <trkpt lat="45.25738" lon="5.91654">
        <ele>448.20001220703</ele>
        <time>2015-08-24T06:08:30.000Z</time>
      </trkpt>
      <trkpt lat="45.25731" lon="5.91643">
        <ele>447</ele>
        <time>2015-08-24T06:08:35.000Z</time>
      </trkpt>
      <trkpt lat="45.25716" lon="5.91628">
        <ele>449</ele>
        <time>2015-08-24T06:08:42.000Z</time>
      </trkpt>
      <trkpt lat="45.25707" lon="5.91617">
        <ele>449</ele>
        <time>2015-08-24T06:08:47.000Z</time>
      </trkpt>
      <trkpt lat="45.25695" lon="5.91602">
        <ele>448.60000610352</ele>
        <time>2015-08-24T06:08:54.000Z</time>
      </trkpt>
      <trkpt lat="45.25693" lon="5.916">
        <ele>448.60000610352</ele>
        <time>2015-08-24T06:08:55.000Z</time>
      </trkpt>
      <trkpt lat="45.25684" lon="5.9159">
        <ele>448.60000610352</ele>
        <time>2015-08-24T06:08:59.000Z</time>
      </trkpt>
      <trkpt lat="45.25669" lon="5.91578">
        <ele>450</ele>
        <time>2015-08-24T06:09:06.000Z</time>
      </trkpt>
      <trkpt lat="45.25658" lon="5.91569">
        <ele>451</ele>
        <time>2015-08-24T06:09:11.000Z</time>
      </trkpt>
      <trkpt lat="45.25643" lon="5.91557">
        <ele>452.39999389648</ele>
        <time>2015-08-24T06:09:18.000Z</time>
      </trkpt>
      <trkpt lat="45.25631" lon="5.91549">
        <ele>453.60000610352</ele>
        <time>2015-08-24T06:09:24.000Z</time>
      </trkpt>
      <trkpt lat="45.25617" lon="5.91542">
        <ele>455</ele>
        <time>2015-08-24T06:09:30.000Z</time>
      </trkpt>
      <trkpt lat="45.25599" lon="5.91534">
        <ele>457.39999389648</ele>
        <time>2015-08-24T06:09:37.000Z</time>
      </trkpt>
      <trkpt lat="45.2558" lon="5.91533">
        <ele>462.39999389648</ele>
        <time>2015-08-24T06:09:45.000Z</time>
      </trkpt>
      <trkpt lat="45.25562" lon="5.91531">
        <ele>466.79998779297</ele>
        <time>2015-08-24T06:09:53.000Z</time>
      </trkpt>
      <trkpt lat="45.25548" lon="5.91528">
        <ele>469.20001220703</ele>
        <time>2015-08-24T06:09:58.000Z</time>
      </trkpt>
      <trkpt lat="45.25538" lon="5.91528">
        <ele>471.20001220703</ele>
        <time>2015-08-24T06:10:01.000Z</time>
      </trkpt>
      <trkpt lat="45.25518" lon="5.91528">
        <ele>474.20001220703</ele>
        <time>2015-08-24T06:10:07.000Z</time>
      </trkpt>
      <trkpt lat="45.25511" lon="5.91527">
        <ele>475</ele>
        <time>2015-08-24T06:10:10.000Z</time>
      </trkpt>
      <trkpt lat="45.25492" lon="5.91526">
        <ele>477.79998779297</ele>
        <time>2015-08-24T06:10:17.000Z</time>
      </trkpt>
      <trkpt lat="45.25487" lon="5.91527">
        <ele>479</ele>
        <time>2015-08-24T06:10:19.000Z</time>
      </trkpt>
      <trkpt lat="45.25469" lon="5.91533">
        <ele>483.60000610352</ele>
        <time>2015-08-24T06:10:26.000Z</time>
      </trkpt>
      <trkpt lat="45.25464" lon="5.91536">
        <ele>485.39999389648</ele>
        <time>2015-08-24T06:10:28.000Z</time>
      </trkpt>
      <trkpt lat="45.25448" lon="5.91544">
        <ele>486.79998779297</ele>
        <time>2015-08-24T06:10:33.000Z</time>
      </trkpt>
      <trkpt lat="45.25441" lon="5.91553">
        <ele>487.20001220703</ele>
        <time>2015-08-24T06:10:38.000Z</time>
      </trkpt>
      <trkpt lat="45.25435" lon="5.9156">
        <ele>488</ele>
        <time>2015-08-24T06:10:43.000Z</time>
      </trkpt>
      <trkpt lat="45.25431" lon="5.9157">
        <ele>490</ele>
        <time>2015-08-24T06:10:48.000Z</time>
      </trkpt>
      <trkpt lat="45.25424" lon="5.91578">
        <ele>490.60000610352</ele>
        <time>2015-08-24T06:10:52.000Z</time>
      </trkpt>
      <trkpt lat="45.25419" lon="5.91597">
        <ele>495.20001220703</ele>
        <time>2015-08-24T06:10:59.000Z</time>
      </trkpt>
      <trkpt lat="45.25413" lon="5.91609">
        <ele>497.79998779297</ele>
        <time>2015-08-24T06:11:04.000Z</time>
      </trkpt>
      <trkpt lat="45.25402" lon="5.91624">
        <ele>500.20001220703</ele>
        <time>2015-08-24T06:11:10.000Z</time>
      </trkpt>
      <trkpt lat="45.25392" lon="5.91637">
        <ele>502.20001220703</ele>
        <time>2015-08-24T06:11:15.000Z</time>
      </trkpt>
      <trkpt lat="45.25383" lon="5.91655">
        <ele>505</ele>
        <time>2015-08-24T06:11:21.000Z</time>
      </trkpt>
      <trkpt lat="45.25374" lon="5.9167">
        <ele>504.39999389648</ele>
        <time>2015-08-24T06:11:26.000Z</time>
      </trkpt>
      <trkpt lat="45.2537" lon="5.91686">
        <ele>505.39999389648</ele>
        <time>2015-08-24T06:11:31.000Z</time>
      </trkpt>
      <trkpt lat="45.25362" lon="5.91702">
        <ele>504.60000610352</ele>
        <time>2015-08-24T06:11:36.000Z</time>
      </trkpt>
      <trkpt lat="45.25354" lon="5.91721">
        <ele>506.20001220703</ele>
        <time>2015-08-24T06:11:42.000Z</time>
      </trkpt>
      <trkpt lat="45.25349" lon="5.9174">
        <ele>507</ele>
        <time>2015-08-24T06:11:48.000Z</time>
      </trkpt>
      <trkpt lat="45.25346" lon="5.91757">
        <ele>507.79998779297</ele>
        <time>2015-08-24T06:11:53.000Z</time>
      </trkpt>
      <trkpt lat="45.25341" lon="5.91777">
        <ele>509.20001220703</ele>
        <time>2015-08-24T06:11:59.000Z</time>
      </trkpt>
      <trkpt lat="45.25335" lon="5.91796">
        <ele>512</ele>
        <time>2015-08-24T06:12:05.000Z</time>
      </trkpt>
      <trkpt lat="45.25334" lon="5.91799">
        <ele>512.20001220703</ele>
        <time>2015-08-24T06:12:06.000Z</time>
      </trkpt>
      <trkpt lat="45.25327" lon="5.9181">
        <ele>512.59997558594</ele>
        <time>2015-08-24T06:12:10.000Z</time>
      </trkpt>
      <trkpt lat="45.25323" lon="5.91826">
        <ele>514.59997558594</ele>
        <time>2015-08-24T06:12:15.000Z</time>
      </trkpt>
      <trkpt lat="45.25317" lon="5.91842">
        <ele>515.79998779297</ele>
        <time>2015-08-24T06:12:20.000Z</time>
      </trkpt>
      <trkpt lat="45.25311" lon="5.9186">
        <ele>516.79998779297</ele>
        <time>2015-08-24T06:12:26.000Z</time>
      </trkpt>
      <trkpt lat="45.25306" lon="5.91876">
        <ele>518</ele>
        <time>2015-08-24T06:12:32.000Z</time>
      </trkpt>
      <trkpt lat="45.25306" lon="5.91885">
        <ele>519.59997558594</ele>
        <time>2015-08-24T06:12:35.000Z</time>
      </trkpt>
      <trkpt lat="45.25303" lon="5.91894">
        <ele>519.79998779297</ele>
        <time>2015-08-24T06:12:38.000Z</time>
      </trkpt>
      <trkpt lat="45.253" lon="5.91908">
        <ele>521.79998779297</ele>
        <time>2015-08-24T06:12:43.000Z</time>
      </trkpt>
      <trkpt lat="45.25299" lon="5.91918">
        <ele>523.40002441406</ele>
        <time>2015-08-24T06:12:47.000Z</time>
      </trkpt>
      <trkpt lat="45.25295" lon="5.9192">
        <ele>522.79998779297</ele>
        <time>2015-08-24T06:12:49.000Z</time>
      </trkpt>
      <trkpt lat="45.25283" lon="5.91935">
        <ele>520.20001220703</ele>
        <time>2015-08-24T06:12:56.000Z</time>
      </trkpt>
      <trkpt lat="45.25282" lon="5.91938">
        <ele>520.20001220703</ele>
        <time>2015-08-24T06:12:57.000Z</time>
      </trkpt>
      <trkpt lat="45.25279" lon="5.9195">
        <ele>521.20001220703</ele>
        <time>2015-08-24T06:13:00.000Z</time>
      </trkpt>
      <trkpt lat="45.25277" lon="5.91957">
        <ele>522</ele>
        <time>2015-08-24T06:13:02.000Z</time>
      </trkpt>
      <trkpt lat="45.25271" lon="5.91972">
        <ele>522.20001220703</ele>
        <time>2015-08-24T06:13:07.000Z</time>
      </trkpt>
      <trkpt lat="45.25266" lon="5.91988">
        <ele>523.20001220703</ele>
        <time>2015-08-24T06:13:12.000Z</time>
      </trkpt>
      <trkpt lat="45.25259" lon="5.92011">
        <ele>524.59997558594</ele>
        <time>2015-08-24T06:13:19.000Z</time>
      </trkpt>
      <trkpt lat="45.25255" lon="5.92027">
        <ele>526.40002441406</ele>
        <time>2015-08-24T06:13:24.000Z</time>
      </trkpt>
      <trkpt lat="45.25252" lon="5.92057">
        <ele>532</ele>
        <time>2015-08-24T06:13:32.000Z</time>
      </trkpt>
      <trkpt lat="45.25245" lon="5.92082">
        <ele>534.40002441406</ele>
        <time>2015-08-24T06:13:38.000Z</time>
      </trkpt>
      <trkpt lat="45.25246" lon="5.92086">
        <ele>535.40002441406</ele>
        <time>2015-08-24T06:13:39.000Z</time>
      </trkpt>
      <trkpt lat="45.25245" lon="5.92095">
        <ele>536.59997558594</ele>
        <time>2015-08-24T06:13:42.000Z</time>
      </trkpt>
      <trkpt lat="45.2524" lon="5.9211">
        <ele>536.20001220703</ele>
        <time>2015-08-24T06:13:47.000Z</time>
      </trkpt>
      <trkpt lat="45.25239" lon="5.92119">
        <ele>536.79998779297</ele>
        <time>2015-08-24T06:13:49.000Z</time>
      </trkpt>
      <trkpt lat="45.25233" lon="5.92135">
        <ele>535.79998779297</ele>
        <time>2015-08-24T06:13:54.000Z</time>
      </trkpt>
      <trkpt lat="45.2523" lon="5.92155">
        <ele>536</ele>
        <time>2015-08-24T06:14:00.000Z</time>
      </trkpt>
      <trkpt lat="45.25233" lon="5.92177">
        <ele>538.20001220703</ele>
        <time>2015-08-24T06:14:06.000Z</time>
      </trkpt>
      <trkpt lat="45.25235" lon="5.92197">
        <ele>539.59997558594</ele>
        <time>2015-08-24T06:14:12.000Z</time>
      </trkpt>
      <trkpt lat="45.25239" lon="5.92219">
        <ele>542.59997558594</ele>
        <time>2015-08-24T06:14:19.000Z</time>
      </trkpt>
      <trkpt lat="45.25241" lon="5.92234">
        <ele>543.20001220703</ele>
        <time>2015-08-24T06:14:25.000Z</time>
      </trkpt>
      <trkpt lat="45.25244" lon="5.92237">
        <ele>544.40002441406</ele>
        <time>2015-08-24T06:14:26.000Z</time>
      </trkpt>
      <trkpt lat="45.25242" lon="5.92244">
        <ele>543.20001220703</ele>
        <time>2015-08-24T06:14:29.000Z</time>
      </trkpt>
      <trkpt lat="45.25243" lon="5.92261">
        <ele>542.79998779297</ele>
        <time>2015-08-24T06:14:35.000Z</time>
      </trkpt>
      <trkpt lat="45.25249" lon="5.92281">
        <ele>545.20001220703</ele>
        <time>2015-08-24T06:14:41.000Z</time>
      </trkpt>
      <trkpt lat="45.25249" lon="5.92284">
        <ele>545.40002441406</ele>
        <time>2015-08-24T06:14:42.000Z</time>
      </trkpt>
      <trkpt lat="45.25252" lon="5.92299">
        <ele>546.59997558594</ele>
        <time>2015-08-24T06:14:47.000Z</time>
      </trkpt>
      <trkpt lat="45.25256" lon="5.92318">
        <ele>548.59997558594</ele>
        <time>2015-08-24T06:14:53.000Z</time>
      </trkpt>
      <trkpt lat="45.25259" lon="5.92338">
        <ele>549.79998779297</ele>
        <time>2015-08-24T06:15:00.000Z</time>
      </trkpt>
      <trkpt lat="45.25261" lon="5.92352">
        <ele>550.20001220703</ele>
        <time>2015-08-24T06:15:05.000Z</time>
      </trkpt>
      <trkpt lat="45.25261" lon="5.92355">
        <ele>550.40002441406</ele>
        <time>2015-08-24T06:15:06.000Z</time>
      </trkpt>
      <trkpt lat="45.25267" lon="5.92373">
        <ele>554.20001220703</ele>
        <time>2015-08-24T06:15:11.000Z</time>
      </trkpt>
      <trkpt lat="45.25269" lon="5.9239">
        <ele>555.59997558594</ele>
        <time>2015-08-24T06:15:17.000Z</time>
      </trkpt>
      <trkpt lat="45.25268" lon="5.92392">
        <ele>555.40002441406</ele>
        <time>2015-08-24T06:15:18.000Z</time>
      </trkpt>
      <trkpt lat="45.25267" lon="5.92399">
        <ele>555</ele>
        <time>2015-08-24T06:15:21.000Z</time>
      </trkpt>
      <trkpt lat="45.25271" lon="5.92412">
        <ele>556.79998779297</ele>
        <time>2015-08-24T06:15:26.000Z</time>
      </trkpt>
      <trkpt lat="45.25275" lon="5.92418">
        <ele>558.79998779297</ele>
        <time>2015-08-24T06:15:28.000Z</time>
      </trkpt>
      <trkpt lat="45.25277" lon="5.9243">
        <ele>559.59997558594</ele>
        <time>2015-08-24T06:15:32.000Z</time>
      </trkpt>
      <trkpt lat="45.2528" lon="5.92445">
        <ele>561.59997558594</ele>
        <time>2015-08-24T06:15:38.000Z</time>
      </trkpt>
      <trkpt lat="45.25282" lon="5.92461">
        <ele>562.59997558594</ele>
        <time>2015-08-24T06:15:45.000Z</time>
      </trkpt>
      <trkpt lat="45.25281" lon="5.92463">
        <ele>562.20001220703</ele>
        <time>2015-08-24T06:15:46.000Z</time>
      </trkpt>
      <trkpt lat="45.25279" lon="5.9247">
        <ele>562</ele>
        <time>2015-08-24T06:15:50.000Z</time>
      </trkpt>
      <trkpt lat="45.25269" lon="5.92484">
        <ele>559.79998779297</ele>
        <time>2015-08-24T06:15:56.000Z</time>
      </trkpt>
      <trkpt lat="45.25266" lon="5.92506">
        <ele>561</ele>
        <time>2015-08-24T06:16:03.000Z</time>
      </trkpt>
      <trkpt lat="45.2526" lon="5.92523">
        <ele>560.59997558594</ele>
        <time>2015-08-24T06:16:08.000Z</time>
      </trkpt>
      <trkpt lat="45.25254" lon="5.92543">
        <ele>562.59997558594</ele>
        <time>2015-08-24T06:16:15.000Z</time>
      </trkpt>
      <trkpt lat="45.25249" lon="5.92559">
        <ele>563.59997558594</ele>
        <time>2015-08-24T06:16:20.000Z</time>
      </trkpt>
      <trkpt lat="45.25246" lon="5.92568">
        <ele>563.79998779297</ele>
        <time>2015-08-24T06:16:24.000Z</time>
      </trkpt>
      <trkpt lat="45.25243" lon="5.92576">
        <ele>563.79998779297</ele>
        <time>2015-08-24T06:16:27.000Z</time>
      </trkpt>
      <trkpt lat="45.25241" lon="5.92588">
        <ele>565</ele>
        <time>2015-08-24T06:16:33.000Z</time>
      </trkpt>
      <trkpt lat="45.25235" lon="5.926">
        <ele>566.59997558594</ele>
        <time>2015-08-24T06:16:39.000Z</time>
      </trkpt>
      <trkpt lat="45.25221" lon="5.92616">
        <ele>567.79998779297</ele>
        <time>2015-08-24T06:16:47.000Z</time>
      </trkpt>
      <trkpt lat="45.25219" lon="5.92618">
        <ele>567.79998779297</ele>
        <time>2015-08-24T06:16:48.000Z</time>
      </trkpt>
      <trkpt lat="45.25203" lon="5.92629">
        <ele>568</ele>
        <time>2015-08-24T06:16:56.000Z</time>
      </trkpt>
      <trkpt lat="45.25189" lon="5.92636">
        <ele>566.79998779297</ele>
        <time>2015-08-24T06:17:01.000Z</time>
      </trkpt>
      <trkpt lat="45.25171" lon="5.92649">
        <ele>566.59997558594</ele>
        <time>2015-08-24T06:17:09.000Z</time>
      </trkpt>
      <trkpt lat="45.25157" lon="5.92661">
        <ele>567.20001220703</ele>
        <time>2015-08-24T06:17:15.000Z</time>
      </trkpt>
      <trkpt lat="45.25145" lon="5.92682">
        <ele>568</ele>
        <time>2015-08-24T06:17:22.000Z</time>
      </trkpt>
      <trkpt lat="45.2513" lon="5.92698">
        <ele>567</ele>
        <time>2015-08-24T06:17:28.000Z</time>
      </trkpt>
      <trkpt lat="45.25128" lon="5.92701">
        <ele>567</ele>
        <time>2015-08-24T06:17:29.000Z</time>
      </trkpt>
      <trkpt lat="45.25118" lon="5.92723">
        <ele>567.79998779297</ele>
        <time>2015-08-24T06:17:36.000Z</time>
      </trkpt>
      <trkpt lat="45.25116" lon="5.9275">
        <ele>571.20001220703</ele>
        <time>2015-08-24T06:17:45.000Z</time>
      </trkpt>
      <trkpt lat="45.25119" lon="5.92774">
        <ele>575.40002441406</ele>
        <time>2015-08-24T06:17:52.000Z</time>
      </trkpt>
      <trkpt lat="45.25118" lon="5.928">
        <ele>578.59997558594</ele>
        <time>2015-08-24T06:18:00.000Z</time>
      </trkpt>
      <trkpt lat="45.25117" lon="5.92803">
        <ele>578.40002441406</ele>
        <time>2015-08-24T06:18:01.000Z</time>
      </trkpt>
      <trkpt lat="45.25118" lon="5.92831">
        <ele>578.40002441406</ele>
        <time>2015-08-24T06:18:10.000Z</time>
      </trkpt>
      <trkpt lat="45.25125" lon="5.92855">
        <ele>580.59997558594</ele>
        <time>2015-08-24T06:18:18.000Z</time>
      </trkpt>
      <trkpt lat="45.25131" lon="5.92873">
        <ele>582</ele>
        <time>2015-08-24T06:18:24.000Z</time>
      </trkpt>
      <trkpt lat="45.25132" lon="5.92892">
        <ele>581.79998779297</ele>
        <time>2015-08-24T06:18:31.000Z</time>
      </trkpt>
      <trkpt lat="45.25144" lon="5.9291">
        <ele>584.59997558594</ele>
        <time>2015-08-24T06:18:39.000Z</time>
      </trkpt>
      <trkpt lat="45.25153" lon="5.92926">
        <ele>586.59997558594</ele>
        <time>2015-08-24T06:18:46.000Z</time>
      </trkpt>
      <trkpt lat="45.25165" lon="5.92945">
        <ele>589.20001220703</ele>
        <time>2015-08-24T06:18:54.000Z</time>
      </trkpt>
      <trkpt lat="45.2518" lon="5.92962">
        <ele>593.20001220703</ele>
        <time>2015-08-24T06:19:03.000Z</time>
      </trkpt>
      <trkpt lat="45.25195" lon="5.92981">
        <ele>596.59997558594</ele>
        <time>2015-08-24T06:19:11.000Z</time>
      </trkpt>
      <trkpt lat="45.25196" lon="5.92984">
        <ele>596.79998779297</ele>
        <time>2015-08-24T06:19:12.000Z</time>
      </trkpt>
      <trkpt lat="45.25209" lon="5.93003">
        <ele>599.20001220703</ele>
        <time>2015-08-24T06:19:20.000Z</time>
      </trkpt>
      <trkpt lat="45.25223" lon="5.93016">
        <ele>602.20001220703</ele>
        <time>2015-08-24T06:19:27.000Z</time>
      </trkpt>
      <trkpt lat="45.25236" lon="5.93038">
        <ele>604.20001220703</ele>
        <time>2015-08-24T06:19:37.000Z</time>
      </trkpt>
      <trkpt lat="45.25238" lon="5.9304">
        <ele>604.40002441406</ele>
        <time>2015-08-24T06:19:38.000Z</time>
      </trkpt>
      <trkpt lat="45.25248" lon="5.93064">
        <ele>605.59997558594</ele>
        <time>2015-08-24T06:19:46.000Z</time>
      </trkpt>
      <trkpt lat="45.25249" lon="5.93067">
        <ele>605.79998779297</ele>
        <time>2015-08-24T06:19:47.000Z</time>
      </trkpt>
      <trkpt lat="45.25252" lon="5.93083">
        <ele>605.79998779297</ele>
        <time>2015-08-24T06:19:52.000Z</time>
      </trkpt>
      <trkpt lat="45.25254" lon="5.9311">
        <ele>605.20001220703</ele>
        <time>2015-08-24T06:19:59.000Z</time>
      </trkpt>
      <trkpt lat="45.25256" lon="5.93136">
        <ele>605.20001220703</ele>
        <time>2015-08-24T06:20:06.000Z</time>
      </trkpt>
      <trkpt lat="45.25257" lon="5.93148">
        <ele>605.20001220703</ele>
        <time>2015-08-24T06:20:09.000Z</time>
      </trkpt>
      <trkpt lat="45.2526" lon="5.93174">
        <ele>605.59997558594</ele>
        <time>2015-08-24T06:20:16.000Z</time>
      </trkpt>
      <trkpt lat="45.2526" lon="5.93178">
        <ele>605.59997558594</ele>
        <time>2015-08-24T06:20:17.000Z</time>
      </trkpt>
      <trkpt lat="45.2526" lon="5.93202">
        <ele>606.20001220703</ele>
        <time>2015-08-24T06:20:24.000Z</time>
      </trkpt>
      <trkpt lat="45.25258" lon="5.9322">
        <ele>606.40002441406</ele>
        <time>2015-08-24T06:20:29.000Z</time>
      </trkpt>
      <trkpt lat="45.25257" lon="5.93242">
        <ele>606.20001220703</ele>
        <time>2015-08-24T06:20:36.000Z</time>
      </trkpt>
      <trkpt lat="45.25258" lon="5.93266">
        <ele>606.79998779297</ele>
        <time>2015-08-24T06:20:43.000Z</time>
      </trkpt>
      <trkpt lat="45.25265" lon="5.93277">
        <ele>608.59997558594</ele>
        <time>2015-08-24T06:20:48.000Z</time>
      </trkpt>
      <trkpt lat="45.25266" lon="5.93277">
        <ele>608.79998779297</ele>
        <time>2015-08-24T06:20:52.000Z</time>
      </trkpt>
      <trkpt lat="45.25265" lon="5.93276">
        <ele>608.59997558594</ele>
        <time>2015-08-24T06:20:54.000Z</time>
      </trkpt>
      <trkpt lat="45.25262" lon="5.93277">
        <ele>608</ele>
        <time>2015-08-24T06:20:59.000Z</time>
      </trkpt>
      <trkpt lat="45.25255" lon="5.93276">
        <ele>606.59997558594</ele>
        <time>2015-08-24T06:22:29.000Z</time>
      </trkpt>
      <trkpt lat="45.25259" lon="5.93279">
        <ele>607.40002441406</ele>
        <time>2015-08-24T06:23:11.000Z</time>
      </trkpt>
      <trkpt lat="45.25275" lon="5.93277">
        <ele>610.79998779297</ele>
        <time>2015-08-24T06:23:47.000Z</time>
      </trkpt>
      <trkpt lat="45.25268" lon="5.93277">
        <ele>609.20001220703</ele>
        <time>2015-08-24T06:25:20.000Z</time>
      </trkpt>
      <trkpt lat="45.25268" lon="5.93284">
        <ele>609.59997558594</ele>
        <time>2015-08-24T06:26:16.000Z</time>
      </trkpt>
      <trkpt lat="45.25264" lon="5.93302">
        <ele>609.59997558594</ele>
        <time>2015-08-24T06:26:24.000Z</time>
      </trkpt>
      <trkpt lat="45.25261" lon="5.93321">
        <ele>609.40002441406</ele>
        <time>2015-08-24T06:26:32.000Z</time>
      </trkpt>
      <trkpt lat="45.25262" lon="5.93338">
        <ele>609.79998779297</ele>
        <time>2015-08-24T06:26:38.000Z</time>
      </trkpt>
      <trkpt lat="45.25264" lon="5.93359">
        <ele>610.40002441406</ele>
        <time>2015-08-24T06:26:46.000Z</time>
      </trkpt>
      <trkpt lat="45.25267" lon="5.93381">
        <ele>611.40002441406</ele>
        <time>2015-08-24T06:26:53.000Z</time>
      </trkpt>
      <trkpt lat="45.25268" lon="5.93402">
        <ele>611.79998779297</ele>
        <time>2015-08-24T06:27:00.000Z</time>
      </trkpt>
      <trkpt lat="45.25271" lon="5.93429">
        <ele>613</ele>
        <time>2015-08-24T06:27:08.000Z</time>
      </trkpt>
      <trkpt lat="45.25276" lon="5.93447">
        <ele>614.59997558594</ele>
        <time>2015-08-24T06:27:15.000Z</time>
      </trkpt>
      <trkpt lat="45.25281" lon="5.93458">
        <ele>615.59997558594</ele>
        <time>2015-08-24T06:27:19.000Z</time>
      </trkpt>
      <trkpt lat="45.25282" lon="5.93461">
        <ele>616</ele>
        <time>2015-08-24T06:27:20.000Z</time>
      </trkpt>
      <trkpt lat="45.25287" lon="5.93469">
        <ele>617.20001220703</ele>
        <time>2015-08-24T06:27:26.000Z</time>
      </trkpt>
      <trkpt lat="45.25295" lon="5.93466">
        <ele>618.59997558594</ele>
        <time>2015-08-24T06:27:31.000Z</time>
      </trkpt>
      <trkpt lat="45.25296" lon="5.9346">
        <ele>618.79998779297</ele>
        <time>2015-08-24T06:27:34.000Z</time>
      </trkpt>
      <trkpt lat="45.25294" lon="5.93452">
        <ele>618.20001220703</ele>
        <time>2015-08-24T06:27:36.000Z</time>
      </trkpt>
      <trkpt lat="45.25297" lon="5.93439">
        <ele>618.59997558594</ele>
        <time>2015-08-24T06:27:43.000Z</time>
      </trkpt>
      <trkpt lat="45.25317" lon="5.93441">
        <ele>624</ele>
        <time>2015-08-24T06:27:49.000Z</time>
      </trkpt>
      <trkpt lat="45.25321" lon="5.93431">
        <ele>625</ele>
        <time>2015-08-24T06:27:56.000Z</time>
      </trkpt>
      <trkpt lat="45.25322" lon="5.93428">
        <ele>625.20001220703</ele>
        <time>2015-08-24T06:27:58.000Z</time>
      </trkpt>
      <trkpt lat="45.25324" lon="5.9342">
        <ele>625.59997558594</ele>
        <time>2015-08-24T06:28:01.000Z</time>
      </trkpt>
      <trkpt lat="45.25329" lon="5.93408">
        <ele>627.20001220703</ele>
        <time>2015-08-24T06:28:06.000Z</time>
      </trkpt>
      <trkpt lat="45.25336" lon="5.93387">
        <ele>629.40002441406</ele>
        <time>2015-08-24T06:28:13.000Z</time>
      </trkpt>
      <trkpt lat="45.25337" lon="5.93366">
        <ele>629.40002441406</ele>
        <time>2015-08-24T06:28:20.000Z</time>
      </trkpt>
      <trkpt lat="45.25344" lon="5.93346">
        <ele>631.79998779297</ele>
        <time>2015-08-24T06:28:27.000Z</time>
      </trkpt>
      <trkpt lat="45.25359" lon="5.93334">
        <ele>636.59997558594</ele>
        <time>2015-08-24T06:28:35.000Z</time>
      </trkpt>
      <trkpt lat="45.25368" lon="5.93323">
        <ele>639.40002441406</ele>
        <time>2015-08-24T06:28:42.000Z</time>
      </trkpt>
      <trkpt lat="45.2537" lon="5.93311">
        <ele>639.79998779297</ele>
        <time>2015-08-24T06:28:48.000Z</time>
      </trkpt>
      <trkpt lat="45.25375" lon="5.93294">
        <ele>642</ele>
        <time>2015-08-24T06:28:57.000Z</time>
      </trkpt>
      <trkpt lat="45.25373" lon="5.93279">
        <ele>641.59997558594</ele>
        <time>2015-08-24T06:29:03.000Z</time>
      </trkpt>
      <trkpt lat="45.25375" lon="5.93261">
        <ele>643.20001220703</ele>
        <time>2015-08-24T06:29:11.000Z</time>
      </trkpt>
      <trkpt lat="45.25374" lon="5.93244">
        <ele>643.20001220703</ele>
        <time>2015-08-24T06:29:19.000Z</time>
      </trkpt>
      <trkpt lat="45.25374" lon="5.93227">
        <ele>643.79998779297</ele>
        <time>2015-08-24T06:29:27.000Z</time>
      </trkpt>
      <trkpt lat="45.25372" lon="5.93223">
        <ele>643.20001220703</ele>
        <time>2015-08-24T06:29:29.000Z</time>
      </trkpt>
      <trkpt lat="45.25371" lon="5.93217">
        <ele>643</ele>
        <time>2015-08-24T06:29:32.000Z</time>
      </trkpt>
      <trkpt lat="45.25372" lon="5.93199">
        <ele>642.20001220703</ele>
        <time>2015-08-24T06:29:40.000Z</time>
      </trkpt>
      <trkpt lat="45.25372" lon="5.93184">
        <ele>641.59997558594</ele>
        <time>2015-08-24T06:29:46.000Z</time>
      </trkpt>
      <trkpt lat="45.25375" lon="5.93166">
        <ele>641.20001220703</ele>
        <time>2015-08-24T06:29:54.000Z</time>
      </trkpt>
      <trkpt lat="45.25382" lon="5.9315">
        <ele>642.79998779297</ele>
        <time>2015-08-24T06:30:03.000Z</time>
      </trkpt>
      <trkpt lat="45.2539" lon="5.93143">
        <ele>645.40002441406</ele>
        <time>2015-08-24T06:30:10.000Z</time>
      </trkpt>
      <trkpt lat="45.25396" lon="5.93144">
        <ele>648</ele>
        <time>2015-08-24T06:30:16.000Z</time>
      </trkpt>
      <trkpt lat="45.25406" lon="5.93151">
        <ele>652.20001220703</ele>
        <time>2015-08-24T06:30:21.000Z</time>
      </trkpt>
      <trkpt lat="45.25411" lon="5.93165">
        <ele>655.59997558594</ele>
        <time>2015-08-24T06:30:28.000Z</time>
      </trkpt>
      <trkpt lat="45.25415" lon="5.93181">
        <ele>658.59997558594</ele>
        <time>2015-08-24T06:30:36.000Z</time>
      </trkpt>
      <trkpt lat="45.25421" lon="5.93198">
        <ele>662</ele>
        <time>2015-08-24T06:30:44.000Z</time>
      </trkpt>
      <trkpt lat="45.25422" lon="5.93215">
        <ele>663.40002441406</ele>
        <time>2015-08-24T06:30:52.000Z</time>
      </trkpt>
      <trkpt lat="45.25423" lon="5.93219">
        <ele>664</ele>
        <time>2015-08-24T06:30:54.000Z</time>
      </trkpt>
      <trkpt lat="45.25424" lon="5.93224">
        <ele>665</ele>
        <time>2015-08-24T06:30:57.000Z</time>
      </trkpt>
      <trkpt lat="45.25428" lon="5.93249">
        <ele>666.79998779297</ele>
        <time>2015-08-24T06:31:06.000Z</time>
      </trkpt>
      <trkpt lat="45.25424" lon="5.93263">
        <ele>665.20001220703</ele>
        <time>2015-08-24T06:31:12.000Z</time>
      </trkpt>
      <trkpt lat="45.25427" lon="5.93283">
        <ele>666</ele>
        <time>2015-08-24T06:31:21.000Z</time>
      </trkpt>
      <trkpt lat="45.25429" lon="5.93298">
        <ele>666.79998779297</ele>
        <time>2015-08-24T06:31:29.000Z</time>
      </trkpt>
      <trkpt lat="45.25434" lon="5.93318">
        <ele>668.59997558594</ele>
        <time>2015-08-24T06:31:38.000Z</time>
      </trkpt>
      <trkpt lat="45.25439" lon="5.93338">
        <ele>670.59997558594</ele>
        <time>2015-08-24T06:31:47.000Z</time>
      </trkpt>
      <trkpt lat="45.25446" lon="5.93362">
        <ele>673.59997558594</ele>
        <time>2015-08-24T06:31:58.000Z</time>
      </trkpt>
      <trkpt lat="45.25452" lon="5.93382">
        <ele>676.20001220703</ele>
        <time>2015-08-24T06:32:08.000Z</time>
      </trkpt>
      <trkpt lat="45.25458" lon="5.93398">
        <ele>678.40002441406</ele>
        <time>2015-08-24T06:32:16.000Z</time>
      </trkpt>
      <trkpt lat="45.25463" lon="5.93414">
        <ele>679.59997558594</ele>
        <time>2015-08-24T06:32:24.000Z</time>
      </trkpt>
      <trkpt lat="45.2547" lon="5.93435">
        <ele>681.59997558594</ele>
        <time>2015-08-24T06:32:33.000Z</time>
      </trkpt>
      <trkpt lat="45.25479" lon="5.93455">
        <ele>684.59997558594</ele>
        <time>2015-08-24T06:32:42.000Z</time>
      </trkpt>
      <trkpt lat="45.2549" lon="5.93476">
        <ele>688.20001220703</ele>
        <time>2015-08-24T06:32:53.000Z</time>
      </trkpt>
      <trkpt lat="45.25499" lon="5.93494">
        <ele>692.59997558594</ele>
        <time>2015-08-24T06:33:03.000Z</time>
      </trkpt>
      <trkpt lat="45.25502" lon="5.93506">
        <ele>693.79998779297</ele>
        <time>2015-08-24T06:33:10.000Z</time>
      </trkpt>
      <trkpt lat="45.25501" lon="5.93506">
        <ele>693.59997558594</ele>
        <time>2015-08-24T06:33:11.000Z</time>
      </trkpt>
      <trkpt lat="45.25495" lon="5.93505">
        <ele>690.79998779297</ele>
        <time>2015-08-24T06:34:16.000Z</time>
      </trkpt>
      <trkpt lat="45.25506" lon="5.93524">
        <ele>695.59997558594</ele>
        <time>2015-08-24T06:34:26.000Z</time>
      </trkpt>
      <trkpt lat="45.25513" lon="5.93538">
        <ele>698.40002441406</ele>
        <time>2015-08-24T06:34:33.000Z</time>
      </trkpt>
      <trkpt lat="45.25523" lon="5.93559">
        <ele>703</ele>
        <time>2015-08-24T06:34:43.000Z</time>
      </trkpt>
      <trkpt lat="45.25528" lon="5.93577">
        <ele>707.79998779297</ele>
        <time>2015-08-24T06:34:51.000Z</time>
      </trkpt>
      <trkpt lat="45.2553" lon="5.93596">
        <ele>710.59997558594</ele>
        <time>2015-08-24T06:34:59.000Z</time>
      </trkpt>
      <trkpt lat="45.25529" lon="5.9362">
        <ele>713</ele>
        <time>2015-08-24T06:35:09.000Z</time>
      </trkpt>
      <trkpt lat="45.25524" lon="5.93637">
        <ele>713.79998779297</ele>
        <time>2015-08-24T06:35:17.000Z</time>
      </trkpt>
      <trkpt lat="45.25519" lon="5.93655">
        <ele>716</ele>
        <time>2015-08-24T06:35:26.000Z</time>
      </trkpt>
      <trkpt lat="45.25516" lon="5.93669">
        <ele>717.79998779297</ele>
        <time>2015-08-24T06:35:34.000Z</time>
      </trkpt>
      <trkpt lat="45.25512" lon="5.93683">
        <ele>719.59997558594</ele>
        <time>2015-08-24T06:35:42.000Z</time>
      </trkpt>
      <trkpt lat="45.25508" lon="5.93696">
        <ele>720.59997558594</ele>
        <time>2015-08-24T06:35:49.000Z</time>
      </trkpt>
      <trkpt lat="45.25508" lon="5.93698">
        <ele>721</ele>
        <time>2015-08-24T06:35:50.000Z</time>
      </trkpt>
      <trkpt lat="45.25506" lon="5.93708">
        <ele>721.59997558594</ele>
        <time>2015-08-24T06:35:55.000Z</time>
      </trkpt>
      <trkpt lat="45.25501" lon="5.93724">
        <ele>721.79998779297</ele>
        <time>2015-08-24T06:36:03.000Z</time>
      </trkpt>
      <trkpt lat="45.25494" lon="5.93739">
        <ele>719.40002441406</ele>
        <time>2015-08-24T06:36:11.000Z</time>
      </trkpt>
      <trkpt lat="45.25488" lon="5.93754">
        <ele>718.40002441406</ele>
        <time>2015-08-24T06:36:19.000Z</time>
      </trkpt>
      <trkpt lat="45.25482" lon="5.9377">
        <ele>720.20001220703</ele>
        <time>2015-08-24T06:36:27.000Z</time>
      </trkpt>
      <trkpt lat="45.25477" lon="5.93781">
        <ele>720.59997558594</ele>
        <time>2015-08-24T06:36:34.000Z</time>
      </trkpt>
      <trkpt lat="45.2547" lon="5.93789">
        <ele>719.59997558594</ele>
        <time>2015-08-24T06:36:40.000Z</time>
      </trkpt>
      <trkpt lat="45.25466" lon="5.93795">
        <ele>719.59997558594</ele>
        <time>2015-08-24T06:36:43.000Z</time>
      </trkpt>
      <trkpt lat="45.25466" lon="5.93799">
        <ele>720.59997558594</ele>
        <time>2015-08-24T06:36:45.000Z</time>
      </trkpt>
      <trkpt lat="45.25464" lon="5.93806">
        <ele>721.20001220703</ele>
        <time>2015-08-24T06:36:50.000Z</time>
      </trkpt>
      <trkpt lat="45.25463" lon="5.93808">
        <ele>721</ele>
        <time>2015-08-24T06:36:51.000Z</time>
      </trkpt>
      <trkpt lat="45.2546" lon="5.93811">
        <ele>720.20001220703</ele>
        <time>2015-08-24T06:36:53.000Z</time>
      </trkpt>
      <trkpt lat="45.25456" lon="5.93816">
        <ele>719.20001220703</ele>
        <time>2015-08-24T06:36:56.000Z</time>
      </trkpt>
      <trkpt lat="45.2545" lon="5.9383">
        <ele>718</ele>
        <time>2015-08-24T06:37:03.000Z</time>
      </trkpt>
      <trkpt lat="45.25445" lon="5.93847">
        <ele>717.59997558594</ele>
        <time>2015-08-24T06:37:11.000Z</time>
      </trkpt>
      <trkpt lat="45.2545" lon="5.93863">
        <ele>720.40002441406</ele>
        <time>2015-08-24T06:37:18.000Z</time>
      </trkpt>
      <trkpt lat="45.25451" lon="5.9388">
        <ele>722.20001220703</ele>
        <time>2015-08-24T06:37:25.000Z</time>
      </trkpt>
      <trkpt lat="45.25453" lon="5.93894">
        <ele>723.40002441406</ele>
        <time>2015-08-24T06:37:33.000Z</time>
      </trkpt>
      <trkpt lat="45.25457" lon="5.93906">
        <ele>725</ele>
        <time>2015-08-24T06:37:39.000Z</time>
      </trkpt>
      <trkpt lat="45.25463" lon="5.93921">
        <ele>726.79998779297</ele>
        <time>2015-08-24T06:37:47.000Z</time>
      </trkpt>
      <trkpt lat="45.25468" lon="5.93935">
        <ele>728.20001220703</ele>
        <time>2015-08-24T06:37:54.000Z</time>
      </trkpt>
      <trkpt lat="45.2547" lon="5.93948">
        <ele>728.59997558594</ele>
        <time>2015-08-24T06:38:01.000Z</time>
      </trkpt>
      <trkpt lat="45.25471" lon="5.93961">
        <ele>729</ele>
        <time>2015-08-24T06:38:07.000Z</time>
      </trkpt>
      <trkpt lat="45.25473" lon="5.93978">
        <ele>729.59997558594</ele>
        <time>2015-08-24T06:38:14.000Z</time>
      </trkpt>
      <trkpt lat="45.25473" lon="5.93998">
        <ele>730.79998779297</ele>
        <time>2015-08-24T06:38:22.000Z</time>
      </trkpt>
      <trkpt lat="45.25473" lon="5.94002">
        <ele>731</ele>
        <time>2015-08-24T06:38:24.000Z</time>
      </trkpt>
      <trkpt lat="45.25472" lon="5.94011">
        <ele>731</ele>
        <time>2015-08-24T06:38:29.000Z</time>
      </trkpt>
      <trkpt lat="45.25473" lon="5.94026">
        <ele>732</ele>
        <time>2015-08-24T06:38:35.000Z</time>
      </trkpt>
      <trkpt lat="45.25476" lon="5.94044">
        <ele>734</ele>
        <time>2015-08-24T06:38:42.000Z</time>
      </trkpt>
      <trkpt lat="45.25477" lon="5.94062">
        <ele>735</ele>
        <time>2015-08-24T06:38:50.000Z</time>
      </trkpt>
      <trkpt lat="45.25476" lon="5.94066">
        <ele>734.79998779297</ele>
        <time>2015-08-24T06:38:52.000Z</time>
      </trkpt>
      <trkpt lat="45.25473" lon="5.94074">
        <ele>734.40002441406</ele>
        <time>2015-08-24T06:38:56.000Z</time>
      </trkpt>
      <trkpt lat="45.25473" lon="5.94076">
        <ele>734.40002441406</ele>
        <time>2015-08-24T06:38:57.000Z</time>
      </trkpt>
      <trkpt lat="45.25473" lon="5.9409">
        <ele>735</ele>
        <time>2015-08-24T06:39:04.000Z</time>
      </trkpt>
      <trkpt lat="45.25471" lon="5.94109">
        <ele>735.20001220703</ele>
        <time>2015-08-24T06:39:12.000Z</time>
      </trkpt>
      <trkpt lat="45.2547" lon="5.94123">
        <ele>735.79998779297</ele>
        <time>2015-08-24T06:39:21.000Z</time>
      </trkpt>
      <trkpt lat="45.25471" lon="5.94127">
        <ele>736.20001220703</ele>
        <time>2015-08-24T06:39:24.000Z</time>
      </trkpt>
      <trkpt lat="45.25472" lon="5.94133">
        <ele>736.79998779297</ele>
        <time>2015-08-24T06:39:27.000Z</time>
      </trkpt>
      <trkpt lat="45.25479" lon="5.94146">
        <ele>739.79998779297</ele>
        <time>2015-08-24T06:39:35.000Z</time>
      </trkpt>
      <trkpt lat="45.25487" lon="5.94162">
        <ele>743.59997558594</ele>
        <time>2015-08-24T06:39:42.000Z</time>
      </trkpt>
      <trkpt lat="45.2549" lon="5.94173">
        <ele>745.79998779297</ele>
        <time>2015-08-24T06:39:49.000Z</time>
      </trkpt>
      <trkpt lat="45.25494" lon="5.94193">
        <ele>748.79998779297</ele>
        <time>2015-08-24T06:39:59.000Z</time>
      </trkpt>
      <trkpt lat="45.25497" lon="5.94208">
        <ele>751</ele>
        <time>2015-08-24T06:40:05.000Z</time>
      </trkpt>
      <trkpt lat="45.25499" lon="5.94232">
        <ele>754.20001220703</ele>
        <time>2015-08-24T06:40:14.000Z</time>
      </trkpt>
      <trkpt lat="45.25493" lon="5.94253">
        <ele>754.40002441406</ele>
        <time>2015-08-24T06:40:23.000Z</time>
      </trkpt>
      <trkpt lat="45.25486" lon="5.9427">
        <ele>754.20001220703</ele>
        <time>2015-08-24T06:40:30.000Z</time>
      </trkpt>
      <trkpt lat="45.25476" lon="5.9429">
        <ele>753.40002441406</ele>
        <time>2015-08-24T06:40:38.000Z</time>
      </trkpt>
      <trkpt lat="45.25471" lon="5.94305">
        <ele>753.40002441406</ele>
        <time>2015-08-24T06:40:45.000Z</time>
      </trkpt>
      <trkpt lat="45.25466" lon="5.9432">
        <ele>753.59997558594</ele>
        <time>2015-08-24T06:40:52.000Z</time>
      </trkpt>
      <trkpt lat="45.25459" lon="5.94339">
        <ele>754</ele>
        <time>2015-08-24T06:41:01.000Z</time>
      </trkpt>
      <trkpt lat="45.25453" lon="5.94354">
        <ele>755.20001220703</ele>
        <time>2015-08-24T06:41:09.000Z</time>
      </trkpt>
      <trkpt lat="45.25451" lon="5.94368">
        <ele>756.40002441406</ele>
        <time>2015-08-24T06:41:16.000Z</time>
      </trkpt>
      <trkpt lat="45.25449" lon="5.94382">
        <ele>757.59997558594</ele>
        <time>2015-08-24T06:41:23.000Z</time>
      </trkpt>
      <trkpt lat="45.25445" lon="5.944">
        <ele>759.40002441406</ele>
        <time>2015-08-24T06:41:31.000Z</time>
      </trkpt>
      <trkpt lat="45.25441" lon="5.9442">
        <ele>762</ele>
        <time>2015-08-24T06:41:40.000Z</time>
      </trkpt>
      <trkpt lat="45.25434" lon="5.94436">
        <ele>763.59997558594</ele>
        <time>2015-08-24T06:41:49.000Z</time>
      </trkpt>
      <trkpt lat="45.25429" lon="5.94451">
        <ele>764.79998779297</ele>
        <time>2015-08-24T06:41:57.000Z</time>
      </trkpt>
      <trkpt lat="45.25428" lon="5.94469">
        <ele>766</ele>
        <time>2015-08-24T06:42:05.000Z</time>
      </trkpt>
      <trkpt lat="45.25427" lon="5.94492">
        <ele>768.59997558594</ele>
        <time>2015-08-24T06:42:16.000Z</time>
      </trkpt>
      <trkpt lat="45.25422" lon="5.94514">
        <ele>771</ele>
        <time>2015-08-24T06:42:26.000Z</time>
      </trkpt>
      <trkpt lat="45.25418" lon="5.94536">
        <ele>771.59997558594</ele>
        <time>2015-08-24T06:42:36.000Z</time>
      </trkpt>
      <trkpt lat="45.25414" lon="5.94549">
        <ele>771.59997558594</ele>
        <time>2015-08-24T06:42:43.000Z</time>
      </trkpt>
      <trkpt lat="45.25411" lon="5.94563">
        <ele>771.79998779297</ele>
        <time>2015-08-24T06:42:50.000Z</time>
      </trkpt>
      <trkpt lat="45.2541" lon="5.94582">
        <ele>773.59997558594</ele>
        <time>2015-08-24T06:42:59.000Z</time>
      </trkpt>
      <trkpt lat="45.25409" lon="5.946">
        <ele>775.20001220703</ele>
        <time>2015-08-24T06:43:07.000Z</time>
      </trkpt>
      <trkpt lat="45.25407" lon="5.94621">
        <ele>776.79998779297</ele>
        <time>2015-08-24T06:43:16.000Z</time>
      </trkpt>
      <trkpt lat="45.25407" lon="5.94641">
        <ele>778.59997558594</ele>
        <time>2015-08-24T06:43:24.000Z</time>
      </trkpt>
      <trkpt lat="45.25406" lon="5.94663">
        <ele>781.40002441406</ele>
        <time>2015-08-24T06:43:33.000Z</time>
      </trkpt>
      <trkpt lat="45.25408" lon="5.94678">
        <ele>782.79998779297</ele>
        <time>2015-08-24T06:43:41.000Z</time>
      </trkpt>
      <trkpt lat="45.25411" lon="5.94689">
        <ele>784</ele>
        <time>2015-08-24T06:43:48.000Z</time>
      </trkpt>
      <trkpt lat="45.25417" lon="5.947">
        <ele>786.79998779297</ele>
        <time>2015-08-24T06:43:55.000Z</time>
      </trkpt>
      <trkpt lat="45.25428" lon="5.94708">
        <ele>791</ele>
        <time>2015-08-24T06:44:02.000Z</time>
      </trkpt>
      <trkpt lat="45.25438" lon="5.94716">
        <ele>795.20001220703</ele>
        <time>2015-08-24T06:44:09.000Z</time>
      </trkpt>
      <trkpt lat="45.25445" lon="5.94725">
        <ele>798.20001220703</ele>
        <time>2015-08-24T06:44:16.000Z</time>
      </trkpt>
      <trkpt lat="45.2545" lon="5.94735">
        <ele>801.20001220703</ele>
        <time>2015-08-24T06:44:22.000Z</time>
      </trkpt>
      <trkpt lat="45.25451" lon="5.9474">
        <ele>802.20001220703</ele>
        <time>2015-08-24T06:44:25.000Z</time>
      </trkpt>
      <trkpt lat="45.25451" lon="5.94745">
        <ele>803</ele>
        <time>2015-08-24T06:44:27.000Z</time>
      </trkpt>
      <trkpt lat="45.25452" lon="5.94749">
        <ele>803.79998779297</ele>
        <time>2015-08-24T06:44:29.000Z</time>
      </trkpt>
      <trkpt lat="45.25451" lon="5.94757">
        <ele>804.20001220703</ele>
        <time>2015-08-24T06:44:33.000Z</time>
      </trkpt>
      <trkpt lat="45.25444" lon="5.94783">
        <ele>804.79998779297</ele>
        <time>2015-08-24T06:44:43.000Z</time>
      </trkpt>
      <trkpt lat="45.25441" lon="5.94799">
        <ele>805.79998779297</ele>
        <time>2015-08-24T06:44:50.000Z</time>
      </trkpt>
      <trkpt lat="45.25441" lon="5.94812">
        <ele>807.59997558594</ele>
        <time>2015-08-24T06:44:57.000Z</time>
      </trkpt>
      <trkpt lat="45.25442" lon="5.94831">
        <ele>810.79998779297</ele>
        <time>2015-08-24T06:45:04.000Z</time>
      </trkpt>
      <trkpt lat="45.25438" lon="5.94847">
        <ele>811.40002441406</ele>
        <time>2015-08-24T06:45:11.000Z</time>
      </trkpt>
      <trkpt lat="45.2543" lon="5.94859">
        <ele>810.40002441406</ele>
        <time>2015-08-24T06:45:18.000Z</time>
      </trkpt>
      <trkpt lat="45.25425" lon="5.94874">
        <ele>811</ele>
        <time>2015-08-24T06:45:25.000Z</time>
      </trkpt>
      <trkpt lat="45.25421" lon="5.94891">
        <ele>812.20001220703</ele>
        <time>2015-08-24T06:45:33.000Z</time>
      </trkpt>
      <trkpt lat="45.25417" lon="5.94912">
        <ele>814.40002441406</ele>
        <time>2015-08-24T06:45:42.000Z</time>
      </trkpt>
      <trkpt lat="45.25416" lon="5.9494">
        <ele>817.40002441406</ele>
        <time>2015-08-24T06:45:52.000Z</time>
      </trkpt>
      <trkpt lat="45.25416" lon="5.94942">
        <ele>817.59997558594</ele>
        <time>2015-08-24T06:45:53.000Z</time>
      </trkpt>
      <trkpt lat="45.25413" lon="5.94968">
        <ele>818.79998779297</ele>
        <time>2015-08-24T06:46:03.000Z</time>
      </trkpt>
      <trkpt lat="45.25413" lon="5.9497">
        <ele>819</ele>
        <time>2015-08-24T06:46:04.000Z</time>
      </trkpt>
      <trkpt lat="45.2541" lon="5.94997">
        <ele>820.59997558594</ele>
        <time>2015-08-24T06:46:14.000Z</time>
      </trkpt>
      <trkpt lat="45.2541" lon="5.95">
        <ele>821</ele>
        <time>2015-08-24T06:46:15.000Z</time>
      </trkpt>
      <trkpt lat="45.2541" lon="5.95026">
        <ele>823.59997558594</ele>
        <time>2015-08-24T06:46:25.000Z</time>
      </trkpt>
      <trkpt lat="45.2541" lon="5.95046">
        <ele>825.79998779297</ele>
        <time>2015-08-24T06:46:33.000Z</time>
      </trkpt>
      <trkpt lat="45.25411" lon="5.95068">
        <ele>827.79998779297</ele>
        <time>2015-08-24T06:46:42.000Z</time>
      </trkpt>
      <trkpt lat="45.25409" lon="5.95094">
        <ele>829</ele>
        <time>2015-08-24T06:46:52.000Z</time>
      </trkpt>
      <trkpt lat="45.25403" lon="5.95113">
        <ele>828.79998779297</ele>
        <time>2015-08-24T06:47:00.000Z</time>
      </trkpt>
      <trkpt lat="45.25397" lon="5.9513">
        <ele>828.79998779297</ele>
        <time>2015-08-24T06:47:08.000Z</time>
      </trkpt>
      <trkpt lat="45.25392" lon="5.95152">
        <ele>829.59997558594</ele>
        <time>2015-08-24T06:47:17.000Z</time>
      </trkpt>
      <trkpt lat="45.2539" lon="5.95176">
        <ele>831.79998779297</ele>
        <time>2015-08-24T06:47:26.000Z</time>
      </trkpt>
      <trkpt lat="45.25389" lon="5.95196">
        <ele>834.40002441406</ele>
        <time>2015-08-24T06:47:34.000Z</time>
      </trkpt>
      <trkpt lat="45.25389" lon="5.95198">
        <ele>834.59997558594</ele>
        <time>2015-08-24T06:47:35.000Z</time>
      </trkpt>
      <trkpt lat="45.25388" lon="5.95213">
        <ele>836.20001220703</ele>
        <time>2015-08-24T06:47:41.000Z</time>
      </trkpt>
      <trkpt lat="45.25387" lon="5.95229">
        <ele>837.59997558594</ele>
        <time>2015-08-24T06:47:48.000Z</time>
      </trkpt>
      <trkpt lat="45.25384" lon="5.95254">
        <ele>840.20001220703</ele>
        <time>2015-08-24T06:47:57.000Z</time>
      </trkpt>
      <trkpt lat="45.25383" lon="5.95278">
        <ele>843</ele>
        <time>2015-08-24T06:48:06.000Z</time>
      </trkpt>
      <trkpt lat="45.25378" lon="5.95301">
        <ele>844.59997558594</ele>
        <time>2015-08-24T06:48:15.000Z</time>
      </trkpt>
      <trkpt lat="45.25376" lon="5.95315">
        <ele>845</ele>
        <time>2015-08-24T06:48:21.000Z</time>
      </trkpt>
      <trkpt lat="45.25374" lon="5.95328">
        <ele>845</ele>
        <time>2015-08-24T06:48:26.000Z</time>
      </trkpt>
      <trkpt lat="45.25371" lon="5.95344">
        <ele>844.79998779297</ele>
        <time>2015-08-24T06:48:33.000Z</time>
      </trkpt>
      <trkpt lat="45.25369" lon="5.95361">
        <ele>845.40002441406</ele>
        <time>2015-08-24T06:48:40.000Z</time>
      </trkpt>
      <trkpt lat="45.25368" lon="5.9538">
        <ele>846.20001220703</ele>
        <time>2015-08-24T06:48:49.000Z</time>
      </trkpt>
      <trkpt lat="45.2537" lon="5.95396">
        <ele>848.59997558594</ele>
        <time>2015-08-24T06:48:56.000Z</time>
      </trkpt>
      <trkpt lat="45.25372" lon="5.95415">
        <ele>852</ele>
        <time>2015-08-24T06:49:03.000Z</time>
      </trkpt>
      <trkpt lat="45.25373" lon="5.95432">
        <ele>854.59997558594</ele>
        <time>2015-08-24T06:49:10.000Z</time>
      </trkpt>
      <trkpt lat="45.2537" lon="5.95452">
        <ele>856.40002441406</ele>
        <time>2015-08-24T06:49:18.000Z</time>
      </trkpt>
      <trkpt lat="45.25368" lon="5.95471">
        <ele>858.20001220703</ele>
        <time>2015-08-24T06:49:26.000Z</time>
      </trkpt>
      <trkpt lat="45.25367" lon="5.95473">
        <ele>858.20001220703</ele>
        <time>2015-08-24T06:49:27.000Z</time>
      </trkpt>
      <trkpt lat="45.25364" lon="5.95482">
        <ele>859</ele>
        <time>2015-08-24T06:49:31.000Z</time>
      </trkpt>
      <trkpt lat="45.25358" lon="5.95503">
        <ele>860.79998779297</ele>
        <time>2015-08-24T06:49:40.000Z</time>
      </trkpt>
      <trkpt lat="45.25351" lon="5.95519">
        <ele>861</ele>
        <time>2015-08-24T06:49:48.000Z</time>
      </trkpt>
      <trkpt lat="45.25338" lon="5.95535">
        <ele>860.20001220703</ele>
        <time>2015-08-24T06:49:57.000Z</time>
      </trkpt>
      <trkpt lat="45.25328" lon="5.95551">
        <ele>860.79998779297</ele>
        <time>2015-08-24T06:50:06.000Z</time>
      </trkpt>
      <trkpt lat="45.25312" lon="5.95559">
        <ele>857.40002441406</ele>
        <time>2015-08-24T06:50:15.000Z</time>
      </trkpt>
      <trkpt lat="45.25294" lon="5.95565">
        <ele>852.79998779297</ele>
        <time>2015-08-24T06:50:22.000Z</time>
      </trkpt>
      <trkpt lat="45.25289" lon="5.95564">
        <ele>852.20001220703</ele>
        <time>2015-08-24T06:50:25.000Z</time>
      </trkpt>
      <trkpt lat="45.25274" lon="5.95562">
        <ele>850</ele>
        <time>2015-08-24T06:50:34.000Z</time>
      </trkpt>
      <trkpt lat="45.25263" lon="5.95568">
        <ele>849.79998779297</ele>
        <time>2015-08-24T06:50:41.000Z</time>
      </trkpt>
      <trkpt lat="45.25255" lon="5.95589">
        <ele>852</ele>
        <time>2015-08-24T06:50:49.000Z</time>
      </trkpt>
      <trkpt lat="45.25253" lon="5.95605">
        <ele>854</ele>
        <time>2015-08-24T06:50:54.000Z</time>
      </trkpt>
      <trkpt lat="45.25255" lon="5.95607">
        <ele>854.40002441406</ele>
        <time>2015-08-24T06:50:55.000Z</time>
      </trkpt>
      <trkpt lat="45.25265" lon="5.95609">
        <ele>856.20001220703</ele>
        <time>2015-08-24T06:51:00.000Z</time>
      </trkpt>
      <trkpt lat="45.25271" lon="5.95608">
        <ele>856.79998779297</ele>
        <time>2015-08-24T06:51:03.000Z</time>
      </trkpt>
      <trkpt lat="45.2528" lon="5.95603">
        <ele>857.20001220703</ele>
        <time>2015-08-24T06:51:08.000Z</time>
      </trkpt>
      <trkpt lat="45.25287" lon="5.95597">
        <ele>857.20001220703</ele>
        <time>2015-08-24T06:51:14.000Z</time>
      </trkpt>
      <trkpt lat="45.25297" lon="5.95594">
        <ele>858</ele>
        <time>2015-08-24T06:51:19.000Z</time>
      </trkpt>
      <trkpt lat="45.25309" lon="5.95587">
        <ele>860.79998779297</ele>
        <time>2015-08-24T06:51:27.000Z</time>
      </trkpt>
      <trkpt lat="45.2532" lon="5.95582">
        <ele>863.59997558594</ele>
        <time>2015-08-24T06:51:34.000Z</time>
      </trkpt>
      <trkpt lat="45.25324" lon="5.95579">
        <ele>864.79998779297</ele>
        <time>2015-08-24T06:51:37.000Z</time>
      </trkpt>
      <trkpt lat="45.2533" lon="5.95576">
        <ele>866</ele>
        <time>2015-08-24T06:51:41.000Z</time>
      </trkpt>
      <trkpt lat="45.25341" lon="5.95566">
        <ele>868.20001220703</ele>
        <time>2015-08-24T06:51:49.000Z</time>
      </trkpt>
      <trkpt lat="45.25351" lon="5.95558">
        <ele>869.79998779297</ele>
        <time>2015-08-24T06:51:57.000Z</time>
      </trkpt>
      <trkpt lat="45.25362" lon="5.95549">
        <ele>871.40002441406</ele>
        <time>2015-08-24T06:52:05.000Z</time>
      </trkpt>
      <trkpt lat="45.25374" lon="5.95538">
        <ele>873.40002441406</ele>
        <time>2015-08-24T06:52:14.000Z</time>
      </trkpt>
      <trkpt lat="45.25387" lon="5.95531">
        <ele>875.79998779297</ele>
        <time>2015-08-24T06:52:22.000Z</time>
      </trkpt>
      <trkpt lat="45.25398" lon="5.95516">
        <ele>875.59997558594</ele>
        <time>2015-08-24T06:52:31.000Z</time>
      </trkpt>
      <trkpt lat="45.25406" lon="5.95502">
        <ele>875</ele>
        <time>2015-08-24T06:52:39.000Z</time>
      </trkpt>
      <trkpt lat="45.25413" lon="5.95485">
        <ele>876.40002441406</ele>
        <time>2015-08-24T06:52:48.000Z</time>
      </trkpt>
      <trkpt lat="45.25419" lon="5.95468">
        <ele>877</ele>
        <time>2015-08-24T06:52:56.000Z</time>
      </trkpt>
      <trkpt lat="45.25429" lon="5.95452">
        <ele>878.59997558594</ele>
        <time>2015-08-24T06:53:04.000Z</time>
      </trkpt>
      <trkpt lat="45.25437" lon="5.95452">
        <ele>881.40002441406</ele>
        <time>2015-08-24T06:53:08.000Z</time>
      </trkpt>
      <trkpt lat="45.25439" lon="5.95453">
        <ele>882.20001220703</ele>
        <time>2015-08-24T06:53:09.000Z</time>
      </trkpt>
      <trkpt lat="45.25444" lon="5.95466">
        <ele>886.20001220703</ele>
        <time>2015-08-24T06:53:14.000Z</time>
      </trkpt>
      <trkpt lat="45.25443" lon="5.95477">
        <ele>887</ele>
        <time>2015-08-24T06:53:18.000Z</time>
      </trkpt>
      <trkpt lat="45.25442" lon="5.95486">
        <ele>887.40002441406</ele>
        <time>2015-08-24T06:53:21.000Z</time>
      </trkpt>
      <trkpt lat="45.25441" lon="5.95503">
        <ele>888</ele>
        <time>2015-08-24T06:53:28.000Z</time>
      </trkpt>
      <trkpt lat="45.25439" lon="5.95512">
        <ele>888.20001220703</ele>
        <time>2015-08-24T06:53:32.000Z</time>
      </trkpt>
      <trkpt lat="45.25439" lon="5.95517">
        <ele>888.20001220703</ele>
        <time>2015-08-24T06:53:34.000Z</time>
      </trkpt>
      <trkpt lat="45.25436" lon="5.95539">
        <ele>889.59997558594</ele>
        <time>2015-08-24T06:53:44.000Z</time>
      </trkpt>
      <trkpt lat="45.25432" lon="5.95555">
        <ele>891.79998779297</ele>
        <time>2015-08-24T06:53:51.000Z</time>
      </trkpt>
      <trkpt lat="45.25431" lon="5.95577">
        <ele>895.59997558594</ele>
        <time>2015-08-24T06:54:01.000Z</time>
      </trkpt>
      <trkpt lat="45.25424" lon="5.956">
        <ele>898</ele>
        <time>2015-08-24T06:54:11.000Z</time>
      </trkpt>
      <trkpt lat="45.25412" lon="5.95623">
        <ele>898.79998779297</ele>
        <time>2015-08-24T06:54:22.000Z</time>
      </trkpt>
      <trkpt lat="45.25404" lon="5.9564">
        <ele>899.40002441406</ele>
        <time>2015-08-24T06:54:30.000Z</time>
      </trkpt>
      <trkpt lat="45.254" lon="5.95662">
        <ele>902.40002441406</ele>
        <time>2015-08-24T06:54:40.000Z</time>
      </trkpt>
      <trkpt lat="45.25395" lon="5.95678">
        <ele>903.20001220703</ele>
        <time>2015-08-24T06:54:48.000Z</time>
      </trkpt>
      <trkpt lat="45.25397" lon="5.95697">
        <ele>906</ele>
        <time>2015-08-24T06:54:59.000Z</time>
      </trkpt>
      <trkpt lat="45.25397" lon="5.95714">
        <ele>908.20001220703</ele>
        <time>2015-08-24T06:55:08.000Z</time>
      </trkpt>
      <trkpt lat="45.25396" lon="5.9573">
        <ele>910.20001220703</ele>
        <time>2015-08-24T06:55:16.000Z</time>
      </trkpt>
      <trkpt lat="45.25392" lon="5.95746">
        <ele>911.20001220703</ele>
        <time>2015-08-24T06:55:24.000Z</time>
      </trkpt>
      <trkpt lat="45.25389" lon="5.95769">
        <ele>913</ele>
        <time>2015-08-24T06:55:35.000Z</time>
      </trkpt>
      <trkpt lat="45.25384" lon="5.95792">
        <ele>913.59997558594</ele>
        <time>2015-08-24T06:55:45.000Z</time>
      </trkpt>
      <trkpt lat="45.25368" lon="5.95808">
        <ele>911</ele>
        <time>2015-08-24T06:55:54.000Z</time>
      </trkpt>
      <trkpt lat="45.25353" lon="5.95825">
        <ele>911.20001220703</ele>
        <time>2015-08-24T06:56:03.000Z</time>
      </trkpt>
      <trkpt lat="45.25349" lon="5.95849">
        <ele>916.59997558594</ele>
        <time>2015-08-24T06:56:12.000Z</time>
      </trkpt>
      <trkpt lat="45.25349" lon="5.95854">
        <ele>918</ele>
        <time>2015-08-24T06:56:14.000Z</time>
      </trkpt>
      <trkpt lat="45.25344" lon="5.95863">
        <ele>918.40002441406</ele>
        <time>2015-08-24T06:56:18.000Z</time>
      </trkpt>
      <trkpt lat="45.25338" lon="5.95884">
        <ele>920.40002441406</ele>
        <time>2015-08-24T06:56:26.000Z</time>
      </trkpt>
      <trkpt lat="45.25333" lon="5.959">
        <ele>921.40002441406</ele>
        <time>2015-08-24T06:56:34.000Z</time>
      </trkpt>
      <trkpt lat="45.25326" lon="5.95916">
        <ele>921.59997558594</ele>
        <time>2015-08-24T06:56:42.000Z</time>
      </trkpt>
      <trkpt lat="45.25313" lon="5.95935">
        <ele>921.40002441406</ele>
        <time>2015-08-24T06:56:51.000Z</time>
      </trkpt>
      <trkpt lat="45.25311" lon="5.95937">
        <ele>921.40002441406</ele>
        <time>2015-08-24T06:56:52.000Z</time>
      </trkpt>
      <trkpt lat="45.25301" lon="5.95954">
        <ele>922</ele>
        <time>2015-08-24T06:57:00.000Z</time>
      </trkpt>
      <trkpt lat="45.25291" lon="5.95974">
        <ele>923.59997558594</ele>
        <time>2015-08-24T06:57:10.000Z</time>
      </trkpt>
      <trkpt lat="45.25283" lon="5.95995">
        <ele>924.20001220703</ele>
        <time>2015-08-24T06:57:22.000Z</time>
      </trkpt>
      <trkpt lat="45.25276" lon="5.96011">
        <ele>924.59997558594</ele>
        <time>2015-08-24T06:57:31.000Z</time>
      </trkpt>
      <trkpt lat="45.25272" lon="5.96025">
        <ele>925.40002441406</ele>
        <time>2015-08-24T06:57:40.000Z</time>
      </trkpt>
      <trkpt lat="45.25269" lon="5.96039">
        <ele>926.79998779297</ele>
        <time>2015-08-24T06:57:47.000Z</time>
      </trkpt>
      <trkpt lat="45.25259" lon="5.96057">
        <ele>927.59997558594</ele>
        <time>2015-08-24T06:57:57.000Z</time>
      </trkpt>
      <trkpt lat="45.25253" lon="5.96073">
        <ele>928.40002441406</ele>
        <time>2015-08-24T06:58:05.000Z</time>
      </trkpt>
      <trkpt lat="45.25248" lon="5.96089">
        <ele>929.59997558594</ele>
        <time>2015-08-24T06:58:13.000Z</time>
      </trkpt>
      <trkpt lat="45.25244" lon="5.9611">
        <ele>931.59997558594</ele>
        <time>2015-08-24T06:58:23.000Z</time>
      </trkpt>
      <trkpt lat="45.25241" lon="5.96121">
        <ele>932.59997558594</ele>
        <time>2015-08-24T06:58:29.000Z</time>
      </trkpt>
      <trkpt lat="45.25238" lon="5.96141">
        <ele>934.79998779297</ele>
        <time>2015-08-24T06:58:38.000Z</time>
      </trkpt>
      <trkpt lat="45.25237" lon="5.96162">
        <ele>936.20001220703</ele>
        <time>2015-08-24T06:58:48.000Z</time>
      </trkpt>
      <trkpt lat="45.25236" lon="5.96179">
        <ele>938</ele>
        <time>2015-08-24T06:58:56.000Z</time>
      </trkpt>
      <trkpt lat="45.25238" lon="5.96197">
        <ele>940.20001220703</ele>
        <time>2015-08-24T06:59:04.000Z</time>
      </trkpt>
      <trkpt lat="45.25237" lon="5.96214">
        <ele>941.79998779297</ele>
        <time>2015-08-24T06:59:12.000Z</time>
      </trkpt>
      <trkpt lat="45.25231" lon="5.96233">
        <ele>942</ele>
        <time>2015-08-24T06:59:20.000Z</time>
      </trkpt>
      <trkpt lat="45.25222" lon="5.96249">
        <ele>941.59997558594</ele>
        <time>2015-08-24T06:59:27.000Z</time>
      </trkpt>
      <trkpt lat="45.25218" lon="5.9627">
        <ele>942.79998779297</ele>
        <time>2015-08-24T06:59:35.000Z</time>
      </trkpt>
      <trkpt lat="45.25215" lon="5.96284">
        <ele>943.40002441406</ele>
        <time>2015-08-24T06:59:42.000Z</time>
      </trkpt>
      <trkpt lat="45.25211" lon="5.96307">
        <ele>944.59997558594</ele>
        <time>2015-08-24T06:59:52.000Z</time>
      </trkpt>
      <trkpt lat="45.2521" lon="5.96327">
        <ele>946.40002441406</ele>
        <time>2015-08-24T07:00:01.000Z</time>
      </trkpt>
      <trkpt lat="45.2521" lon="5.96344">
        <ele>948</ele>
        <time>2015-08-24T07:00:08.000Z</time>
      </trkpt>
      <trkpt lat="45.25211" lon="5.96367">
        <ele>950.40002441406</ele>
        <time>2015-08-24T07:00:18.000Z</time>
      </trkpt>
      <trkpt lat="45.25212" lon="5.96389">
        <ele>952.59997558594</ele>
        <time>2015-08-24T07:00:27.000Z</time>
      </trkpt>
      <trkpt lat="45.25212" lon="5.96412">
        <ele>954.20001220703</ele>
        <time>2015-08-24T07:00:37.000Z</time>
      </trkpt>
      <trkpt lat="45.25209" lon="5.96435">
        <ele>954.79998779297</ele>
        <time>2015-08-24T07:00:46.000Z</time>
      </trkpt>
      <trkpt lat="45.25206" lon="5.96461">
        <ele>955.79998779297</ele>
        <time>2015-08-24T07:00:55.000Z</time>
      </trkpt>
      <trkpt lat="45.25207" lon="5.96464">
        <ele>956</ele>
        <time>2015-08-24T07:00:56.000Z</time>
      </trkpt>
      <trkpt lat="45.25206" lon="5.96486">
        <ele>957.59997558594</ele>
        <time>2015-08-24T07:01:04.000Z</time>
      </trkpt>
      <trkpt lat="45.25202" lon="5.96509">
        <ele>958.40002441406</ele>
        <time>2015-08-24T07:01:10.000Z</time>
      </trkpt>
      <trkpt lat="45.252" lon="5.96527">
        <ele>959.40002441406</ele>
        <time>2015-08-24T07:01:15.000Z</time>
      </trkpt>
      <trkpt lat="45.25198" lon="5.96546">
        <ele>960.20001220703</ele>
        <time>2015-08-24T07:01:22.000Z</time>
      </trkpt>
      <trkpt lat="45.25197" lon="5.96567">
        <ele>960.59997558594</ele>
        <time>2015-08-24T07:01:30.000Z</time>
      </trkpt>
      <trkpt lat="45.252" lon="5.96585">
        <ele>961.40002441406</ele>
        <time>2015-08-24T07:01:38.000Z</time>
      </trkpt>
      <trkpt lat="45.25204" lon="5.96605">
        <ele>962</ele>
        <time>2015-08-24T07:01:46.000Z</time>
      </trkpt>
      <trkpt lat="45.25207" lon="5.9663">
        <ele>962.79998779297</ele>
        <time>2015-08-24T07:01:55.000Z</time>
      </trkpt>
      <trkpt lat="45.25211" lon="5.96652">
        <ele>963.59997558594</ele>
        <time>2015-08-24T07:02:03.000Z</time>
      </trkpt>
      <trkpt lat="45.25216" lon="5.96676">
        <ele>964.20001220703</ele>
        <time>2015-08-24T07:02:12.000Z</time>
      </trkpt>
      <trkpt lat="45.25221" lon="5.96703">
        <ele>965</ele>
        <time>2015-08-24T07:02:22.000Z</time>
      </trkpt>
      <trkpt lat="45.25222" lon="5.96706">
        <ele>965</ele>
        <time>2015-08-24T07:02:23.000Z</time>
      </trkpt>
      <trkpt lat="45.25231" lon="5.96731">
        <ele>966.40002441406</ele>
        <time>2015-08-24T07:02:33.000Z</time>
      </trkpt>
      <trkpt lat="45.25238" lon="5.96749">
        <ele>967.79998779297</ele>
        <time>2015-08-24T07:02:40.000Z</time>
      </trkpt>
      <trkpt lat="45.25246" lon="5.96773">
        <ele>970.40002441406</ele>
        <time>2015-08-24T07:02:49.000Z</time>
      </trkpt>
      <trkpt lat="45.25246" lon="5.96776">
        <ele>970.79998779297</ele>
        <time>2015-08-24T07:02:50.000Z</time>
      </trkpt>
      <trkpt lat="45.2525" lon="5.96797">
        <ele>972.79998779297</ele>
        <time>2015-08-24T07:02:58.000Z</time>
      </trkpt>
      <trkpt lat="45.25255" lon="5.96816">
        <ele>974</ele>
        <time>2015-08-24T07:03:05.000Z</time>
      </trkpt>
      <trkpt lat="45.25261" lon="5.96837">
        <ele>974.79998779297</ele>
        <time>2015-08-24T07:03:13.000Z</time>
      </trkpt>
      <trkpt lat="45.25271" lon="5.96855">
        <ele>976</ele>
        <time>2015-08-24T07:03:21.000Z</time>
      </trkpt>
      <trkpt lat="45.25284" lon="5.96868">
        <ele>977.59997558594</ele>
        <time>2015-08-24T07:03:29.000Z</time>
      </trkpt>
      <trkpt lat="45.25302" lon="5.96878">
        <ele>979.59997558594</ele>
        <time>2015-08-24T07:03:39.000Z</time>
      </trkpt>
      <trkpt lat="45.25314" lon="5.96884">
        <ele>980.40002441406</ele>
        <time>2015-08-24T07:03:46.000Z</time>
      </trkpt>
      <trkpt lat="45.25331" lon="5.96885">
        <ele>982</ele>
        <time>2015-08-24T07:03:54.000Z</time>
      </trkpt>
      <trkpt lat="45.2535" lon="5.96883">
        <ele>983.59997558594</ele>
        <time>2015-08-24T07:04:03.000Z</time>
      </trkpt>
      <trkpt lat="45.25363" lon="5.96886">
        <ele>984.59997558594</ele>
        <time>2015-08-24T07:04:10.000Z</time>
      </trkpt>
      <trkpt lat="45.25367" lon="5.96902">
        <ele>985.59997558594</ele>
        <time>2015-08-24T07:04:16.000Z</time>
      </trkpt>
      <trkpt lat="45.25361" lon="5.96916">
        <ele>986</ele>
        <time>2015-08-24T07:04:21.000Z</time>
      </trkpt>
      <trkpt lat="45.25346" lon="5.96925">
        <ele>985.20001220703</ele>
        <time>2015-08-24T07:04:28.000Z</time>
      </trkpt>
      <trkpt lat="45.2533" lon="5.96928">
        <ele>984.20001220703</ele>
        <time>2015-08-24T07:04:36.000Z</time>
      </trkpt>
      <trkpt lat="45.25317" lon="5.96928">
        <ele>983.40002441406</ele>
        <time>2015-08-24T07:04:43.000Z</time>
      </trkpt>
      <trkpt lat="45.253" lon="5.96928">
        <ele>982.20001220703</ele>
        <time>2015-08-24T07:04:51.000Z</time>
      </trkpt>
      <trkpt lat="45.25283" lon="5.96925">
        <ele>982</ele>
        <time>2015-08-24T07:04:59.000Z</time>
      </trkpt>
      <trkpt lat="45.25273" lon="5.96924">
        <ele>982</ele>
        <time>2015-08-24T07:05:05.000Z</time>
      </trkpt>
      <trkpt lat="45.25258" lon="5.96923">
        <ele>982.20001220703</ele>
        <time>2015-08-24T07:05:13.000Z</time>
      </trkpt>
      <trkpt lat="45.25239" lon="5.96929">
        <ele>983.40002441406</ele>
        <time>2015-08-24T07:05:21.000Z</time>
      </trkpt>
      <trkpt lat="45.2523" lon="5.96945">
        <ele>986</ele>
        <time>2015-08-24T07:05:28.000Z</time>
      </trkpt>
      <trkpt lat="45.25221" lon="5.96961">
        <ele>988.79998779297</ele>
        <time>2015-08-24T07:05:35.000Z</time>
      </trkpt>
      <trkpt lat="45.2521" lon="5.96977">
        <ele>991.20001220703</ele>
        <time>2015-08-24T07:05:42.000Z</time>
      </trkpt>
      <trkpt lat="45.25197" lon="5.96998">
        <ele>992.20001220703</ele>
        <time>2015-08-24T07:05:51.000Z</time>
      </trkpt>
      <trkpt lat="45.25195" lon="5.97">
        <ele>992.20001220703</ele>
        <time>2015-08-24T07:05:52.000Z</time>
      </trkpt>
      <trkpt lat="45.25182" lon="5.97014">
        <ele>992.79998779297</ele>
        <time>2015-08-24T07:05:59.000Z</time>
      </trkpt>
      <trkpt lat="45.25167" lon="5.97026">
        <ele>993.40002441406</ele>
        <time>2015-08-24T07:06:07.000Z</time>
      </trkpt>
      <trkpt lat="45.2515" lon="5.97037">
        <ele>993.40002441406</ele>
        <time>2015-08-24T07:06:15.000Z</time>
      </trkpt>
      <trkpt lat="45.25145" lon="5.97039">
        <ele>993.59997558594</ele>
        <time>2015-08-24T07:06:17.000Z</time>
      </trkpt>
      <trkpt lat="45.2513" lon="5.9705">
        <ele>993.79998779297</ele>
        <time>2015-08-24T07:06:25.000Z</time>
      </trkpt>
      <trkpt lat="45.25112" lon="5.9706">
        <ele>994</ele>
        <time>2015-08-24T07:06:34.000Z</time>
      </trkpt>
      <trkpt lat="45.25101" lon="5.97072">
        <ele>994.59997558594</ele>
        <time>2015-08-24T07:06:40.000Z</time>
      </trkpt>
      <trkpt lat="45.2509" lon="5.97093">
        <ele>995.59997558594</ele>
        <time>2015-08-24T07:06:48.000Z</time>
      </trkpt>
      <trkpt lat="45.25087" lon="5.97098">
        <ele>995.79998779297</ele>
        <time>2015-08-24T07:06:50.000Z</time>
      </trkpt>
      <trkpt lat="45.25078" lon="5.9712">
        <ele>997.20001220703</ele>
        <time>2015-08-24T07:06:57.000Z</time>
      </trkpt>
      <trkpt lat="45.25079" lon="5.97139">
        <ele>998.20001220703</ele>
        <time>2015-08-24T07:07:02.000Z</time>
      </trkpt>
      <trkpt lat="45.25079" lon="5.97165">
        <ele>1000</ele>
        <time>2015-08-24T07:07:10.000Z</time>
      </trkpt>
      <trkpt lat="45.25076" lon="5.9718">
        <ele>1001</ele>
        <time>2015-08-24T07:07:17.000Z</time>
      </trkpt>
      <trkpt lat="45.25077" lon="5.97198">
        <ele>1002.200012207</ele>
        <time>2015-08-24T07:07:25.000Z</time>
      </trkpt>
      <trkpt lat="45.25076" lon="5.97214">
        <ele>1003.200012207</ele>
        <time>2015-08-24T07:07:33.000Z</time>
      </trkpt>
      <trkpt lat="45.25076" lon="5.97232">
        <ele>1004.4000244141</ele>
        <time>2015-08-24T07:07:40.000Z</time>
      </trkpt>
      <trkpt lat="45.25075" lon="5.9726">
        <ele>1006.4000244141</ele>
        <time>2015-08-24T07:07:49.000Z</time>
      </trkpt>
      <trkpt lat="45.25075" lon="5.97263">
        <ele>1006.5999755859</ele>
        <time>2015-08-24T07:07:50.000Z</time>
      </trkpt>
      <trkpt lat="45.25072" lon="5.97287">
        <ele>1008</ele>
        <time>2015-08-24T07:07:58.000Z</time>
      </trkpt>
      <trkpt lat="45.2506" lon="5.97308">
        <ele>1008.5999755859</ele>
        <time>2015-08-24T07:08:06.000Z</time>
      </trkpt>
      <trkpt lat="45.25045" lon="5.97323">
        <ele>1008.799987793</ele>
        <time>2015-08-24T07:08:13.000Z</time>
      </trkpt>
      <trkpt lat="45.25043" lon="5.97324">
        <ele>1009</ele>
        <time>2015-08-24T07:08:14.000Z</time>
      </trkpt>
      <trkpt lat="45.25028" lon="5.97329">
        <ele>1009.200012207</ele>
        <time>2015-08-24T07:08:20.000Z</time>
      </trkpt>
      <trkpt lat="45.2501" lon="5.97338">
        <ele>1009.799987793</ele>
        <time>2015-08-24T07:08:28.000Z</time>
      </trkpt>
      <trkpt lat="45.24995" lon="5.97352">
        <ele>1010.4000244141</ele>
        <time>2015-08-24T07:08:35.000Z</time>
      </trkpt>
      <trkpt lat="45.24993" lon="5.97354">
        <ele>1010.4000244141</ele>
        <time>2015-08-24T07:08:36.000Z</time>
      </trkpt>
      <trkpt lat="45.24976" lon="5.9737">
        <ele>1010.5999755859</ele>
        <time>2015-08-24T07:08:44.000Z</time>
      </trkpt>
      <trkpt lat="45.24961" lon="5.97386">
        <ele>1010.799987793</ele>
        <time>2015-08-24T07:08:52.000Z</time>
      </trkpt>
      <trkpt lat="45.24958" lon="5.97389">
        <ele>1011</ele>
        <time>2015-08-24T07:08:54.000Z</time>
      </trkpt>
      <trkpt lat="45.24942" lon="5.97405">
        <ele>1013.799987793</ele>
        <time>2015-08-24T07:09:04.000Z</time>
      </trkpt>
      <trkpt lat="45.24934" lon="5.97418">
        <ele>1015.5999755859</ele>
        <time>2015-08-24T07:09:11.000Z</time>
      </trkpt>
      <trkpt lat="45.24917" lon="5.97432">
        <ele>1018.200012207</ele>
        <time>2015-08-24T07:09:21.000Z</time>
      </trkpt>
      <trkpt lat="45.24907" lon="5.97443">
        <ele>1019.5999755859</ele>
        <time>2015-08-24T07:09:29.000Z</time>
      </trkpt>
      <trkpt lat="45.24897" lon="5.97454">
        <ele>1021.200012207</ele>
        <time>2015-08-24T07:09:36.000Z</time>
      </trkpt>
      <trkpt lat="45.24884" lon="5.97469">
        <ele>1023.200012207</ele>
        <time>2015-08-24T07:09:45.000Z</time>
      </trkpt>
      <trkpt lat="45.24875" lon="5.9748">
        <ele>1024.5999755859</ele>
        <time>2015-08-24T07:09:53.000Z</time>
      </trkpt>
      <trkpt lat="45.24864" lon="5.9749">
        <ele>1026</ele>
        <time>2015-08-24T07:10:01.000Z</time>
      </trkpt>
      <trkpt lat="45.24852" lon="5.97504">
        <ele>1027.8000488281</ele>
        <time>2015-08-24T07:10:10.000Z</time>
      </trkpt>
      <trkpt lat="45.2484" lon="5.97516">
        <ele>1029.4000244141</ele>
        <time>2015-08-24T07:10:18.000Z</time>
      </trkpt>
      <trkpt lat="45.2483" lon="5.97529">
        <ele>1030.8000488281</ele>
        <time>2015-08-24T07:10:26.000Z</time>
      </trkpt>
      <trkpt lat="45.24825" lon="5.97545">
        <ele>1032.1999511719</ele>
        <time>2015-08-24T07:10:33.000Z</time>
      </trkpt>
      <trkpt lat="45.24819" lon="5.97563">
        <ele>1034</ele>
        <time>2015-08-24T07:10:42.000Z</time>
      </trkpt>
      <trkpt lat="45.24812" lon="5.97584">
        <ele>1036.4000244141</ele>
        <time>2015-08-24T07:10:51.000Z</time>
      </trkpt>
      <trkpt lat="45.24802" lon="5.97607">
        <ele>1040.5999755859</ele>
        <time>2015-08-24T07:11:02.000Z</time>
      </trkpt>
      <trkpt lat="45.24797" lon="5.97618">
        <ele>1042.5999755859</ele>
        <time>2015-08-24T07:11:08.000Z</time>
      </trkpt>
      <trkpt lat="45.24788" lon="5.97633">
        <ele>1044.5999755859</ele>
        <time>2015-08-24T07:11:16.000Z</time>
      </trkpt>
      <trkpt lat="45.24778" lon="5.97647">
        <ele>1046</ele>
        <time>2015-08-24T07:11:23.000Z</time>
      </trkpt>
      <trkpt lat="45.24768" lon="5.97655">
        <ele>1046.8000488281</ele>
        <time>2015-08-24T07:11:30.000Z</time>
      </trkpt>
      <trkpt lat="45.24755" lon="5.97669">
        <ele>1048</ele>
        <time>2015-08-24T07:11:38.000Z</time>
      </trkpt>
      <trkpt lat="45.24745" lon="5.97677">
        <ele>1048.8000488281</ele>
        <time>2015-08-24T07:11:45.000Z</time>
      </trkpt>
      <trkpt lat="45.24735" lon="5.97687">
        <ele>1051.1999511719</ele>
        <time>2015-08-24T07:11:52.000Z</time>
      </trkpt>
      <trkpt lat="45.24729" lon="5.97694">
        <ele>1053</ele>
        <time>2015-08-24T07:11:57.000Z</time>
      </trkpt>
      <trkpt lat="45.24726" lon="5.97697">
        <ele>1053.5999755859</ele>
        <time>2015-08-24T07:11:59.000Z</time>
      </trkpt>
      <trkpt lat="45.24715" lon="5.97708">
        <ele>1056.4000244141</ele>
        <time>2015-08-24T07:12:07.000Z</time>
      </trkpt>
      <trkpt lat="45.24702" lon="5.97718">
        <ele>1058.1999511719</ele>
        <time>2015-08-24T07:12:15.000Z</time>
      </trkpt>
      <trkpt lat="45.24687" lon="5.97733">
        <ele>1061.4000244141</ele>
        <time>2015-08-24T07:12:25.000Z</time>
      </trkpt>
      <trkpt lat="45.24686" lon="5.97735">
        <ele>1061.5999755859</ele>
        <time>2015-08-24T07:12:26.000Z</time>
      </trkpt>
      <trkpt lat="45.24674" lon="5.97747">
        <ele>1064.1999511719</ele>
        <time>2015-08-24T07:12:34.000Z</time>
      </trkpt>
      <trkpt lat="45.24659" lon="5.97763">
        <ele>1067.5999755859</ele>
        <time>2015-08-24T07:12:44.000Z</time>
      </trkpt>
      <trkpt lat="45.24657" lon="5.97763">
        <ele>1067.5999755859</ele>
        <time>2015-08-24T07:12:45.000Z</time>
      </trkpt>
      <trkpt lat="45.24648" lon="5.97769">
        <ele>1069.1999511719</ele>
        <time>2015-08-24T07:12:52.000Z</time>
      </trkpt>
      <trkpt lat="45.2464" lon="5.97776">
        <ele>1070.8000488281</ele>
        <time>2015-08-24T07:12:58.000Z</time>
      </trkpt>
      <trkpt lat="45.24629" lon="5.97784">
        <ele>1073</ele>
        <time>2015-08-24T07:13:05.000Z</time>
      </trkpt>
      <trkpt lat="45.24618" lon="5.97792">
        <ele>1075.1999511719</ele>
        <time>2015-08-24T07:13:14.000Z</time>
      </trkpt>
      <trkpt lat="45.24612" lon="5.97802">
        <ele>1077.1999511719</ele>
        <time>2015-08-24T07:13:22.000Z</time>
      </trkpt>
      <trkpt lat="45.24611" lon="5.97802">
        <ele>1077.1999511719</ele>
        <time>2015-08-24T07:13:23.000Z</time>
      </trkpt>
      <trkpt lat="45.24603" lon="5.97804">
        <ele>1077.5999755859</ele>
        <time>2015-08-24T07:13:28.000Z</time>
      </trkpt>
      <trkpt lat="45.24594" lon="5.97809">
        <ele>1078.4000244141</ele>
        <time>2015-08-24T07:13:33.000Z</time>
      </trkpt>
      <trkpt lat="45.24592" lon="5.9781">
        <ele>1078.5999755859</ele>
        <time>2015-08-24T07:13:34.000Z</time>
      </trkpt>
      <trkpt lat="45.24581" lon="5.97813">
        <ele>1079</ele>
        <time>2015-08-24T07:13:40.000Z</time>
      </trkpt>
      <trkpt lat="45.24574" lon="5.9782">
        <ele>1080.4000244141</ele>
        <time>2015-08-24T07:13:44.000Z</time>
      </trkpt>
      <trkpt lat="45.24565" lon="5.97828">
        <ele>1082</ele>
        <time>2015-08-24T07:13:50.000Z</time>
      </trkpt>
      <trkpt lat="45.24556" lon="5.97831">
        <ele>1082.1999511719</ele>
        <time>2015-08-24T07:13:55.000Z</time>
      </trkpt>
      <trkpt lat="45.24555" lon="5.97831">
        <ele>1082.4000244141</ele>
        <time>2015-08-24T07:13:56.000Z</time>
      </trkpt>
      <trkpt lat="45.24547" lon="5.97841">
        <ele>1084.1999511719</ele>
        <time>2015-08-24T07:14:02.000Z</time>
      </trkpt>
      <trkpt lat="45.24545" lon="5.97842">
        <ele>1084.1999511719</ele>
        <time>2015-08-24T07:14:03.000Z</time>
      </trkpt>
      <trkpt lat="45.24537" lon="5.97844">
        <ele>1084.1999511719</ele>
        <time>2015-08-24T07:14:08.000Z</time>
      </trkpt>
      <trkpt lat="45.24534" lon="5.97846">
        <ele>1084.5999755859</ele>
        <time>2015-08-24T07:14:11.000Z</time>
      </trkpt>
      <trkpt lat="45.2453" lon="5.97846">
        <ele>1084.1999511719</ele>
        <time>2015-08-24T07:14:13.000Z</time>
      </trkpt>
      <trkpt lat="45.24522" lon="5.97852">
        <ele>1085.1999511719</ele>
        <time>2015-08-24T07:14:17.000Z</time>
      </trkpt>
      <trkpt lat="45.24518" lon="5.97857">
        <ele>1085.8000488281</ele>
        <time>2015-08-24T07:14:20.000Z</time>
      </trkpt>
      <trkpt lat="45.24515" lon="5.97863">
        <ele>1087</ele>
        <time>2015-08-24T07:14:23.000Z</time>
      </trkpt>
      <trkpt lat="45.24512" lon="5.97867">
        <ele>1087.8000488281</ele>
        <time>2015-08-24T07:14:26.000Z</time>
      </trkpt>
      <trkpt lat="45.24508" lon="5.97872">
        <ele>1088.5999755859</ele>
        <time>2015-08-24T07:14:30.000Z</time>
      </trkpt>
      <trkpt lat="45.24503" lon="5.97879">
        <ele>1089.8000488281</ele>
        <time>2015-08-24T07:14:35.000Z</time>
      </trkpt>
      <trkpt lat="45.24499" lon="5.97881">
        <ele>1090</ele>
        <time>2015-08-24T07:14:37.000Z</time>
      </trkpt>
      <trkpt lat="45.24498" lon="5.97886">
        <ele>1091</ele>
        <time>2015-08-24T07:14:40.000Z</time>
      </trkpt>
      <trkpt lat="45.24496" lon="5.97889">
        <ele>1091.4000244141</ele>
        <time>2015-08-24T07:14:42.000Z</time>
      </trkpt>
      <trkpt lat="45.24491" lon="5.97897">
        <ele>1093</ele>
        <time>2015-08-24T07:14:47.000Z</time>
      </trkpt>
      <trkpt lat="45.24488" lon="5.97899">
        <ele>1093.4000244141</ele>
        <time>2015-08-24T07:14:49.000Z</time>
      </trkpt>
      <trkpt lat="45.24486" lon="5.97902">
        <ele>1094.1999511719</ele>
        <time>2015-08-24T07:14:53.000Z</time>
      </trkpt>
      <trkpt lat="45.24485" lon="5.97904">
        <ele>1094.5999755859</ele>
        <time>2015-08-24T07:14:54.000Z</time>
      </trkpt>
      <trkpt lat="45.24478" lon="5.97909">
        <ele>1095.4000244141</ele>
        <time>2015-08-24T07:14:59.000Z</time>
      </trkpt>
      <trkpt lat="45.24474" lon="5.97911">
        <ele>1095.8000488281</ele>
        <time>2015-08-24T07:15:01.000Z</time>
      </trkpt>
      <trkpt lat="45.2447" lon="5.97912">
        <ele>1096.1999511719</ele>
        <time>2015-08-24T07:15:04.000Z</time>
      </trkpt>
      <trkpt lat="45.24462" lon="5.97916">
        <ele>1097</ele>
        <time>2015-08-24T07:15:11.000Z</time>
      </trkpt>
      <trkpt lat="45.24451" lon="5.97923">
        <ele>1098.4000244141</ele>
        <time>2015-08-24T07:15:17.000Z</time>
      </trkpt>
      <trkpt lat="45.2445" lon="5.97923">
        <ele>1098.4000244141</ele>
        <time>2015-08-24T07:15:18.000Z</time>
      </trkpt>
      <trkpt lat="45.24444" lon="5.97925">
        <ele>1098.5999755859</ele>
        <time>2015-08-24T07:15:21.000Z</time>
      </trkpt>
      <trkpt lat="45.24441" lon="5.97928">
        <ele>1099.1999511719</ele>
        <time>2015-08-24T07:15:24.000Z</time>
      </trkpt>
      <trkpt lat="45.24435" lon="5.97932">
        <ele>1100.1999511719</ele>
        <time>2015-08-24T07:15:28.000Z</time>
      </trkpt>
      <trkpt lat="45.24429" lon="5.97938">
        <ele>1101.1999511719</ele>
        <time>2015-08-24T07:15:33.000Z</time>
      </trkpt>
      <trkpt lat="45.24425" lon="5.97936">
        <ele>1100.8000488281</ele>
        <time>2015-08-24T07:15:35.000Z</time>
      </trkpt>
      <trkpt lat="45.24418" lon="5.9794">
        <ele>1101.8000488281</ele>
        <time>2015-08-24T07:15:40.000Z</time>
      </trkpt>
      <trkpt lat="45.24408" lon="5.97942">
        <ele>1102.1999511719</ele>
        <time>2015-08-24T07:15:46.000Z</time>
      </trkpt>
      <trkpt lat="45.24394" lon="5.97956">
        <ele>1106.1999511719</ele>
        <time>2015-08-24T07:15:55.000Z</time>
      </trkpt>
      <trkpt lat="45.24379" lon="5.97966">
        <ele>1109.4000244141</ele>
        <time>2015-08-24T07:16:04.000Z</time>
      </trkpt>
      <trkpt lat="45.24366" lon="5.97976">
        <ele>1111.4000244141</ele>
        <time>2015-08-24T07:16:13.000Z</time>
      </trkpt>
      <trkpt lat="45.24354" lon="5.97981">
        <ele>1111.8000488281</ele>
        <time>2015-08-24T07:16:21.000Z</time>
      </trkpt>
      <trkpt lat="45.24339" lon="5.97986">
        <ele>1112.1999511719</ele>
        <time>2015-08-24T07:16:29.000Z</time>
      </trkpt>
      <trkpt lat="45.24329" lon="5.97994">
        <ele>1113.5999755859</ele>
        <time>2015-08-24T07:16:35.000Z</time>
      </trkpt>
      <trkpt lat="45.24317" lon="5.98003">
        <ele>1115.5999755859</ele>
        <time>2015-08-24T07:16:44.000Z</time>
      </trkpt>
      <trkpt lat="45.24304" lon="5.98009">
        <ele>1117.5999755859</ele>
        <time>2015-08-24T07:16:52.000Z</time>
      </trkpt>
      <trkpt lat="45.24293" lon="5.98014">
        <ele>1119</ele>
        <time>2015-08-24T07:16:59.000Z</time>
      </trkpt>
      <trkpt lat="45.24283" lon="5.98019">
        <ele>1120.4000244141</ele>
        <time>2015-08-24T07:17:06.000Z</time>
      </trkpt>
      <trkpt lat="45.24269" lon="5.98027">
        <ele>1122.4000244141</ele>
        <time>2015-08-24T07:17:15.000Z</time>
      </trkpt>
      <trkpt lat="45.24266" lon="5.98028">
        <ele>1122.8000488281</ele>
        <time>2015-08-24T07:17:17.000Z</time>
      </trkpt>
      <trkpt lat="45.24261" lon="5.98028">
        <ele>1122.4000244141</ele>
        <time>2015-08-24T07:17:20.000Z</time>
      </trkpt>
      <trkpt lat="45.24253" lon="5.9803">
        <ele>1122</ele>
        <time>2015-08-24T07:17:26.000Z</time>
      </trkpt>
      <trkpt lat="45.24251" lon="5.98029">
        <ele>1121.8000488281</ele>
        <time>2015-08-24T07:17:27.000Z</time>
      </trkpt>
      <trkpt lat="45.24244" lon="5.98031">
        <ele>1121.5999755859</ele>
        <time>2015-08-24T07:17:31.000Z</time>
      </trkpt>
      <trkpt lat="45.24232" lon="5.98036">
        <ele>1122</ele>
        <time>2015-08-24T07:17:38.000Z</time>
      </trkpt>
      <trkpt lat="45.24223" lon="5.98038">
        <ele>1121.5999755859</ele>
        <time>2015-08-24T07:17:43.000Z</time>
      </trkpt>
      <trkpt lat="45.24219" lon="5.9804">
        <ele>1122.1999511719</ele>
        <time>2015-08-24T07:17:46.000Z</time>
      </trkpt>
      <trkpt lat="45.24215" lon="5.98045">
        <ele>1123</ele>
        <time>2015-08-24T07:17:49.000Z</time>
      </trkpt>
      <trkpt lat="45.24203" lon="5.9805">
        <ele>1122.8000488281</ele>
        <time>2015-08-24T07:17:56.000Z</time>
      </trkpt>
      <trkpt lat="45.24194" lon="5.9806">
        <ele>1123.8000488281</ele>
        <time>2015-08-24T07:18:02.000Z</time>
      </trkpt>
      <trkpt lat="45.24182" lon="5.98072">
        <ele>1124.8000488281</ele>
        <time>2015-08-24T07:18:10.000Z</time>
      </trkpt>
      <trkpt lat="45.24172" lon="5.98086">
        <ele>1126.4000244141</ele>
        <time>2015-08-24T07:18:17.000Z</time>
      </trkpt>
      <trkpt lat="45.24163" lon="5.981">
        <ele>1128.1999511719</ele>
        <time>2015-08-24T07:18:24.000Z</time>
      </trkpt>
      <trkpt lat="45.24151" lon="5.98108">
        <ele>1127.8000488281</ele>
        <time>2015-08-24T07:18:32.000Z</time>
      </trkpt>
      <trkpt lat="45.24138" lon="5.98118">
        <ele>1127</ele>
        <time>2015-08-24T07:18:41.000Z</time>
      </trkpt>
      <trkpt lat="45.24126" lon="5.98133">
        <ele>1128.1999511719</ele>
        <time>2015-08-24T07:18:50.000Z</time>
      </trkpt>
      <trkpt lat="45.24115" lon="5.98146">
        <ele>1129.4000244141</ele>
        <time>2015-08-24T07:19:00.000Z</time>
      </trkpt>
      <trkpt lat="45.24108" lon="5.98164">
        <ele>1132.8000488281</ele>
        <time>2015-08-24T07:19:08.000Z</time>
      </trkpt>
      <trkpt lat="45.24105" lon="5.98186">
        <ele>1137.8000488281</ele>
        <time>2015-08-24T07:19:15.000Z</time>
      </trkpt>
      <trkpt lat="45.24104" lon="5.98201">
        <ele>1141.5999755859</ele>
        <time>2015-08-24T07:19:21.000Z</time>
      </trkpt>
      <trkpt lat="45.24103" lon="5.98214">
        <ele>1144.1999511719</ele>
        <time>2015-08-24T07:19:27.000Z</time>
      </trkpt>
      <trkpt lat="45.24099" lon="5.98227">
        <ele>1146.4000244141</ele>
        <time>2015-08-24T07:19:34.000Z</time>
      </trkpt>
      <trkpt lat="45.24092" lon="5.98244">
        <ele>1148.8000488281</ele>
        <time>2015-08-24T07:19:42.000Z</time>
      </trkpt>
      <trkpt lat="45.24087" lon="5.98265">
        <ele>1152.5999755859</ele>
        <time>2015-08-24T07:19:51.000Z</time>
      </trkpt>
      <trkpt lat="45.24079" lon="5.9828">
        <ele>1154.4000244141</ele>
        <time>2015-08-24T07:19:59.000Z</time>
      </trkpt>
      <trkpt lat="45.2407" lon="5.98291">
        <ele>1154.8000488281</ele>
        <time>2015-08-24T07:20:06.000Z</time>
      </trkpt>
      <trkpt lat="45.24058" lon="5.983">
        <ele>1154</ele>
        <time>2015-08-24T07:20:14.000Z</time>
      </trkpt>
      <trkpt lat="45.24043" lon="5.98305">
        <ele>1152</ele>
        <time>2015-08-24T07:20:23.000Z</time>
      </trkpt>
      <trkpt lat="45.24031" lon="5.9831">
        <ele>1152.5999755859</ele>
        <time>2015-08-24T07:20:30.000Z</time>
      </trkpt>
      <trkpt lat="45.24017" lon="5.98311">
        <ele>1151.8000488281</ele>
        <time>2015-08-24T07:20:38.000Z</time>
      </trkpt>
      <trkpt lat="45.24003" lon="5.98311">
        <ele>1151</ele>
        <time>2015-08-24T07:20:47.000Z</time>
      </trkpt>
      <trkpt lat="45.23991" lon="5.98314">
        <ele>1151.4000244141</ele>
        <time>2015-08-24T07:20:54.000Z</time>
      </trkpt>
      <trkpt lat="45.23988" lon="5.98315">
        <ele>1151.5999755859</ele>
        <time>2015-08-24T07:20:55.000Z</time>
      </trkpt>
      <trkpt lat="45.23975" lon="5.98318">
        <ele>1151.4000244141</ele>
        <time>2015-08-24T07:21:03.000Z</time>
      </trkpt>
      <trkpt lat="45.23963" lon="5.98327">
        <ele>1152.8000488281</ele>
        <time>2015-08-24T07:21:11.000Z</time>
      </trkpt>
      <trkpt lat="45.23955" lon="5.98337">
        <ele>1154.8000488281</ele>
        <time>2015-08-24T07:21:17.000Z</time>
      </trkpt>
      <trkpt lat="45.23953" lon="5.98339">
        <ele>1154.8000488281</ele>
        <time>2015-08-24T07:21:18.000Z</time>
      </trkpt>
      <trkpt lat="45.23946" lon="5.98345">
        <ele>1155.8000488281</ele>
        <time>2015-08-24T07:21:22.000Z</time>
      </trkpt>
      <trkpt lat="45.23938" lon="5.98353">
        <ele>1157.1999511719</ele>
        <time>2015-08-24T07:21:29.000Z</time>
      </trkpt>
      <trkpt lat="45.2393" lon="5.98362">
        <ele>1158.8000488281</ele>
        <time>2015-08-24T07:21:35.000Z</time>
      </trkpt>
      <trkpt lat="45.23921" lon="5.98375">
        <ele>1161.4000244141</ele>
        <time>2015-08-24T07:21:42.000Z</time>
      </trkpt>
      <trkpt lat="45.23916" lon="5.98383">
        <ele>1162.8000488281</ele>
        <time>2015-08-24T07:21:47.000Z</time>
      </trkpt>
      <trkpt lat="45.23913" lon="5.98392">
        <ele>1165</ele>
        <time>2015-08-24T07:21:51.000Z</time>
      </trkpt>
      <trkpt lat="45.23911" lon="5.98397">
        <ele>1165.8000488281</ele>
        <time>2015-08-24T07:21:53.000Z</time>
      </trkpt>
      <trkpt lat="45.23909" lon="5.98403">
        <ele>1166.5999755859</ele>
        <time>2015-08-24T07:21:55.000Z</time>
      </trkpt>
      <trkpt lat="45.23905" lon="5.98412">
        <ele>1168</ele>
        <time>2015-08-24T07:21:59.000Z</time>
      </trkpt>
      <trkpt lat="45.23896" lon="5.98425">
        <ele>1171</ele>
        <time>2015-08-24T07:22:05.000Z</time>
      </trkpt>
      <trkpt lat="45.23895" lon="5.98425">
        <ele>1171.1999511719</ele>
        <time>2015-08-24T07:22:06.000Z</time>
      </trkpt>
      <trkpt lat="45.2389" lon="5.98428">
        <ele>1171.8000488281</ele>
        <time>2015-08-24T07:22:09.000Z</time>
      </trkpt>
      <trkpt lat="45.23884" lon="5.98436">
        <ele>1174</ele>
        <time>2015-08-24T07:22:13.000Z</time>
      </trkpt>
      <trkpt lat="45.23881" lon="5.98438">
        <ele>1174.5999755859</ele>
        <time>2015-08-24T07:22:18.000Z</time>
      </trkpt>
      <trkpt lat="45.23874" lon="5.98439">
        <ele>1174.5999755859</ele>
        <time>2015-08-24T07:22:24.000Z</time>
      </trkpt>
      <trkpt lat="45.23865" lon="5.98435">
        <ele>1173.4000244141</ele>
        <time>2015-08-24T07:22:31.000Z</time>
      </trkpt>
      <trkpt lat="45.23854" lon="5.98436">
        <ele>1173.8000488281</ele>
        <time>2015-08-24T07:22:38.000Z</time>
      </trkpt>
      <trkpt lat="45.23846" lon="5.98438">
        <ele>1174.1999511719</ele>
        <time>2015-08-24T07:22:43.000Z</time>
      </trkpt>
      <trkpt lat="45.23841" lon="5.98437">
        <ele>1173.8000488281</ele>
        <time>2015-08-24T07:22:47.000Z</time>
      </trkpt>
      <trkpt lat="45.23837" lon="5.98437">
        <ele>1173.8000488281</ele>
        <time>2015-08-24T07:22:49.000Z</time>
      </trkpt>
      <trkpt lat="45.23829" lon="5.98437">
        <ele>1173.8000488281</ele>
        <time>2015-08-24T07:22:53.000Z</time>
      </trkpt>
      <trkpt lat="45.23828" lon="5.98437">
        <ele>1173.5999755859</ele>
        <time>2015-08-24T07:22:54.000Z</time>
      </trkpt>
      <trkpt lat="45.2382" lon="5.98438">
        <ele>1173.5999755859</ele>
        <time>2015-08-24T07:22:59.000Z</time>
      </trkpt>
      <trkpt lat="45.23809" lon="5.98436">
        <ele>1173.1999511719</ele>
        <time>2015-08-24T07:23:05.000Z</time>
      </trkpt>
      <trkpt lat="45.23801" lon="5.98438">
        <ele>1173.5999755859</ele>
        <time>2015-08-24T07:23:10.000Z</time>
      </trkpt>
      <trkpt lat="45.23799" lon="5.98438">
        <ele>1173.8000488281</ele>
        <time>2015-08-24T07:23:11.000Z</time>
      </trkpt>
      <trkpt lat="45.23794" lon="5.98441">
        <ele>1174.4000244141</ele>
        <time>2015-08-24T07:23:14.000Z</time>
      </trkpt>
      <trkpt lat="45.23787" lon="5.98442">
        <ele>1174.5999755859</ele>
        <time>2015-08-24T07:23:18.000Z</time>
      </trkpt>
      <trkpt lat="45.2377" lon="5.98445">
        <ele>1175</ele>
        <time>2015-08-24T07:23:26.000Z</time>
      </trkpt>
      <trkpt lat="45.23758" lon="5.98454">
        <ele>1177.5999755859</ele>
        <time>2015-08-24T07:23:33.000Z</time>
      </trkpt>
      <trkpt lat="45.2375" lon="5.98461">
        <ele>1179.5999755859</ele>
        <time>2015-08-24T07:23:38.000Z</time>
      </trkpt>
      <trkpt lat="45.23741" lon="5.98472">
        <ele>1182.8000488281</ele>
        <time>2015-08-24T07:23:45.000Z</time>
      </trkpt>
      <trkpt lat="45.23727" lon="5.98481">
        <ele>1185.4000244141</ele>
        <time>2015-08-24T07:23:54.000Z</time>
      </trkpt>
      <trkpt lat="45.23714" lon="5.98492">
        <ele>1189</ele>
        <time>2015-08-24T07:24:03.000Z</time>
      </trkpt>
      <trkpt lat="45.23706" lon="5.985">
        <ele>1191.4000244141</ele>
        <time>2015-08-24T07:24:09.000Z</time>
      </trkpt>
      <trkpt lat="45.23695" lon="5.985">
        <ele>1191</ele>
        <time>2015-08-24T07:24:16.000Z</time>
      </trkpt>
      <trkpt lat="45.23683" lon="5.98498">
        <ele>1190</ele>
        <time>2015-08-24T07:24:23.000Z</time>
      </trkpt>
      <trkpt lat="45.23673" lon="5.98494">
        <ele>1188.1999511719</ele>
        <time>2015-08-24T07:24:30.000Z</time>
      </trkpt>
      <trkpt lat="45.23662" lon="5.98494">
        <ele>1187.8000488281</ele>
        <time>2015-08-24T07:24:36.000Z</time>
      </trkpt>
      <trkpt lat="45.23652" lon="5.98491">
        <ele>1186.5999755859</ele>
        <time>2015-08-24T07:24:42.000Z</time>
      </trkpt>
      <trkpt lat="45.23649" lon="5.98492">
        <ele>1186.8000488281</ele>
        <time>2015-08-24T07:24:44.000Z</time>
      </trkpt>
      <trkpt lat="45.23646" lon="5.98494">
        <ele>1187.5999755859</ele>
        <time>2015-08-24T07:24:46.000Z</time>
      </trkpt>
      <trkpt lat="45.23637" lon="5.98501">
        <ele>1190.8000488281</ele>
        <time>2015-08-24T07:24:52.000Z</time>
      </trkpt>
      <trkpt lat="45.23621" lon="5.98511">
        <ele>1195</ele>
        <time>2015-08-24T07:25:02.000Z</time>
      </trkpt>
      <trkpt lat="45.23611" lon="5.98515">
        <ele>1196.5999755859</ele>
        <time>2015-08-24T07:25:09.000Z</time>
      </trkpt>
      <trkpt lat="45.23595" lon="5.98519">
        <ele>1198</ele>
        <time>2015-08-24T07:25:18.000Z</time>
      </trkpt>
      <trkpt lat="45.23587" lon="5.98524">
        <ele>1199.8000488281</ele>
        <time>2015-08-24T07:25:25.000Z</time>
      </trkpt>
      <trkpt lat="45.23579" lon="5.98533">
        <ele>1202.8000488281</ele>
        <time>2015-08-24T07:25:30.000Z</time>
      </trkpt>
      <trkpt lat="45.23572" lon="5.98541">
        <ele>1205.4000244141</ele>
        <time>2015-08-24T07:25:35.000Z</time>
      </trkpt>
      <trkpt lat="45.23568" lon="5.98541">
        <ele>1205.1999511719</ele>
        <time>2015-08-24T07:25:37.000Z</time>
      </trkpt>
      <trkpt lat="45.23556" lon="5.98549">
        <ele>1207.4000244141</ele>
        <time>2015-08-24T07:25:44.000Z</time>
      </trkpt>
      <trkpt lat="45.23547" lon="5.98562">
        <ele>1211.4000244141</ele>
        <time>2015-08-24T07:25:50.000Z</time>
      </trkpt>
      <trkpt lat="45.2354" lon="5.98571">
        <ele>1212.8000488281</ele>
        <time>2015-08-24T07:25:55.000Z</time>
      </trkpt>
      <trkpt lat="45.23539" lon="5.98572">
        <ele>1212.8000488281</ele>
        <time>2015-08-24T07:25:56.000Z</time>
      </trkpt>
      <trkpt lat="45.23535" lon="5.9858">
        <ele>1214.4000244141</ele>
        <time>2015-08-24T07:26:01.000Z</time>
      </trkpt>
      <trkpt lat="45.23531" lon="5.98589">
        <ele>1216.4000244141</ele>
        <time>2015-08-24T07:26:06.000Z</time>
      </trkpt>
      <trkpt lat="45.23531" lon="5.98597">
        <ele>1218.4000244141</ele>
        <time>2015-08-24T07:26:09.000Z</time>
      </trkpt>
      <trkpt lat="45.23527" lon="5.98605">
        <ele>1220.1999511719</ele>
        <time>2015-08-24T07:26:13.000Z</time>
      </trkpt>
      <trkpt lat="45.2352" lon="5.98616">
        <ele>1221.8000488281</ele>
        <time>2015-08-24T07:26:20.000Z</time>
      </trkpt>
      <trkpt lat="45.23519" lon="5.98618">
        <ele>1222.4000244141</ele>
        <time>2015-08-24T07:26:21.000Z</time>
      </trkpt>
      <trkpt lat="45.23515" lon="5.98622">
        <ele>1222.1999511719</ele>
        <time>2015-08-24T07:26:25.000Z</time>
      </trkpt>
      <trkpt lat="45.23503" lon="5.98636">
        <ele>1222.5999755859</ele>
        <time>2015-08-24T07:26:33.000Z</time>
      </trkpt>
      <trkpt lat="45.23493" lon="5.98644">
        <ele>1222</ele>
        <time>2015-08-24T07:26:41.000Z</time>
      </trkpt>
      <trkpt lat="45.23489" lon="5.98649">
        <ele>1221.8000488281</ele>
        <time>2015-08-24T07:26:45.000Z</time>
      </trkpt>
      <trkpt lat="45.23487" lon="5.98654">
        <ele>1222.1999511719</ele>
        <time>2015-08-24T07:26:48.000Z</time>
      </trkpt>
      <trkpt lat="45.23479" lon="5.98667">
        <ele>1223</ele>
        <time>2015-08-24T07:26:55.000Z</time>
      </trkpt>
      <trkpt lat="45.23478" lon="5.98672">
        <ele>1223.8000488281</ele>
        <time>2015-08-24T07:26:58.000Z</time>
      </trkpt>
      <trkpt lat="45.23476" lon="5.98675">
        <ele>1224.1999511719</ele>
        <time>2015-08-24T07:27:00.000Z</time>
      </trkpt>
      <trkpt lat="45.23472" lon="5.9868">
        <ele>1224.8000488281</ele>
        <time>2015-08-24T07:27:03.000Z</time>
      </trkpt>
      <trkpt lat="45.23467" lon="5.98688">
        <ele>1225.5999755859</ele>
        <time>2015-08-24T07:27:08.000Z</time>
      </trkpt>
      <trkpt lat="45.23457" lon="5.98699">
        <ele>1226</ele>
        <time>2015-08-24T07:27:16.000Z</time>
      </trkpt>
      <trkpt lat="45.23451" lon="5.98718">
        <ele>1228.8000488281</ele>
        <time>2015-08-24T07:27:24.000Z</time>
      </trkpt>
      <trkpt lat="45.23447" lon="5.98735">
        <ele>1231.1999511719</ele>
        <time>2015-08-24T07:27:31.000Z</time>
      </trkpt>
      <trkpt lat="45.23437" lon="5.98752">
        <ele>1232.1999511719</ele>
        <time>2015-08-24T07:27:39.000Z</time>
      </trkpt>
      <trkpt lat="45.23428" lon="5.98759">
        <ele>1231.4000244141</ele>
        <time>2015-08-24T07:27:45.000Z</time>
      </trkpt>
      <trkpt lat="45.23419" lon="5.9877">
        <ele>1231.4000244141</ele>
        <time>2015-08-24T07:27:51.000Z</time>
      </trkpt>
      <trkpt lat="45.23407" lon="5.98779">
        <ele>1230.8000488281</ele>
        <time>2015-08-24T07:27:58.000Z</time>
      </trkpt>
      <trkpt lat="45.23398" lon="5.98788">
        <ele>1230.8000488281</ele>
        <time>2015-08-24T07:28:06.000Z</time>
      </trkpt>
      <trkpt lat="45.23385" lon="5.98801">
        <ele>1230.5999755859</ele>
        <time>2015-08-24T07:28:16.000Z</time>
      </trkpt>
      <trkpt lat="45.23373" lon="5.98812">
        <ele>1232.1999511719</ele>
        <time>2015-08-24T07:28:24.000Z</time>
      </trkpt>
      <trkpt lat="45.23362" lon="5.98822">
        <ele>1235</ele>
        <time>2015-08-24T07:28:31.000Z</time>
      </trkpt>
      <trkpt lat="45.23351" lon="5.98831">
        <ele>1237.8000488281</ele>
        <time>2015-08-24T07:28:39.000Z</time>
      </trkpt>
      <trkpt lat="45.23341" lon="5.98838">
        <ele>1239.8000488281</ele>
        <time>2015-08-24T07:28:46.000Z</time>
      </trkpt>
      <trkpt lat="45.2333" lon="5.98845">
        <ele>1241.5999755859</ele>
        <time>2015-08-24T07:28:53.000Z</time>
      </trkpt>
      <trkpt lat="45.23316" lon="5.98856">
        <ele>1242.4000244141</ele>
        <time>2015-08-24T07:29:01.000Z</time>
      </trkpt>
      <trkpt lat="45.23301" lon="5.9887">
        <ele>1243.8000488281</ele>
        <time>2015-08-24T07:29:11.000Z</time>
      </trkpt>
      <trkpt lat="45.23285" lon="5.98879">
        <ele>1246</ele>
        <time>2015-08-24T07:29:20.000Z</time>
      </trkpt>
      <trkpt lat="45.23276" lon="5.98883">
        <ele>1246.4000244141</ele>
        <time>2015-08-24T07:29:26.000Z</time>
      </trkpt>
      <trkpt lat="45.23256" lon="5.98887">
        <ele>1246.1999511719</ele>
        <time>2015-08-24T07:29:36.000Z</time>
      </trkpt>
      <trkpt lat="45.23246" lon="5.98889">
        <ele>1246.1999511719</ele>
        <time>2015-08-24T07:29:41.000Z</time>
      </trkpt>
      <trkpt lat="45.23239" lon="5.98891">
        <ele>1246.1999511719</ele>
        <time>2015-08-24T07:29:45.000Z</time>
      </trkpt>
      <trkpt lat="45.23224" lon="5.98899">
        <ele>1248.8000488281</ele>
        <time>2015-08-24T07:29:53.000Z</time>
      </trkpt>
      <trkpt lat="45.23211" lon="5.9891">
        <ele>1250.8000488281</ele>
        <time>2015-08-24T07:30:02.000Z</time>
      </trkpt>
      <trkpt lat="45.23202" lon="5.98925">
        <ele>1255.1999511719</ele>
        <time>2015-08-24T07:30:11.000Z</time>
      </trkpt>
      <trkpt lat="45.23194" lon="5.98944">
        <ele>1260.8000488281</ele>
        <time>2015-08-24T07:30:20.000Z</time>
      </trkpt>
      <trkpt lat="45.23189" lon="5.98955">
        <ele>1263.4000244141</ele>
        <time>2015-08-24T07:30:26.000Z</time>
      </trkpt>
      <trkpt lat="45.23181" lon="5.98971">
        <ele>1264.8000488281</ele>
        <time>2015-08-24T07:30:34.000Z</time>
      </trkpt>
      <trkpt lat="45.23174" lon="5.98986">
        <ele>1267.5999755859</ele>
        <time>2015-08-24T07:30:42.000Z</time>
      </trkpt>
      <trkpt lat="45.23166" lon="5.98999">
        <ele>1270.5999755859</ele>
        <time>2015-08-24T07:30:51.000Z</time>
      </trkpt>
      <trkpt lat="45.23159" lon="5.99011">
        <ele>1272.4000244141</ele>
        <time>2015-08-24T07:30:59.000Z</time>
      </trkpt>
      <trkpt lat="45.23155" lon="5.99022">
        <ele>1274</ele>
        <time>2015-08-24T07:31:06.000Z</time>
      </trkpt>
      <trkpt lat="45.2315" lon="5.99032">
        <ele>1274.8000488281</ele>
        <time>2015-08-24T07:31:13.000Z</time>
      </trkpt>
      <trkpt lat="45.23148" lon="5.99043">
        <ele>1276.5999755859</ele>
        <time>2015-08-24T07:31:19.000Z</time>
      </trkpt>
      <trkpt lat="45.23143" lon="5.99057">
        <ele>1278.8000488281</ele>
        <time>2015-08-24T07:31:26.000Z</time>
      </trkpt>
      <trkpt lat="45.23137" lon="5.99074">
        <ele>1282.1999511719</ele>
        <time>2015-08-24T07:31:34.000Z</time>
      </trkpt>
      <trkpt lat="45.23129" lon="5.99085">
        <ele>1284.5999755859</ele>
        <time>2015-08-24T07:31:41.000Z</time>
      </trkpt>
      <trkpt lat="45.23119" lon="5.99097">
        <ele>1286.8000488281</ele>
        <time>2015-08-24T07:31:48.000Z</time>
      </trkpt>
      <trkpt lat="45.23108" lon="5.99104">
        <ele>1286.5999755859</ele>
        <time>2015-08-24T07:31:55.000Z</time>
      </trkpt>
      <trkpt lat="45.23095" lon="5.9911">
        <ele>1286.1999511719</ele>
        <time>2015-08-24T07:32:04.000Z</time>
      </trkpt>
      <trkpt lat="45.2308" lon="5.99113">
        <ele>1285.4000244141</ele>
        <time>2015-08-24T07:32:14.000Z</time>
      </trkpt>
      <trkpt lat="45.23071" lon="5.99117">
        <ele>1285.8000488281</ele>
        <time>2015-08-24T07:32:21.000Z</time>
      </trkpt>
      <trkpt lat="45.2306" lon="5.99121">
        <ele>1286</ele>
        <time>2015-08-24T07:32:30.000Z</time>
      </trkpt>
      <trkpt lat="45.23047" lon="5.99123">
        <ele>1284.8000488281</ele>
        <time>2015-08-24T07:32:39.000Z</time>
      </trkpt>
      <trkpt lat="45.23034" lon="5.99127">
        <ele>1285.1999511719</ele>
        <time>2015-08-24T07:32:48.000Z</time>
      </trkpt>
      <trkpt lat="45.2302" lon="5.99128">
        <ele>1284</ele>
        <time>2015-08-24T07:32:57.000Z</time>
      </trkpt>
      <trkpt lat="45.23007" lon="5.99137">
        <ele>1285.8000488281</ele>
        <time>2015-08-24T07:33:07.000Z</time>
      </trkpt>
      <trkpt lat="45.22994" lon="5.99146">
        <ele>1288</ele>
        <time>2015-08-24T07:33:16.000Z</time>
      </trkpt>
      <trkpt lat="45.22981" lon="5.99155">
        <ele>1290.5999755859</ele>
        <time>2015-08-24T07:33:25.000Z</time>
      </trkpt>
      <trkpt lat="45.22971" lon="5.99157">
        <ele>1290.5999755859</ele>
        <time>2015-08-24T07:33:32.000Z</time>
      </trkpt>
      <trkpt lat="45.22961" lon="5.99164">
        <ele>1293.4000244141</ele>
        <time>2015-08-24T07:33:39.000Z</time>
      </trkpt>
      <trkpt lat="45.22948" lon="5.99164">
        <ele>1292.1999511719</ele>
        <time>2015-08-24T07:33:47.000Z</time>
      </trkpt>
      <trkpt lat="45.22937" lon="5.99161">
        <ele>1289.1999511719</ele>
        <time>2015-08-24T07:33:55.000Z</time>
      </trkpt>
      <trkpt lat="45.22923" lon="5.9916">
        <ele>1287.4000244141</ele>
        <time>2015-08-24T07:34:04.000Z</time>
      </trkpt>
      <trkpt lat="45.22914" lon="5.99168">
        <ele>1290.1999511719</ele>
        <time>2015-08-24T07:34:10.000Z</time>
      </trkpt>
      <trkpt lat="45.22906" lon="5.99177">
        <ele>1293.5999755859</ele>
        <time>2015-08-24T07:34:18.000Z</time>
      </trkpt>
      <trkpt lat="45.22897" lon="5.99187">
        <ele>1296.5999755859</ele>
        <time>2015-08-24T07:34:25.000Z</time>
      </trkpt>
      <trkpt lat="45.22884" lon="5.99206">
        <ele>1303.4000244141</ele>
        <time>2015-08-24T07:34:37.000Z</time>
      </trkpt>
      <trkpt lat="45.22876" lon="5.9922">
        <ele>1307.8000488281</ele>
        <time>2015-08-24T07:34:45.000Z</time>
      </trkpt>
      <trkpt lat="45.22866" lon="5.99232">
        <ele>1309.5999755859</ele>
        <time>2015-08-24T07:34:53.000Z</time>
      </trkpt>
      <trkpt lat="45.22856" lon="5.99242">
        <ele>1311</ele>
        <time>2015-08-24T07:35:01.000Z</time>
      </trkpt>
      <trkpt lat="45.22849" lon="5.99255">
        <ele>1314.4000244141</ele>
        <time>2015-08-24T07:35:08.000Z</time>
      </trkpt>
      <trkpt lat="45.2284" lon="5.99261">
        <ele>1314.4000244141</ele>
        <time>2015-08-24T07:35:14.000Z</time>
      </trkpt>
      <trkpt lat="45.22839" lon="5.99261">
        <ele>1313.5999755859</ele>
        <time>2015-08-24T07:35:15.000Z</time>
      </trkpt>
      <trkpt lat="45.22826" lon="5.99266">
        <ele>1312.8000488281</ele>
        <time>2015-08-24T07:35:23.000Z</time>
      </trkpt>
      <trkpt lat="45.22817" lon="5.9927">
        <ele>1312.4000244141</ele>
        <time>2015-08-24T07:35:30.000Z</time>
      </trkpt>
      <trkpt lat="45.22808" lon="5.99275">
        <ele>1313.4000244141</ele>
        <time>2015-08-24T07:35:37.000Z</time>
      </trkpt>
      <trkpt lat="45.22795" lon="5.99281">
        <ele>1313.8000488281</ele>
        <time>2015-08-24T07:35:47.000Z</time>
      </trkpt>
      <trkpt lat="45.22787" lon="5.99283">
        <ele>1313</ele>
        <time>2015-08-24T07:35:53.000Z</time>
      </trkpt>
      <trkpt lat="45.22786" lon="5.99285">
        <ele>1314</ele>
        <time>2015-08-24T07:35:54.000Z</time>
      </trkpt>
      <trkpt lat="45.22782" lon="5.99293">
        <ele>1317.5999755859</ele>
        <time>2015-08-24T07:35:59.000Z</time>
      </trkpt>
      <trkpt lat="45.22773" lon="5.993">
        <ele>1318.1999511719</ele>
        <time>2015-08-24T07:36:06.000Z</time>
      </trkpt>
      <trkpt lat="45.22765" lon="5.99312">
        <ele>1321.5999755859</ele>
        <time>2015-08-24T07:36:14.000Z</time>
      </trkpt>
      <trkpt lat="45.22758" lon="5.99323">
        <ele>1324.5999755859</ele>
        <time>2015-08-24T07:36:20.000Z</time>
      </trkpt>
      <trkpt lat="45.22751" lon="5.99335">
        <ele>1328.5999755859</ele>
        <time>2015-08-24T07:36:27.000Z</time>
      </trkpt>
      <trkpt lat="45.22744" lon="5.99349">
        <ele>1333.5999755859</ele>
        <time>2015-08-24T07:36:34.000Z</time>
      </trkpt>
      <trkpt lat="45.22733" lon="5.99359">
        <ele>1335.1999511719</ele>
        <time>2015-08-24T07:36:42.000Z</time>
      </trkpt>
      <trkpt lat="45.22723" lon="5.99367">
        <ele>1336.5999755859</ele>
        <time>2015-08-24T07:36:49.000Z</time>
      </trkpt>
      <trkpt lat="45.22715" lon="5.99375">
        <ele>1338</ele>
        <time>2015-08-24T07:36:55.000Z</time>
      </trkpt>
      <trkpt lat="45.22701" lon="5.9939">
        <ele>1342</ele>
        <time>2015-08-24T07:37:05.000Z</time>
      </trkpt>
      <trkpt lat="45.22688" lon="5.99401">
        <ele>1342.1999511719</ele>
        <time>2015-08-24T07:37:14.000Z</time>
      </trkpt>
      <trkpt lat="45.22678" lon="5.99409">
        <ele>1342.1999511719</ele>
        <time>2015-08-24T07:37:21.000Z</time>
      </trkpt>
      <trkpt lat="45.22664" lon="5.99418">
        <ele>1341</ele>
        <time>2015-08-24T07:37:30.000Z</time>
      </trkpt>
      <trkpt lat="45.22653" lon="5.99426">
        <ele>1339.1999511719</ele>
        <time>2015-08-24T07:37:38.000Z</time>
      </trkpt>
      <trkpt lat="45.22644" lon="5.9943">
        <ele>1335.8000488281</ele>
        <time>2015-08-24T07:37:45.000Z</time>
      </trkpt>
      <trkpt lat="45.22635" lon="5.99437">
        <ele>1333.1999511719</ele>
        <time>2015-08-24T07:37:52.000Z</time>
      </trkpt>
      <trkpt lat="45.22628" lon="5.99447">
        <ele>1334</ele>
        <time>2015-08-24T07:37:59.000Z</time>
      </trkpt>
      <trkpt lat="45.22621" lon="5.99457">
        <ele>1337.4000244141</ele>
        <time>2015-08-24T07:38:06.000Z</time>
      </trkpt>
      <trkpt lat="45.22611" lon="5.9947">
        <ele>1339.4000244141</ele>
        <time>2015-08-24T07:38:13.000Z</time>
      </trkpt>
      <trkpt lat="45.22605" lon="5.99485">
        <ele>1343.4000244141</ele>
        <time>2015-08-24T07:38:20.000Z</time>
      </trkpt>
      <trkpt lat="45.22597" lon="5.99492">
        <ele>1345</ele>
        <time>2015-08-24T07:38:26.000Z</time>
      </trkpt>
      <trkpt lat="45.22584" lon="5.99503">
        <ele>1347.4000244141</ele>
        <time>2015-08-24T07:38:33.000Z</time>
      </trkpt>
      <trkpt lat="45.22575" lon="5.99513">
        <ele>1348.5999755859</ele>
        <time>2015-08-24T07:38:40.000Z</time>
      </trkpt>
      <trkpt lat="45.22565" lon="5.99522">
        <ele>1347.4000244141</ele>
        <time>2015-08-24T07:38:47.000Z</time>
      </trkpt>
      <trkpt lat="45.22562" lon="5.99526">
        <ele>1347.1999511719</ele>
        <time>2015-08-24T07:38:50.000Z</time>
      </trkpt>
      <trkpt lat="45.22555" lon="5.99533">
        <ele>1346.8000488281</ele>
        <time>2015-08-24T07:38:55.000Z</time>
      </trkpt>
      <trkpt lat="45.22547" lon="5.99545">
        <ele>1346.8000488281</ele>
        <time>2015-08-24T07:39:03.000Z</time>
      </trkpt>
      <trkpt lat="45.22536" lon="5.99551">
        <ele>1345.5999755859</ele>
        <time>2015-08-24T07:39:10.000Z</time>
      </trkpt>
      <trkpt lat="45.22533" lon="5.9956">
        <ele>1346</ele>
        <time>2015-08-24T07:39:14.000Z</time>
      </trkpt>
      <trkpt lat="45.22531" lon="5.99562">
        <ele>1345.5999755859</ele>
        <time>2015-08-24T07:39:16.000Z</time>
      </trkpt>
      <trkpt lat="45.22527" lon="5.99568">
        <ele>1345.4000244141</ele>
        <time>2015-08-24T07:39:20.000Z</time>
      </trkpt>
      <trkpt lat="45.22525" lon="5.99571">
        <ele>1345.4000244141</ele>
        <time>2015-08-24T07:39:22.000Z</time>
      </trkpt>
      <trkpt lat="45.2252" lon="5.99582">
        <ele>1346.4000244141</ele>
        <time>2015-08-24T07:39:29.000Z</time>
      </trkpt>
      <trkpt lat="45.22518" lon="5.99592">
        <ele>1348.1999511719</ele>
        <time>2015-08-24T07:39:33.000Z</time>
      </trkpt>
      <trkpt lat="45.22517" lon="5.99596">
        <ele>1349</ele>
        <time>2015-08-24T07:39:35.000Z</time>
      </trkpt>
      <trkpt lat="45.22515" lon="5.99612">
        <ele>1352.1999511719</ele>
        <time>2015-08-24T07:39:42.000Z</time>
      </trkpt>
      <trkpt lat="45.22514" lon="5.99629">
        <ele>1354.5999755859</ele>
        <time>2015-08-24T07:39:49.000Z</time>
      </trkpt>
      <trkpt lat="45.22516" lon="5.99642">
        <ele>1357.4000244141</ele>
        <time>2015-08-24T07:39:54.000Z</time>
      </trkpt>
      <trkpt lat="45.22516" lon="5.99644">
        <ele>1358</ele>
        <time>2015-08-24T07:39:55.000Z</time>
      </trkpt>
      <trkpt lat="45.22518" lon="5.99655">
        <ele>1362.1999511719</ele>
        <time>2015-08-24T07:40:00.000Z</time>
      </trkpt>
      <trkpt lat="45.22517" lon="5.99659">
        <ele>1363</ele>
        <time>2015-08-24T07:40:02.000Z</time>
      </trkpt>
      <trkpt lat="45.22515" lon="5.99668">
        <ele>1364.8000488281</ele>
        <time>2015-08-24T07:40:06.000Z</time>
      </trkpt>
      <trkpt lat="45.22515" lon="5.99678">
        <ele>1367.5999755859</ele>
        <time>2015-08-24T07:40:11.000Z</time>
      </trkpt>
      <trkpt lat="45.22515" lon="5.99679">
        <ele>1367.8000488281</ele>
        <time>2015-08-24T07:40:12.000Z</time>
      </trkpt>
      <trkpt lat="45.22514" lon="5.99687">
        <ele>1369.4000244141</ele>
        <time>2015-08-24T07:40:15.000Z</time>
      </trkpt>
      <trkpt lat="45.22513" lon="5.99691">
        <ele>1370.1999511719</ele>
        <time>2015-08-24T07:40:17.000Z</time>
      </trkpt>
      <trkpt lat="45.22508" lon="5.99708">
        <ele>1370.4000244141</ele>
        <time>2015-08-24T07:40:25.000Z</time>
      </trkpt>
      <trkpt lat="45.22508" lon="5.99724">
        <ele>1372.8000488281</ele>
        <time>2015-08-24T07:40:31.000Z</time>
      </trkpt>
      <trkpt lat="45.22508" lon="5.99744">
        <ele>1375</ele>
        <time>2015-08-24T07:40:38.000Z</time>
      </trkpt>
      <trkpt lat="45.22511" lon="5.99763">
        <ele>1379.4000244141</ele>
        <time>2015-08-24T07:40:44.000Z</time>
      </trkpt>
      <trkpt lat="45.2251" lon="5.99765">
        <ele>1379.1999511719</ele>
        <time>2015-08-24T07:40:45.000Z</time>
      </trkpt>
      <trkpt lat="45.22509" lon="5.99772">
        <ele>1379.4000244141</ele>
        <time>2015-08-24T07:40:49.000Z</time>
      </trkpt>
      <trkpt lat="45.22506" lon="5.99785">
        <ele>1379.8000488281</ele>
        <time>2015-08-24T07:40:55.000Z</time>
      </trkpt>
      <trkpt lat="45.22498" lon="5.99801">
        <ele>1377.8000488281</ele>
        <time>2015-08-24T07:41:01.000Z</time>
      </trkpt>
      <trkpt lat="45.22489" lon="5.99817">
        <ele>1376.4000244141</ele>
        <time>2015-08-24T07:41:07.000Z</time>
      </trkpt>
      <trkpt lat="45.22487" lon="5.99818">
        <ele>1375.5999755859</ele>
        <time>2015-08-24T07:41:08.000Z</time>
      </trkpt>
      <trkpt lat="45.22479" lon="5.99824">
        <ele>1372</ele>
        <time>2015-08-24T07:41:12.000Z</time>
      </trkpt>
      <trkpt lat="45.22471" lon="5.99835">
        <ele>1370.1999511719</ele>
        <time>2015-08-24T07:41:17.000Z</time>
      </trkpt>
      <trkpt lat="45.22462" lon="5.99841">
        <ele>1366.5999755859</ele>
        <time>2015-08-24T07:41:23.000Z</time>
      </trkpt>
      <trkpt lat="45.22457" lon="5.9985">
        <ele>1368</ele>
        <time>2015-08-24T07:41:29.000Z</time>
      </trkpt>
      <trkpt lat="45.2245" lon="5.99868">
        <ele>1370.8000488281</ele>
        <time>2015-08-24T07:41:36.000Z</time>
      </trkpt>
      <trkpt lat="45.22453" lon="5.99884">
        <ele>1374.4000244141</ele>
        <time>2015-08-24T07:41:43.000Z</time>
      </trkpt>
      <trkpt lat="45.22453" lon="5.99889">
        <ele>1375.8000488281</ele>
        <time>2015-08-24T07:41:49.000Z</time>
      </trkpt>
      <trkpt lat="45.22445" lon="5.99888">
        <ele>1375</ele>
        <time>2015-08-24T07:42:15.000Z</time>
      </trkpt>
      <trkpt lat="45.22447" lon="5.99892">
        <ele>1376.1999511719</ele>
        <time>2015-08-24T07:42:55.000Z</time>
      </trkpt>
      <trkpt lat="45.22433" lon="5.99886">
        <ele>1374</ele>
        <time>2015-08-24T07:44:41.000Z</time>
      </trkpt>
      <trkpt lat="45.22432" lon="5.99889">
        <ele>1374.5999755859</ele>
        <time>2015-08-24T07:44:45.000Z</time>
      </trkpt>
      <trkpt lat="45.22429" lon="5.99896">
        <ele>1375.8000488281</ele>
        <time>2015-08-24T07:45:04.000Z</time>
      </trkpt>
      <trkpt lat="45.22448" lon="5.99894">
        <ele>1376.5999755859</ele>
        <time>2015-08-24T07:47:02.000Z</time>
      </trkpt>
      <trkpt lat="45.22443" lon="5.99878">
        <ele>1372.4000244141</ele>
        <time>2015-08-24T07:50:08.000Z</time>
      </trkpt>
      <trkpt lat="45.22439" lon="5.99896">
        <ele>1376.4000244141</ele>
        <time>2015-08-24T07:51:56.000Z</time>
      </trkpt>
      <trkpt lat="45.22443" lon="5.99885">
        <ele>1374.1999511719</ele>
        <time>2015-08-24T07:52:46.000Z</time>
      </trkpt>
      <trkpt lat="45.22438" lon="5.99875">
        <ele>1371.1999511719</ele>
        <time>2015-08-24T07:54:58.000Z</time>
      </trkpt>
      <trkpt lat="45.22438" lon="5.99888">
        <ele>1374.5999755859</ele>
        <time>2015-08-24T07:55:24.000Z</time>
      </trkpt>
      <trkpt lat="45.22438" lon="5.99893">
        <ele>1375.8000488281</ele>
        <time>2015-08-24T07:55:30.000Z</time>
      </trkpt>
      <trkpt lat="45.22443" lon="5.99876">
        <ele>1371.8000488281</ele>
        <time>2015-08-24T07:57:33.000Z</time>
      </trkpt>
      <trkpt lat="45.22435" lon="5.9989">
        <ele>1375</ele>
        <time>2015-08-24T07:58:32.000Z</time>
      </trkpt>
      <trkpt lat="45.22431" lon="5.99882">
        <ele>1372.8000488281</ele>
        <time>2015-08-24T07:59:42.000Z</time>
      </trkpt>
      <trkpt lat="45.22444" lon="5.99888">
        <ele>1375</ele>
        <time>2015-08-24T08:00:14.000Z</time>
      </trkpt>
      <trkpt lat="45.22448" lon="5.99889">
        <ele>1375.4000244141</ele>
        <time>2015-08-24T08:00:17.000Z</time>
      </trkpt>
      <trkpt lat="45.22453" lon="5.99892">
        <ele>1376.5999755859</ele>
        <time>2015-08-24T08:00:23.000Z</time>
      </trkpt>
      <trkpt lat="45.22462" lon="5.99891">
        <ele>1376.8000488281</ele>
        <time>2015-08-24T08:00:29.000Z</time>
      </trkpt>
      <trkpt lat="45.2247" lon="5.99881">
        <ele>1379</ele>
        <time>2015-08-24T08:00:35.000Z</time>
      </trkpt>
      <trkpt lat="45.22477" lon="5.99871">
        <ele>1381</ele>
        <time>2015-08-24T08:00:41.000Z</time>
      </trkpt>
      <trkpt lat="45.22485" lon="5.99858">
        <ele>1382</ele>
        <time>2015-08-24T08:00:46.000Z</time>
      </trkpt>
      <trkpt lat="45.22498" lon="5.99844">
        <ele>1386.4000244141</ele>
        <time>2015-08-24T08:00:54.000Z</time>
      </trkpt>
      <trkpt lat="45.22506" lon="5.99832">
        <ele>1388.1999511719</ele>
        <time>2015-08-24T08:01:00.000Z</time>
      </trkpt>
      <trkpt lat="45.2251" lon="5.99828">
        <ele>1389.8000488281</ele>
        <time>2015-08-24T08:01:04.000Z</time>
      </trkpt>
      <trkpt lat="45.22511" lon="5.99824">
        <ele>1389.5999755859</ele>
        <time>2015-08-24T08:01:06.000Z</time>
      </trkpt>
      <trkpt lat="45.22512" lon="5.99809">
        <ele>1387.1999511719</ele>
        <time>2015-08-24T08:01:13.000Z</time>
      </trkpt>
      <trkpt lat="45.22514" lon="5.99794">
        <ele>1385.8000488281</ele>
        <time>2015-08-24T08:01:19.000Z</time>
      </trkpt>
      <trkpt lat="45.22517" lon="5.99789">
        <ele>1386</ele>
        <time>2015-08-24T08:01:21.000Z</time>
      </trkpt>
      <trkpt lat="45.2252" lon="5.9978">
        <ele>1386.5999755859</ele>
        <time>2015-08-24T08:01:25.000Z</time>
      </trkpt>
      <trkpt lat="45.22524" lon="5.9978">
        <ele>1389</ele>
        <time>2015-08-24T08:01:29.000Z</time>
      </trkpt>
      <trkpt lat="45.22525" lon="5.99781">
        <ele>1389.5999755859</ele>
        <time>2015-08-24T08:01:30.000Z</time>
      </trkpt>
      <trkpt lat="45.22525" lon="5.99782">
        <ele>1390</ele>
        <time>2015-08-24T08:01:31.000Z</time>
      </trkpt>
      <trkpt lat="45.22527" lon="5.99789">
        <ele>1391.8000488281</ele>
        <time>2015-08-24T08:01:35.000Z</time>
      </trkpt>
      <trkpt lat="45.22526" lon="5.99794">
        <ele>1392.1999511719</ele>
        <time>2015-08-24T08:01:39.000Z</time>
      </trkpt>
      <trkpt lat="45.22526" lon="5.99802">
        <ele>1393.4000244141</ele>
        <time>2015-08-24T08:01:44.000Z</time>
      </trkpt>
      <trkpt lat="45.22526" lon="5.99805">
        <ele>1393.8000488281</ele>
        <time>2015-08-24T08:01:46.000Z</time>
      </trkpt>
      <trkpt lat="45.22525" lon="5.99808">
        <ele>1394</ele>
        <time>2015-08-24T08:01:48.000Z</time>
      </trkpt>
      <trkpt lat="45.22526" lon="5.99809">
        <ele>1394.4000244141</ele>
        <time>2015-08-24T08:01:52.000Z</time>
      </trkpt>
      <trkpt lat="45.22526" lon="5.99828">
        <ele>1398.4000244141</ele>
        <time>2015-08-24T08:02:07.000Z</time>
      </trkpt>
      <trkpt lat="45.22525" lon="5.99832">
        <ele>1398.4000244141</ele>
        <time>2015-08-24T08:02:10.000Z</time>
      </trkpt>
      <trkpt lat="45.22524" lon="5.99835">
        <ele>1398.5999755859</ele>
        <time>2015-08-24T08:02:12.000Z</time>
      </trkpt>
      <trkpt lat="45.22524" lon="5.99839">
        <ele>1399.5999755859</ele>
        <time>2015-08-24T08:02:17.000Z</time>
      </trkpt>
      <trkpt lat="45.22522" lon="5.99847">
        <ele>1399.8000488281</ele>
        <time>2015-08-24T08:02:21.000Z</time>
      </trkpt>
      <trkpt lat="45.2252" lon="5.99862">
        <ele>1401.5999755859</ele>
        <time>2015-08-24T08:02:29.000Z</time>
      </trkpt>
      <trkpt lat="45.2252" lon="5.99865">
        <ele>1402.1999511719</ele>
        <time>2015-08-24T08:02:31.000Z</time>
      </trkpt>
      <trkpt lat="45.2252" lon="5.99871">
        <ele>1403.5999755859</ele>
        <time>2015-08-24T08:02:34.000Z</time>
      </trkpt>
      <trkpt lat="45.22521" lon="5.99874">
        <ele>1404.4000244141</ele>
        <time>2015-08-24T08:02:35.000Z</time>
      </trkpt>
      <trkpt lat="45.2252" lon="5.99888">
        <ele>1406.5999755859</ele>
        <time>2015-08-24T08:02:41.000Z</time>
      </trkpt>
      <trkpt lat="45.22519" lon="5.999">
        <ele>1408.5999755859</ele>
        <time>2015-08-24T08:02:48.000Z</time>
      </trkpt>
      <trkpt lat="45.22515" lon="5.99904">
        <ele>1407.5999755859</ele>
        <time>2015-08-24T08:02:52.000Z</time>
      </trkpt>
      <trkpt lat="45.22513" lon="5.99909">
        <ele>1407.5999755859</ele>
        <time>2015-08-24T08:02:54.000Z</time>
      </trkpt>
      <trkpt lat="45.22511" lon="5.99918">
        <ele>1408.4000244141</ele>
        <time>2015-08-24T08:03:00.000Z</time>
      </trkpt>
      <trkpt lat="45.22509" lon="5.99932">
        <ele>1410.4000244141</ele>
        <time>2015-08-24T08:03:06.000Z</time>
      </trkpt>
      <trkpt lat="45.2251" lon="5.99934">
        <ele>1411.1999511719</ele>
        <time>2015-08-24T08:03:07.000Z</time>
      </trkpt>
      <trkpt lat="45.22509" lon="5.9994">
        <ele>1412.1999511719</ele>
        <time>2015-08-24T08:03:11.000Z</time>
      </trkpt>
      <trkpt lat="45.2251" lon="5.99942">
        <ele>1412.8000488281</ele>
        <time>2015-08-24T08:03:13.000Z</time>
      </trkpt>
      <trkpt lat="45.22509" lon="5.99951">
        <ele>1414</ele>
        <time>2015-08-24T08:03:18.000Z</time>
      </trkpt>
      <trkpt lat="45.22508" lon="5.99954">
        <ele>1414.1999511719</ele>
        <time>2015-08-24T08:03:21.000Z</time>
      </trkpt>
      <trkpt lat="45.22507" lon="5.9996">
        <ele>1414.8000488281</ele>
        <time>2015-08-24T08:03:26.000Z</time>
      </trkpt>
      <trkpt lat="45.22505" lon="5.99969">
        <ele>1415.1999511719</ele>
        <time>2015-08-24T08:03:30.000Z</time>
      </trkpt>
      <trkpt lat="45.22503" lon="5.99973">
        <ele>1414.5999755859</ele>
        <time>2015-08-24T08:03:33.000Z</time>
      </trkpt>
      <trkpt lat="45.22497" lon="5.99981">
        <ele>1412.8000488281</ele>
        <time>2015-08-24T08:03:40.000Z</time>
      </trkpt>
      <trkpt lat="45.2249" lon="5.99993">
        <ele>1412</ele>
        <time>2015-08-24T08:03:47.000Z</time>
      </trkpt>
      <trkpt lat="45.22491" lon="5.99994">
        <ele>1412.4000244141</ele>
        <time>2015-08-24T08:03:48.000Z</time>
      </trkpt>
      <trkpt lat="45.22491" lon="6">
        <ele>1414</ele>
        <time>2015-08-24T08:03:53.000Z</time>
      </trkpt>
      <trkpt lat="45.2249" lon="6.00002">
        <ele>1414</ele>
        <time>2015-08-24T08:03:55.000Z</time>
      </trkpt>
      <trkpt lat="45.22489" lon="6.0001">
        <ele>1415.5999755859</ele>
        <time>2015-08-24T08:03:59.000Z</time>
      </trkpt>
      <trkpt lat="45.22487" lon="6.00019">
        <ele>1417.1999511719</ele>
        <time>2015-08-24T08:04:03.000Z</time>
      </trkpt>
      <trkpt lat="45.22486" lon="6.00021">
        <ele>1417.8000488281</ele>
        <time>2015-08-24T08:04:04.000Z</time>
      </trkpt>
      <trkpt lat="45.2248" lon="6.00037">
        <ele>1419.4000244141</ele>
        <time>2015-08-24T08:04:12.000Z</time>
      </trkpt>
      <trkpt lat="45.22475" lon="6.00046">
        <ele>1419.8000488281</ele>
        <time>2015-08-24T08:04:19.000Z</time>
      </trkpt>
      <trkpt lat="45.22471" lon="6.00052">
        <ele>1419.8000488281</ele>
        <time>2015-08-24T08:04:26.000Z</time>
      </trkpt>
      <trkpt lat="45.2247" lon="6.00054">
        <ele>1419.5999755859</ele>
        <time>2015-08-24T08:04:28.000Z</time>
      </trkpt>
      <trkpt lat="45.22465" lon="6.00061">
        <ele>1419.1999511719</ele>
        <time>2015-08-24T08:04:32.000Z</time>
      </trkpt>
      <trkpt lat="45.22463" lon="6.00065">
        <ele>1419.1999511719</ele>
        <time>2015-08-24T08:04:34.000Z</time>
      </trkpt>
      <trkpt lat="45.22457" lon="6.00074">
        <ele>1419.5999755859</ele>
        <time>2015-08-24T08:04:41.000Z</time>
      </trkpt>
      <trkpt lat="45.2245" lon="6.00085">
        <ele>1420.5999755859</ele>
        <time>2015-08-24T08:04:49.000Z</time>
      </trkpt>
      <trkpt lat="45.22444" lon="6.00093">
        <ele>1420.5999755859</ele>
        <time>2015-08-24T08:04:56.000Z</time>
      </trkpt>
      <trkpt lat="45.22437" lon="6.00102">
        <ele>1420.8000488281</ele>
        <time>2015-08-24T08:05:04.000Z</time>
      </trkpt>
      <trkpt lat="45.22434" lon="6.00106">
        <ele>1421.1999511719</ele>
        <time>2015-08-24T08:05:07.000Z</time>
      </trkpt>
      <trkpt lat="45.2243" lon="6.00114">
        <ele>1422.1999511719</ele>
        <time>2015-08-24T08:05:11.000Z</time>
      </trkpt>
      <trkpt lat="45.22424" lon="6.00119">
        <ele>1422.1999511719</ele>
        <time>2015-08-24T08:05:18.000Z</time>
      </trkpt>
      <trkpt lat="45.2242" lon="6.00121">
        <ele>1421.4000244141</ele>
        <time>2015-08-24T08:05:23.000Z</time>
      </trkpt>
      <trkpt lat="45.22418" lon="6.00121">
        <ele>1421.4000244141</ele>
        <time>2015-08-24T08:05:24.000Z</time>
      </trkpt>
      <trkpt lat="45.22413" lon="6.00129">
        <ele>1422.4000244141</ele>
        <time>2015-08-24T08:05:28.000Z</time>
      </trkpt>
      <trkpt lat="45.22407" lon="6.00132">
        <ele>1421.5999755859</ele>
        <time>2015-08-24T08:05:34.000Z</time>
      </trkpt>
      <trkpt lat="45.22406" lon="6.00133">
        <ele>1421.5999755859</ele>
        <time>2015-08-24T08:05:35.000Z</time>
      </trkpt>
      <trkpt lat="45.22401" lon="6.00133">
        <ele>1420.1999511719</ele>
        <time>2015-08-24T08:05:41.000Z</time>
      </trkpt>
      <trkpt lat="45.22394" lon="6.00135">
        <ele>1418.8000488281</ele>
        <time>2015-08-24T08:05:47.000Z</time>
      </trkpt>
      <trkpt lat="45.22393" lon="6.00134">
        <ele>1418.5999755859</ele>
        <time>2015-08-24T08:05:48.000Z</time>
      </trkpt>
      <trkpt lat="45.22385" lon="6.00135">
        <ele>1416.8000488281</ele>
        <time>2015-08-24T08:05:53.000Z</time>
      </trkpt>
      <trkpt lat="45.22376" lon="6.00142">
        <ele>1417</ele>
        <time>2015-08-24T08:06:00.000Z</time>
      </trkpt>
      <trkpt lat="45.22367" lon="6.00148">
        <ele>1417.4000244141</ele>
        <time>2015-08-24T08:06:06.000Z</time>
      </trkpt>
      <trkpt lat="45.22366" lon="6.00149">
        <ele>1417.4000244141</ele>
        <time>2015-08-24T08:06:07.000Z</time>
      </trkpt>
      <trkpt lat="45.22361" lon="6.00153">
        <ele>1417.8000488281</ele>
        <time>2015-08-24T08:06:10.000Z</time>
      </trkpt>
      <trkpt lat="45.22358" lon="6.00158">
        <ele>1418.5999755859</ele>
        <time>2015-08-24T08:06:13.000Z</time>
      </trkpt>
      <trkpt lat="45.22347" lon="6.00174">
        <ele>1420.8000488281</ele>
        <time>2015-08-24T08:06:22.000Z</time>
      </trkpt>
      <trkpt lat="45.22338" lon="6.00187">
        <ele>1422.5999755859</ele>
        <time>2015-08-24T08:06:30.000Z</time>
      </trkpt>
      <trkpt lat="45.2233" lon="6.00195">
        <ele>1423</ele>
        <time>2015-08-24T08:06:37.000Z</time>
      </trkpt>
      <trkpt lat="45.22321" lon="6.00205">
        <ele>1423.8000488281</ele>
        <time>2015-08-24T08:06:44.000Z</time>
      </trkpt>
      <trkpt lat="45.22316" lon="6.00202">
        <ele>1422.5999755859</ele>
        <time>2015-08-24T08:06:50.000Z</time>
      </trkpt>
      <trkpt lat="45.22316" lon="6.00202">
        <ele>1422.5999755859</ele>
        <time>2015-08-24T08:06:51.000Z</time>
      </trkpt>
      <trkpt lat="45.22313" lon="6.00198">
        <ele>1421.5999755859</ele>
        <time>2015-08-24T08:07:03.000Z</time>
      </trkpt>
      <trkpt lat="45.2231" lon="6.002">
        <ele>1421.5999755859</ele>
        <time>2015-08-24T08:07:10.000Z</time>
      </trkpt>
      <trkpt lat="45.22307" lon="6.00208">
        <ele>1422.4000244141</ele>
        <time>2015-08-24T08:07:18.000Z</time>
      </trkpt>
      <trkpt lat="45.22306" lon="6.00214">
        <ele>1423.4000244141</ele>
        <time>2015-08-24T08:07:23.000Z</time>
      </trkpt>
      <trkpt lat="45.22305" lon="6.00222">
        <ele>1424.5999755859</ele>
        <time>2015-08-24T08:07:26.000Z</time>
      </trkpt>
      <trkpt lat="45.22305" lon="6.00231">
        <ele>1426.5999755859</ele>
        <time>2015-08-24T08:07:33.000Z</time>
      </trkpt>
      <trkpt lat="45.22305" lon="6.00236">
        <ele>1427.5999755859</ele>
        <time>2015-08-24T08:07:38.000Z</time>
      </trkpt>
      <trkpt lat="45.22305" lon="6.00238">
        <ele>1427.8000488281</ele>
        <time>2015-08-24T08:07:40.000Z</time>
      </trkpt>
      <trkpt lat="45.22307" lon="6.00242">
        <ele>1428.8000488281</ele>
        <time>2015-08-24T08:07:51.000Z</time>
      </trkpt>
      <trkpt lat="45.22311" lon="6.00249">
        <ele>1430.4000244141</ele>
        <time>2015-08-24T08:08:00.000Z</time>
      </trkpt>
      <trkpt lat="45.22312" lon="6.0025">
        <ele>1431</ele>
        <time>2015-08-24T08:08:04.000Z</time>
      </trkpt>
      <trkpt lat="45.22312" lon="6.00251">
        <ele>1431</ele>
        <time>2015-08-24T08:08:05.000Z</time>
      </trkpt>
      <trkpt lat="45.22314" lon="6.0026">
        <ele>1432.5999755859</ele>
        <time>2015-08-24T08:08:14.000Z</time>
      </trkpt>
      <trkpt lat="45.22314" lon="6.00266">
        <ele>1433.4000244141</ele>
        <time>2015-08-24T08:08:18.000Z</time>
      </trkpt>
      <trkpt lat="45.22315" lon="6.00271">
        <ele>1434.1999511719</ele>
        <time>2015-08-24T08:08:23.000Z</time>
      </trkpt>
      <trkpt lat="45.22318" lon="6.0028">
        <ele>1436.1999511719</ele>
        <time>2015-08-24T08:08:33.000Z</time>
      </trkpt>
      <trkpt lat="45.22318" lon="6.00285">
        <ele>1436.8000488281</ele>
        <time>2015-08-24T08:08:39.000Z</time>
      </trkpt>
      <trkpt lat="45.2232" lon="6.00291">
        <ele>1438</ele>
        <time>2015-08-24T08:08:46.000Z</time>
      </trkpt>
      <trkpt lat="45.22321" lon="6.00296">
        <ele>1438.8000488281</ele>
        <time>2015-08-24T08:08:52.000Z</time>
      </trkpt>
      <trkpt lat="45.2232" lon="6.00306">
        <ele>1440</ele>
        <time>2015-08-24T08:08:59.000Z</time>
      </trkpt>
      <trkpt lat="45.22319" lon="6.00309">
        <ele>1440</ele>
        <time>2015-08-24T08:09:01.000Z</time>
      </trkpt>
      <trkpt lat="45.22317" lon="6.00317">
        <ele>1442.1999511719</ele>
        <time>2015-08-24T08:09:13.000Z</time>
      </trkpt>
      <trkpt lat="45.22317" lon="6.00322">
        <ele>1443.8000488281</ele>
        <time>2015-08-24T08:09:20.000Z</time>
      </trkpt>
      <trkpt lat="45.22315" lon="6.00328">
        <ele>1445.1999511719</ele>
        <time>2015-08-24T08:09:25.000Z</time>
      </trkpt>
      <trkpt lat="45.22315" lon="6.00328">
        <ele>1445</ele>
        <time>2015-08-24T08:09:27.000Z</time>
      </trkpt>
      <trkpt lat="45.22313" lon="6.0033">
        <ele>1445</ele>
        <time>2015-08-24T08:09:32.000Z</time>
      </trkpt>
      <trkpt lat="45.22313" lon="6.00335">
        <ele>1446</ele>
        <time>2015-08-24T08:09:39.000Z</time>
      </trkpt>
      <trkpt lat="45.2231" lon="6.00343">
        <ele>1446.5999755859</ele>
        <time>2015-08-24T08:09:46.000Z</time>
      </trkpt>
      <trkpt lat="45.22305" lon="6.00357">
        <ele>1447.8000488281</ele>
        <time>2015-08-24T08:09:54.000Z</time>
      </trkpt>
      <trkpt lat="45.22304" lon="6.00359">
        <ele>1447.8000488281</ele>
        <time>2015-08-24T08:09:55.000Z</time>
      </trkpt>
      <trkpt lat="45.22301" lon="6.00363">
        <ele>1448</ele>
        <time>2015-08-24T08:09:59.000Z</time>
      </trkpt>
      <trkpt lat="45.223" lon="6.00366">
        <ele>1448.1999511719</ele>
        <time>2015-08-24T08:10:02.000Z</time>
      </trkpt>
      <trkpt lat="45.22299" lon="6.00373">
        <ele>1449.1999511719</ele>
        <time>2015-08-24T08:10:09.000Z</time>
      </trkpt>
      <trkpt lat="45.22295" lon="6.00383">
        <ele>1450.4000244141</ele>
        <time>2015-08-24T08:10:21.000Z</time>
      </trkpt>
      <trkpt lat="45.22293" lon="6.00388">
        <ele>1451.8000488281</ele>
        <time>2015-08-24T08:10:27.000Z</time>
      </trkpt>
      <trkpt lat="45.2229" lon="6.00393">
        <ele>1453.1999511719</ele>
        <time>2015-08-24T08:10:36.000Z</time>
      </trkpt>
      <trkpt lat="45.22287" lon="6.00399">
        <ele>1455.8000488281</ele>
        <time>2015-08-24T08:10:44.000Z</time>
      </trkpt>
      <trkpt lat="45.22285" lon="6.00403">
        <ele>1457.5999755859</ele>
        <time>2015-08-24T08:10:53.000Z</time>
      </trkpt>
      <trkpt lat="45.22283" lon="6.00409">
        <ele>1459.8000488281</ele>
        <time>2015-08-24T08:11:02.000Z</time>
      </trkpt>
      <trkpt lat="45.22281" lon="6.00413">
        <ele>1461.5999755859</ele>
        <time>2015-08-24T08:11:10.000Z</time>
      </trkpt>
      <trkpt lat="45.2228" lon="6.00416">
        <ele>1462.8000488281</ele>
        <time>2015-08-24T08:11:14.000Z</time>
      </trkpt>
      <trkpt lat="45.22279" lon="6.00418">
        <ele>1463.5999755859</ele>
        <time>2015-08-24T08:11:20.000Z</time>
      </trkpt>
      <trkpt lat="45.22279" lon="6.00421">
        <ele>1465</ele>
        <time>2015-08-24T08:11:25.000Z</time>
      </trkpt>
      <trkpt lat="45.22279" lon="6.0042">
        <ele>1464.5999755859</ele>
        <time>2015-08-24T08:11:28.000Z</time>
      </trkpt>
      <trkpt lat="45.22279" lon="6.0042">
        <ele>1464.8000488281</ele>
        <time>2015-08-24T08:11:34.000Z</time>
      </trkpt>
      <trkpt lat="45.22277" lon="6.00424">
        <ele>1466.1999511719</ele>
        <time>2015-08-24T08:11:38.000Z</time>
      </trkpt>
      <trkpt lat="45.22274" lon="6.00425">
        <ele>1467.1999511719</ele>
        <time>2015-08-24T08:11:42.000Z</time>
      </trkpt>
      <trkpt lat="45.22271" lon="6.00429">
        <ele>1468.8000488281</ele>
        <time>2015-08-24T08:11:47.000Z</time>
      </trkpt>
      <trkpt lat="45.22268" lon="6.00432">
        <ele>1470.4000244141</ele>
        <time>2015-08-24T08:11:53.000Z</time>
      </trkpt>
      <trkpt lat="45.22266" lon="6.00433">
        <ele>1471</ele>
        <time>2015-08-24T08:11:59.000Z</time>
      </trkpt>
      <trkpt lat="45.22261" lon="6.00433">
        <ele>1471.8000488281</ele>
        <time>2015-08-24T08:12:07.000Z</time>
      </trkpt>
      <trkpt lat="45.22257" lon="6.00434">
        <ele>1472.8000488281</ele>
        <time>2015-08-24T08:12:15.000Z</time>
      </trkpt>
      <trkpt lat="45.22254" lon="6.00436">
        <ele>1473.5999755859</ele>
        <time>2015-08-24T08:12:21.000Z</time>
      </trkpt>
      <trkpt lat="45.22253" lon="6.00435">
        <ele>1473.4000244141</ele>
        <time>2015-08-24T08:12:27.000Z</time>
      </trkpt>
      <trkpt lat="45.2225" lon="6.00433">
        <ele>1473</ele>
        <time>2015-08-24T08:12:34.000Z</time>
      </trkpt>
      <trkpt lat="45.22243" lon="6.00432">
        <ele>1472.8000488281</ele>
        <time>2015-08-24T08:12:42.000Z</time>
      </trkpt>
      <trkpt lat="45.22238" lon="6.00436">
        <ele>1473.8000488281</ele>
        <time>2015-08-24T08:12:51.000Z</time>
      </trkpt>
      <trkpt lat="45.22236" lon="6.00441">
        <ele>1475</ele>
        <time>2015-08-24T08:13:00.000Z</time>
      </trkpt>
      <trkpt lat="45.22237" lon="6.00445">
        <ele>1475.8000488281</ele>
        <time>2015-08-24T08:13:06.000Z</time>
      </trkpt>
      <trkpt lat="45.22237" lon="6.00448">
        <ele>1476.4000244141</ele>
        <time>2015-08-24T08:13:14.000Z</time>
      </trkpt>
      <trkpt lat="45.22236" lon="6.00449">
        <ele>1476.8000488281</ele>
        <time>2015-08-24T08:13:19.000Z</time>
      </trkpt>
      <trkpt lat="45.22236" lon="6.00455">
        <ele>1478</ele>
        <time>2015-08-24T08:13:22.000Z</time>
      </trkpt>
      <trkpt lat="45.22236" lon="6.00455">
        <ele>1478.1999511719</ele>
        <time>2015-08-24T08:13:24.000Z</time>
      </trkpt>
      <trkpt lat="45.22236" lon="6.00461">
        <ele>1479.4000244141</ele>
        <time>2015-08-24T08:13:29.000Z</time>
      </trkpt>
      <trkpt lat="45.22237" lon="6.00461">
        <ele>1479.4000244141</ele>
        <time>2015-08-24T08:13:30.000Z</time>
      </trkpt>
      <trkpt lat="45.22237" lon="6.00463">
        <ele>1479.8000488281</ele>
        <time>2015-08-24T08:13:32.000Z</time>
      </trkpt>
      <trkpt lat="45.22236" lon="6.00464">
        <ele>1480.1999511719</ele>
        <time>2015-08-24T08:13:33.000Z</time>
      </trkpt>
      <trkpt lat="45.22236" lon="6.00467">
        <ele>1480.8000488281</ele>
        <time>2015-08-24T08:13:39.000Z</time>
      </trkpt>
      <trkpt lat="45.22235" lon="6.00474">
        <ele>1482.4000244141</ele>
        <time>2015-08-24T08:13:48.000Z</time>
      </trkpt>
      <trkpt lat="45.22236" lon="6.00489">
        <ele>1488.4000244141</ele>
        <time>2015-08-24T08:13:58.000Z</time>
      </trkpt>
      <trkpt lat="45.22237" lon="6.00494">
        <ele>1490.8000488281</ele>
        <time>2015-08-24T08:14:02.000Z</time>
      </trkpt>
      <trkpt lat="45.22238" lon="6.00498">
        <ele>1492.1999511719</ele>
        <time>2015-08-24T08:14:06.000Z</time>
      </trkpt>
      <trkpt lat="45.22243" lon="6.00503">
        <ele>1494.1999511719</ele>
        <time>2015-08-24T08:14:14.000Z</time>
      </trkpt>
      <trkpt lat="45.22246" lon="6.0051">
        <ele>1497.1999511719</ele>
        <time>2015-08-24T08:14:22.000Z</time>
      </trkpt>
      <trkpt lat="45.22242" lon="6.00514">
        <ele>1498</ele>
        <time>2015-08-24T08:14:27.000Z</time>
      </trkpt>
      <trkpt lat="45.22242" lon="6.00513">
        <ele>1497.8000488281</ele>
        <time>2015-08-24T08:14:28.000Z</time>
      </trkpt>
      <trkpt lat="45.2224" lon="6.00512">
        <ele>1497</ele>
        <time>2015-08-24T08:14:31.000Z</time>
      </trkpt>
      <trkpt lat="45.22238" lon="6.00513">
        <ele>1497.1999511719</ele>
        <time>2015-08-24T08:14:35.000Z</time>
      </trkpt>
      <trkpt lat="45.22233" lon="6.00511">
        <ele>1496.4000244141</ele>
        <time>2015-08-24T08:14:50.000Z</time>
      </trkpt>
      <trkpt lat="45.2223" lon="6.00511">
        <ele>1496</ele>
        <time>2015-08-24T08:14:55.000Z</time>
      </trkpt>
      <trkpt lat="45.22225" lon="6.0051">
        <ele>1495</ele>
        <time>2015-08-24T08:15:01.000Z</time>
      </trkpt>
      <trkpt lat="45.22215" lon="6.00506">
        <ele>1493</ele>
        <time>2015-08-24T08:15:08.000Z</time>
      </trkpt>
      <trkpt lat="45.22208" lon="6.00498">
        <ele>1491.4000244141</ele>
        <time>2015-08-24T08:15:18.000Z</time>
      </trkpt>
      <trkpt lat="45.22206" lon="6.00494">
        <ele>1490.8000488281</ele>
        <time>2015-08-24T08:15:24.000Z</time>
      </trkpt>
      <trkpt lat="45.22202" lon="6.00488">
        <ele>1490.8000488281</ele>
        <time>2015-08-24T08:15:29.000Z</time>
      </trkpt>
      <trkpt lat="45.222" lon="6.00492">
        <ele>1492.8000488281</ele>
        <time>2015-08-24T08:15:34.000Z</time>
      </trkpt>
      <trkpt lat="45.222" lon="6.00494">
        <ele>1493.4000244141</ele>
        <time>2015-08-24T08:15:35.000Z</time>
      </trkpt>
      <trkpt lat="45.22199" lon="6.00501">
        <ele>1496</ele>
        <time>2015-08-24T08:15:40.000Z</time>
      </trkpt>
      <trkpt lat="45.22199" lon="6.00504">
        <ele>1496.8000488281</ele>
        <time>2015-08-24T08:15:43.000Z</time>
      </trkpt>
      <trkpt lat="45.22197" lon="6.00514">
        <ele>1500.8000488281</ele>
        <time>2015-08-24T08:15:51.000Z</time>
      </trkpt>
      <trkpt lat="45.22197" lon="6.00524">
        <ele>1503.8000488281</ele>
        <time>2015-08-24T08:16:00.000Z</time>
      </trkpt>
      <trkpt lat="45.22198" lon="6.00533">
        <ele>1506.1999511719</ele>
        <time>2015-08-24T08:16:09.000Z</time>
      </trkpt>
      <trkpt lat="45.22198" lon="6.00538">
        <ele>1507.8000488281</ele>
        <time>2015-08-24T08:16:17.000Z</time>
      </trkpt>
      <trkpt lat="45.22199" lon="6.00539">
        <ele>1508</ele>
        <time>2015-08-24T08:16:21.000Z</time>
      </trkpt>
      <trkpt lat="45.22198" lon="6.00542">
        <ele>1508.8000488281</ele>
        <time>2015-08-24T08:16:26.000Z</time>
      </trkpt>
      <trkpt lat="45.22198" lon="6.00552">
        <ele>1511</ele>
        <time>2015-08-24T08:16:33.000Z</time>
      </trkpt>
      <trkpt lat="45.22198" lon="6.00563">
        <ele>1512.5999755859</ele>
        <time>2015-08-24T08:16:41.000Z</time>
      </trkpt>
      <trkpt lat="45.22199" lon="6.00566">
        <ele>1513.1999511719</ele>
        <time>2015-08-24T08:16:45.000Z</time>
      </trkpt>
      <trkpt lat="45.22198" lon="6.00567">
        <ele>1513.8000488281</ele>
        <time>2015-08-24T08:16:47.000Z</time>
      </trkpt>
      <trkpt lat="45.22196" lon="6.00572">
        <ele>1515.1999511719</ele>
        <time>2015-08-24T08:16:56.000Z</time>
      </trkpt>
      <trkpt lat="45.22196" lon="6.00578">
        <ele>1516.4000244141</ele>
        <time>2015-08-24T08:16:59.000Z</time>
      </trkpt>
      <trkpt lat="45.22196" lon="6.00583">
        <ele>1517.5999755859</ele>
        <time>2015-08-24T08:17:01.000Z</time>
      </trkpt>
      <trkpt lat="45.22197" lon="6.00595">
        <ele>1520.1999511719</ele>
        <time>2015-08-24T08:17:08.000Z</time>
      </trkpt>
      <trkpt lat="45.22197" lon="6.00603">
        <ele>1522</ele>
        <time>2015-08-24T08:17:12.000Z</time>
      </trkpt>
      <trkpt lat="45.22197" lon="6.00604">
        <ele>1522.1999511719</ele>
        <time>2015-08-24T08:17:13.000Z</time>
      </trkpt>
      <trkpt lat="45.22198" lon="6.0061">
        <ele>1523.5999755859</ele>
        <time>2015-08-24T08:17:17.000Z</time>
      </trkpt>
      <trkpt lat="45.22197" lon="6.00616">
        <ele>1525</ele>
        <time>2015-08-24T08:17:22.000Z</time>
      </trkpt>
      <trkpt lat="45.22197" lon="6.00617">
        <ele>1525.4000244141</ele>
        <time>2015-08-24T08:17:23.000Z</time>
      </trkpt>
      <trkpt lat="45.22198" lon="6.0062">
        <ele>1525.8000488281</ele>
        <time>2015-08-24T08:17:25.000Z</time>
      </trkpt>
      <trkpt lat="45.22197" lon="6.00625">
        <ele>1527.1999511719</ele>
        <time>2015-08-24T08:17:27.000Z</time>
      </trkpt>
      <trkpt lat="45.22197" lon="6.00629">
        <ele>1528</ele>
        <time>2015-08-24T08:17:31.000Z</time>
      </trkpt>
      <trkpt lat="45.22196" lon="6.00638">
        <ele>1530</ele>
        <time>2015-08-24T08:17:42.000Z</time>
      </trkpt>
      <trkpt lat="45.22196" lon="6.00642">
        <ele>1530.8000488281</ele>
        <time>2015-08-24T08:17:46.000Z</time>
      </trkpt>
      <trkpt lat="45.22197" lon="6.00648">
        <ele>1532.1999511719</ele>
        <time>2015-08-24T08:17:51.000Z</time>
      </trkpt>
      <trkpt lat="45.22195" lon="6.00656">
        <ele>1534.1999511719</ele>
        <time>2015-08-24T08:17:57.000Z</time>
      </trkpt>
      <trkpt lat="45.22195" lon="6.00657">
        <ele>1534.4000244141</ele>
        <time>2015-08-24T08:17:58.000Z</time>
      </trkpt>
      <trkpt lat="45.22194" lon="6.00658">
        <ele>1534.8000488281</ele>
        <time>2015-08-24T08:17:59.000Z</time>
      </trkpt>
      <trkpt lat="45.22192" lon="6.00664">
        <ele>1536.4000244141</ele>
        <time>2015-08-24T08:18:03.000Z</time>
      </trkpt>
      <trkpt lat="45.22191" lon="6.0067">
        <ele>1538</ele>
        <time>2015-08-24T08:18:08.000Z</time>
      </trkpt>
      <trkpt lat="45.2219" lon="6.00672">
        <ele>1538.4000244141</ele>
        <time>2015-08-24T08:18:09.000Z</time>
      </trkpt>
      <trkpt lat="45.22192" lon="6.00676">
        <ele>1539</ele>
        <time>2015-08-24T08:18:16.000Z</time>
      </trkpt>
      <trkpt lat="45.22193" lon="6.00683">
        <ele>1540.1999511719</ele>
        <time>2015-08-24T08:18:22.000Z</time>
      </trkpt>
      <trkpt lat="45.22195" lon="6.00691">
        <ele>1541.5999755859</ele>
        <time>2015-08-24T08:18:30.000Z</time>
      </trkpt>
      <trkpt lat="45.22193" lon="6.00698">
        <ele>1543.5999755859</ele>
        <time>2015-08-24T08:18:36.000Z</time>
      </trkpt>
      <trkpt lat="45.22193" lon="6.00702">
        <ele>1544.4000244141</ele>
        <time>2015-08-24T08:18:40.000Z</time>
      </trkpt>
      <trkpt lat="45.22193" lon="6.00703">
        <ele>1544.5999755859</ele>
        <time>2015-08-24T08:18:42.000Z</time>
      </trkpt>
      <trkpt lat="45.22194" lon="6.00706">
        <ele>1545.1999511719</ele>
        <time>2015-08-24T08:18:51.000Z</time>
      </trkpt>
      <trkpt lat="45.22195" lon="6.00715">
        <ele>1546.5999755859</ele>
        <time>2015-08-24T08:18:58.000Z</time>
      </trkpt>
      <trkpt lat="45.22195" lon="6.00723">
        <ele>1547.8000488281</ele>
        <time>2015-08-24T08:19:04.000Z</time>
      </trkpt>
      <trkpt lat="45.22195" lon="6.00725">
        <ele>1548.1999511719</ele>
        <time>2015-08-24T08:19:06.000Z</time>
      </trkpt>
      <trkpt lat="45.22196" lon="6.00731">
        <ele>1549.4000244141</ele>
        <time>2015-08-24T08:19:11.000Z</time>
      </trkpt>
      <trkpt lat="45.22197" lon="6.00734">
        <ele>1550</ele>
        <time>2015-08-24T08:19:15.000Z</time>
      </trkpt>
      <trkpt lat="45.22198" lon="6.00737">
        <ele>1550.5999755859</ele>
        <time>2015-08-24T08:19:19.000Z</time>
      </trkpt>
      <trkpt lat="45.22197" lon="6.00748">
        <ele>1553.4000244141</ele>
        <time>2015-08-24T08:19:27.000Z</time>
      </trkpt>
      <trkpt lat="45.22197" lon="6.00755">
        <ele>1554.8000488281</ele>
        <time>2015-08-24T08:19:33.000Z</time>
      </trkpt>
      <trkpt lat="45.22197" lon="6.00759">
        <ele>1555.5999755859</ele>
        <time>2015-08-24T08:19:36.000Z</time>
      </trkpt>
      <trkpt lat="45.22197" lon="6.00764">
        <ele>1556.8000488281</ele>
        <time>2015-08-24T08:19:41.000Z</time>
      </trkpt>
      <trkpt lat="45.22198" lon="6.00767">
        <ele>1557.4000244141</ele>
        <time>2015-08-24T08:19:43.000Z</time>
      </trkpt>
      <trkpt lat="45.22198" lon="6.00771">
        <ele>1558.4000244141</ele>
        <time>2015-08-24T08:19:46.000Z</time>
      </trkpt>
      <trkpt lat="45.22198" lon="6.00779">
        <ele>1560</ele>
        <time>2015-08-24T08:19:51.000Z</time>
      </trkpt>
      <trkpt lat="45.22198" lon="6.00786">
        <ele>1562</ele>
        <time>2015-08-24T08:19:55.000Z</time>
      </trkpt>
      <trkpt lat="45.22199" lon="6.00787">
        <ele>1561.8000488281</ele>
        <time>2015-08-24T08:19:56.000Z</time>
      </trkpt>
      <trkpt lat="45.222" lon="6.00788">
        <ele>1561.8000488281</ele>
        <time>2015-08-24T08:19:57.000Z</time>
      </trkpt>
      <trkpt lat="45.22201" lon="6.00789">
        <ele>1562</ele>
        <time>2015-08-24T08:20:00.000Z</time>
      </trkpt>
      <trkpt lat="45.22203" lon="6.00791">
        <ele>1562.1999511719</ele>
        <time>2015-08-24T08:20:03.000Z</time>
      </trkpt>
      <trkpt lat="45.22206" lon="6.00798">
        <ele>1563.4000244141</ele>
        <time>2015-08-24T08:20:13.000Z</time>
      </trkpt>
      <trkpt lat="45.22209" lon="6.00802">
        <ele>1563.8000488281</ele>
        <time>2015-08-24T08:20:19.000Z</time>
      </trkpt>
      <trkpt lat="45.22214" lon="6.00802">
        <ele>1564.1999511719</ele>
        <time>2015-08-24T08:20:25.000Z</time>
      </trkpt>
      <trkpt lat="45.22217" lon="6.00806">
        <ele>1566.1999511719</ele>
        <time>2015-08-24T08:20:30.000Z</time>
      </trkpt>
      <trkpt lat="45.22218" lon="6.00809">
        <ele>1567.1999511719</ele>
        <time>2015-08-24T08:20:32.000Z</time>
      </trkpt>
      <trkpt lat="45.2222" lon="6.00814">
        <ele>1569</ele>
        <time>2015-08-24T08:20:37.000Z</time>
      </trkpt>
      <trkpt lat="45.22221" lon="6.00818">
        <ele>1570.1999511719</ele>
        <time>2015-08-24T08:20:40.000Z</time>
      </trkpt>
      <trkpt lat="45.22222" lon="6.00821">
        <ele>1571.4000244141</ele>
        <time>2015-08-24T08:20:43.000Z</time>
      </trkpt>
      <trkpt lat="45.22225" lon="6.00823">
        <ele>1573</ele>
        <time>2015-08-24T08:20:50.000Z</time>
      </trkpt>
      <trkpt lat="45.22227" lon="6.00831">
        <ele>1575.4000244141</ele>
        <time>2015-08-24T08:20:58.000Z</time>
      </trkpt>
      <trkpt lat="45.22228" lon="6.00839">
        <ele>1577.4000244141</ele>
        <time>2015-08-24T08:21:04.000Z</time>
      </trkpt>
      <trkpt lat="45.22229" lon="6.00841">
        <ele>1578.1999511719</ele>
        <time>2015-08-24T08:21:06.000Z</time>
      </trkpt>
      <trkpt lat="45.22231" lon="6.00847">
        <ele>1580.4000244141</ele>
        <time>2015-08-24T08:21:14.000Z</time>
      </trkpt>
      <trkpt lat="45.22235" lon="6.00851">
        <ele>1582.8000488281</ele>
        <time>2015-08-24T08:21:22.000Z</time>
      </trkpt>
      <trkpt lat="45.22239" lon="6.00855">
        <ele>1584.8000488281</ele>
        <time>2015-08-24T08:21:27.000Z</time>
      </trkpt>
      <trkpt lat="45.22242" lon="6.00863">
        <ele>1588</ele>
        <time>2015-08-24T08:21:35.000Z</time>
      </trkpt>
      <trkpt lat="45.22244" lon="6.00871">
        <ele>1590.1999511719</ele>
        <time>2015-08-24T08:21:44.000Z</time>
      </trkpt>
      <trkpt lat="45.22243" lon="6.0088">
        <ele>1591.8000488281</ele>
        <time>2015-08-24T08:21:50.000Z</time>
      </trkpt>
      <trkpt lat="45.22243" lon="6.00886">
        <ele>1593.1999511719</ele>
        <time>2015-08-24T08:21:56.000Z</time>
      </trkpt>
      <trkpt lat="45.22248" lon="6.0089">
        <ele>1595.8000488281</ele>
        <time>2015-08-24T08:22:04.000Z</time>
      </trkpt>
      <trkpt lat="45.22251" lon="6.00893">
        <ele>1597.5999755859</ele>
        <time>2015-08-24T08:22:08.000Z</time>
      </trkpt>
      <trkpt lat="45.22253" lon="6.00894">
        <ele>1598.5999755859</ele>
        <time>2015-08-24T08:22:11.000Z</time>
      </trkpt>
      <trkpt lat="45.22256" lon="6.00896">
        <ele>1600.5999755859</ele>
        <time>2015-08-24T08:22:16.000Z</time>
      </trkpt>
      <trkpt lat="45.22259" lon="6.00896">
        <ele>1601.4000244141</ele>
        <time>2015-08-24T08:22:19.000Z</time>
      </trkpt>
      <trkpt lat="45.22259" lon="6.00897">
        <ele>1601.8000488281</ele>
        <time>2015-08-24T08:22:20.000Z</time>
      </trkpt>
      <trkpt lat="45.2226" lon="6.00898">
        <ele>1602.4000244141</ele>
        <time>2015-08-24T08:22:23.000Z</time>
      </trkpt>
      <trkpt lat="45.22259" lon="6.00903">
        <ele>1603</ele>
        <time>2015-08-24T08:22:28.000Z</time>
      </trkpt>
      <trkpt lat="45.22253" lon="6.00905">
        <ele>1601.1999511719</ele>
        <time>2015-08-24T08:22:41.000Z</time>
      </trkpt>
      <trkpt lat="45.22249" lon="6.00908">
        <ele>1600.5999755859</ele>
        <time>2015-08-24T08:22:46.000Z</time>
      </trkpt>
      <trkpt lat="45.22244" lon="6.0092">
        <ele>1601.5999755859</ele>
        <time>2015-08-24T08:22:54.000Z</time>
      </trkpt>
      <trkpt lat="45.22241" lon="6.00926">
        <ele>1601.5999755859</ele>
        <time>2015-08-24T08:23:03.000Z</time>
      </trkpt>
      <trkpt lat="45.2224" lon="6.00924">
        <ele>1601</ele>
        <time>2015-08-24T08:23:09.000Z</time>
      </trkpt>
      <trkpt lat="45.22239" lon="6.00924">
        <ele>1600.8000488281</ele>
        <time>2015-08-24T08:23:10.000Z</time>
      </trkpt>
      <trkpt lat="45.22239" lon="6.00925">
        <ele>1600.5999755859</ele>
        <time>2015-08-24T08:23:11.000Z</time>
      </trkpt>
      <trkpt lat="45.22236" lon="6.00927">
        <ele>1599.8000488281</ele>
        <time>2015-08-24T08:23:15.000Z</time>
      </trkpt>
      <trkpt lat="45.22233" lon="6.0093">
        <ele>1599.1999511719</ele>
        <time>2015-08-24T08:23:20.000Z</time>
      </trkpt>
      <trkpt lat="45.22232" lon="6.00934">
        <ele>1599.8000488281</ele>
        <time>2015-08-24T08:23:25.000Z</time>
      </trkpt>
      <trkpt lat="45.22233" lon="6.00937">
        <ele>1600.8000488281</ele>
        <time>2015-08-24T08:23:30.000Z</time>
      </trkpt>
      <trkpt lat="45.22234" lon="6.00943">
        <ele>1602.4000244141</ele>
        <time>2015-08-24T08:23:36.000Z</time>
      </trkpt>
      <trkpt lat="45.22234" lon="6.00947">
        <ele>1603.4000244141</ele>
        <time>2015-08-24T08:23:42.000Z</time>
      </trkpt>
      <trkpt lat="45.22235" lon="6.0095">
        <ele>1604.1999511719</ele>
        <time>2015-08-24T08:23:47.000Z</time>
      </trkpt>
      <trkpt lat="45.22234" lon="6.00953">
        <ele>1604.5999755859</ele>
        <time>2015-08-24T08:23:53.000Z</time>
      </trkpt>
      <trkpt lat="45.22234" lon="6.00953">
        <ele>1604.5999755859</ele>
        <time>2015-08-24T08:23:54.000Z</time>
      </trkpt>
      <trkpt lat="45.22233" lon="6.00962">
        <ele>1606</ele>
        <time>2015-08-24T08:24:00.000Z</time>
      </trkpt>
      <trkpt lat="45.22233" lon="6.00964">
        <ele>1606.4000244141</ele>
        <time>2015-08-24T08:24:02.000Z</time>
      </trkpt>
      <trkpt lat="45.22234" lon="6.00967">
        <ele>1607</ele>
        <time>2015-08-24T08:24:05.000Z</time>
      </trkpt>
      <trkpt lat="45.22233" lon="6.0097">
        <ele>1607.5999755859</ele>
        <time>2015-08-24T08:24:08.000Z</time>
      </trkpt>
      <trkpt lat="45.22233" lon="6.00976">
        <ele>1608.8000488281</ele>
        <time>2015-08-24T08:24:15.000Z</time>
      </trkpt>
      <trkpt lat="45.22232" lon="6.0098">
        <ele>1608.8000488281</ele>
        <time>2015-08-24T08:24:20.000Z</time>
      </trkpt>
      <trkpt lat="45.2223" lon="6.00984">
        <ele>1608.4000244141</ele>
        <time>2015-08-24T08:24:22.000Z</time>
      </trkpt>
      <trkpt lat="45.22229" lon="6.0099">
        <ele>1608.8000488281</ele>
        <time>2015-08-24T08:24:28.000Z</time>
      </trkpt>
      <trkpt lat="45.22229" lon="6.00997">
        <ele>1610</ele>
        <time>2015-08-24T08:24:34.000Z</time>
      </trkpt>
      <trkpt lat="45.22231" lon="6.00998">
        <ele>1610.5999755859</ele>
        <time>2015-08-24T08:24:36.000Z</time>
      </trkpt>
      <trkpt lat="45.2223" lon="6.00998">
        <ele>1610.5999755859</ele>
        <time>2015-08-24T08:24:40.000Z</time>
      </trkpt>
      <trkpt lat="45.22231" lon="6.01002">
        <ele>1611.5999755859</ele>
        <time>2015-08-24T08:24:51.000Z</time>
      </trkpt>
      <trkpt lat="45.22232" lon="6.01011">
        <ele>1613.1999511719</ele>
        <time>2015-08-24T08:24:56.000Z</time>
      </trkpt>
      <trkpt lat="45.22231" lon="6.01013">
        <ele>1613.5999755859</ele>
        <time>2015-08-24T08:24:58.000Z</time>
      </trkpt>
      <trkpt lat="45.22229" lon="6.01018">
        <ele>1613.5999755859</ele>
        <time>2015-08-24T08:25:02.000Z</time>
      </trkpt>
      <trkpt lat="45.22229" lon="6.0102">
        <ele>1613.8000488281</ele>
        <time>2015-08-24T08:25:03.000Z</time>
      </trkpt>
      <trkpt lat="45.22231" lon="6.01024">
        <ele>1615.1999511719</ele>
        <time>2015-08-24T08:25:08.000Z</time>
      </trkpt>
      <trkpt lat="45.22231" lon="6.01025">
        <ele>1615.5999755859</ele>
        <time>2015-08-24T08:25:09.000Z</time>
      </trkpt>
      <trkpt lat="45.22231" lon="6.01031">
        <ele>1616.8000488281</ele>
        <time>2015-08-24T08:25:16.000Z</time>
      </trkpt>
      <trkpt lat="45.22232" lon="6.01044">
        <ele>1619.1999511719</ele>
        <time>2015-08-24T08:25:26.000Z</time>
      </trkpt>
      <trkpt lat="45.22232" lon="6.0105">
        <ele>1620.5999755859</ele>
        <time>2015-08-24T08:25:33.000Z</time>
      </trkpt>
      <trkpt lat="45.22233" lon="6.01054">
        <ele>1621.4000244141</ele>
        <time>2015-08-24T08:25:38.000Z</time>
      </trkpt>
      <trkpt lat="45.22232" lon="6.0106">
        <ele>1622</ele>
        <time>2015-08-24T08:25:43.000Z</time>
      </trkpt>
      <trkpt lat="45.22231" lon="6.01062">
        <ele>1622</ele>
        <time>2015-08-24T08:25:44.000Z</time>
      </trkpt>
      <trkpt lat="45.22232" lon="6.01069">
        <ele>1623</ele>
        <time>2015-08-24T08:25:50.000Z</time>
      </trkpt>
      <trkpt lat="45.22232" lon="6.01072">
        <ele>1623.1999511719</ele>
        <time>2015-08-24T08:25:53.000Z</time>
      </trkpt>
      <trkpt lat="45.22231" lon="6.01079">
        <ele>1623.5999755859</ele>
        <time>2015-08-24T08:26:00.000Z</time>
      </trkpt>
      <trkpt lat="45.22231" lon="6.0109">
        <ele>1625.1999511719</ele>
        <time>2015-08-24T08:26:09.000Z</time>
      </trkpt>
      <trkpt lat="45.22231" lon="6.01091">
        <ele>1625.4000244141</ele>
        <time>2015-08-24T08:26:10.000Z</time>
      </trkpt>
      <trkpt lat="45.22233" lon="6.01098">
        <ele>1626.8000488281</ele>
        <time>2015-08-24T08:26:17.000Z</time>
      </trkpt>
      <trkpt lat="45.22235" lon="6.01102">
        <ele>1627.8000488281</ele>
        <time>2015-08-24T08:26:21.000Z</time>
      </trkpt>
      <trkpt lat="45.22234" lon="6.01108">
        <ele>1628.4000244141</ele>
        <time>2015-08-24T08:26:26.000Z</time>
      </trkpt>
      <trkpt lat="45.22234" lon="6.01111">
        <ele>1628.5999755859</ele>
        <time>2015-08-24T08:26:32.000Z</time>
      </trkpt>
      <trkpt lat="45.22235" lon="6.01115">
        <ele>1629.5999755859</ele>
        <time>2015-08-24T08:26:37.000Z</time>
      </trkpt>
      <trkpt lat="45.22235" lon="6.0112">
        <ele>1630.1999511719</ele>
        <time>2015-08-24T08:26:40.000Z</time>
      </trkpt>
      <trkpt lat="45.22235" lon="6.01127">
        <ele>1631.1999511719</ele>
        <time>2015-08-24T08:26:44.000Z</time>
      </trkpt>
      <trkpt lat="45.22235" lon="6.01135">
        <ele>1632</ele>
        <time>2015-08-24T08:26:50.000Z</time>
      </trkpt>
      <trkpt lat="45.22236" lon="6.0114">
        <ele>1633.1999511719</ele>
        <time>2015-08-24T08:26:55.000Z</time>
      </trkpt>
      <trkpt lat="45.22238" lon="6.01144">
        <ele>1634.4000244141</ele>
        <time>2015-08-24T08:26:59.000Z</time>
      </trkpt>
      <trkpt lat="45.22239" lon="6.01145">
        <ele>1635</ele>
        <time>2015-08-24T08:27:01.000Z</time>
      </trkpt>
      <trkpt lat="45.2224" lon="6.01148">
        <ele>1636.1999511719</ele>
        <time>2015-08-24T08:27:06.000Z</time>
      </trkpt>
      <trkpt lat="45.22243" lon="6.01154">
        <ele>1638.1999511719</ele>
        <time>2015-08-24T08:27:13.000Z</time>
      </trkpt>
      <trkpt lat="45.22246" lon="6.0116">
        <ele>1640.4000244141</ele>
        <time>2015-08-24T08:27:19.000Z</time>
      </trkpt>
      <trkpt lat="45.22248" lon="6.01162">
        <ele>1641.4000244141</ele>
        <time>2015-08-24T08:27:23.000Z</time>
      </trkpt>
      <trkpt lat="45.22249" lon="6.01166">
        <ele>1642.4000244141</ele>
        <time>2015-08-24T08:27:27.000Z</time>
      </trkpt>
      <trkpt lat="45.22249" lon="6.01168">
        <ele>1642.5999755859</ele>
        <time>2015-08-24T08:27:28.000Z</time>
      </trkpt>
      <trkpt lat="45.22247" lon="6.01174">
        <ele>1643.4000244141</ele>
        <time>2015-08-24T08:27:32.000Z</time>
      </trkpt>
      <trkpt lat="45.22247" lon="6.01175">
        <ele>1643.8000488281</ele>
        <time>2015-08-24T08:27:33.000Z</time>
      </trkpt>
      <trkpt lat="45.22252" lon="6.01178">
        <ele>1645.8000488281</ele>
        <time>2015-08-24T08:27:39.000Z</time>
      </trkpt>
      <trkpt lat="45.22252" lon="6.01179">
        <ele>1646</ele>
        <time>2015-08-24T08:27:40.000Z</time>
      </trkpt>
      <trkpt lat="45.22253" lon="6.01181">
        <ele>1646.8000488281</ele>
        <time>2015-08-24T08:27:44.000Z</time>
      </trkpt>
      <trkpt lat="45.22255" lon="6.01184">
        <ele>1648</ele>
        <time>2015-08-24T08:27:46.000Z</time>
      </trkpt>
      <trkpt lat="45.22257" lon="6.01186">
        <ele>1649</ele>
        <time>2015-08-24T08:27:48.000Z</time>
      </trkpt>
      <trkpt lat="45.22258" lon="6.01186">
        <ele>1649.5999755859</ele>
        <time>2015-08-24T08:27:49.000Z</time>
      </trkpt>
      <trkpt lat="45.2226" lon="6.01191">
        <ele>1651</ele>
        <time>2015-08-24T08:27:53.000Z</time>
      </trkpt>
      <trkpt lat="45.2226" lon="6.01191">
        <ele>1651</ele>
        <time>2015-08-24T08:27:54.000Z</time>
      </trkpt>
      <trkpt lat="45.22259" lon="6.01192">
        <ele>1651</ele>
        <time>2015-08-24T08:27:55.000Z</time>
      </trkpt>
      <trkpt lat="45.22262" lon="6.01199">
        <ele>1653.1999511719</ele>
        <time>2015-08-24T08:27:59.000Z</time>
      </trkpt>
      <trkpt lat="45.2226" lon="6.01204">
        <ele>1653.5999755859</ele>
        <time>2015-08-24T08:28:06.000Z</time>
      </trkpt>
      <trkpt lat="45.22255" lon="6.01207">
        <ele>1652.5999755859</ele>
        <time>2015-08-24T08:28:13.000Z</time>
      </trkpt>
      <trkpt lat="45.22254" lon="6.01208">
        <ele>1652.5999755859</ele>
        <time>2015-08-24T08:28:14.000Z</time>
      </trkpt>
      <trkpt lat="45.22254" lon="6.0121">
        <ele>1652.5999755859</ele>
        <time>2015-08-24T08:28:16.000Z</time>
      </trkpt>
      <trkpt lat="45.2225" lon="6.01215">
        <ele>1652.4000244141</ele>
        <time>2015-08-24T08:28:20.000Z</time>
      </trkpt>
      <trkpt lat="45.22247" lon="6.0122">
        <ele>1652</ele>
        <time>2015-08-24T08:28:27.000Z</time>
      </trkpt>
      <trkpt lat="45.22243" lon="6.01223">
        <ele>1651.4000244141</ele>
        <time>2015-08-24T08:28:34.000Z</time>
      </trkpt>
      <trkpt lat="45.2224" lon="6.01228">
        <ele>1651.5999755859</ele>
        <time>2015-08-24T08:28:40.000Z</time>
      </trkpt>
      <trkpt lat="45.22238" lon="6.01233">
        <ele>1652.4000244141</ele>
        <time>2015-08-24T08:28:44.000Z</time>
      </trkpt>
      <trkpt lat="45.22238" lon="6.01235">
        <ele>1653</ele>
        <time>2015-08-24T08:28:47.000Z</time>
      </trkpt>
      <trkpt lat="45.22237" lon="6.01239">
        <ele>1653.5999755859</ele>
        <time>2015-08-24T08:28:50.000Z</time>
      </trkpt>
      <trkpt lat="45.22236" lon="6.01242">
        <ele>1654</ele>
        <time>2015-08-24T08:28:53.000Z</time>
      </trkpt>
      <trkpt lat="45.22236" lon="6.01243">
        <ele>1654.4000244141</ele>
        <time>2015-08-24T08:28:54.000Z</time>
      </trkpt>
      <trkpt lat="45.22236" lon="6.01248">
        <ele>1656</ele>
        <time>2015-08-24T08:29:00.000Z</time>
      </trkpt>
      <trkpt lat="45.22236" lon="6.01253">
        <ele>1657</ele>
        <time>2015-08-24T08:29:05.000Z</time>
      </trkpt>
      <trkpt lat="45.22235" lon="6.01258">
        <ele>1657.8000488281</ele>
        <time>2015-08-24T08:29:10.000Z</time>
      </trkpt>
      <trkpt lat="45.22238" lon="6.01265">
        <ele>1660.8000488281</ele>
        <time>2015-08-24T08:29:22.000Z</time>
      </trkpt>
      <trkpt lat="45.22235" lon="6.0127">
        <ele>1660.5999755859</ele>
        <time>2015-08-24T08:29:28.000Z</time>
      </trkpt>
      <trkpt lat="45.22233" lon="6.01275">
        <ele>1661.1999511719</ele>
        <time>2015-08-24T08:29:33.000Z</time>
      </trkpt>
      <trkpt lat="45.22234" lon="6.01276">
        <ele>1661.8000488281</ele>
        <time>2015-08-24T08:29:35.000Z</time>
      </trkpt>
      <trkpt lat="45.22229" lon="6.01284">
        <ele>1662.1999511719</ele>
        <time>2015-08-24T08:29:45.000Z</time>
      </trkpt>
      <trkpt lat="45.2223" lon="6.01289">
        <ele>1663.4000244141</ele>
        <time>2015-08-24T08:29:55.000Z</time>
      </trkpt>
      <trkpt lat="45.22229" lon="6.01295">
        <ele>1664.8000488281</ele>
        <time>2015-08-24T08:30:00.000Z</time>
      </trkpt>
      <trkpt lat="45.22231" lon="6.01301">
        <ele>1666.8000488281</ele>
        <time>2015-08-24T08:30:09.000Z</time>
      </trkpt>
      <trkpt lat="45.22232" lon="6.01304">
        <ele>1668</ele>
        <time>2015-08-24T08:30:14.000Z</time>
      </trkpt>
      <trkpt lat="45.22238" lon="6.01303">
        <ele>1669.8000488281</ele>
        <time>2015-08-24T08:30:19.000Z</time>
      </trkpt>
      <trkpt lat="45.2224" lon="6.01304">
        <ele>1670.5999755859</ele>
        <time>2015-08-24T08:30:21.000Z</time>
      </trkpt>
      <trkpt lat="45.22241" lon="6.01307">
        <ele>1671.8000488281</ele>
        <time>2015-08-24T08:30:25.000Z</time>
      </trkpt>
      <trkpt lat="45.22249" lon="6.01305">
        <ele>1673.8000488281</ele>
        <time>2015-08-24T08:30:30.000Z</time>
      </trkpt>
      <trkpt lat="45.2225" lon="6.01305">
        <ele>1674.4000244141</ele>
        <time>2015-08-24T08:30:36.000Z</time>
      </trkpt>
      <trkpt lat="45.22253" lon="6.01302">
        <ele>1674.5999755859</ele>
        <time>2015-08-24T08:30:46.000Z</time>
      </trkpt>
      <trkpt lat="45.22259" lon="6.01302">
        <ele>1676.5999755859</ele>
        <time>2015-08-24T08:30:53.000Z</time>
      </trkpt>
      <trkpt lat="45.22267" lon="6.01299">
        <ele>1678.8000488281</ele>
        <time>2015-08-24T08:30:57.000Z</time>
      </trkpt>
      <trkpt lat="45.2227" lon="6.01303">
        <ele>1680.8000488281</ele>
        <time>2015-08-24T08:31:02.000Z</time>
      </trkpt>
      <trkpt lat="45.22272" lon="6.01302">
        <ele>1681.1999511719</ele>
        <time>2015-08-24T08:31:03.000Z</time>
      </trkpt>
      <trkpt lat="45.22276" lon="6.01302">
        <ele>1682.5999755859</ele>
        <time>2015-08-24T08:31:11.000Z</time>
      </trkpt>
      <trkpt lat="45.22279" lon="6.01303">
        <ele>1683.8000488281</ele>
        <time>2015-08-24T08:31:14.000Z</time>
      </trkpt>
      <trkpt lat="45.22282" lon="6.01305">
        <ele>1685.4000244141</ele>
        <time>2015-08-24T08:31:16.000Z</time>
      </trkpt>
      <trkpt lat="45.2228" lon="6.01307">
        <ele>1685.4000244141</ele>
        <time>2015-08-24T08:31:23.000Z</time>
      </trkpt>
      <trkpt lat="45.22279" lon="6.01309">
        <ele>1685.4000244141</ele>
        <time>2015-08-24T08:31:27.000Z</time>
      </trkpt>
      <trkpt lat="45.22278" lon="6.01319">
        <ele>1687.1999511719</ele>
        <time>2015-08-24T08:31:35.000Z</time>
      </trkpt>
      <trkpt lat="45.22278" lon="6.01326">
        <ele>1688.5999755859</ele>
        <time>2015-08-24T08:31:40.000Z</time>
      </trkpt>
      <trkpt lat="45.22278" lon="6.01329">
        <ele>1689.4000244141</ele>
        <time>2015-08-24T08:31:43.000Z</time>
      </trkpt>
      <trkpt lat="45.22278" lon="6.01334">
        <ele>1690.1999511719</ele>
        <time>2015-08-24T08:31:47.000Z</time>
      </trkpt>
      <trkpt lat="45.22279" lon="6.01338">
        <ele>1691.4000244141</ele>
        <time>2015-08-24T08:31:54.000Z</time>
      </trkpt>
      <trkpt lat="45.22276" lon="6.01348">
        <ele>1692</ele>
        <time>2015-08-24T08:32:02.000Z</time>
      </trkpt>
      <trkpt lat="45.22277" lon="6.01353">
        <ele>1693.5999755859</ele>
        <time>2015-08-24T08:32:07.000Z</time>
      </trkpt>
      <trkpt lat="45.22276" lon="6.01356">
        <ele>1693.8000488281</ele>
        <time>2015-08-24T08:32:09.000Z</time>
      </trkpt>
      <trkpt lat="45.22275" lon="6.01358">
        <ele>1693.8000488281</ele>
        <time>2015-08-24T08:32:11.000Z</time>
      </trkpt>
      <trkpt lat="45.22274" lon="6.01359">
        <ele>1693.8000488281</ele>
        <time>2015-08-24T08:32:13.000Z</time>
      </trkpt>
      <trkpt lat="45.2227" lon="6.0136">
        <ele>1692.5999755859</ele>
        <time>2015-08-24T08:32:17.000Z</time>
      </trkpt>
      <trkpt lat="45.22264" lon="6.01361">
        <ele>1690.5999755859</ele>
        <time>2015-08-24T08:32:25.000Z</time>
      </trkpt>
      <trkpt lat="45.22263" lon="6.01362">
        <ele>1690.5999755859</ele>
        <time>2015-08-24T08:32:26.000Z</time>
      </trkpt>
      <trkpt lat="45.2226" lon="6.01362">
        <ele>1689.4000244141</ele>
        <time>2015-08-24T08:32:31.000Z</time>
      </trkpt>
      <trkpt lat="45.22253" lon="6.0137">
        <ele>1688.5999755859</ele>
        <time>2015-08-24T08:32:39.000Z</time>
      </trkpt>
      <trkpt lat="45.2225" lon="6.0137">
        <ele>1687.4000244141</ele>
        <time>2015-08-24T08:32:45.000Z</time>
      </trkpt>
      <trkpt lat="45.22246" lon="6.01373">
        <ele>1686.4000244141</ele>
        <time>2015-08-24T08:32:51.000Z</time>
      </trkpt>
      <trkpt lat="45.22238" lon="6.01382">
        <ele>1685.4000244141</ele>
        <time>2015-08-24T08:33:01.000Z</time>
      </trkpt>
      <trkpt lat="45.22236" lon="6.01393">
        <ele>1686.8000488281</ele>
        <time>2015-08-24T08:33:09.000Z</time>
      </trkpt>
      <trkpt lat="45.22233" lon="6.01399">
        <ele>1686.8000488281</ele>
        <time>2015-08-24T08:33:17.000Z</time>
      </trkpt>
      <trkpt lat="45.2223" lon="6.01408">
        <ele>1687.8000488281</ele>
        <time>2015-08-24T08:33:24.000Z</time>
      </trkpt>
      <trkpt lat="45.2223" lon="6.0142">
        <ele>1689</ele>
        <time>2015-08-24T08:33:34.000Z</time>
      </trkpt>
      <trkpt lat="45.22231" lon="6.0143">
        <ele>1690.5999755859</ele>
        <time>2015-08-24T08:33:41.000Z</time>
      </trkpt>
      <trkpt lat="45.22231" lon="6.0143">
        <ele>1690.5999755859</ele>
        <time>2015-08-24T08:33:42.000Z</time>
      </trkpt>
      <trkpt lat="45.22233" lon="6.01438">
        <ele>1692.5999755859</ele>
        <time>2015-08-24T08:34:28.000Z</time>
      </trkpt>
      <trkpt lat="45.22241" lon="6.01452">
        <ele>1697.5999755859</ele>
        <time>2015-08-24T08:34:36.000Z</time>
      </trkpt>
      <trkpt lat="45.22241" lon="6.01463">
        <ele>1699</ele>
        <time>2015-08-24T08:34:42.000Z</time>
      </trkpt>
      <trkpt lat="45.22242" lon="6.01465">
        <ele>1699.4000244141</ele>
        <time>2015-08-24T08:34:43.000Z</time>
      </trkpt>
      <trkpt lat="45.22243" lon="6.01475">
        <ele>1701.1999511719</ele>
        <time>2015-08-24T08:34:47.000Z</time>
      </trkpt>
      <trkpt lat="45.22244" lon="6.01487">
        <ele>1702</ele>
        <time>2015-08-24T08:34:53.000Z</time>
      </trkpt>
      <trkpt lat="45.22246" lon="6.01495">
        <ele>1703</ele>
        <time>2015-08-24T08:34:57.000Z</time>
      </trkpt>
      <trkpt lat="45.22246" lon="6.01502">
        <ele>1703.5999755859</ele>
        <time>2015-08-24T08:35:00.000Z</time>
      </trkpt>
      <trkpt lat="45.22247" lon="6.0152">
        <ele>1703.5999755859</ele>
        <time>2015-08-24T08:35:07.000Z</time>
      </trkpt>
      <trkpt lat="45.22247" lon="6.01539">
        <ele>1702.5999755859</ele>
        <time>2015-08-24T08:35:13.000Z</time>
      </trkpt>
      <trkpt lat="45.22251" lon="6.01551">
        <ele>1704.1999511719</ele>
        <time>2015-08-24T08:35:19.000Z</time>
      </trkpt>
      <trkpt lat="45.22251" lon="6.0156">
        <ele>1703.4000244141</ele>
        <time>2015-08-24T08:35:22.000Z</time>
      </trkpt>
      <trkpt lat="45.22252" lon="6.01562">
        <ele>1703.5999755859</ele>
        <time>2015-08-24T08:35:23.000Z</time>
      </trkpt>
      <trkpt lat="45.22258" lon="6.01583">
        <ele>1704.1999511719</ele>
        <time>2015-08-24T08:35:30.000Z</time>
      </trkpt>
      <trkpt lat="45.22262" lon="6.01601">
        <ele>1703.8000488281</ele>
        <time>2015-08-24T08:35:37.000Z</time>
      </trkpt>
      <trkpt lat="45.22263" lon="6.01622">
        <ele>1702.5999755859</ele>
        <time>2015-08-24T08:35:45.000Z</time>
      </trkpt>
      <trkpt lat="45.22264" lon="6.01646">
        <ele>1701.5999755859</ele>
        <time>2015-08-24T08:35:49.000Z</time>
      </trkpt>
      <trkpt lat="45.22267" lon="6.01673">
        <ele>1702.4000244141</ele>
        <time>2015-08-24T08:35:53.000Z</time>
      </trkpt>
      <trkpt lat="45.22266" lon="6.01686">
        <ele>1702.1999511719</ele>
        <time>2015-08-24T08:35:55.000Z</time>
      </trkpt>
      <trkpt lat="45.22266" lon="6.01712">
        <ele>1702.8000488281</ele>
        <time>2015-08-24T08:35:59.000Z</time>
      </trkpt>
      <trkpt lat="45.22266" lon="6.01725">
        <ele>1703.1999511719</ele>
        <time>2015-08-24T08:36:01.000Z</time>
      </trkpt>
      <trkpt lat="45.22265" lon="6.01735">
        <ele>1704.1999511719</ele>
        <time>2015-08-24T08:36:03.000Z</time>
      </trkpt>
      <trkpt lat="45.22263" lon="6.01743">
        <ele>1704.4000244141</ele>
        <time>2015-08-24T08:36:05.000Z</time>
      </trkpt>
      <trkpt lat="45.22262" lon="6.01747">
        <ele>1704.4000244141</ele>
        <time>2015-08-24T08:36:06.000Z</time>
      </trkpt>
      <trkpt lat="45.22256" lon="6.01752">
        <ele>1702.4000244141</ele>
        <time>2015-08-24T08:36:09.000Z</time>
      </trkpt>
      <trkpt lat="45.22248" lon="6.01754">
        <ele>1699.1999511719</ele>
        <time>2015-08-24T08:36:15.000Z</time>
      </trkpt>
      <trkpt lat="45.22243" lon="6.01754">
        <ele>1697</ele>
        <time>2015-08-24T08:36:20.000Z</time>
      </trkpt>
      <trkpt lat="45.22239" lon="6.01755">
        <ele>1695.1999511719</ele>
        <time>2015-08-24T08:36:24.000Z</time>
      </trkpt>
      <trkpt lat="45.22238" lon="6.01756">
        <ele>1695.4000244141</ele>
        <time>2015-08-24T08:36:26.000Z</time>
      </trkpt>
      <trkpt lat="45.22238" lon="6.01754">
        <ele>1694.8000488281</ele>
        <time>2015-08-24T08:36:29.000Z</time>
      </trkpt>
      <trkpt lat="45.22237" lon="6.01753">
        <ele>1694.5999755859</ele>
        <time>2015-08-24T08:36:31.000Z</time>
      </trkpt>
      <trkpt lat="45.22231" lon="6.01756">
        <ele>1692.1999511719</ele>
        <time>2015-08-24T08:36:38.000Z</time>
      </trkpt>
      <trkpt lat="45.22225" lon="6.0176">
        <ele>1690</ele>
        <time>2015-08-24T08:36:47.000Z</time>
      </trkpt>
      <trkpt lat="45.2222" lon="6.01769">
        <ele>1688.8000488281</ele>
        <time>2015-08-24T08:36:58.000Z</time>
      </trkpt>
      <trkpt lat="45.22219" lon="6.01777">
        <ele>1689.4000244141</ele>
        <time>2015-08-24T08:37:07.000Z</time>
      </trkpt>
      <trkpt lat="45.22222" lon="6.01783">
        <ele>1691.1999511719</ele>
        <time>2015-08-24T08:37:14.000Z</time>
      </trkpt>
      <trkpt lat="45.2223" lon="6.0179">
        <ele>1696</ele>
        <time>2015-08-24T08:37:23.000Z</time>
      </trkpt>
      <trkpt lat="45.22232" lon="6.01793">
        <ele>1697.1999511719</ele>
        <time>2015-08-24T08:37:26.000Z</time>
      </trkpt>
      <trkpt lat="45.22236" lon="6.01798">
        <ele>1699.4000244141</ele>
        <time>2015-08-24T08:37:30.000Z</time>
      </trkpt>
      <trkpt lat="45.22239" lon="6.01802">
        <ele>1701.1999511719</ele>
        <time>2015-08-24T08:37:34.000Z</time>
      </trkpt>
      <trkpt lat="45.22239" lon="6.01807">
        <ele>1701.8000488281</ele>
        <time>2015-08-24T08:37:37.000Z</time>
      </trkpt>
      <trkpt lat="45.22239" lon="6.01812">
        <ele>1702.1999511719</ele>
        <time>2015-08-24T08:37:41.000Z</time>
      </trkpt>
      <trkpt lat="45.22241" lon="6.01812">
        <ele>1703.1999511719</ele>
        <time>2015-08-24T08:37:43.000Z</time>
      </trkpt>
      <trkpt lat="45.22241" lon="6.01815">
        <ele>1703.5999755859</ele>
        <time>2015-08-24T08:37:45.000Z</time>
      </trkpt>
      <trkpt lat="45.22245" lon="6.01825">
        <ele>1706.5999755859</ele>
        <time>2015-08-24T08:37:53.000Z</time>
      </trkpt>
      <trkpt lat="45.22246" lon="6.01826">
        <ele>1707.1999511719</ele>
        <time>2015-08-24T08:37:54.000Z</time>
      </trkpt>
      <trkpt lat="45.22251" lon="6.01833">
        <ele>1710.1999511719</ele>
        <time>2015-08-24T08:38:02.000Z</time>
      </trkpt>
      <trkpt lat="45.22252" lon="6.01845">
        <ele>1712.1999511719</ele>
        <time>2015-08-24T08:38:13.000Z</time>
      </trkpt>
      <trkpt lat="45.22252" lon="6.01854">
        <ele>1712.8000488281</ele>
        <time>2015-08-24T08:38:22.000Z</time>
      </trkpt>
      <trkpt lat="45.2225" lon="6.01864">
        <ele>1712.8000488281</ele>
        <time>2015-08-24T08:38:31.000Z</time>
      </trkpt>
      <trkpt lat="45.22248" lon="6.01877">
        <ele>1712.8000488281</ele>
        <time>2015-08-24T08:38:39.000Z</time>
      </trkpt>
      <trkpt lat="45.22247" lon="6.01889">
        <ele>1713.4000244141</ele>
        <time>2015-08-24T08:38:48.000Z</time>
      </trkpt>
      <trkpt lat="45.2225" lon="6.01904">
        <ele>1715.4000244141</ele>
        <time>2015-08-24T08:38:58.000Z</time>
      </trkpt>
      <trkpt lat="45.22248" lon="6.01915">
        <ele>1715.1999511719</ele>
        <time>2015-08-24T08:39:05.000Z</time>
      </trkpt>
      <trkpt lat="45.2225" lon="6.01922">
        <ele>1716.1999511719</ele>
        <time>2015-08-24T08:39:13.000Z</time>
      </trkpt>
      <trkpt lat="45.22251" lon="6.01928">
        <ele>1717</ele>
        <time>2015-08-24T08:39:19.000Z</time>
      </trkpt>
      <trkpt lat="45.22249" lon="6.01942">
        <ele>1717.8000488281</ele>
        <time>2015-08-24T08:39:25.000Z</time>
      </trkpt>
      <trkpt lat="45.22247" lon="6.01959">
        <ele>1719.4000244141</ele>
        <time>2015-08-24T08:39:32.000Z</time>
      </trkpt>
      <trkpt lat="45.22245" lon="6.01963">
        <ele>1719.5999755859</ele>
        <time>2015-08-24T08:39:34.000Z</time>
      </trkpt>
      <trkpt lat="45.22246" lon="6.01971">
        <ele>1721</ele>
        <time>2015-08-24T08:39:37.000Z</time>
      </trkpt>
      <trkpt lat="45.22249" lon="6.01978">
        <ele>1722.5999755859</ele>
        <time>2015-08-24T08:39:40.000Z</time>
      </trkpt>
      <trkpt lat="45.22251" lon="6.01987">
        <ele>1723.1999511719</ele>
        <time>2015-08-24T08:39:44.000Z</time>
      </trkpt>
      <trkpt lat="45.22251" lon="6.01991">
        <ele>1723.1999511719</ele>
        <time>2015-08-24T08:39:46.000Z</time>
      </trkpt>
      <trkpt lat="45.22252" lon="6.01995">
        <ele>1723.1999511719</ele>
        <time>2015-08-24T08:39:49.000Z</time>
      </trkpt>
      <trkpt lat="45.22252" lon="6.01996">
        <ele>1723.1999511719</ele>
        <time>2015-08-24T08:39:50.000Z</time>
      </trkpt>
      <trkpt lat="45.22253" lon="6.02">
        <ele>1723.4000244141</ele>
        <time>2015-08-24T08:39:55.000Z</time>
      </trkpt>
      <trkpt lat="45.22254" lon="6.02003">
        <ele>1724</ele>
        <time>2015-08-24T08:40:01.000Z</time>
      </trkpt>
      <trkpt lat="45.22254" lon="6.02011">
        <ele>1723.8000488281</ele>
        <time>2015-08-24T08:40:10.000Z</time>
      </trkpt>
      <trkpt lat="45.22252" lon="6.0202">
        <ele>1723.5999755859</ele>
        <time>2015-08-24T08:40:19.000Z</time>
      </trkpt>
      <trkpt lat="45.22254" lon="6.02027">
        <ele>1724.8000488281</ele>
        <time>2015-08-24T08:40:27.000Z</time>
      </trkpt>
      <trkpt lat="45.22255" lon="6.02036">
        <ele>1726.1999511719</ele>
        <time>2015-08-24T08:40:35.000Z</time>
      </trkpt>
      <trkpt lat="45.22255" lon="6.02044">
        <ele>1727.4000244141</ele>
        <time>2015-08-24T08:40:41.000Z</time>
      </trkpt>
      <trkpt lat="45.22256" lon="6.02045">
        <ele>1727.5999755859</ele>
        <time>2015-08-24T08:40:42.000Z</time>
      </trkpt>
      <trkpt lat="45.22257" lon="6.02047">
        <ele>1728.1999511719</ele>
        <time>2015-08-24T08:40:49.000Z</time>
      </trkpt>
      <trkpt lat="45.22255" lon="6.02052">
        <ele>1728.5999755859</ele>
        <time>2015-08-24T08:40:58.000Z</time>
      </trkpt>
      <trkpt lat="45.22254" lon="6.02056">
        <ele>1728.8000488281</ele>
        <time>2015-08-24T08:41:03.000Z</time>
      </trkpt>
      <trkpt lat="45.22253" lon="6.02063">
        <ele>1729</ele>
        <time>2015-08-24T08:41:11.000Z</time>
      </trkpt>
      <trkpt lat="45.22252" lon="6.02072">
        <ele>1729</ele>
        <time>2015-08-24T08:41:21.000Z</time>
      </trkpt>
      <trkpt lat="45.22253" lon="6.02074">
        <ele>1729.1999511719</ele>
        <time>2015-08-24T08:41:27.000Z</time>
      </trkpt>
      <trkpt lat="45.22254" lon="6.02078">
        <ele>1729.5999755859</ele>
        <time>2015-08-24T08:41:37.000Z</time>
      </trkpt>
      <trkpt lat="45.22255" lon="6.0208">
        <ele>1730</ele>
        <time>2015-08-24T08:41:43.000Z</time>
      </trkpt>
      <trkpt lat="45.22256" lon="6.02085">
        <ele>1730.4000244141</ele>
        <time>2015-08-24T08:41:54.000Z</time>
      </trkpt>
      <trkpt lat="45.22252" lon="6.02098">
        <ele>1730</ele>
        <time>2015-08-24T08:45:01.000Z</time>
      </trkpt>
      <trkpt lat="45.2225" lon="6.02103">
        <ele>1730.4000244141</ele>
        <time>2015-08-24T08:45:05.000Z</time>
      </trkpt>
      <trkpt lat="45.2225" lon="6.02105">
        <ele>1730.5999755859</ele>
        <time>2015-08-24T08:45:07.000Z</time>
      </trkpt>
      <trkpt lat="45.2225" lon="6.02109">
        <ele>1731.1999511719</ele>
        <time>2015-08-24T08:45:13.000Z</time>
      </trkpt>
      <trkpt lat="45.22251" lon="6.02116">
        <ele>1732</ele>
        <time>2015-08-24T08:45:22.000Z</time>
      </trkpt>
      <trkpt lat="45.22249" lon="6.02122">
        <ele>1732.4000244141</ele>
        <time>2015-08-24T08:45:31.000Z</time>
      </trkpt>
      <trkpt lat="45.22249" lon="6.02123">
        <ele>1732.5999755859</ele>
        <time>2015-08-24T08:45:32.000Z</time>
      </trkpt>
      <trkpt lat="45.22249" lon="6.02136">
        <ele>1734.1999511719</ele>
        <time>2015-08-24T08:45:41.000Z</time>
      </trkpt>
      <trkpt lat="45.22249" lon="6.02148">
        <ele>1735.8000488281</ele>
        <time>2015-08-24T08:45:50.000Z</time>
      </trkpt>
      <trkpt lat="45.22249" lon="6.02158">
        <ele>1737</ele>
        <time>2015-08-24T08:45:59.000Z</time>
      </trkpt>
      <trkpt lat="45.22246" lon="6.02164">
        <ele>1737.8000488281</ele>
        <time>2015-08-24T08:46:08.000Z</time>
      </trkpt>
      <trkpt lat="45.22242" lon="6.02168">
        <ele>1737.8000488281</ele>
        <time>2015-08-24T08:46:15.000Z</time>
      </trkpt>
      <trkpt lat="45.22239" lon="6.02173">
        <ele>1738</ele>
        <time>2015-08-24T08:46:23.000Z</time>
      </trkpt>
      <trkpt lat="45.22233" lon="6.02178">
        <ele>1737.5999755859</ele>
        <time>2015-08-24T08:46:31.000Z</time>
      </trkpt>
      <trkpt lat="45.22228" lon="6.02183">
        <ele>1737.4000244141</ele>
        <time>2015-08-24T08:46:39.000Z</time>
      </trkpt>
      <trkpt lat="45.22225" lon="6.02187">
        <ele>1737.4000244141</ele>
        <time>2015-08-24T08:46:46.000Z</time>
      </trkpt>
      <trkpt lat="45.22225" lon="6.02191">
        <ele>1738</ele>
        <time>2015-08-24T08:46:53.000Z</time>
      </trkpt>
      <trkpt lat="45.22222" lon="6.02193">
        <ele>1737.8000488281</ele>
        <time>2015-08-24T08:46:59.000Z</time>
      </trkpt>
      <trkpt lat="45.22219" lon="6.02201">
        <ele>1738.1999511719</ele>
        <time>2015-08-24T08:47:08.000Z</time>
      </trkpt>
      <trkpt lat="45.22216" lon="6.02205">
        <ele>1738.1999511719</ele>
        <time>2015-08-24T08:47:14.000Z</time>
      </trkpt>
      <trkpt lat="45.22217" lon="6.02207">
        <ele>1738.5999755859</ele>
        <time>2015-08-24T08:47:16.000Z</time>
      </trkpt>
      <trkpt lat="45.22219" lon="6.02211">
        <ele>1739.4000244141</ele>
        <time>2015-08-24T08:47:20.000Z</time>
      </trkpt>
      <trkpt lat="45.22219" lon="6.02212">
        <ele>1739.4000244141</ele>
        <time>2015-08-24T08:47:21.000Z</time>
      </trkpt>
      <trkpt lat="45.22219" lon="6.02219">
        <ele>1740.4000244141</ele>
        <time>2015-08-24T08:47:28.000Z</time>
      </trkpt>
      <trkpt lat="45.2222" lon="6.02227">
        <ele>1741.8000488281</ele>
        <time>2015-08-24T08:47:36.000Z</time>
      </trkpt>
      <trkpt lat="45.22222" lon="6.02238">
        <ele>1744</ele>
        <time>2015-08-24T08:47:46.000Z</time>
      </trkpt>
      <trkpt lat="45.2222" lon="6.02244">
        <ele>1744.1999511719</ele>
        <time>2015-08-24T08:47:55.000Z</time>
      </trkpt>
      <trkpt lat="45.22221" lon="6.02248">
        <ele>1744.8000488281</ele>
        <time>2015-08-24T08:48:01.000Z</time>
      </trkpt>
      <trkpt lat="45.2222" lon="6.02254">
        <ele>1745</ele>
        <time>2015-08-24T08:48:11.000Z</time>
      </trkpt>
      <trkpt lat="45.22219" lon="6.02261">
        <ele>1745.5999755859</ele>
        <time>2015-08-24T08:48:21.000Z</time>
      </trkpt>
      <trkpt lat="45.22215" lon="6.02265">
        <ele>1745.1999511719</ele>
        <time>2015-08-24T08:48:27.000Z</time>
      </trkpt>
      <trkpt lat="45.22213" lon="6.02267">
        <ele>1744.8000488281</ele>
        <time>2015-08-24T08:48:29.000Z</time>
      </trkpt>
      <trkpt lat="45.22209" lon="6.0227">
        <ele>1745.1999511719</ele>
        <time>2015-08-24T08:48:34.000Z</time>
      </trkpt>
      <trkpt lat="45.22208" lon="6.0227">
        <ele>1745.1999511719</ele>
        <time>2015-08-24T08:48:35.000Z</time>
      </trkpt>
      <trkpt lat="45.22208" lon="6.02275">
        <ele>1745.8000488281</ele>
        <time>2015-08-24T08:48:41.000Z</time>
      </trkpt>
      <trkpt lat="45.22205" lon="6.02277">
        <ele>1746.4000244141</ele>
        <time>2015-08-24T08:48:46.000Z</time>
      </trkpt>
      <trkpt lat="45.22202" lon="6.02282">
        <ele>1747.1999511719</ele>
        <time>2015-08-24T08:48:53.000Z</time>
      </trkpt>
      <trkpt lat="45.222" lon="6.02284">
        <ele>1747.5999755859</ele>
        <time>2015-08-24T08:48:59.000Z</time>
      </trkpt>
      <trkpt lat="45.22199" lon="6.02289">
        <ele>1748.4000244141</ele>
        <time>2015-08-24T08:49:07.000Z</time>
      </trkpt>
      <trkpt lat="45.22196" lon="6.02293">
        <ele>1749</ele>
        <time>2015-08-24T08:49:12.000Z</time>
      </trkpt>
      <trkpt lat="45.22192" lon="6.02297">
        <ele>1749.5999755859</ele>
        <time>2015-08-24T08:49:20.000Z</time>
      </trkpt>
      <trkpt lat="45.2219" lon="6.023">
        <ele>1750</ele>
        <time>2015-08-24T08:49:24.000Z</time>
      </trkpt>
      <trkpt lat="45.22186" lon="6.02306">
        <ele>1751</ele>
        <time>2015-08-24T08:49:33.000Z</time>
      </trkpt>
      <trkpt lat="45.22181" lon="6.02309">
        <ele>1751.5999755859</ele>
        <time>2015-08-24T08:49:41.000Z</time>
      </trkpt>
      <trkpt lat="45.22177" lon="6.02313">
        <ele>1752.8000488281</ele>
        <time>2015-08-24T08:49:49.000Z</time>
      </trkpt>
      <trkpt lat="45.22176" lon="6.02316">
        <ele>1753.5999755859</ele>
        <time>2015-08-24T08:49:55.000Z</time>
      </trkpt>
      <trkpt lat="45.22175" lon="6.02321">
        <ele>1754.8000488281</ele>
        <time>2015-08-24T08:50:06.000Z</time>
      </trkpt>
      <trkpt lat="45.22171" lon="6.02324">
        <ele>1755.5999755859</ele>
        <time>2015-08-24T08:50:13.000Z</time>
      </trkpt>
      <trkpt lat="45.22166" lon="6.02328">
        <ele>1756.8000488281</ele>
        <time>2015-08-24T08:50:20.000Z</time>
      </trkpt>
      <trkpt lat="45.22164" lon="6.02332">
        <ele>1757.8000488281</ele>
        <time>2015-08-24T08:50:27.000Z</time>
      </trkpt>
      <trkpt lat="45.22164" lon="6.02333">
        <ele>1758</ele>
        <time>2015-08-24T08:50:34.000Z</time>
      </trkpt>
      <trkpt lat="45.22163" lon="6.02338">
        <ele>1759</ele>
        <time>2015-08-24T08:50:41.000Z</time>
      </trkpt>
      <trkpt lat="45.2216" lon="6.02342">
        <ele>1760.1999511719</ele>
        <time>2015-08-24T08:50:49.000Z</time>
      </trkpt>
      <trkpt lat="45.22156" lon="6.02345">
        <ele>1760.5999755859</ele>
        <time>2015-08-24T08:50:55.000Z</time>
      </trkpt>
      <trkpt lat="45.22155" lon="6.02347">
        <ele>1761</ele>
        <time>2015-08-24T08:51:02.000Z</time>
      </trkpt>
      <trkpt lat="45.22152" lon="6.02349">
        <ele>1761.4000244141</ele>
        <time>2015-08-24T08:51:08.000Z</time>
      </trkpt>
      <trkpt lat="45.22149" lon="6.02351">
        <ele>1761.8000488281</ele>
        <time>2015-08-24T08:51:15.000Z</time>
      </trkpt>
      <trkpt lat="45.22149" lon="6.02353">
        <ele>1762.1999511719</ele>
        <time>2015-08-24T08:51:23.000Z</time>
      </trkpt>
      <trkpt lat="45.22146" lon="6.02356">
        <ele>1762.8000488281</ele>
        <time>2015-08-24T08:51:29.000Z</time>
      </trkpt>
      <trkpt lat="45.2214" lon="6.02359">
        <ele>1763.4000244141</ele>
        <time>2015-08-24T08:51:38.000Z</time>
      </trkpt>
      <trkpt lat="45.2214" lon="6.02363">
        <ele>1764</ele>
        <time>2015-08-24T08:51:44.000Z</time>
      </trkpt>
      <trkpt lat="45.22138" lon="6.02364">
        <ele>1764.4000244141</ele>
        <time>2015-08-24T08:51:51.000Z</time>
      </trkpt>
      <trkpt lat="45.22136" lon="6.02369">
        <ele>1765.1999511719</ele>
        <time>2015-08-24T08:51:58.000Z</time>
      </trkpt>
      <trkpt lat="45.22129" lon="6.02374">
        <ele>1766</ele>
        <time>2015-08-24T08:52:08.000Z</time>
      </trkpt>
      <trkpt lat="45.22123" lon="6.02374">
        <ele>1768</ele>
        <time>2015-08-24T08:52:17.000Z</time>
      </trkpt>
      <trkpt lat="45.22124" lon="6.02374">
        <ele>1767.5999755859</ele>
        <time>2015-08-24T08:52:22.000Z</time>
      </trkpt>
      <trkpt lat="45.22109" lon="6.02379">
        <ele>1772.5999755859</ele>
        <time>2015-08-24T08:52:33.000Z</time>
      </trkpt>
      <trkpt lat="45.2211" lon="6.02379">
        <ele>1772.4000244141</ele>
        <time>2015-08-24T08:52:34.000Z</time>
      </trkpt>
      <trkpt lat="45.22113" lon="6.02379">
        <ele>1771.5999755859</ele>
        <time>2015-08-24T08:52:42.000Z</time>
      </trkpt>
      <trkpt lat="45.22114" lon="6.02383">
        <ele>1771.8000488281</ele>
        <time>2015-08-24T08:52:52.000Z</time>
      </trkpt>
      <trkpt lat="45.22115" lon="6.02383">
        <ele>1771.5999755859</ele>
        <time>2015-08-24T08:52:53.000Z</time>
      </trkpt>
      <trkpt lat="45.22109" lon="6.02388">
        <ele>1773.1999511719</ele>
        <time>2015-08-24T08:52:59.000Z</time>
      </trkpt>
      <trkpt lat="45.22107" lon="6.0239">
        <ele>1773.5999755859</ele>
        <time>2015-08-24T08:53:00.000Z</time>
      </trkpt>
      <trkpt lat="45.22104" lon="6.02391">
        <ele>1774.5999755859</ele>
        <time>2015-08-24T08:53:04.000Z</time>
      </trkpt>
      <trkpt lat="45.221" lon="6.02393">
        <ele>1775.8000488281</ele>
        <time>2015-08-24T08:53:09.000Z</time>
      </trkpt>
      <trkpt lat="45.22097" lon="6.02397">
        <ele>1777.1999511719</ele>
        <time>2015-08-24T08:53:14.000Z</time>
      </trkpt>
      <trkpt lat="45.22098" lon="6.02403">
        <ele>1778.4000244141</ele>
        <time>2015-08-24T08:53:22.000Z</time>
      </trkpt>
      <trkpt lat="45.22101" lon="6.02405">
        <ele>1778.4000244141</ele>
        <time>2015-08-24T08:53:31.000Z</time>
      </trkpt>
      <trkpt lat="45.22104" lon="6.02408">
        <ele>1778.5999755859</ele>
        <time>2015-08-24T08:53:37.000Z</time>
      </trkpt>
      <trkpt lat="45.22106" lon="6.02412">
        <ele>1778.8000488281</ele>
        <time>2015-08-24T08:53:43.000Z</time>
      </trkpt>
      <trkpt lat="45.22108" lon="6.02415">
        <ele>1779.4000244141</ele>
        <time>2015-08-24T08:53:49.000Z</time>
      </trkpt>
      <trkpt lat="45.22112" lon="6.02423">
        <ele>1780.4000244141</ele>
        <time>2015-08-24T08:53:58.000Z</time>
      </trkpt>
      <trkpt lat="45.2211" lon="6.02428">
        <ele>1781.8000488281</ele>
        <time>2015-08-24T08:54:05.000Z</time>
      </trkpt>
      <trkpt lat="45.22106" lon="6.02429">
        <ele>1783.1999511719</ele>
        <time>2015-08-24T08:54:15.000Z</time>
      </trkpt>
      <trkpt lat="45.22095" lon="6.02428">
        <ele>1785.4000244141</ele>
        <time>2015-08-24T08:54:28.000Z</time>
      </trkpt>
      <trkpt lat="45.22089" lon="6.02424">
        <ele>1785.8000488281</ele>
        <time>2015-08-24T08:54:47.000Z</time>
      </trkpt>
      <trkpt lat="45.22088" lon="6.02423">
        <ele>1785.5999755859</ele>
        <time>2015-08-24T08:54:57.000Z</time>
      </trkpt>
      <trkpt lat="45.22086" lon="6.02421">
        <ele>1785.5999755859</ele>
        <time>2015-08-24T08:55:05.000Z</time>
      </trkpt>
      <trkpt lat="45.22083" lon="6.0242">
        <ele>1786</ele>
        <time>2015-08-24T08:55:10.000Z</time>
      </trkpt>
      <trkpt lat="45.22082" lon="6.02426">
        <ele>1787.5999755859</ele>
        <time>2015-08-24T08:55:17.000Z</time>
      </trkpt>
      <trkpt lat="45.22083" lon="6.02431">
        <ele>1788.8000488281</ele>
        <time>2015-08-24T08:55:25.000Z</time>
      </trkpt>
      <trkpt lat="45.22085" lon="6.02436">
        <ele>1789.8000488281</ele>
        <time>2015-08-24T08:55:31.000Z</time>
      </trkpt>
      <trkpt lat="45.22084" lon="6.02438">
        <ele>1790.4000244141</ele>
        <time>2015-08-24T08:55:36.000Z</time>
      </trkpt>
      <trkpt lat="45.22085" lon="6.02443">
        <ele>1791.1999511719</ele>
        <time>2015-08-24T08:55:42.000Z</time>
      </trkpt>
      <trkpt lat="45.22087" lon="6.02451">
        <ele>1793</ele>
        <time>2015-08-24T08:55:51.000Z</time>
      </trkpt>
      <trkpt lat="45.22087" lon="6.02451">
        <ele>1793</ele>
        <time>2015-08-24T08:55:58.000Z</time>
      </trkpt>
      <trkpt lat="45.22089" lon="6.02465">
        <ele>1796.4000244141</ele>
        <time>2015-08-24T08:56:19.000Z</time>
      </trkpt>
      <trkpt lat="45.22107" lon="6.02475">
        <ele>1794.4000244141</ele>
        <time>2015-08-24T08:56:54.000Z</time>
      </trkpt>
      <trkpt lat="45.22109" lon="6.02478">
        <ele>1795.1999511719</ele>
        <time>2015-08-24T08:56:57.000Z</time>
      </trkpt>
      <trkpt lat="45.2211" lon="6.0248">
        <ele>1795.4000244141</ele>
        <time>2015-08-24T08:56:58.000Z</time>
      </trkpt>
      <trkpt lat="45.22112" lon="6.02481">
        <ele>1795.1999511719</ele>
        <time>2015-08-24T08:57:02.000Z</time>
      </trkpt>
      <trkpt lat="45.22113" lon="6.02485">
        <ele>1796.4000244141</ele>
        <time>2015-08-24T08:57:07.000Z</time>
      </trkpt>
      <trkpt lat="45.22111" lon="6.02486">
        <ele>1797.1999511719</ele>
        <time>2015-08-24T08:57:13.000Z</time>
      </trkpt>
      <trkpt lat="45.22111" lon="6.02492">
        <ele>1799.8000488281</ele>
        <time>2015-08-24T08:57:21.000Z</time>
      </trkpt>
      <trkpt lat="45.22113" lon="6.02501">
        <ele>1802.4000244141</ele>
        <time>2015-08-24T08:57:34.000Z</time>
      </trkpt>
      <trkpt lat="45.2211" lon="6.02505">
        <ele>1804.8000488281</ele>
        <time>2015-08-24T08:57:38.000Z</time>
      </trkpt>
      <trkpt lat="45.22109" lon="6.02506">
        <ele>1805.1999511719</ele>
        <time>2015-08-24T08:57:39.000Z</time>
      </trkpt>
      <trkpt lat="45.22108" lon="6.02505">
        <ele>1805.1999511719</ele>
        <time>2015-08-24T08:57:40.000Z</time>
      </trkpt>
      <trkpt lat="45.22107" lon="6.02505">
        <ele>1805.4000244141</ele>
        <time>2015-08-24T08:57:43.000Z</time>
      </trkpt>
      <trkpt lat="45.22101" lon="6.02503">
        <ele>1806.4000244141</ele>
        <time>2015-08-24T08:57:53.000Z</time>
      </trkpt>
      <trkpt lat="45.22087" lon="6.02502">
        <ele>1809.5999755859</ele>
        <time>2015-08-24T08:58:12.000Z</time>
      </trkpt>
      <trkpt lat="45.22084" lon="6.02502">
        <ele>1810.1999511719</ele>
        <time>2015-08-24T08:58:15.000Z</time>
      </trkpt>
      <trkpt lat="45.22081" lon="6.02501">
        <ele>1810.4000244141</ele>
        <time>2015-08-24T08:58:20.000Z</time>
      </trkpt>
      <trkpt lat="45.22075" lon="6.02497">
        <ele>1810.5999755859</ele>
        <time>2015-08-24T08:58:25.000Z</time>
      </trkpt>
      <trkpt lat="45.22072" lon="6.02496">
        <ele>1810.8000488281</ele>
        <time>2015-08-24T08:58:30.000Z</time>
      </trkpt>
      <trkpt lat="45.22069" lon="6.02492">
        <ele>1810.1999511719</ele>
        <time>2015-08-24T08:58:37.000Z</time>
      </trkpt>
      <trkpt lat="45.22066" lon="6.02489">
        <ele>1809.8000488281</ele>
        <time>2015-08-24T08:58:43.000Z</time>
      </trkpt>
      <trkpt lat="45.22063" lon="6.02487">
        <ele>1810</ele>
        <time>2015-08-24T08:58:48.000Z</time>
      </trkpt>
      <trkpt lat="45.22061" lon="6.02485">
        <ele>1809.5999755859</ele>
        <time>2015-08-24T08:58:52.000Z</time>
      </trkpt>
      <trkpt lat="45.22058" lon="6.02485">
        <ele>1810.4000244141</ele>
        <time>2015-08-24T08:58:57.000Z</time>
      </trkpt>
      <trkpt lat="45.22054" lon="6.02482">
        <ele>1810.1999511719</ele>
        <time>2015-08-24T08:59:03.000Z</time>
      </trkpt>
      <trkpt lat="45.22052" lon="6.02481">
        <ele>1810.4000244141</ele>
        <time>2015-08-24T08:59:08.000Z</time>
      </trkpt>
      <trkpt lat="45.22049" lon="6.0248">
        <ele>1811</ele>
        <time>2015-08-24T08:59:13.000Z</time>
      </trkpt>
      <trkpt lat="45.22051" lon="6.02479">
        <ele>1810</ele>
        <time>2015-08-24T08:59:20.000Z</time>
      </trkpt>
      <trkpt lat="45.2205" lon="6.02479">
        <ele>1810.1999511719</ele>
        <time>2015-08-24T08:59:21.000Z</time>
      </trkpt>
      <trkpt lat="45.22047" lon="6.02478">
        <ele>1810.8000488281</ele>
        <time>2015-08-24T08:59:25.000Z</time>
      </trkpt>
      <trkpt lat="45.22045" lon="6.02476">
        <ele>1810.5999755859</ele>
        <time>2015-08-24T08:59:30.000Z</time>
      </trkpt>
      <trkpt lat="45.22041" lon="6.02474">
        <ele>1811.5999755859</ele>
        <time>2015-08-24T08:59:35.000Z</time>
      </trkpt>
      <trkpt lat="45.22038" lon="6.02472">
        <ele>1812</ele>
        <time>2015-08-24T08:59:41.000Z</time>
      </trkpt>
      <trkpt lat="45.22034" lon="6.02467">
        <ele>1812.4000244141</ele>
        <time>2015-08-24T08:59:49.000Z</time>
      </trkpt>
      <trkpt lat="45.22028" lon="6.02462">
        <ele>1813.1999511719</ele>
        <time>2015-08-24T08:59:56.000Z</time>
      </trkpt>
      <trkpt lat="45.22028" lon="6.02461">
        <ele>1813.1999511719</ele>
        <time>2015-08-24T08:59:57.000Z</time>
      </trkpt>
      <trkpt lat="45.22027" lon="6.02459">
        <ele>1813.1999511719</ele>
        <time>2015-08-24T09:00:00.000Z</time>
      </trkpt>
      <trkpt lat="45.22026" lon="6.02458">
        <ele>1813.1999511719</ele>
        <time>2015-08-24T09:00:01.000Z</time>
      </trkpt>
      <trkpt lat="45.22025" lon="6.02458">
        <ele>1813.1999511719</ele>
        <time>2015-08-24T09:00:02.000Z</time>
      </trkpt>
      <trkpt lat="45.22024" lon="6.02457">
        <ele>1813.5999755859</ele>
        <time>2015-08-24T09:00:04.000Z</time>
      </trkpt>
      <trkpt lat="45.22025" lon="6.02456">
        <ele>1813.1999511719</ele>
        <time>2015-08-24T09:00:05.000Z</time>
      </trkpt>
      <trkpt lat="45.22021" lon="6.02456">
        <ele>1814.4000244141</ele>
        <time>2015-08-24T09:00:11.000Z</time>
      </trkpt>
      <trkpt lat="45.22016" lon="6.02456">
        <ele>1816.5999755859</ele>
        <time>2015-08-24T09:00:16.000Z</time>
      </trkpt>
      <trkpt lat="45.22013" lon="6.02457">
        <ele>1818.1999511719</ele>
        <time>2015-08-24T09:00:21.000Z</time>
      </trkpt>
      <trkpt lat="45.22008" lon="6.02457">
        <ele>1820</ele>
        <time>2015-08-24T09:00:27.000Z</time>
      </trkpt>
      <trkpt lat="45.22004" lon="6.02458">
        <ele>1822.1999511719</ele>
        <time>2015-08-24T09:00:34.000Z</time>
      </trkpt>
      <trkpt lat="45.22001" lon="6.0246">
        <ele>1823.5999755859</ele>
        <time>2015-08-24T09:00:40.000Z</time>
      </trkpt>
      <trkpt lat="45.22005" lon="6.02464">
        <ele>1823</ele>
        <time>2015-08-24T09:00:47.000Z</time>
      </trkpt>
      <trkpt lat="45.22007" lon="6.02469">
        <ele>1823.8000488281</ele>
        <time>2015-08-24T09:00:52.000Z</time>
      </trkpt>
      <trkpt lat="45.22011" lon="6.02474">
        <ele>1823.8000488281</ele>
        <time>2015-08-24T09:00:58.000Z</time>
      </trkpt>
      <trkpt lat="45.22014" lon="6.02479">
        <ele>1824.5999755859</ele>
        <time>2015-08-24T09:01:04.000Z</time>
      </trkpt>
      <trkpt lat="45.22017" lon="6.02481">
        <ele>1824.8000488281</ele>
        <time>2015-08-24T09:01:10.000Z</time>
      </trkpt>
      <trkpt lat="45.22017" lon="6.02482">
        <ele>1825</ele>
        <time>2015-08-24T09:01:11.000Z</time>
      </trkpt>
      <trkpt lat="45.22023" lon="6.02489">
        <ele>1826.1999511719</ele>
        <time>2015-08-24T09:01:24.000Z</time>
      </trkpt>
      <trkpt lat="45.22027" lon="6.02497">
        <ele>1828.5999755859</ele>
        <time>2015-08-24T09:01:31.000Z</time>
      </trkpt>
      <trkpt lat="45.22029" lon="6.025">
        <ele>1829.4000244141</ele>
        <time>2015-08-24T09:01:36.000Z</time>
      </trkpt>
      <trkpt lat="45.22031" lon="6.02502">
        <ele>1829.5999755859</ele>
        <time>2015-08-24T09:01:41.000Z</time>
      </trkpt>
      <trkpt lat="45.22023" lon="6.02504">
        <ele>1833.5999755859</ele>
        <time>2015-08-24T09:01:49.000Z</time>
      </trkpt>
      <trkpt lat="45.22018" lon="6.02502">
        <ele>1834.8000488281</ele>
        <time>2015-08-24T09:01:54.000Z</time>
      </trkpt>
      <trkpt lat="45.22008" lon="6.02501">
        <ele>1838.4000244141</ele>
        <time>2015-08-24T09:02:11.000Z</time>
      </trkpt>
      <trkpt lat="45.22006" lon="6.02501">
        <ele>1839.5999755859</ele>
        <time>2015-08-24T09:02:16.000Z</time>
      </trkpt>
      <trkpt lat="45.22004" lon="6.02501">
        <ele>1839.8000488281</ele>
        <time>2015-08-24T09:02:19.000Z</time>
      </trkpt>
      <trkpt lat="45.22001" lon="6.02499">
        <ele>1840.1999511719</ele>
        <time>2015-08-24T09:02:23.000Z</time>
      </trkpt>
      <trkpt lat="45.21991" lon="6.02492">
        <ele>1840.8000488281</ele>
        <time>2015-08-24T09:02:41.000Z</time>
      </trkpt>
      <trkpt lat="45.21985" lon="6.02489">
        <ele>1841.8000488281</ele>
        <time>2015-08-24T09:02:50.000Z</time>
      </trkpt>
      <trkpt lat="45.21979" lon="6.02487">
        <ele>1842.8000488281</ele>
        <time>2015-08-24T09:02:56.000Z</time>
      </trkpt>
      <trkpt lat="45.21975" lon="6.02484">
        <ele>1843</ele>
        <time>2015-08-24T09:03:05.000Z</time>
      </trkpt>
      <trkpt lat="45.21972" lon="6.02483">
        <ele>1844</ele>
        <time>2015-08-24T09:03:12.000Z</time>
      </trkpt>
      <trkpt lat="45.21966" lon="6.02483">
        <ele>1845.8000488281</ele>
        <time>2015-08-24T09:03:20.000Z</time>
      </trkpt>
      <trkpt lat="45.21956" lon="6.02477">
        <ele>1847.5999755859</ele>
        <time>2015-08-24T09:03:39.000Z</time>
      </trkpt>
      <trkpt lat="45.21954" lon="6.02474">
        <ele>1847.8000488281</ele>
        <time>2015-08-24T09:03:44.000Z</time>
      </trkpt>
      <trkpt lat="45.21952" lon="6.02475">
        <ele>1849.1999511719</ele>
        <time>2015-08-24T09:03:54.000Z</time>
      </trkpt>
      <trkpt lat="45.21947" lon="6.0247">
        <ele>1850.5999755859</ele>
        <time>2015-08-24T09:04:06.000Z</time>
      </trkpt>
      <trkpt lat="45.21943" lon="6.02467">
        <ele>1851.5999755859</ele>
        <time>2015-08-24T09:04:12.000Z</time>
      </trkpt>
      <trkpt lat="45.21939" lon="6.02465">
        <ele>1853.4000244141</ele>
        <time>2015-08-24T09:04:18.000Z</time>
      </trkpt>
      <trkpt lat="45.21935" lon="6.02464">
        <ele>1855</ele>
        <time>2015-08-24T09:04:24.000Z</time>
      </trkpt>
      <trkpt lat="45.2193" lon="6.02461">
        <ele>1857.4000244141</ele>
        <time>2015-08-24T09:04:34.000Z</time>
      </trkpt>
      <trkpt lat="45.21929" lon="6.0246">
        <ele>1857</ele>
        <time>2015-08-24T09:04:38.000Z</time>
      </trkpt>
      <trkpt lat="45.21928" lon="6.02456">
        <ele>1856.4000244141</ele>
        <time>2015-08-24T09:04:49.000Z</time>
      </trkpt>
      <trkpt lat="45.21926" lon="6.02453">
        <ele>1856.5999755859</ele>
        <time>2015-08-24T09:04:56.000Z</time>
      </trkpt>
      <trkpt lat="45.21923" lon="6.02449">
        <ele>1856.8000488281</ele>
        <time>2015-08-24T09:05:03.000Z</time>
      </trkpt>
      <trkpt lat="45.21919" lon="6.02447">
        <ele>1858.4000244141</ele>
        <time>2015-08-24T09:05:10.000Z</time>
      </trkpt>
      <trkpt lat="45.21917" lon="6.02444">
        <ele>1858.4000244141</ele>
        <time>2015-08-24T09:05:17.000Z</time>
      </trkpt>
      <trkpt lat="45.21915" lon="6.02441">
        <ele>1858.8000488281</ele>
        <time>2015-08-24T09:05:26.000Z</time>
      </trkpt>
      <trkpt lat="45.21912" lon="6.02438">
        <ele>1859.4000244141</ele>
        <time>2015-08-24T09:05:34.000Z</time>
      </trkpt>
      <trkpt lat="45.21908" lon="6.02436">
        <ele>1861</ele>
        <time>2015-08-24T09:05:41.000Z</time>
      </trkpt>
      <trkpt lat="45.21905" lon="6.02434">
        <ele>1862.4000244141</ele>
        <time>2015-08-24T09:05:45.000Z</time>
      </trkpt>
      <trkpt lat="45.21904" lon="6.02432">
        <ele>1862.1999511719</ele>
        <time>2015-08-24T09:05:50.000Z</time>
      </trkpt>
      <trkpt lat="45.21904" lon="6.0243">
        <ele>1861</ele>
        <time>2015-08-24T09:05:54.000Z</time>
      </trkpt>
      <trkpt lat="45.21904" lon="6.02428">
        <ele>1860.8000488281</ele>
        <time>2015-08-24T09:05:57.000Z</time>
      </trkpt>
      <trkpt lat="45.21898" lon="6.02426">
        <ele>1863</ele>
        <time>2015-08-24T09:06:05.000Z</time>
      </trkpt>
      <trkpt lat="45.21894" lon="6.02422">
        <ele>1864</ele>
        <time>2015-08-24T09:06:11.000Z</time>
      </trkpt>
      <trkpt lat="45.21895" lon="6.02422">
        <ele>1863.5999755859</ele>
        <time>2015-08-24T09:06:17.000Z</time>
      </trkpt>
      <trkpt lat="45.21894" lon="6.02422">
        <ele>1864</ele>
        <time>2015-08-24T09:06:18.000Z</time>
      </trkpt>
      <trkpt lat="45.2189" lon="6.02421">
        <ele>1866.4000244141</ele>
        <time>2015-08-24T09:06:26.000Z</time>
      </trkpt>
      <trkpt lat="45.2189" lon="6.02422">
        <ele>1866.4000244141</ele>
        <time>2015-08-24T09:06:27.000Z</time>
      </trkpt>
      <trkpt lat="45.21891" lon="6.02424">
        <ele>1866.4000244141</ele>
        <time>2015-08-24T09:06:32.000Z</time>
      </trkpt>
      <trkpt lat="45.21892" lon="6.02425">
        <ele>1866.5999755859</ele>
        <time>2015-08-24T09:06:33.000Z</time>
      </trkpt>
      <trkpt lat="45.21893" lon="6.02427">
        <ele>1866.4000244141</ele>
        <time>2015-08-24T09:06:37.000Z</time>
      </trkpt>
      <trkpt lat="45.21895" lon="6.02429">
        <ele>1866</ele>
        <time>2015-08-24T09:06:38.000Z</time>
      </trkpt>
      <trkpt lat="45.21897" lon="6.02431">
        <ele>1865.5999755859</ele>
        <time>2015-08-24T09:06:41.000Z</time>
      </trkpt>
      <trkpt lat="45.21898" lon="6.02434">
        <ele>1866</ele>
        <time>2015-08-24T09:06:48.000Z</time>
      </trkpt>
      <trkpt lat="45.21902" lon="6.02436">
        <ele>1864.4000244141</ele>
        <time>2015-08-24T09:06:51.000Z</time>
      </trkpt>
      <trkpt lat="45.21905" lon="6.02439">
        <ele>1864</ele>
        <time>2015-08-24T09:06:54.000Z</time>
      </trkpt>
      <trkpt lat="45.21905" lon="6.02442">
        <ele>1864.8000488281</ele>
        <time>2015-08-24T09:06:57.000Z</time>
      </trkpt>
      <trkpt lat="45.21907" lon="6.02445">
        <ele>1864.8000488281</ele>
        <time>2015-08-24T09:06:59.000Z</time>
      </trkpt>
      <trkpt lat="45.21905" lon="6.02448">
        <ele>1866.5999755859</ele>
        <time>2015-08-24T09:07:05.000Z</time>
      </trkpt>
      <trkpt lat="45.21911" lon="6.02448">
        <ele>1863.1999511719</ele>
        <time>2015-08-24T09:07:13.000Z</time>
      </trkpt>
      <trkpt lat="45.21914" lon="6.02452">
        <ele>1862.8000488281</ele>
        <time>2015-08-24T09:07:20.000Z</time>
      </trkpt>
      <trkpt lat="45.21917" lon="6.02458">
        <ele>1863.4000244141</ele>
        <time>2015-08-24T09:07:23.000Z</time>
      </trkpt>
      <trkpt lat="45.2192" lon="6.02461">
        <ele>1862.5999755859</ele>
        <time>2015-08-24T09:07:25.000Z</time>
      </trkpt>
      <trkpt lat="45.2192" lon="6.02464">
        <ele>1863.4000244141</ele>
        <time>2015-08-24T09:07:31.000Z</time>
      </trkpt>
      <trkpt lat="45.21916" lon="6.02464">
        <ele>1866</ele>
        <time>2015-08-24T09:07:34.000Z</time>
      </trkpt>
      <trkpt lat="45.21915" lon="6.02465">
        <ele>1866.4000244141</ele>
        <time>2015-08-24T09:07:37.000Z</time>
      </trkpt>
      <trkpt lat="45.21908" lon="6.02468">
        <ele>1871.1999511719</ele>
        <time>2015-08-24T09:08:04.000Z</time>
      </trkpt>
      <trkpt lat="45.219" lon="6.02471">
        <ele>1877</ele>
        <time>2015-08-24T09:08:11.000Z</time>
      </trkpt>
      <trkpt lat="45.21898" lon="6.02472">
        <ele>1878.1999511719</ele>
        <time>2015-08-24T09:08:20.000Z</time>
      </trkpt>
      <trkpt lat="45.21926" lon="6.02463">
        <ele>1859.8000488281</ele>
        <time>2015-08-24T09:08:35.000Z</time>
      </trkpt>
      <trkpt lat="45.21929" lon="6.02463">
        <ele>1858.4000244141</ele>
        <time>2015-08-24T09:08:41.000Z</time>
      </trkpt>
      <trkpt lat="45.21936" lon="6.0246">
        <ele>1853.4000244141</ele>
        <time>2015-08-24T09:10:19.000Z</time>
      </trkpt>
      <trkpt lat="45.21941" lon="6.0246">
        <ele>1850.4000244141</ele>
        <time>2015-08-24T09:10:22.000Z</time>
      </trkpt>
      <trkpt lat="45.21946" lon="6.0246">
        <ele>1847.8000488281</ele>
        <time>2015-08-24T09:10:25.000Z</time>
      </trkpt>
      <trkpt lat="45.21959" lon="6.02465">
        <ele>1842.4000244141</ele>
        <time>2015-08-24T09:10:37.000Z</time>
      </trkpt>
      <trkpt lat="45.21954" lon="6.02472">
        <ele>1847</ele>
        <time>2015-08-24T09:10:43.000Z</time>
      </trkpt>
      <trkpt lat="45.21935" lon="6.02478">
        <ele>1859.8000488281</ele>
        <time>2015-08-24T09:10:50.000Z</time>
      </trkpt>
      <trkpt lat="45.21926" lon="6.02481">
        <ele>1866</ele>
        <time>2015-08-24T09:10:54.000Z</time>
      </trkpt>
      <trkpt lat="45.21915" lon="6.02484">
        <ele>1873.8000488281</ele>
        <time>2015-08-24T09:11:01.000Z</time>
      </trkpt>
      <trkpt lat="45.21915" lon="6.02488">
        <ele>1875.4000244141</ele>
        <time>2015-08-24T09:11:07.000Z</time>
      </trkpt>
      <trkpt lat="45.21931" lon="6.02508">
        <ele>1875.1999511719</ele>
        <time>2015-08-24T09:11:48.000Z</time>
      </trkpt>
      <trkpt lat="45.21926" lon="6.02511">
        <ele>1879.5999755859</ele>
        <time>2015-08-24T09:11:57.000Z</time>
      </trkpt>
      <trkpt lat="45.21941" lon="6.02514">
        <ele>1872.8000488281</ele>
        <time>2015-08-24T09:12:02.000Z</time>
      </trkpt>
      <trkpt lat="45.21949" lon="6.02516">
        <ele>1869.1999511719</ele>
        <time>2015-08-24T09:12:05.000Z</time>
      </trkpt>
      <trkpt lat="45.2195" lon="6.02518">
        <ele>1869.4000244141</ele>
        <time>2015-08-24T09:12:11.000Z</time>
      </trkpt>
      <trkpt lat="45.21953" lon="6.02521">
        <ele>1869.4000244141</ele>
        <time>2015-08-24T09:12:16.000Z</time>
      </trkpt>
      <trkpt lat="45.21943" lon="6.02524">
        <ele>1875.8000488281</ele>
        <time>2015-08-24T09:12:27.000Z</time>
      </trkpt>
      <trkpt lat="45.21944" lon="6.02527">
        <ele>1877</ele>
        <time>2015-08-24T09:12:31.000Z</time>
      </trkpt>
      <trkpt lat="45.21939" lon="6.02528">
        <ele>1879.8000488281</ele>
        <time>2015-08-24T09:12:34.000Z</time>
      </trkpt>
      <trkpt lat="45.21929" lon="6.02526">
        <ele>1884.8000488281</ele>
        <time>2015-08-24T09:12:40.000Z</time>
      </trkpt>
      <trkpt lat="45.21939" lon="6.02533">
        <ele>1882.4000244141</ele>
        <time>2015-08-24T09:12:44.000Z</time>
      </trkpt>
      <trkpt lat="45.21939" lon="6.02533">
        <ele>1882.1999511719</ele>
        <time>2015-08-24T09:12:45.000Z</time>
      </trkpt>
      <trkpt lat="45.21943" lon="6.02535">
        <ele>1880.8000488281</ele>
        <time>2015-08-24T09:12:49.000Z</time>
      </trkpt>
      <trkpt lat="45.21943" lon="6.02538">
        <ele>1882.4000244141</ele>
        <time>2015-08-24T09:12:52.000Z</time>
      </trkpt>
      <trkpt lat="45.21943" lon="6.02538">
        <ele>1882.5999755859</ele>
        <time>2015-08-24T09:12:55.000Z</time>
      </trkpt>
      <trkpt lat="45.21931" lon="6.02536">
        <ele>1886.8000488281</ele>
        <time>2015-08-24T09:13:05.000Z</time>
      </trkpt>
      <trkpt lat="45.21928" lon="6.02537">
        <ele>1888.1999511719</ele>
        <time>2015-08-24T09:13:15.000Z</time>
      </trkpt>
      <trkpt lat="45.21922" lon="6.02536">
        <ele>1890.5999755859</ele>
        <time>2015-08-24T09:13:18.000Z</time>
      </trkpt>
      <trkpt lat="45.21909" lon="6.02534">
        <ele>1895.4000244141</ele>
        <time>2015-08-24T09:13:20.000Z</time>
      </trkpt>
      <trkpt lat="45.21899" lon="6.02533">
        <ele>1899</ele>
        <time>2015-08-24T09:13:22.000Z</time>
      </trkpt>
      <trkpt lat="45.21893" lon="6.02535">
        <ele>1902</ele>
        <time>2015-08-24T09:13:28.000Z</time>
      </trkpt>
      <trkpt lat="45.21894" lon="6.02535">
        <ele>1901.5999755859</ele>
        <time>2015-08-24T09:13:33.000Z</time>
      </trkpt>
      <trkpt lat="45.21896" lon="6.02536">
        <ele>1901</ele>
        <time>2015-08-24T09:13:37.000Z</time>
      </trkpt>
      <trkpt lat="45.21894" lon="6.02532">
        <ele>1900.8000488281</ele>
        <time>2015-08-24T09:13:51.000Z</time>
      </trkpt>
      <trkpt lat="45.21891" lon="6.0253">
        <ele>1901</ele>
        <time>2015-08-24T09:13:54.000Z</time>
      </trkpt>
      <trkpt lat="45.21888" lon="6.0252">
        <ele>1899.5999755859</ele>
        <time>2015-08-24T09:14:08.000Z</time>
      </trkpt>
      <trkpt lat="45.21874" lon="6.02511">
        <ele>1904.4000244141</ele>
        <time>2015-08-24T09:14:30.000Z</time>
      </trkpt>
      <trkpt lat="45.21873" lon="6.0251">
        <ele>1904.8000488281</ele>
        <time>2015-08-24T09:14:35.000Z</time>
      </trkpt>
      <trkpt lat="45.21874" lon="6.02504">
        <ele>1902.1999511719</ele>
        <time>2015-08-24T09:14:50.000Z</time>
      </trkpt>
      <trkpt lat="45.21872" lon="6.02503">
        <ele>1903.1999511719</ele>
        <time>2015-08-24T09:14:54.000Z</time>
      </trkpt>
      <trkpt lat="45.21869" lon="6.02502">
        <ele>1905.5999755859</ele>
        <time>2015-08-24T09:15:00.000Z</time>
      </trkpt>
      <trkpt lat="45.21867" lon="6.02501">
        <ele>1907</ele>
        <time>2015-08-24T09:15:05.000Z</time>
      </trkpt>
      <trkpt lat="45.21868" lon="6.02498">
        <ele>1905.1999511719</ele>
        <time>2015-08-24T09:15:09.000Z</time>
      </trkpt>
      <trkpt lat="45.21866" lon="6.02497">
        <ele>1906.4000244141</ele>
        <time>2015-08-24T09:15:11.000Z</time>
      </trkpt>
      <trkpt lat="45.21865" lon="6.02497">
        <ele>1906.8000488281</ele>
        <time>2015-08-24T09:15:12.000Z</time>
      </trkpt>
      <trkpt lat="45.21864" lon="6.02496">
        <ele>1907.4000244141</ele>
        <time>2015-08-24T09:15:13.000Z</time>
      </trkpt>
      <trkpt lat="45.21864" lon="6.02494">
        <ele>1907.4000244141</ele>
        <time>2015-08-24T09:15:17.000Z</time>
      </trkpt>
      <trkpt lat="45.21863" lon="6.02491">
        <ele>1907.1999511719</ele>
        <time>2015-08-24T09:15:22.000Z</time>
      </trkpt>
      <trkpt lat="45.21857" lon="6.02493">
        <ele>1912.1999511719</ele>
        <time>2015-08-24T09:15:44.000Z</time>
      </trkpt>
      <trkpt lat="45.21854" lon="6.02495">
        <ele>1915</ele>
        <time>2015-08-24T09:15:48.000Z</time>
      </trkpt>
      <trkpt lat="45.21857" lon="6.02497">
        <ele>1913.1999511719</ele>
        <time>2015-08-24T09:15:54.000Z</time>
      </trkpt>
      <trkpt lat="45.21855" lon="6.02498">
        <ele>1915.5999755859</ele>
        <time>2015-08-24T09:15:56.000Z</time>
      </trkpt>
      <trkpt lat="45.21849" lon="6.02501">
        <ele>1920.8000488281</ele>
        <time>2015-08-24T09:16:00.000Z</time>
      </trkpt>
      <trkpt lat="45.21854" lon="6.02506">
        <ele>1918.8000488281</ele>
        <time>2015-08-24T09:16:12.000Z</time>
      </trkpt>
      <trkpt lat="45.21858" lon="6.02507">
        <ele>1915.4000244141</ele>
        <time>2015-08-24T09:16:16.000Z</time>
      </trkpt>
      <trkpt lat="45.21865" lon="6.02508">
        <ele>1910.1999511719</ele>
        <time>2015-08-24T09:16:21.000Z</time>
      </trkpt>
      <trkpt lat="45.21864" lon="6.02509">
        <ele>1911.4000244141</ele>
        <time>2015-08-24T09:16:24.000Z</time>
      </trkpt>
      <trkpt lat="45.21863" lon="6.02512">
        <ele>1913.1999511719</ele>
        <time>2015-08-24T09:16:32.000Z</time>
      </trkpt>
      <trkpt lat="45.2186" lon="6.02514">
        <ele>1916.5999755859</ele>
        <time>2015-08-24T09:16:36.000Z</time>
      </trkpt>
      <trkpt lat="45.21857" lon="6.02515">
        <ele>1919</ele>
        <time>2015-08-24T09:16:38.000Z</time>
      </trkpt>
      <trkpt lat="45.21856" lon="6.02516">
        <ele>1919.8000488281</ele>
        <time>2015-08-24T09:16:42.000Z</time>
      </trkpt>
      <trkpt lat="45.21853" lon="6.0252">
        <ele>1923.4000244141</ele>
        <time>2015-08-24T09:16:51.000Z</time>
      </trkpt>
      <trkpt lat="45.21853" lon="6.0252">
        <ele>1923.8000488281</ele>
        <time>2015-08-24T09:16:52.000Z</time>
      </trkpt>
      <trkpt lat="45.21849" lon="6.02522">
        <ele>1926.8000488281</ele>
        <time>2015-08-24T09:16:55.000Z</time>
      </trkpt>
      <trkpt lat="45.21847" lon="6.02523">
        <ele>1929</ele>
        <time>2015-08-24T09:17:00.000Z</time>
      </trkpt>
      <trkpt lat="45.21852" lon="6.02527">
        <ele>1925.8000488281</ele>
        <time>2015-08-24T09:17:09.000Z</time>
      </trkpt>
      <trkpt lat="45.21856" lon="6.02528">
        <ele>1923.1999511719</ele>
        <time>2015-08-24T09:17:13.000Z</time>
      </trkpt>
      <trkpt lat="45.21858" lon="6.0253">
        <ele>1922.4000244141</ele>
        <time>2015-08-24T09:17:15.000Z</time>
      </trkpt>
      <trkpt lat="45.21864" lon="6.02532">
        <ele>1918.4000244141</ele>
        <time>2015-08-24T09:17:20.000Z</time>
      </trkpt>
      <trkpt lat="45.21866" lon="6.02532">
        <ele>1917</ele>
        <time>2015-08-24T09:17:21.000Z</time>
      </trkpt>
      <trkpt lat="45.21867" lon="6.02534">
        <ele>1916.8000488281</ele>
        <time>2015-08-24T09:17:23.000Z</time>
      </trkpt>
      <trkpt lat="45.21866" lon="6.02535">
        <ele>1917.4000244141</ele>
        <time>2015-08-24T09:17:25.000Z</time>
      </trkpt>
      <trkpt lat="45.21871" lon="6.02536">
        <ele>1914.1999511719</ele>
        <time>2015-08-24T09:17:30.000Z</time>
      </trkpt>
      <trkpt lat="45.2187" lon="6.02539">
        <ele>1916</ele>
        <time>2015-08-24T09:17:33.000Z</time>
      </trkpt>
      <trkpt lat="45.21866" lon="6.02545">
        <ele>1920.5999755859</ele>
        <time>2015-08-24T09:17:39.000Z</time>
      </trkpt>
      <trkpt lat="45.21866" lon="6.02547">
        <ele>1921.1999511719</ele>
        <time>2015-08-24T09:17:45.000Z</time>
      </trkpt>
      <trkpt lat="45.21864" lon="6.0255">
        <ele>1922.4000244141</ele>
        <time>2015-08-24T09:17:52.000Z</time>
      </trkpt>
      <trkpt lat="45.21859" lon="6.02553">
        <ele>1926</ele>
        <time>2015-08-24T09:18:01.000Z</time>
      </trkpt>
      <trkpt lat="45.21856" lon="6.02567">
        <ele>1931.8000488281</ele>
        <time>2015-08-24T09:18:31.000Z</time>
      </trkpt>
      <trkpt lat="45.21859" lon="6.02571">
        <ele>1932</ele>
        <time>2015-08-24T09:18:34.000Z</time>
      </trkpt>
      <trkpt lat="45.21859" lon="6.02572">
        <ele>1932.4000244141</ele>
        <time>2015-08-24T09:18:35.000Z</time>
      </trkpt>
      <trkpt lat="45.21853" lon="6.02577">
        <ele>1937.8000488281</ele>
        <time>2015-08-24T09:18:40.000Z</time>
      </trkpt>
      <trkpt lat="45.21852" lon="6.0258">
        <ele>1940</ele>
        <time>2015-08-24T09:18:45.000Z</time>
      </trkpt>
      <trkpt lat="45.21853" lon="6.02581">
        <ele>1939.8000488281</ele>
        <time>2015-08-24T09:18:46.000Z</time>
      </trkpt>
      <trkpt lat="45.21852" lon="6.02584">
        <ele>1941.1999511719</ele>
        <time>2015-08-24T09:18:50.000Z</time>
      </trkpt>
      <trkpt lat="45.21859" lon="6.02588">
        <ele>1939.4000244141</ele>
        <time>2015-08-24T09:18:55.000Z</time>
      </trkpt>
      <trkpt lat="45.21854" lon="6.02597">
        <ele>1946.1999511719</ele>
        <time>2015-08-24T09:19:03.000Z</time>
      </trkpt>
      <trkpt lat="45.21845" lon="6.02602">
        <ele>1953.4000244141</ele>
        <time>2015-08-24T09:19:10.000Z</time>
      </trkpt>
      <trkpt lat="45.2184" lon="6.02601">
        <ele>1956</ele>
        <time>2015-08-24T09:19:11.000Z</time>
      </trkpt>
      <trkpt lat="45.21828" lon="6.02598">
        <ele>1958.8000488281</ele>
        <time>2015-08-24T09:19:14.000Z</time>
      </trkpt>
      <trkpt lat="45.21807" lon="6.02594">
        <ele>1962.1999511719</ele>
        <time>2015-08-24T09:19:18.000Z</time>
      </trkpt>
      <trkpt lat="45.21797" lon="6.02594">
        <ele>1964</ele>
        <time>2015-08-24T09:19:22.000Z</time>
      </trkpt>
      <trkpt lat="45.21811" lon="6.02602">
        <ele>1962</ele>
        <time>2015-08-24T09:19:26.000Z</time>
      </trkpt>
      <trkpt lat="45.21826" lon="6.02612">
        <ele>1959.5999755859</ele>
        <time>2015-08-24T09:19:31.000Z</time>
      </trkpt>
      <trkpt lat="45.21826" lon="6.02616">
        <ele>1959.8000488281</ele>
        <time>2015-08-24T09:19:35.000Z</time>
      </trkpt>
      <trkpt lat="45.21826" lon="6.02617">
        <ele>1960</ele>
        <time>2015-08-24T09:19:36.000Z</time>
      </trkpt>
      <trkpt lat="45.21818" lon="6.02622">
        <ele>1961.4000244141</ele>
        <time>2015-08-24T09:19:41.000Z</time>
      </trkpt>
      <trkpt lat="45.21817" lon="6.02623">
        <ele>1961.5999755859</ele>
        <time>2015-08-24T09:19:42.000Z</time>
      </trkpt>
      <trkpt lat="45.21817" lon="6.02627">
        <ele>1961.8000488281</ele>
        <time>2015-08-24T09:19:47.000Z</time>
      </trkpt>
      <trkpt lat="45.21817" lon="6.02628">
        <ele>1961.8000488281</ele>
        <time>2015-08-24T09:19:48.000Z</time>
      </trkpt>
      <trkpt lat="45.21821" lon="6.02631">
        <ele>1961.4000244141</ele>
        <time>2015-08-24T09:19:51.000Z</time>
      </trkpt>
      <trkpt lat="45.21822" lon="6.02634">
        <ele>1961.1999511719</ele>
        <time>2015-08-24T09:20:00.000Z</time>
      </trkpt>
      <trkpt lat="45.21824" lon="6.02637">
        <ele>1961</ele>
        <time>2015-08-24T09:20:03.000Z</time>
      </trkpt>
      <trkpt lat="45.21823" lon="6.02639">
        <ele>1961.1999511719</ele>
        <time>2015-08-24T09:20:05.000Z</time>
      </trkpt>
      <trkpt lat="45.2182" lon="6.02641">
        <ele>1961.8000488281</ele>
        <time>2015-08-24T09:20:09.000Z</time>
      </trkpt>
      <trkpt lat="45.21819" lon="6.02641">
        <ele>1962</ele>
        <time>2015-08-24T09:20:10.000Z</time>
      </trkpt>
      <trkpt lat="45.21816" lon="6.02644">
        <ele>1963.4000244141</ele>
        <time>2015-08-24T09:20:13.000Z</time>
      </trkpt>
      <trkpt lat="45.21809" lon="6.02646">
        <ele>1965.4000244141</ele>
        <time>2015-08-24T09:20:16.000Z</time>
      </trkpt>
      <trkpt lat="45.21793" lon="6.02647">
        <ele>1967.8000488281</ele>
        <time>2015-08-24T09:20:21.000Z</time>
      </trkpt>
      <trkpt lat="45.21777" lon="6.0265">
        <ele>1977</ele>
        <time>2015-08-24T09:20:27.000Z</time>
      </trkpt>
      <trkpt lat="45.21782" lon="6.0266">
        <ele>1975.1999511719</ele>
        <time>2015-08-24T09:20:33.000Z</time>
      </trkpt>
      <trkpt lat="45.21771" lon="6.02667">
        <ele>1982</ele>
        <time>2015-08-24T09:20:41.000Z</time>
      </trkpt>
      <trkpt lat="45.21761" lon="6.02667">
        <ele>1987.1999511719</ele>
        <time>2015-08-24T09:20:43.000Z</time>
      </trkpt>
      <trkpt lat="45.2176" lon="6.02671">
        <ele>1988.4000244141</ele>
        <time>2015-08-24T09:20:47.000Z</time>
      </trkpt>
      <trkpt lat="45.21759" lon="6.02676">
        <ele>1989.1999511719</ele>
        <time>2015-08-24T09:20:52.000Z</time>
      </trkpt>
      <trkpt lat="45.21755" lon="6.02676">
        <ele>1991.4000244141</ele>
        <time>2015-08-24T09:20:53.000Z</time>
      </trkpt>
      <trkpt lat="45.21743" lon="6.02679">
        <ele>1997.1999511719</ele>
        <time>2015-08-24T09:20:59.000Z</time>
      </trkpt>
      <trkpt lat="45.21738" lon="6.02689">
        <ele>1997.5999755859</ele>
        <time>2015-08-24T09:21:06.000Z</time>
      </trkpt>
      <trkpt lat="45.21743" lon="6.02701">
        <ele>1994.4000244141</ele>
        <time>2015-08-24T09:21:14.000Z</time>
      </trkpt>
      <trkpt lat="45.21739" lon="6.02707">
        <ele>1995</ele>
        <time>2015-08-24T09:21:19.000Z</time>
      </trkpt>
      <trkpt lat="45.21739" lon="6.02709">
        <ele>1995</ele>
        <time>2015-08-24T09:21:20.000Z</time>
      </trkpt>
      <trkpt lat="45.21735" lon="6.02717">
        <ele>1995.1999511719</ele>
        <time>2015-08-24T09:21:26.000Z</time>
      </trkpt>
      <trkpt lat="45.2173" lon="6.02724">
        <ele>1996</ele>
        <time>2015-08-24T09:21:32.000Z</time>
      </trkpt>
      <trkpt lat="45.2173" lon="6.02725">
        <ele>1995.8000488281</ele>
        <time>2015-08-24T09:21:33.000Z</time>
      </trkpt>
      <trkpt lat="45.21737" lon="6.02732">
        <ele>1994.8000488281</ele>
        <time>2015-08-24T09:21:37.000Z</time>
      </trkpt>
      <trkpt lat="45.21736" lon="6.02738">
        <ele>1996</ele>
        <time>2015-08-24T09:21:43.000Z</time>
      </trkpt>
      <trkpt lat="45.21735" lon="6.02738">
        <ele>1996.5999755859</ele>
        <time>2015-08-24T09:21:44.000Z</time>
      </trkpt>
      <trkpt lat="45.21743" lon="6.02746">
        <ele>1995</ele>
        <time>2015-08-24T09:21:47.000Z</time>
      </trkpt>
      <trkpt lat="45.21749" lon="6.02749">
        <ele>1993.8000488281</ele>
        <time>2015-08-24T09:21:49.000Z</time>
      </trkpt>
      <trkpt lat="45.21764" lon="6.0276">
        <ele>1990.8000488281</ele>
        <time>2015-08-24T09:21:55.000Z</time>
      </trkpt>
      <trkpt lat="45.21759" lon="6.02761">
        <ele>1992.5999755859</ele>
        <time>2015-08-24T09:21:57.000Z</time>
      </trkpt>
      <trkpt lat="45.21749" lon="6.02762">
        <ele>1996</ele>
        <time>2015-08-24T09:22:00.000Z</time>
      </trkpt>
      <trkpt lat="45.21749" lon="6.02763">
        <ele>1996.1999511719</ele>
        <time>2015-08-24T09:22:01.000Z</time>
      </trkpt>
      <trkpt lat="45.21751" lon="6.02767">
        <ele>1995.8000488281</ele>
        <time>2015-08-24T09:22:04.000Z</time>
      </trkpt>
      <trkpt lat="45.2175" lon="6.0277">
        <ele>1995.5999755859</ele>
        <time>2015-08-24T09:22:06.000Z</time>
      </trkpt>
      <trkpt lat="45.21749" lon="6.0277">
        <ele>1995.5999755859</ele>
        <time>2015-08-24T09:22:07.000Z</time>
      </trkpt>
      <trkpt lat="45.21742" lon="6.02771">
        <ele>1996.1999511719</ele>
        <time>2015-08-24T09:22:13.000Z</time>
      </trkpt>
      <trkpt lat="45.21744" lon="6.02773">
        <ele>1996</ele>
        <time>2015-08-24T09:22:14.000Z</time>
      </trkpt>
      <trkpt lat="45.21739" lon="6.02774">
        <ele>1996.1999511719</ele>
        <time>2015-08-24T09:22:17.000Z</time>
      </trkpt>
      <trkpt lat="45.21739" lon="6.02775">
        <ele>1996.1999511719</ele>
        <time>2015-08-24T09:22:19.000Z</time>
      </trkpt>
      <trkpt lat="45.21742" lon="6.02778">
        <ele>1995.5999755859</ele>
        <time>2015-08-24T09:22:22.000Z</time>
      </trkpt>
      <trkpt lat="45.21745" lon="6.02785">
        <ele>1995</ele>
        <time>2015-08-24T09:22:28.000Z</time>
      </trkpt>
      <trkpt lat="45.21746" lon="6.02789">
        <ele>1994.5999755859</ele>
        <time>2015-08-24T09:22:31.000Z</time>
      </trkpt>
      <trkpt lat="45.21737" lon="6.02798">
        <ele>1994.8000488281</ele>
        <time>2015-08-24T09:22:41.000Z</time>
      </trkpt>
      <trkpt lat="45.21728" lon="6.02806">
        <ele>1994.8000488281</ele>
        <time>2015-08-24T09:22:49.000Z</time>
      </trkpt>
      <trkpt lat="45.21726" lon="6.02812">
        <ele>1995.5999755859</ele>
        <time>2015-08-24T09:22:54.000Z</time>
      </trkpt>
      <trkpt lat="45.21717" lon="6.02815">
        <ele>1996.5999755859</ele>
        <time>2015-08-24T09:22:59.000Z</time>
      </trkpt>
      <trkpt lat="45.217" lon="6.02815">
        <ele>1998.8000488281</ele>
        <time>2015-08-24T09:23:07.000Z</time>
      </trkpt>
      <trkpt lat="45.21706" lon="6.0282">
        <ele>1996.5999755859</ele>
        <time>2015-08-24T09:23:13.000Z</time>
      </trkpt>
      <trkpt lat="45.21713" lon="6.02825">
        <ele>1994.4000244141</ele>
        <time>2015-08-24T09:23:17.000Z</time>
      </trkpt>
      <trkpt lat="45.21712" lon="6.02828">
        <ele>1994.1999511719</ele>
        <time>2015-08-24T09:23:20.000Z</time>
      </trkpt>
      <trkpt lat="45.21714" lon="6.0283">
        <ele>1994</ele>
        <time>2015-08-24T09:23:23.000Z</time>
      </trkpt>
      <trkpt lat="45.21718" lon="6.02835">
        <ele>1994.5999755859</ele>
        <time>2015-08-24T09:23:27.000Z</time>
      </trkpt>
      <trkpt lat="45.21724" lon="6.02841">
        <ele>1995.4000244141</ele>
        <time>2015-08-24T09:23:33.000Z</time>
      </trkpt>
      <trkpt lat="45.21727" lon="6.02841">
        <ele>1996</ele>
        <time>2015-08-24T09:23:36.000Z</time>
      </trkpt>
      <trkpt lat="45.21728" lon="6.02842">
        <ele>1996</ele>
        <time>2015-08-24T09:23:40.000Z</time>
      </trkpt>
      <trkpt lat="45.21731" lon="6.02851">
        <ele>1995.8000488281</ele>
        <time>2015-08-24T09:23:47.000Z</time>
      </trkpt>
      <trkpt lat="45.21731" lon="6.02857">
        <ele>1995.1999511719</ele>
        <time>2015-08-24T09:23:52.000Z</time>
      </trkpt>
      <trkpt lat="45.2173" lon="6.02857">
        <ele>1994.8000488281</ele>
        <time>2015-08-24T09:23:54.000Z</time>
      </trkpt>
      <trkpt lat="45.21727" lon="6.02857">
        <ele>1994.4000244141</ele>
        <time>2015-08-24T09:23:56.000Z</time>
      </trkpt>
      <trkpt lat="45.21725" lon="6.02857">
        <ele>1993.8000488281</ele>
        <time>2015-08-24T09:23:58.000Z</time>
      </trkpt>
      <trkpt lat="45.21727" lon="6.02863">
        <ele>1993.4000244141</ele>
        <time>2015-08-24T09:24:04.000Z</time>
      </trkpt>
      <trkpt lat="45.21731" lon="6.02866">
        <ele>1994.1999511719</ele>
        <time>2015-08-24T09:24:05.000Z</time>
      </trkpt>
      <trkpt lat="45.21737" lon="6.02871">
        <ele>1995</ele>
        <time>2015-08-24T09:24:08.000Z</time>
      </trkpt>
      <trkpt lat="45.21738" lon="6.02873">
        <ele>1995</ele>
        <time>2015-08-24T09:24:09.000Z</time>
      </trkpt>
      <trkpt lat="45.21739" lon="6.02878">
        <ele>1994.5999755859</ele>
        <time>2015-08-24T09:24:13.000Z</time>
      </trkpt>
      <trkpt lat="45.21737" lon="6.02884">
        <ele>1993.5999755859</ele>
        <time>2015-08-24T09:24:17.000Z</time>
      </trkpt>
      <trkpt lat="45.21734" lon="6.02886">
        <ele>1992.5999755859</ele>
        <time>2015-08-24T09:24:19.000Z</time>
      </trkpt>
      <trkpt lat="45.21733" lon="6.02891">
        <ele>1992</ele>
        <time>2015-08-24T09:24:25.000Z</time>
      </trkpt>
      <trkpt lat="45.21757" lon="6.02902">
        <ele>1998.5999755859</ele>
        <time>2015-08-24T09:24:34.000Z</time>
      </trkpt>
      <trkpt lat="45.21763" lon="6.02906">
        <ele>2000.4000244141</ele>
        <time>2015-08-24T09:24:37.000Z</time>
      </trkpt>
      <trkpt lat="45.21768" lon="6.0291">
        <ele>2002.1999511719</ele>
        <time>2015-08-24T09:24:40.000Z</time>
      </trkpt>
      <trkpt lat="45.21787" lon="6.02919">
        <ele>2007.5999755859</ele>
        <time>2015-08-24T09:24:44.000Z</time>
      </trkpt>
      <trkpt lat="45.21789" lon="6.0292">
        <ele>2008.1999511719</ele>
        <time>2015-08-24T09:24:46.000Z</time>
      </trkpt>
      <trkpt lat="45.2179" lon="6.02921">
        <ele>2008.5999755859</ele>
        <time>2015-08-24T09:24:48.000Z</time>
      </trkpt>
      <trkpt lat="45.21791" lon="6.02923">
        <ele>2009</ele>
        <time>2015-08-24T09:24:50.000Z</time>
      </trkpt>
      <trkpt lat="45.21791" lon="6.02925">
        <ele>2009.4000244141</ele>
        <time>2015-08-24T09:24:52.000Z</time>
      </trkpt>
      <trkpt lat="45.21792" lon="6.02927">
        <ele>2009.8000488281</ele>
        <time>2015-08-24T09:24:59.000Z</time>
      </trkpt>
      <trkpt lat="45.21794" lon="6.02929">
        <ele>2010.5999755859</ele>
        <time>2015-08-24T09:25:05.000Z</time>
      </trkpt>
      <trkpt lat="45.21796" lon="6.02933">
        <ele>2011.8000488281</ele>
        <time>2015-08-24T09:25:10.000Z</time>
      </trkpt>
      <trkpt lat="45.21797" lon="6.02933">
        <ele>2012.1999511719</ele>
        <time>2015-08-24T09:25:11.000Z</time>
      </trkpt>
      <trkpt lat="45.21799" lon="6.02936">
        <ele>2013.4000244141</ele>
        <time>2015-08-24T09:25:17.000Z</time>
      </trkpt>
      <trkpt lat="45.21803" lon="6.02942">
        <ele>2015.4000244141</ele>
        <time>2015-08-24T09:25:24.000Z</time>
      </trkpt>
      <trkpt lat="45.21803" lon="6.02948">
        <ele>2016</ele>
        <time>2015-08-24T09:25:30.000Z</time>
      </trkpt>
      <trkpt lat="45.21803" lon="6.02954">
        <ele>2017</ele>
        <time>2015-08-24T09:25:37.000Z</time>
      </trkpt>
      <trkpt lat="45.21802" lon="6.02958">
        <ele>2017.1999511719</ele>
        <time>2015-08-24T09:25:43.000Z</time>
      </trkpt>
      <trkpt lat="45.21802" lon="6.0296">
        <ele>2017.4000244141</ele>
        <time>2015-08-24T09:25:50.000Z</time>
      </trkpt>
      <trkpt lat="45.21802" lon="6.02965">
        <ele>2018</ele>
        <time>2015-08-24T09:25:58.000Z</time>
      </trkpt>
      <trkpt lat="45.21789" lon="6.02966">
        <ele>2014.1999511719</ele>
        <time>2015-08-24T09:26:15.000Z</time>
      </trkpt>
      <trkpt lat="45.21784" lon="6.02966">
        <ele>2013</ele>
        <time>2015-08-24T09:26:24.000Z</time>
      </trkpt>
      <trkpt lat="45.21783" lon="6.02969">
        <ele>2012.5999755859</ele>
        <time>2015-08-24T09:26:29.000Z</time>
      </trkpt>
      <trkpt lat="45.21782" lon="6.02975">
        <ele>2012.4000244141</ele>
        <time>2015-08-24T09:26:37.000Z</time>
      </trkpt>
      <trkpt lat="45.21784" lon="6.0298">
        <ele>2013</ele>
        <time>2015-08-24T09:26:44.000Z</time>
      </trkpt>
      <trkpt lat="45.21781" lon="6.02985">
        <ele>2012.4000244141</ele>
        <time>2015-08-24T09:26:50.000Z</time>
      </trkpt>
      <trkpt lat="45.21781" lon="6.02989">
        <ele>2012.8000488281</ele>
        <time>2015-08-24T09:26:56.000Z</time>
      </trkpt>
      <trkpt lat="45.21781" lon="6.02994">
        <ele>2013.1999511719</ele>
        <time>2015-08-24T09:27:01.000Z</time>
      </trkpt>
      <trkpt lat="45.2178" lon="6.03007">
        <ele>2013.8000488281</ele>
        <time>2015-08-24T09:27:08.000Z</time>
      </trkpt>
      <trkpt lat="45.21776" lon="6.03014">
        <ele>2013</ele>
        <time>2015-08-24T09:27:14.000Z</time>
      </trkpt>
      <trkpt lat="45.21776" lon="6.03015">
        <ele>2013</ele>
        <time>2015-08-24T09:27:15.000Z</time>
      </trkpt>
      <trkpt lat="45.21777" lon="6.03021">
        <ele>2013.8000488281</ele>
        <time>2015-08-24T09:27:19.000Z</time>
      </trkpt>
      <trkpt lat="45.21777" lon="6.03022">
        <ele>2013.8000488281</ele>
        <time>2015-08-24T09:27:21.000Z</time>
      </trkpt>
      <trkpt lat="45.21777" lon="6.03027">
        <ele>2014</ele>
        <time>2015-08-24T09:27:24.000Z</time>
      </trkpt>
      <trkpt lat="45.21776" lon="6.0303">
        <ele>2014</ele>
        <time>2015-08-24T09:27:27.000Z</time>
      </trkpt>
      <trkpt lat="45.21776" lon="6.03034">
        <ele>2014.4000244141</ele>
        <time>2015-08-24T09:27:31.000Z</time>
      </trkpt>
      <trkpt lat="45.21778" lon="6.0304">
        <ele>2015.1999511719</ele>
        <time>2015-08-24T09:27:36.000Z</time>
      </trkpt>
      <trkpt lat="45.21778" lon="6.03041">
        <ele>2015.4000244141</ele>
        <time>2015-08-24T09:27:37.000Z</time>
      </trkpt>
      <trkpt lat="45.2178" lon="6.0305">
        <ele>2016.5999755859</ele>
        <time>2015-08-24T09:27:46.000Z</time>
      </trkpt>
      <trkpt lat="45.21779" lon="6.03052">
        <ele>2016.1999511719</ele>
        <time>2015-08-24T09:27:52.000Z</time>
      </trkpt>
      <trkpt lat="45.21779" lon="6.03057">
        <ele>2016.4000244141</ele>
        <time>2015-08-24T09:27:58.000Z</time>
      </trkpt>
      <trkpt lat="45.21776" lon="6.03062">
        <ele>2015.4000244141</ele>
        <time>2015-08-24T09:28:03.000Z</time>
      </trkpt>
      <trkpt lat="45.21772" lon="6.03069">
        <ele>2013.8000488281</ele>
        <time>2015-08-24T09:28:10.000Z</time>
      </trkpt>
      <trkpt lat="45.21771" lon="6.0307">
        <ele>2013.5999755859</ele>
        <time>2015-08-24T09:28:12.000Z</time>
      </trkpt>
      <trkpt lat="45.2177" lon="6.03073">
        <ele>2013.4000244141</ele>
        <time>2015-08-24T09:28:15.000Z</time>
      </trkpt>
      <trkpt lat="45.2177" lon="6.03075">
        <ele>2013.1999511719</ele>
        <time>2015-08-24T09:28:16.000Z</time>
      </trkpt>
      <trkpt lat="45.21767" lon="6.03072">
        <ele>2011.8000488281</ele>
        <time>2015-08-24T09:28:21.000Z</time>
      </trkpt>
      <trkpt lat="45.21764" lon="6.03067">
        <ele>2010.5999755859</ele>
        <time>2015-08-24T09:28:27.000Z</time>
      </trkpt>
      <trkpt lat="45.21761" lon="6.03062">
        <ele>2009.4000244141</ele>
        <time>2015-08-24T09:28:32.000Z</time>
      </trkpt>
      <trkpt lat="45.21759" lon="6.03061">
        <ele>2008.8000488281</ele>
        <time>2015-08-24T09:28:34.000Z</time>
      </trkpt>
      <trkpt lat="45.21756" lon="6.03062">
        <ele>2007.4000244141</ele>
        <time>2015-08-24T09:28:40.000Z</time>
      </trkpt>
      <trkpt lat="45.21755" lon="6.03062">
        <ele>2007.1999511719</ele>
        <time>2015-08-24T09:28:41.000Z</time>
      </trkpt>
      <trkpt lat="45.21754" lon="6.03065">
        <ele>2006.8000488281</ele>
        <time>2015-08-24T09:28:45.000Z</time>
      </trkpt>
      <trkpt lat="45.21752" lon="6.03069">
        <ele>2006.1999511719</ele>
        <time>2015-08-24T09:28:48.000Z</time>
      </trkpt>
      <trkpt lat="45.2175" lon="6.03074">
        <ele>2005</ele>
        <time>2015-08-24T09:28:51.000Z</time>
      </trkpt>
      <trkpt lat="45.21749" lon="6.03076">
        <ele>2004.5999755859</ele>
        <time>2015-08-24T09:28:52.000Z</time>
      </trkpt>
      <trkpt lat="45.2174" lon="6.03078">
        <ele>2001.4000244141</ele>
        <time>2015-08-24T09:28:58.000Z</time>
      </trkpt>
      <trkpt lat="45.21733" lon="6.03079">
        <ele>1998.4000244141</ele>
        <time>2015-08-24T09:29:03.000Z</time>
      </trkpt>
      <trkpt lat="45.2173" lon="6.03078">
        <ele>1997.1999511719</ele>
        <time>2015-08-24T09:29:05.000Z</time>
      </trkpt>
      <trkpt lat="45.21728" lon="6.03076">
        <ele>1996.5999755859</ele>
        <time>2015-08-24T09:29:07.000Z</time>
      </trkpt>
      <trkpt lat="45.21727" lon="6.03075">
        <ele>1996.1999511719</ele>
        <time>2015-08-24T09:29:08.000Z</time>
      </trkpt>
      <trkpt lat="45.21725" lon="6.03078">
        <ele>1996</ele>
        <time>2015-08-24T09:29:12.000Z</time>
      </trkpt>
      <trkpt lat="45.21724" lon="6.03078">
        <ele>1995.4000244141</ele>
        <time>2015-08-24T09:29:14.000Z</time>
      </trkpt>
      <trkpt lat="45.21721" lon="6.03078">
        <ele>1994.4000244141</ele>
        <time>2015-08-24T09:29:17.000Z</time>
      </trkpt>
      <trkpt lat="45.21718" lon="6.03078">
        <ele>1993.5999755859</ele>
        <time>2015-08-24T09:29:20.000Z</time>
      </trkpt>
      <trkpt lat="45.21717" lon="6.03078">
        <ele>1993.1999511719</ele>
        <time>2015-08-24T09:29:22.000Z</time>
      </trkpt>
      <trkpt lat="45.21717" lon="6.03078">
        <ele>1993.1999511719</ele>
        <time>2015-08-24T09:29:24.000Z</time>
      </trkpt>
      <trkpt lat="45.21715" lon="6.0308">
        <ele>1992.8000488281</ele>
        <time>2015-08-24T09:29:32.000Z</time>
      </trkpt>
      <trkpt lat="45.21716" lon="6.03087">
        <ele>1993.5999755859</ele>
        <time>2015-08-24T09:29:34.000Z</time>
      </trkpt>
      <trkpt lat="45.21715" lon="6.03093">
        <ele>1993.8000488281</ele>
        <time>2015-08-24T09:29:38.000Z</time>
      </trkpt>
      <trkpt lat="45.21714" lon="6.03094">
        <ele>1993.8000488281</ele>
        <time>2015-08-24T09:29:39.000Z</time>
      </trkpt>
      <trkpt lat="45.21713" lon="6.03098">
        <ele>1993.5999755859</ele>
        <time>2015-08-24T09:29:46.000Z</time>
      </trkpt>
      <trkpt lat="45.2171" lon="6.03099">
        <ele>1992.5999755859</ele>
        <time>2015-08-24T09:29:53.000Z</time>
      </trkpt>
      <trkpt lat="45.21709" lon="6.03096">
        <ele>1992</ele>
        <time>2015-08-24T09:29:59.000Z</time>
      </trkpt>
      <trkpt lat="45.21708" lon="6.03093">
        <ele>1991.4000244141</ele>
        <time>2015-08-24T09:30:01.000Z</time>
      </trkpt>
      <trkpt lat="45.21706" lon="6.03088">
        <ele>1990.4000244141</ele>
        <time>2015-08-24T09:30:05.000Z</time>
      </trkpt>
      <trkpt lat="45.21706" lon="6.03088">
        <ele>1990.1999511719</ele>
        <time>2015-08-24T09:30:06.000Z</time>
      </trkpt>
      <trkpt lat="45.21704" lon="6.03086">
        <ele>1989.4000244141</ele>
        <time>2015-08-24T09:30:08.000Z</time>
      </trkpt>
      <trkpt lat="45.21701" lon="6.03085">
        <ele>1988.4000244141</ele>
        <time>2015-08-24T09:30:10.000Z</time>
      </trkpt>
      <trkpt lat="45.21699" lon="6.03086">
        <ele>1987.5999755859</ele>
        <time>2015-08-24T09:30:14.000Z</time>
      </trkpt>
      <trkpt lat="45.21696" lon="6.03087">
        <ele>1986.8000488281</ele>
        <time>2015-08-24T09:30:17.000Z</time>
      </trkpt>
      <trkpt lat="45.21696" lon="6.03087">
        <ele>1986.4000244141</ele>
        <time>2015-08-24T09:30:18.000Z</time>
      </trkpt>
      <trkpt lat="45.21695" lon="6.03084">
        <ele>1985.8000488281</ele>
        <time>2015-08-24T09:30:22.000Z</time>
      </trkpt>
      <trkpt lat="45.21691" lon="6.03078">
        <ele>1984.1999511719</ele>
        <time>2015-08-24T09:30:27.000Z</time>
      </trkpt>
      <trkpt lat="45.21691" lon="6.03077">
        <ele>1984</ele>
        <time>2015-08-24T09:30:28.000Z</time>
      </trkpt>
      <trkpt lat="45.21691" lon="6.03075">
        <ele>1984</ele>
        <time>2015-08-24T09:30:35.000Z</time>
      </trkpt>
      <trkpt lat="45.2169" lon="6.03072">
        <ele>1983</ele>
        <time>2015-08-24T09:30:43.000Z</time>
      </trkpt>
      <trkpt lat="45.21686" lon="6.03059">
        <ele>1980.5999755859</ele>
        <time>2015-08-24T09:30:46.000Z</time>
      </trkpt>
      <trkpt lat="45.21675" lon="6.03043">
        <ele>1978</ele>
        <time>2015-08-24T09:30:50.000Z</time>
      </trkpt>
      <trkpt lat="45.2167" lon="6.03039">
        <ele>1977</ele>
        <time>2015-08-24T09:30:54.000Z</time>
      </trkpt>
      <trkpt lat="45.21671" lon="6.03031">
        <ele>1977.8000488281</ele>
        <time>2015-08-24T09:30:59.000Z</time>
      </trkpt>
      <trkpt lat="45.21668" lon="6.03029">
        <ele>1977.1999511719</ele>
        <time>2015-08-24T09:31:05.000Z</time>
      </trkpt>
      <trkpt lat="45.21667" lon="6.03027">
        <ele>1976.8000488281</ele>
        <time>2015-08-24T09:31:11.000Z</time>
      </trkpt>
      <trkpt lat="45.21661" lon="6.03023">
        <ele>1975</ele>
        <time>2015-08-24T09:31:15.000Z</time>
      </trkpt>
      <trkpt lat="45.21656" lon="6.0302">
        <ele>1973.5999755859</ele>
        <time>2015-08-24T09:31:18.000Z</time>
      </trkpt>
      <trkpt lat="45.21655" lon="6.03018">
        <ele>1973.5999755859</ele>
        <time>2015-08-24T09:31:19.000Z</time>
      </trkpt>
      <trkpt lat="45.21654" lon="6.03017">
        <ele>1973.1999511719</ele>
        <time>2015-08-24T09:31:23.000Z</time>
      </trkpt>
      <trkpt lat="45.21649" lon="6.03011">
        <ele>1972</ele>
        <time>2015-08-24T09:31:31.000Z</time>
      </trkpt>
      <trkpt lat="45.21645" lon="6.03008">
        <ele>1971</ele>
        <time>2015-08-24T09:31:38.000Z</time>
      </trkpt>
      <trkpt lat="45.21644" lon="6.03008">
        <ele>1970.4000244141</ele>
        <time>2015-08-24T09:31:44.000Z</time>
      </trkpt>
      <trkpt lat="45.21644" lon="6.03013">
        <ele>1969.8000488281</ele>
        <time>2015-08-24T09:31:51.000Z</time>
      </trkpt>
      <trkpt lat="45.21641" lon="6.03018">
        <ele>1968.5999755859</ele>
        <time>2015-08-24T09:31:59.000Z</time>
      </trkpt>
      <trkpt lat="45.21641" lon="6.03026">
        <ele>1967.5999755859</ele>
        <time>2015-08-24T09:32:07.000Z</time>
      </trkpt>
      <trkpt lat="45.2164" lon="6.03032">
        <ele>1966.8000488281</ele>
        <time>2015-08-24T09:32:14.000Z</time>
      </trkpt>
      <trkpt lat="45.21637" lon="6.03032">
        <ele>1965.5999755859</ele>
        <time>2015-08-24T09:32:20.000Z</time>
      </trkpt>
      <trkpt lat="45.21634" lon="6.03029">
        <ele>1964.5999755859</ele>
        <time>2015-08-24T09:32:25.000Z</time>
      </trkpt>
      <trkpt lat="45.21629" lon="6.03027">
        <ele>1963.1999511719</ele>
        <time>2015-08-24T09:32:31.000Z</time>
      </trkpt>
      <trkpt lat="45.21628" lon="6.03025">
        <ele>1963.1999511719</ele>
        <time>2015-08-24T09:32:36.000Z</time>
      </trkpt>
      <trkpt lat="45.21632" lon="6.0303">
        <ele>1963.8000488281</ele>
        <time>2015-08-24T09:32:53.000Z</time>
      </trkpt>
      <trkpt lat="45.21628" lon="6.03037">
        <ele>1962</ele>
        <time>2015-08-24T09:33:00.000Z</time>
      </trkpt>
      <trkpt lat="45.21628" lon="6.03041">
        <ele>1961.5999755859</ele>
        <time>2015-08-24T09:33:06.000Z</time>
      </trkpt>
      <trkpt lat="45.21624" lon="6.03051">
        <ele>1960.1999511719</ele>
        <time>2015-08-24T09:33:10.000Z</time>
      </trkpt>
      <trkpt lat="45.21619" lon="6.03061">
        <ele>1956.8000488281</ele>
        <time>2015-08-24T09:33:16.000Z</time>
      </trkpt>
      <trkpt lat="45.21615" lon="6.0306">
        <ele>1955.4000244141</ele>
        <time>2015-08-24T09:33:22.000Z</time>
      </trkpt>
      <trkpt lat="45.21614" lon="6.03062">
        <ele>1955</ele>
        <time>2015-08-24T09:33:28.000Z</time>
      </trkpt>
      <trkpt lat="45.21613" lon="6.03065">
        <ele>1954.5999755859</ele>
        <time>2015-08-24T09:33:30.000Z</time>
      </trkpt>
      <trkpt lat="45.21607" lon="6.0307">
        <ele>1953</ele>
        <time>2015-08-24T09:33:32.000Z</time>
      </trkpt>
      <trkpt lat="45.21599" lon="6.03079">
        <ele>1950.5999755859</ele>
        <time>2015-08-24T09:33:36.000Z</time>
      </trkpt>
      <trkpt lat="45.21594" lon="6.03088">
        <ele>1949</ele>
        <time>2015-08-24T09:33:41.000Z</time>
      </trkpt>
      <trkpt lat="45.21594" lon="6.03088">
        <ele>1949</ele>
        <time>2015-08-24T09:33:42.000Z</time>
      </trkpt>
      <trkpt lat="45.21593" lon="6.03093">
        <ele>1948.8000488281</ele>
        <time>2015-08-24T09:33:48.000Z</time>
      </trkpt>
      <trkpt lat="45.21591" lon="6.03095">
        <ele>1948.4000244141</ele>
        <time>2015-08-24T09:33:53.000Z</time>
      </trkpt>
      <trkpt lat="45.21591" lon="6.031">
        <ele>1948.4000244141</ele>
        <time>2015-08-24T09:33:59.000Z</time>
      </trkpt>
      <trkpt lat="45.2159" lon="6.03114">
        <ele>1946.8000488281</ele>
        <time>2015-08-24T09:34:04.000Z</time>
      </trkpt>
      <trkpt lat="45.21592" lon="6.03121">
        <ele>1946.8000488281</ele>
        <time>2015-08-24T09:34:09.000Z</time>
      </trkpt>
      <trkpt lat="45.21593" lon="6.03122">
        <ele>1947</ele>
        <time>2015-08-24T09:34:10.000Z</time>
      </trkpt>
      <trkpt lat="45.21593" lon="6.03124">
        <ele>1947.1999511719</ele>
        <time>2015-08-24T09:34:12.000Z</time>
      </trkpt>
      <trkpt lat="45.21594" lon="6.03125">
        <ele>1947.4000244141</ele>
        <time>2015-08-24T09:34:15.000Z</time>
      </trkpt>
      <trkpt lat="45.21594" lon="6.03128">
        <ele>1947</ele>
        <time>2015-08-24T09:34:20.000Z</time>
      </trkpt>
      <trkpt lat="45.21599" lon="6.03138">
        <ele>1948.1999511719</ele>
        <time>2015-08-24T09:34:24.000Z</time>
      </trkpt>
      <trkpt lat="45.21603" lon="6.03145">
        <ele>1950</ele>
        <time>2015-08-24T09:34:29.000Z</time>
      </trkpt>
      <trkpt lat="45.21604" lon="6.03146">
        <ele>1950.4000244141</ele>
        <time>2015-08-24T09:34:30.000Z</time>
      </trkpt>
      <trkpt lat="45.21607" lon="6.0315">
        <ele>1952</ele>
        <time>2015-08-24T09:34:34.000Z</time>
      </trkpt>
      <trkpt lat="45.21611" lon="6.03154">
        <ele>1954</ele>
        <time>2015-08-24T09:34:39.000Z</time>
      </trkpt>
      <trkpt lat="45.21612" lon="6.03154">
        <ele>1954.5999755859</ele>
        <time>2015-08-24T09:34:44.000Z</time>
      </trkpt>
      <trkpt lat="45.21614" lon="6.03157">
        <ele>1956</ele>
        <time>2015-08-24T09:34:52.000Z</time>
      </trkpt>
      <trkpt lat="45.21618" lon="6.03165">
        <ele>1958.1999511719</ele>
        <time>2015-08-24T09:35:01.000Z</time>
      </trkpt>
      <trkpt lat="45.21619" lon="6.03171">
        <ele>1959</ele>
        <time>2015-08-24T09:35:09.000Z</time>
      </trkpt>
      <trkpt lat="45.21616" lon="6.03176">
        <ele>1957.1999511719</ele>
        <time>2015-08-24T09:35:14.000Z</time>
      </trkpt>
      <trkpt lat="45.21617" lon="6.03179">
        <ele>1957.8000488281</ele>
        <time>2015-08-24T09:35:17.000Z</time>
      </trkpt>
      <trkpt lat="45.21617" lon="6.03181">
        <ele>1958.1999511719</ele>
        <time>2015-08-24T09:35:18.000Z</time>
      </trkpt>
      <trkpt lat="45.21618" lon="6.03183">
        <ele>1958.4000244141</ele>
        <time>2015-08-24T09:35:20.000Z</time>
      </trkpt>
      <trkpt lat="45.21616" lon="6.03184">
        <ele>1957.5999755859</ele>
        <time>2015-08-24T09:35:24.000Z</time>
      </trkpt>
      <trkpt lat="45.21614" lon="6.03191">
        <ele>1956.5999755859</ele>
        <time>2015-08-24T09:35:32.000Z</time>
      </trkpt>
      <trkpt lat="45.21616" lon="6.03196">
        <ele>1957.5999755859</ele>
        <time>2015-08-24T09:35:39.000Z</time>
      </trkpt>
      <trkpt lat="45.21616" lon="6.03203">
        <ele>1957.8000488281</ele>
        <time>2015-08-24T09:35:44.000Z</time>
      </trkpt>
      <trkpt lat="45.21616" lon="6.03205">
        <ele>1957.8000488281</ele>
        <time>2015-08-24T09:35:46.000Z</time>
      </trkpt>
      <trkpt lat="45.21614" lon="6.03206">
        <ele>1957</ele>
        <time>2015-08-24T09:35:48.000Z</time>
      </trkpt>
      <trkpt lat="45.21613" lon="6.03208">
        <ele>1956.5999755859</ele>
        <time>2015-08-24T09:35:51.000Z</time>
      </trkpt>
      <trkpt lat="45.21612" lon="6.03215">
        <ele>1954.8000488281</ele>
        <time>2015-08-24T09:36:00.000Z</time>
      </trkpt>
      <trkpt lat="45.21609" lon="6.03221">
        <ele>1952.1999511719</ele>
        <time>2015-08-24T09:36:07.000Z</time>
      </trkpt>
      <trkpt lat="45.21605" lon="6.0323">
        <ele>1948</ele>
        <time>2015-08-24T09:36:15.000Z</time>
      </trkpt>
      <trkpt lat="45.21602" lon="6.03235">
        <ele>1945.8000488281</ele>
        <time>2015-08-24T09:36:20.000Z</time>
      </trkpt>
      <trkpt lat="45.21601" lon="6.03233">
        <ele>1945</ele>
        <time>2015-08-24T09:36:22.000Z</time>
      </trkpt>
      <trkpt lat="45.216" lon="6.03229">
        <ele>1944.5999755859</ele>
        <time>2015-08-24T09:36:25.000Z</time>
      </trkpt>
      <trkpt lat="45.21598" lon="6.03227">
        <ele>1943.4000244141</ele>
        <time>2015-08-24T09:36:28.000Z</time>
      </trkpt>
      <trkpt lat="45.21597" lon="6.03228">
        <ele>1942.1999511719</ele>
        <time>2015-08-24T09:36:31.000Z</time>
      </trkpt>
      <trkpt lat="45.21596" lon="6.03229">
        <ele>1941.8000488281</ele>
        <time>2015-08-24T09:36:32.000Z</time>
      </trkpt>
      <trkpt lat="45.21596" lon="6.03231">
        <ele>1941.1999511719</ele>
        <time>2015-08-24T09:36:34.000Z</time>
      </trkpt>
      <trkpt lat="45.21592" lon="6.03237">
        <ele>1938.4000244141</ele>
        <time>2015-08-24T09:36:42.000Z</time>
      </trkpt>
      <trkpt lat="45.21589" lon="6.03243">
        <ele>1936</ele>
        <time>2015-08-24T09:36:47.000Z</time>
      </trkpt>
      <trkpt lat="45.21588" lon="6.03246">
        <ele>1934.8000488281</ele>
        <time>2015-08-24T09:36:50.000Z</time>
      </trkpt>
      <trkpt lat="45.21586" lon="6.03251">
        <ele>1933</ele>
        <time>2015-08-24T09:36:53.000Z</time>
      </trkpt>
      <trkpt lat="45.21584" lon="6.03252">
        <ele>1932.1999511719</ele>
        <time>2015-08-24T09:36:58.000Z</time>
      </trkpt>
      <trkpt lat="45.21582" lon="6.0326">
        <ele>1930</ele>
        <time>2015-08-24T09:37:04.000Z</time>
      </trkpt>
      <trkpt lat="45.21582" lon="6.0328">
        <ele>1929.4000244141</ele>
        <time>2015-08-24T09:37:09.000Z</time>
      </trkpt>
      <trkpt lat="45.21583" lon="6.03286">
        <ele>1930</ele>
        <time>2015-08-24T09:37:13.000Z</time>
      </trkpt>
      <trkpt lat="45.21579" lon="6.03289">
        <ele>1927.5999755859</ele>
        <time>2015-08-24T09:37:20.000Z</time>
      </trkpt>
      <trkpt lat="45.21577" lon="6.03295">
        <ele>1926</ele>
        <time>2015-08-24T09:37:27.000Z</time>
      </trkpt>
      <trkpt lat="45.21575" lon="6.033">
        <ele>1924.4000244141</ele>
        <time>2015-08-24T09:37:33.000Z</time>
      </trkpt>
      <trkpt lat="45.21573" lon="6.03306">
        <ele>1923.5999755859</ele>
        <time>2015-08-24T09:37:39.000Z</time>
      </trkpt>
      <trkpt lat="45.21574" lon="6.03314">
        <ele>1923</ele>
        <time>2015-08-24T09:37:46.000Z</time>
      </trkpt>
      <trkpt lat="45.21573" lon="6.03322">
        <ele>1921.1999511719</ele>
        <time>2015-08-24T09:37:54.000Z</time>
      </trkpt>
      <trkpt lat="45.21571" lon="6.03328">
        <ele>1918.1999511719</ele>
        <time>2015-08-24T09:38:02.000Z</time>
      </trkpt>
      <trkpt lat="45.21572" lon="6.03332">
        <ele>1918.8000488281</ele>
        <time>2015-08-24T09:38:09.000Z</time>
      </trkpt>
      <trkpt lat="45.21572" lon="6.03343">
        <ele>1917.8000488281</ele>
        <time>2015-08-24T09:38:13.000Z</time>
      </trkpt>
      <trkpt lat="45.21571" lon="6.03356">
        <ele>1917.4000244141</ele>
        <time>2015-08-24T09:38:18.000Z</time>
      </trkpt>
      <trkpt lat="45.21567" lon="6.03374">
        <ele>1915.1999511719</ele>
        <time>2015-08-24T09:38:23.000Z</time>
      </trkpt>
      <trkpt lat="45.21563" lon="6.03381">
        <ele>1913.4000244141</ele>
        <time>2015-08-24T09:38:27.000Z</time>
      </trkpt>
      <trkpt lat="45.2156" lon="6.03383">
        <ele>1912.1999511719</ele>
        <time>2015-08-24T09:38:33.000Z</time>
      </trkpt>
      <trkpt lat="45.21558" lon="6.03389">
        <ele>1911</ele>
        <time>2015-08-24T09:38:38.000Z</time>
      </trkpt>
      <trkpt lat="45.21557" lon="6.0339">
        <ele>1910.5999755859</ele>
        <time>2015-08-24T09:38:40.000Z</time>
      </trkpt>
      <trkpt lat="45.21556" lon="6.03391">
        <ele>1910</ele>
        <time>2015-08-24T09:38:42.000Z</time>
      </trkpt>
      <trkpt lat="45.21548" lon="6.03397">
        <ele>1905.5999755859</ele>
        <time>2015-08-24T09:38:49.000Z</time>
      </trkpt>
      <trkpt lat="45.21547" lon="6.03397">
        <ele>1905</ele>
        <time>2015-08-24T09:38:51.000Z</time>
      </trkpt>
      <trkpt lat="45.21544" lon="6.03397">
        <ele>1904</ele>
        <time>2015-08-24T09:38:54.000Z</time>
      </trkpt>
      <trkpt lat="45.21537" lon="6.03403">
        <ele>1899.1999511719</ele>
        <time>2015-08-24T09:39:01.000Z</time>
      </trkpt>
      <trkpt lat="45.2153" lon="6.03411">
        <ele>1894.4000244141</ele>
        <time>2015-08-24T09:39:07.000Z</time>
      </trkpt>
      <trkpt lat="45.21526" lon="6.0342">
        <ele>1891.1999511719</ele>
        <time>2015-08-24T09:39:15.000Z</time>
      </trkpt>
      <trkpt lat="45.21523" lon="6.03425">
        <ele>1889.1999511719</ele>
        <time>2015-08-24T09:39:20.000Z</time>
      </trkpt>
      <trkpt lat="45.21522" lon="6.03426">
        <ele>1888.5999755859</ele>
        <time>2015-08-24T09:39:22.000Z</time>
      </trkpt>
      <trkpt lat="45.21521" lon="6.03431">
        <ele>1887.4000244141</ele>
        <time>2015-08-24T09:39:26.000Z</time>
      </trkpt>
      <trkpt lat="45.21518" lon="6.03436">
        <ele>1885.1999511719</ele>
        <time>2015-08-24T09:39:30.000Z</time>
      </trkpt>
      <trkpt lat="45.21512" lon="6.03445">
        <ele>1881.5999755859</ele>
        <time>2015-08-24T09:39:37.000Z</time>
      </trkpt>
      <trkpt lat="45.21507" lon="6.03458">
        <ele>1880.4000244141</ele>
        <time>2015-08-24T09:39:46.000Z</time>
      </trkpt>
      <trkpt lat="45.21503" lon="6.03465">
        <ele>1879.4000244141</ele>
        <time>2015-08-24T09:39:51.000Z</time>
      </trkpt>
      <trkpt lat="45.21501" lon="6.03468">
        <ele>1878.5999755859</ele>
        <time>2015-08-24T09:39:53.000Z</time>
      </trkpt>
      <trkpt lat="45.21498" lon="6.03477">
        <ele>1877.4000244141</ele>
        <time>2015-08-24T09:40:00.000Z</time>
      </trkpt>
      <trkpt lat="45.21492" lon="6.03493">
        <ele>1870.8000488281</ele>
        <time>2015-08-24T09:40:09.000Z</time>
      </trkpt>
      <trkpt lat="45.2149" lon="6.03505">
        <ele>1866.4000244141</ele>
        <time>2015-08-24T09:40:16.000Z</time>
      </trkpt>
      <trkpt lat="45.21491" lon="6.03512">
        <ele>1865.8000488281</ele>
        <time>2015-08-24T09:40:22.000Z</time>
      </trkpt>
      <trkpt lat="45.21488" lon="6.0352">
        <ele>1863.8000488281</ele>
        <time>2015-08-24T09:40:28.000Z</time>
      </trkpt>
      <trkpt lat="45.21488" lon="6.03521">
        <ele>1863.4000244141</ele>
        <time>2015-08-24T09:40:29.000Z</time>
      </trkpt>
      <trkpt lat="45.21485" lon="6.03532">
        <ele>1860.8000488281</ele>
        <time>2015-08-24T09:40:37.000Z</time>
      </trkpt>
      <trkpt lat="45.21482" lon="6.03542">
        <ele>1858.4000244141</ele>
        <time>2015-08-24T09:40:46.000Z</time>
      </trkpt>
      <trkpt lat="45.2148" lon="6.03545">
        <ele>1857.1999511719</ele>
        <time>2015-08-24T09:40:49.000Z</time>
      </trkpt>
      <trkpt lat="45.21479" lon="6.03551">
        <ele>1856.1999511719</ele>
        <time>2015-08-24T09:40:52.000Z</time>
      </trkpt>
      <trkpt lat="45.21477" lon="6.03556">
        <ele>1854.5999755859</ele>
        <time>2015-08-24T09:40:57.000Z</time>
      </trkpt>
      <trkpt lat="45.21475" lon="6.03554">
        <ele>1854.4000244141</ele>
        <time>2015-08-24T09:40:59.000Z</time>
      </trkpt>
      <trkpt lat="45.21472" lon="6.03548">
        <ele>1854.1999511719</ele>
        <time>2015-08-24T09:41:03.000Z</time>
      </trkpt>
      <trkpt lat="45.2147" lon="6.03544">
        <ele>1854</ele>
        <time>2015-08-24T09:41:05.000Z</time>
      </trkpt>
      <trkpt lat="45.21465" lon="6.03533">
        <ele>1853.8000488281</ele>
        <time>2015-08-24T09:41:12.000Z</time>
      </trkpt>
      <trkpt lat="45.21465" lon="6.03533">
        <ele>1853.8000488281</ele>
        <time>2015-08-24T09:41:16.000Z</time>
      </trkpt>
      <trkpt lat="45.21465" lon="6.03534">
        <ele>1853.4000244141</ele>
        <time>2015-08-24T09:41:17.000Z</time>
      </trkpt>
      <trkpt lat="45.21463" lon="6.03544">
        <ele>1851.5999755859</ele>
        <time>2015-08-24T09:41:23.000Z</time>
      </trkpt>
      <trkpt lat="45.2146" lon="6.03549">
        <ele>1849.4000244141</ele>
        <time>2015-08-24T09:41:27.000Z</time>
      </trkpt>
      <trkpt lat="45.21459" lon="6.0355">
        <ele>1848.8000488281</ele>
        <time>2015-08-24T09:41:28.000Z</time>
      </trkpt>
      <trkpt lat="45.21455" lon="6.03557">
        <ele>1846.1999511719</ele>
        <time>2015-08-24T09:41:34.000Z</time>
      </trkpt>
      <trkpt lat="45.21451" lon="6.0356">
        <ele>1843.8000488281</ele>
        <time>2015-08-24T09:41:39.000Z</time>
      </trkpt>
      <trkpt lat="45.21451" lon="6.0356">
        <ele>1843.5999755859</ele>
        <time>2015-08-24T09:41:40.000Z</time>
      </trkpt>
      <trkpt lat="45.2145" lon="6.03563">
        <ele>1842.5999755859</ele>
        <time>2015-08-24T09:41:48.000Z</time>
      </trkpt>
      <trkpt lat="45.21451" lon="6.03576">
        <ele>1839.8000488281</ele>
        <time>2015-08-24T09:41:52.000Z</time>
      </trkpt>
      <trkpt lat="45.21451" lon="6.03578">
        <ele>1838.8000488281</ele>
        <time>2015-08-24T09:41:54.000Z</time>
      </trkpt>
      <trkpt lat="45.2145" lon="6.03578">
        <ele>1838.4000244141</ele>
        <time>2015-08-24T09:41:56.000Z</time>
      </trkpt>
      <trkpt lat="45.21449" lon="6.03574">
        <ele>1838.8000488281</ele>
        <time>2015-08-24T09:42:01.000Z</time>
      </trkpt>
      <trkpt lat="45.2144" lon="6.0356">
        <ele>1839</ele>
        <time>2015-08-24T09:42:06.000Z</time>
      </trkpt>
      <trkpt lat="45.21438" lon="6.03559">
        <ele>1838.5999755859</ele>
        <time>2015-08-24T09:42:08.000Z</time>
      </trkpt>
      <trkpt lat="45.21435" lon="6.03563">
        <ele>1836.1999511719</ele>
        <time>2015-08-24T09:42:10.000Z</time>
      </trkpt>
      <trkpt lat="45.21435" lon="6.03574">
        <ele>1833</ele>
        <time>2015-08-24T09:42:14.000Z</time>
      </trkpt>
      <trkpt lat="45.21435" lon="6.0358">
        <ele>1831.4000244141</ele>
        <time>2015-08-24T09:42:16.000Z</time>
      </trkpt>
      <trkpt lat="45.21436" lon="6.03584">
        <ele>1830.5999755859</ele>
        <time>2015-08-24T09:42:20.000Z</time>
      </trkpt>
      <trkpt lat="45.21436" lon="6.03585">
        <ele>1830</ele>
        <time>2015-08-24T09:42:21.000Z</time>
      </trkpt>
      <trkpt lat="45.21434" lon="6.0359">
        <ele>1828.1999511719</ele>
        <time>2015-08-24T09:42:25.000Z</time>
      </trkpt>
      <trkpt lat="45.21433" lon="6.03591">
        <ele>1827.4000244141</ele>
        <time>2015-08-24T09:42:33.000Z</time>
      </trkpt>
      <trkpt lat="45.21431" lon="6.03597">
        <ele>1824.5999755859</ele>
        <time>2015-08-24T09:42:39.000Z</time>
      </trkpt>
      <trkpt lat="45.21431" lon="6.03601">
        <ele>1823.4000244141</ele>
        <time>2015-08-24T09:42:47.000Z</time>
      </trkpt>
      <trkpt lat="45.21428" lon="6.03611">
        <ele>1819.8000488281</ele>
        <time>2015-08-24T09:42:52.000Z</time>
      </trkpt>
      <trkpt lat="45.21422" lon="6.03626">
        <ele>1816</ele>
        <time>2015-08-24T09:42:56.000Z</time>
      </trkpt>
      <trkpt lat="45.21417" lon="6.03645">
        <ele>1812</ele>
        <time>2015-08-24T09:43:01.000Z</time>
      </trkpt>
      <trkpt lat="45.21413" lon="6.03662">
        <ele>1806.1999511719</ele>
        <time>2015-08-24T09:43:07.000Z</time>
      </trkpt>
      <trkpt lat="45.21413" lon="6.03674">
        <ele>1803.1999511719</ele>
        <time>2015-08-24T09:43:13.000Z</time>
      </trkpt>
      <trkpt lat="45.21417" lon="6.03688">
        <ele>1800.5999755859</ele>
        <time>2015-08-24T09:43:19.000Z</time>
      </trkpt>
      <trkpt lat="45.21419" lon="6.03695">
        <ele>1799</ele>
        <time>2015-08-24T09:43:25.000Z</time>
      </trkpt>
      <trkpt lat="45.21419" lon="6.03695">
        <ele>1799</ele>
        <time>2015-08-24T09:43:26.000Z</time>
      </trkpt>
      <trkpt lat="45.21417" lon="6.03698">
        <ele>1797.5999755859</ele>
        <time>2015-08-24T09:43:31.000Z</time>
      </trkpt>
      <trkpt lat="45.21419" lon="6.037">
        <ele>1797.5999755859</ele>
        <time>2015-08-24T09:43:38.000Z</time>
      </trkpt>
      <trkpt lat="45.2142" lon="6.03702">
        <ele>1797.1999511719</ele>
        <time>2015-08-24T09:43:44.000Z</time>
      </trkpt>
      <trkpt lat="45.21431" lon="6.03709">
        <ele>1798.8000488281</ele>
        <time>2015-08-24T09:43:55.000Z</time>
      </trkpt>
      <trkpt lat="45.21441" lon="6.03717">
        <ele>1799.5999755859</ele>
        <time>2015-08-24T09:44:00.000Z</time>
      </trkpt>
      <trkpt lat="45.21447" lon="6.03726">
        <ele>1798.5999755859</ele>
        <time>2015-08-24T09:44:05.000Z</time>
      </trkpt>
      <trkpt lat="45.21457" lon="6.03737">
        <ele>1797.1999511719</ele>
        <time>2015-08-24T09:44:11.000Z</time>
      </trkpt>
      <trkpt lat="45.21461" lon="6.03738">
        <ele>1798</ele>
        <time>2015-08-24T09:44:14.000Z</time>
      </trkpt>
      <trkpt lat="45.21463" lon="6.03743">
        <ele>1797.1999511719</ele>
        <time>2015-08-24T09:44:16.000Z</time>
      </trkpt>
      <trkpt lat="45.21473" lon="6.03759">
        <ele>1794.1999511719</ele>
        <time>2015-08-24T09:44:21.000Z</time>
      </trkpt>
      <trkpt lat="45.21479" lon="6.03766">
        <ele>1793</ele>
        <time>2015-08-24T09:44:24.000Z</time>
      </trkpt>
      <trkpt lat="45.2148" lon="6.03769">
        <ele>1792.5999755859</ele>
        <time>2015-08-24T09:44:26.000Z</time>
      </trkpt>
      <trkpt lat="45.21479" lon="6.03772">
        <ele>1791.1999511719</ele>
        <time>2015-08-24T09:44:31.000Z</time>
      </trkpt>
      <trkpt lat="45.21484" lon="6.03781">
        <ele>1789.1999511719</ele>
        <time>2015-08-24T09:44:45.000Z</time>
      </trkpt>
      <trkpt lat="45.21485" lon="6.03784">
        <ele>1788.1999511719</ele>
        <time>2015-08-24T09:44:49.000Z</time>
      </trkpt>
      <trkpt lat="45.21485" lon="6.03786">
        <ele>1787.8000488281</ele>
        <time>2015-08-24T09:44:50.000Z</time>
      </trkpt>
      <trkpt lat="45.21488" lon="6.03791">
        <ele>1786.8000488281</ele>
        <time>2015-08-24T09:44:56.000Z</time>
      </trkpt>
      <trkpt lat="45.21491" lon="6.03793">
        <ele>1786.8000488281</ele>
        <time>2015-08-24T09:45:00.000Z</time>
      </trkpt>
      <trkpt lat="45.21495" lon="6.03798">
        <ele>1786.4000244141</ele>
        <time>2015-08-24T09:45:05.000Z</time>
      </trkpt>
      <trkpt lat="45.21497" lon="6.03798">
        <ele>1786.5999755859</ele>
        <time>2015-08-24T09:45:07.000Z</time>
      </trkpt>
      <trkpt lat="45.21499" lon="6.03801">
        <ele>1786</ele>
        <time>2015-08-24T09:45:10.000Z</time>
      </trkpt>
      <trkpt lat="45.21499" lon="6.03802">
        <ele>1785.5999755859</ele>
        <time>2015-08-24T09:45:12.000Z</time>
      </trkpt>
      <trkpt lat="45.21496" lon="6.03804">
        <ele>1784.1999511719</ele>
        <time>2015-08-24T09:45:17.000Z</time>
      </trkpt>
      <trkpt lat="45.21497" lon="6.03807">
        <ele>1783.5999755859</ele>
        <time>2015-08-24T09:45:23.000Z</time>
      </trkpt>
      <trkpt lat="45.21498" lon="6.03814">
        <ele>1781.5999755859</ele>
        <time>2015-08-24T09:45:31.000Z</time>
      </trkpt>
      <trkpt lat="45.21501" lon="6.03822">
        <ele>1780</ele>
        <time>2015-08-24T09:45:37.000Z</time>
      </trkpt>
      <trkpt lat="45.21501" lon="6.03825">
        <ele>1779.1999511719</ele>
        <time>2015-08-24T09:45:40.000Z</time>
      </trkpt>
      <trkpt lat="45.21502" lon="6.03827">
        <ele>1779</ele>
        <time>2015-08-24T09:45:43.000Z</time>
      </trkpt>
      <trkpt lat="45.21503" lon="6.03827">
        <ele>1779</ele>
        <time>2015-08-24T09:45:44.000Z</time>
      </trkpt>
      <trkpt lat="45.21507" lon="6.03831">
        <ele>1779</ele>
        <time>2015-08-24T09:45:48.000Z</time>
      </trkpt>
      <trkpt lat="45.21508" lon="6.03832">
        <ele>1779</ele>
        <time>2015-08-24T09:45:49.000Z</time>
      </trkpt>
      <trkpt lat="45.21512" lon="6.0384">
        <ele>1778</ele>
        <time>2015-08-24T09:45:56.000Z</time>
      </trkpt>
      <trkpt lat="45.21516" lon="6.03846">
        <ele>1777.1999511719</ele>
        <time>2015-08-24T09:46:02.000Z</time>
      </trkpt>
      <trkpt lat="45.21521" lon="6.03849">
        <ele>1778</ele>
        <time>2015-08-24T09:46:06.000Z</time>
      </trkpt>
      <trkpt lat="45.21524" lon="6.03849">
        <ele>1778.5999755859</ele>
        <time>2015-08-24T09:46:09.000Z</time>
      </trkpt>
      <trkpt lat="45.21525" lon="6.0385">
        <ele>1778.5999755859</ele>
        <time>2015-08-24T09:46:10.000Z</time>
      </trkpt>
      <trkpt lat="45.21526" lon="6.0385">
        <ele>1778.8000488281</ele>
        <time>2015-08-24T09:46:12.000Z</time>
      </trkpt>
      <trkpt lat="45.21529" lon="6.03854">
        <ele>1778.4000244141</ele>
        <time>2015-08-24T09:46:15.000Z</time>
      </trkpt>
      <trkpt lat="45.21529" lon="6.03858">
        <ele>1777.4000244141</ele>
        <time>2015-08-24T09:46:18.000Z</time>
      </trkpt>
      <trkpt lat="45.21532" lon="6.03862">
        <ele>1777</ele>
        <time>2015-08-24T09:46:22.000Z</time>
      </trkpt>
      <trkpt lat="45.21534" lon="6.03867">
        <ele>1776.1999511719</ele>
        <time>2015-08-24T09:46:28.000Z</time>
      </trkpt>
      <trkpt lat="45.21542" lon="6.0388">
        <ele>1774.5999755859</ele>
        <time>2015-08-24T09:46:32.000Z</time>
      </trkpt>
      <trkpt lat="45.21546" lon="6.03886">
        <ele>1773.8000488281</ele>
        <time>2015-08-24T09:46:36.000Z</time>
      </trkpt>
      <trkpt lat="45.2155" lon="6.03896">
        <ele>1770</ele>
        <time>2015-08-24T09:46:43.000Z</time>
      </trkpt>
      <trkpt lat="45.21551" lon="6.03899">
        <ele>1769</ele>
        <time>2015-08-24T09:46:50.000Z</time>
      </trkpt>
      <trkpt lat="45.21551" lon="6.03906">
        <ele>1766.4000244141</ele>
        <time>2015-08-24T09:46:57.000Z</time>
      </trkpt>
      <trkpt lat="45.2155" lon="6.03906">
        <ele>1766.1999511719</ele>
        <time>2015-08-24T09:46:58.000Z</time>
      </trkpt>
      <trkpt lat="45.21543" lon="6.03907">
        <ele>1765.8000488281</ele>
        <time>2015-08-24T09:47:05.000Z</time>
      </trkpt>
      <trkpt lat="45.21538" lon="6.03902">
        <ele>1765.8000488281</ele>
        <time>2015-08-24T09:47:12.000Z</time>
      </trkpt>
      <trkpt lat="45.21535" lon="6.03903">
        <ele>1764.4000244141</ele>
        <time>2015-08-24T09:47:17.000Z</time>
      </trkpt>
      <trkpt lat="45.21536" lon="6.0391">
        <ele>1762</ele>
        <time>2015-08-24T09:47:23.000Z</time>
      </trkpt>
      <trkpt lat="45.21537" lon="6.03911">
        <ele>1761.8000488281</ele>
        <time>2015-08-24T09:47:24.000Z</time>
      </trkpt>
      <trkpt lat="45.21539" lon="6.03916">
        <ele>1760.8000488281</ele>
        <time>2015-08-24T09:47:29.000Z</time>
      </trkpt>
      <trkpt lat="45.2154" lon="6.03919">
        <ele>1760</ele>
        <time>2015-08-24T09:47:34.000Z</time>
      </trkpt>
      <trkpt lat="45.21545" lon="6.0392">
        <ele>1761</ele>
        <time>2015-08-24T09:47:39.000Z</time>
      </trkpt>
      <trkpt lat="45.21547" lon="6.03922">
        <ele>1760.5999755859</ele>
        <time>2015-08-24T09:47:41.000Z</time>
      </trkpt>
      <trkpt lat="45.21549" lon="6.03925">
        <ele>1759</ele>
        <time>2015-08-24T09:47:46.000Z</time>
      </trkpt>
      <trkpt lat="45.2155" lon="6.0393">
        <ele>1757.1999511719</ele>
        <time>2015-08-24T09:47:50.000Z</time>
      </trkpt>
      <trkpt lat="45.21551" lon="6.03933">
        <ele>1755.8000488281</ele>
        <time>2015-08-24T09:47:52.000Z</time>
      </trkpt>
      <trkpt lat="45.21552" lon="6.03935">
        <ele>1755</ele>
        <time>2015-08-24T09:47:53.000Z</time>
      </trkpt>
      <trkpt lat="45.21556" lon="6.03937">
        <ele>1754</ele>
        <time>2015-08-24T09:47:57.000Z</time>
      </trkpt>
      <trkpt lat="45.21557" lon="6.03937">
        <ele>1753.5999755859</ele>
        <time>2015-08-24T09:47:58.000Z</time>
      </trkpt>
      <trkpt lat="45.21564" lon="6.03939">
        <ele>1752.1999511719</ele>
        <time>2015-08-24T09:48:05.000Z</time>
      </trkpt>
      <trkpt lat="45.21569" lon="6.03938">
        <ele>1752.1999511719</ele>
        <time>2015-08-24T09:48:12.000Z</time>
      </trkpt>
      <trkpt lat="45.21572" lon="6.03939">
        <ele>1751.4000244141</ele>
        <time>2015-08-24T09:48:17.000Z</time>
      </trkpt>
      <trkpt lat="45.21575" lon="6.03939">
        <ele>1751.1999511719</ele>
        <time>2015-08-24T09:48:18.000Z</time>
      </trkpt>
      <trkpt lat="45.21584" lon="6.03942">
        <ele>1749.4000244141</ele>
        <time>2015-08-24T09:48:22.000Z</time>
      </trkpt>
      <trkpt lat="45.21587" lon="6.03945">
        <ele>1748</ele>
        <time>2015-08-24T09:48:24.000Z</time>
      </trkpt>
      <trkpt lat="45.21588" lon="6.03947">
        <ele>1746.8000488281</ele>
        <time>2015-08-24T09:48:25.000Z</time>
      </trkpt>
      <trkpt lat="45.21592" lon="6.03956">
        <ele>1743</ele>
        <time>2015-08-24T09:48:29.000Z</time>
      </trkpt>
      <trkpt lat="45.21594" lon="6.03963">
        <ele>1740.1999511719</ele>
        <time>2015-08-24T09:48:34.000Z</time>
      </trkpt>
      <trkpt lat="45.21587" lon="6.03968">
        <ele>1739</ele>
        <time>2015-08-24T09:48:38.000Z</time>
      </trkpt>
      <trkpt lat="45.21587" lon="6.03969">
        <ele>1738.4000244141</ele>
        <time>2015-08-24T09:48:39.000Z</time>
      </trkpt>
      <trkpt lat="45.21586" lon="6.03976">
        <ele>1736</ele>
        <time>2015-08-24T09:48:42.000Z</time>
      </trkpt>
      <trkpt lat="45.21585" lon="6.0398">
        <ele>1734.5999755859</ele>
        <time>2015-08-24T09:48:46.000Z</time>
      </trkpt>
      <trkpt lat="45.21584" lon="6.03982">
        <ele>1733.8000488281</ele>
        <time>2015-08-24T09:48:56.000Z</time>
      </trkpt>
      <trkpt lat="45.2158" lon="6.03984">
        <ele>1733.1999511719</ele>
        <time>2015-08-24T09:49:02.000Z</time>
      </trkpt>
      <trkpt lat="45.21579" lon="6.03989">
        <ele>1731.1999511719</ele>
        <time>2015-08-24T09:49:09.000Z</time>
      </trkpt>
      <trkpt lat="45.2158" lon="6.03991">
        <ele>1730.4000244141</ele>
        <time>2015-08-24T09:49:16.000Z</time>
      </trkpt>
      <trkpt lat="45.21586" lon="6.03996">
        <ele>1727.5999755859</ele>
        <time>2015-08-24T09:49:23.000Z</time>
      </trkpt>
      <trkpt lat="45.21593" lon="6.04005">
        <ele>1723.4000244141</ele>
        <time>2015-08-24T09:49:29.000Z</time>
      </trkpt>
      <trkpt lat="45.21594" lon="6.04005">
        <ele>1723.4000244141</ele>
        <time>2015-08-24T09:49:31.000Z</time>
      </trkpt>
      <trkpt lat="45.21595" lon="6.04006">
        <ele>1723</ele>
        <time>2015-08-24T09:49:33.000Z</time>
      </trkpt>
      <trkpt lat="45.21602" lon="6.04008">
        <ele>1721.4000244141</ele>
        <time>2015-08-24T09:49:39.000Z</time>
      </trkpt>
      <trkpt lat="45.21605" lon="6.04007">
        <ele>1721.4000244141</ele>
        <time>2015-08-24T09:49:41.000Z</time>
      </trkpt>
      <trkpt lat="45.21615" lon="6.04006">
        <ele>1720.8000488281</ele>
        <time>2015-08-24T09:49:46.000Z</time>
      </trkpt>
      <trkpt lat="45.21629" lon="6.0401">
        <ele>1718</ele>
        <time>2015-08-24T09:49:52.000Z</time>
      </trkpt>
      <trkpt lat="45.21637" lon="6.04008">
        <ele>1717.1999511719</ele>
        <time>2015-08-24T09:49:58.000Z</time>
      </trkpt>
      <trkpt lat="45.21642" lon="6.04007">
        <ele>1716.4000244141</ele>
        <time>2015-08-24T09:50:04.000Z</time>
      </trkpt>
      <trkpt lat="45.21643" lon="6.04008">
        <ele>1716.1999511719</ele>
        <time>2015-08-24T09:50:09.000Z</time>
      </trkpt>
      <trkpt lat="45.21647" lon="6.04005">
        <ele>1716.4000244141</ele>
        <time>2015-08-24T09:50:16.000Z</time>
      </trkpt>
      <trkpt lat="45.21652" lon="6.04004">
        <ele>1715.5999755859</ele>
        <time>2015-08-24T09:50:24.000Z</time>
      </trkpt>
      <trkpt lat="45.21657" lon="6.04004">
        <ele>1714.5999755859</ele>
        <time>2015-08-24T09:50:31.000Z</time>
      </trkpt>
      <trkpt lat="45.21657" lon="6.04004">
        <ele>1714.4000244141</ele>
        <time>2015-08-24T09:50:41.000Z</time>
      </trkpt>
      <trkpt lat="45.21658" lon="6.04006">
        <ele>1713.8000488281</ele>
        <time>2015-08-24T09:51:13.000Z</time>
      </trkpt>
      <trkpt lat="45.21666" lon="6.04006">
        <ele>1712.4000244141</ele>
        <time>2015-08-24T09:51:18.000Z</time>
      </trkpt>
      <trkpt lat="45.21679" lon="6.04005">
        <ele>1711.8000488281</ele>
        <time>2015-08-24T09:51:23.000Z</time>
      </trkpt>
      <trkpt lat="45.21694" lon="6.04002">
        <ele>1711.4000244141</ele>
        <time>2015-08-24T09:51:30.000Z</time>
      </trkpt>
      <trkpt lat="45.21694" lon="6.04003">
        <ele>1710.8000488281</ele>
        <time>2015-08-24T09:51:31.000Z</time>
      </trkpt>
      <trkpt lat="45.21699" lon="6.04002">
        <ele>1710.4000244141</ele>
        <time>2015-08-24T09:51:35.000Z</time>
      </trkpt>
      <trkpt lat="45.21703" lon="6.04">
        <ele>1711.1999511719</ele>
        <time>2015-08-24T09:51:39.000Z</time>
      </trkpt>
      <trkpt lat="45.21704" lon="6.03999">
        <ele>1711.4000244141</ele>
        <time>2015-08-24T09:51:40.000Z</time>
      </trkpt>
      <trkpt lat="45.21711" lon="6.03998">
        <ele>1711.1999511719</ele>
        <time>2015-08-24T09:51:47.000Z</time>
      </trkpt>
      <trkpt lat="45.21712" lon="6.03997">
        <ele>1711.4000244141</ele>
        <time>2015-08-24T09:51:48.000Z</time>
      </trkpt>
      <trkpt lat="45.21721" lon="6.03994">
        <ele>1711.5999755859</ele>
        <time>2015-08-24T09:51:54.000Z</time>
      </trkpt>
      <trkpt lat="45.2173" lon="6.03994">
        <ele>1710.1999511719</ele>
        <time>2015-08-24T09:52:00.000Z</time>
      </trkpt>
      <trkpt lat="45.21739" lon="6.03993">
        <ele>1708.8000488281</ele>
        <time>2015-08-24T09:52:06.000Z</time>
      </trkpt>
      <trkpt lat="45.21749" lon="6.03997">
        <ele>1705.4000244141</ele>
        <time>2015-08-24T09:52:13.000Z</time>
      </trkpt>
      <trkpt lat="45.21761" lon="6.03996">
        <ele>1703.5999755859</ele>
        <time>2015-08-24T09:52:20.000Z</time>
      </trkpt>
      <trkpt lat="45.21767" lon="6.03998">
        <ele>1701.4000244141</ele>
        <time>2015-08-24T09:52:25.000Z</time>
      </trkpt>
      <trkpt lat="45.21775" lon="6.03997">
        <ele>1700.1999511719</ele>
        <time>2015-08-24T09:52:30.000Z</time>
      </trkpt>
      <trkpt lat="45.21782" lon="6.03993">
        <ele>1700.5999755859</ele>
        <time>2015-08-24T09:52:35.000Z</time>
      </trkpt>
      <trkpt lat="45.21783" lon="6.03994">
        <ele>1700</ele>
        <time>2015-08-24T09:52:36.000Z</time>
      </trkpt>
      <trkpt lat="45.21794" lon="6.03997">
        <ele>1696.8000488281</ele>
        <time>2015-08-24T09:52:42.000Z</time>
      </trkpt>
      <trkpt lat="45.21801" lon="6.03997">
        <ele>1696</ele>
        <time>2015-08-24T09:52:48.000Z</time>
      </trkpt>
      <trkpt lat="45.21805" lon="6.03998">
        <ele>1695</ele>
        <time>2015-08-24T09:52:52.000Z</time>
      </trkpt>
      <trkpt lat="45.21806" lon="6.03998">
        <ele>1695</ele>
        <time>2015-08-24T09:52:53.000Z</time>
      </trkpt>
      <trkpt lat="45.21807" lon="6.03998">
        <ele>1694.8000488281</ele>
        <time>2015-08-24T09:52:54.000Z</time>
      </trkpt>
      <trkpt lat="45.2181" lon="6.03998">
        <ele>1694.4000244141</ele>
        <time>2015-08-24T09:52:59.000Z</time>
      </trkpt>
      <trkpt lat="45.21818" lon="6.04001">
        <ele>1692.5999755859</ele>
        <time>2015-08-24T09:53:08.000Z</time>
      </trkpt>
      <trkpt lat="45.21823" lon="6.04001">
        <ele>1691.8000488281</ele>
        <time>2015-08-24T09:53:16.000Z</time>
      </trkpt>
      <trkpt lat="45.21826" lon="6.04003">
        <ele>1690.8000488281</ele>
        <time>2015-08-24T09:53:25.000Z</time>
      </trkpt>
      <trkpt lat="45.21827" lon="6.04003">
        <ele>1690.8000488281</ele>
        <time>2015-08-24T09:53:26.000Z</time>
      </trkpt>
      <trkpt lat="45.21835" lon="6.04004">
        <ele>1689.4000244141</ele>
        <time>2015-08-24T09:53:30.000Z</time>
      </trkpt>
      <trkpt lat="45.21839" lon="6.04003">
        <ele>1689.4000244141</ele>
        <time>2015-08-24T09:53:32.000Z</time>
      </trkpt>
      <trkpt lat="45.21845" lon="6.04002">
        <ele>1689.1999511719</ele>
        <time>2015-08-24T09:53:37.000Z</time>
      </trkpt>
      <trkpt lat="45.2185" lon="6.04">
        <ele>1689.1999511719</ele>
        <time>2015-08-24T09:53:42.000Z</time>
      </trkpt>
      <trkpt lat="45.21855" lon="6.04001">
        <ele>1688.4000244141</ele>
        <time>2015-08-24T09:53:45.000Z</time>
      </trkpt>
      <trkpt lat="45.21858" lon="6.04003">
        <ele>1686.8000488281</ele>
        <time>2015-08-24T09:53:48.000Z</time>
      </trkpt>
      <trkpt lat="45.21871" lon="6.04008">
        <ele>1683.1999511719</ele>
        <time>2015-08-24T09:53:53.000Z</time>
      </trkpt>
      <trkpt lat="45.21876" lon="6.04009">
        <ele>1682.1999511719</ele>
        <time>2015-08-24T09:53:58.000Z</time>
      </trkpt>
      <trkpt lat="45.2188" lon="6.04011">
        <ele>1681.5999755859</ele>
        <time>2015-08-24T09:54:12.000Z</time>
      </trkpt>
      <trkpt lat="45.21885" lon="6.04012">
        <ele>1682.4000244141</ele>
        <time>2015-08-24T09:54:16.000Z</time>
      </trkpt>
      <trkpt lat="45.21885" lon="6.04013">
        <ele>1681.8000488281</ele>
        <time>2015-08-24T09:54:17.000Z</time>
      </trkpt>
      <trkpt lat="45.21886" lon="6.04014">
        <ele>1681.4000244141</ele>
        <time>2015-08-24T09:54:21.000Z</time>
      </trkpt>
      <trkpt lat="45.21885" lon="6.04022">
        <ele>1678</ele>
        <time>2015-08-24T09:54:34.000Z</time>
      </trkpt>
      <trkpt lat="45.21882" lon="6.04026">
        <ele>1675.5999755859</ele>
        <time>2015-08-24T09:54:41.000Z</time>
      </trkpt>
      <trkpt lat="45.21877" lon="6.04034">
        <ele>1671.5999755859</ele>
        <time>2015-08-24T09:54:50.000Z</time>
      </trkpt>
      <trkpt lat="45.21871" lon="6.04035">
        <ele>1671.8000488281</ele>
        <time>2015-08-24T09:54:55.000Z</time>
      </trkpt>
      <trkpt lat="45.21872" lon="6.04036">
        <ele>1671.5999755859</ele>
        <time>2015-08-24T09:55:01.000Z</time>
      </trkpt>
      <trkpt lat="45.21869" lon="6.04039">
        <ele>1670.8000488281</ele>
        <time>2015-08-24T09:55:06.000Z</time>
      </trkpt>
      <trkpt lat="45.21868" lon="6.04042">
        <ele>1669.4000244141</ele>
        <time>2015-08-24T09:55:09.000Z</time>
      </trkpt>
      <trkpt lat="45.21866" lon="6.04045">
        <ele>1668.4000244141</ele>
        <time>2015-08-24T09:55:12.000Z</time>
      </trkpt>
      <trkpt lat="45.21864" lon="6.04047">
        <ele>1667.8000488281</ele>
        <time>2015-08-24T09:55:14.000Z</time>
      </trkpt>
      <trkpt lat="45.2186" lon="6.04051">
        <ele>1666</ele>
        <time>2015-08-24T09:55:18.000Z</time>
      </trkpt>
      <trkpt lat="45.21855" lon="6.04058">
        <ele>1663.4000244141</ele>
        <time>2015-08-24T09:55:25.000Z</time>
      </trkpt>
      <trkpt lat="45.21852" lon="6.04061">
        <ele>1663</ele>
        <time>2015-08-24T09:55:32.000Z</time>
      </trkpt>
      <trkpt lat="45.2185" lon="6.04066">
        <ele>1662.4000244141</ele>
        <time>2015-08-24T09:55:38.000Z</time>
      </trkpt>
      <trkpt lat="45.21846" lon="6.04068">
        <ele>1662.4000244141</ele>
        <time>2015-08-24T09:55:43.000Z</time>
      </trkpt>
      <trkpt lat="45.21845" lon="6.04071">
        <ele>1662.4000244141</ele>
        <time>2015-08-24T09:55:48.000Z</time>
      </trkpt>
      <trkpt lat="45.21839" lon="6.04077">
        <ele>1662</ele>
        <time>2015-08-24T09:55:55.000Z</time>
      </trkpt>
      <trkpt lat="45.21837" lon="6.04079">
        <ele>1662</ele>
        <time>2015-08-24T09:55:58.000Z</time>
      </trkpt>
      <trkpt lat="45.21835" lon="6.04082">
        <ele>1661.5999755859</ele>
        <time>2015-08-24T09:56:02.000Z</time>
      </trkpt>
      <trkpt lat="45.21831" lon="6.04087">
        <ele>1661.4000244141</ele>
        <time>2015-08-24T09:56:06.000Z</time>
      </trkpt>
      <trkpt lat="45.21827" lon="6.04088">
        <ele>1661.4000244141</ele>
        <time>2015-08-24T09:56:09.000Z</time>
      </trkpt>
      <trkpt lat="45.21824" lon="6.04089">
        <ele>1661.4000244141</ele>
        <time>2015-08-24T09:56:15.000Z</time>
      </trkpt>
      <trkpt lat="45.2182" lon="6.04093">
        <ele>1658.8000488281</ele>
        <time>2015-08-24T09:56:23.000Z</time>
      </trkpt>
      <trkpt lat="45.21816" lon="6.04098">
        <ele>1655.8000488281</ele>
        <time>2015-08-24T09:56:29.000Z</time>
      </trkpt>
      <trkpt lat="45.21816" lon="6.041">
        <ele>1655.1999511719</ele>
        <time>2015-08-24T09:56:30.000Z</time>
      </trkpt>
      <trkpt lat="45.21814" lon="6.04101">
        <ele>1653.8000488281</ele>
        <time>2015-08-24T09:56:34.000Z</time>
      </trkpt>
      <trkpt lat="45.21814" lon="6.04101">
        <ele>1653.8000488281</ele>
        <time>2015-08-24T09:56:35.000Z</time>
      </trkpt>
      <trkpt lat="45.21806" lon="6.04109">
        <ele>1649</ele>
        <time>2015-08-24T09:56:44.000Z</time>
      </trkpt>
      <trkpt lat="45.21802" lon="6.04111">
        <ele>1647.4000244141</ele>
        <time>2015-08-24T09:56:49.000Z</time>
      </trkpt>
      <trkpt lat="45.218" lon="6.04114">
        <ele>1646</ele>
        <time>2015-08-24T09:56:54.000Z</time>
      </trkpt>
      <trkpt lat="45.21801" lon="6.04116">
        <ele>1645</ele>
        <time>2015-08-24T09:56:58.000Z</time>
      </trkpt>
      <trkpt lat="45.21803" lon="6.04117">
        <ele>1645.1999511719</ele>
        <time>2015-08-24T09:57:05.000Z</time>
      </trkpt>
      <trkpt lat="45.21807" lon="6.04122">
        <ele>1644</ele>
        <time>2015-08-24T09:57:11.000Z</time>
      </trkpt>
      <trkpt lat="45.21816" lon="6.04124">
        <ele>1645.1999511719</ele>
        <time>2015-08-24T09:57:15.000Z</time>
      </trkpt>
      <trkpt lat="45.21817" lon="6.04123">
        <ele>1645.5999755859</ele>
        <time>2015-08-24T09:57:16.000Z</time>
      </trkpt>
      <trkpt lat="45.21828" lon="6.04126">
        <ele>1646.5999755859</ele>
        <time>2015-08-24T09:57:21.000Z</time>
      </trkpt>
      <trkpt lat="45.21833" lon="6.04124">
        <ele>1648.4000244141</ele>
        <time>2015-08-24T09:57:23.000Z</time>
      </trkpt>
      <trkpt lat="45.21838" lon="6.04123">
        <ele>1649.8000488281</ele>
        <time>2015-08-24T09:57:25.000Z</time>
      </trkpt>
      <trkpt lat="45.21853" lon="6.04125">
        <ele>1652.1999511719</ele>
        <time>2015-08-24T09:57:29.000Z</time>
      </trkpt>
      <trkpt lat="45.21859" lon="6.04125">
        <ele>1653.4000244141</ele>
        <time>2015-08-24T09:57:32.000Z</time>
      </trkpt>
      <trkpt lat="45.21869" lon="6.04117">
        <ele>1654.1999511719</ele>
        <time>2015-08-24T09:57:36.000Z</time>
      </trkpt>
      <trkpt lat="45.21868" lon="6.04116">
        <ele>1654.4000244141</ele>
        <time>2015-08-24T09:57:37.000Z</time>
      </trkpt>
      <trkpt lat="45.21872" lon="6.04114">
        <ele>1654.1999511719</ele>
        <time>2015-08-24T09:57:40.000Z</time>
      </trkpt>
      <trkpt lat="45.21872" lon="6.04114">
        <ele>1654.4000244141</ele>
        <time>2015-08-24T09:57:45.000Z</time>
      </trkpt>
      <trkpt lat="45.21879" lon="6.04114">
        <ele>1654.1999511719</ele>
        <time>2015-08-24T09:57:51.000Z</time>
      </trkpt>
      <trkpt lat="45.2188" lon="6.04112">
        <ele>1654.8000488281</ele>
        <time>2015-08-24T09:57:52.000Z</time>
      </trkpt>
      <trkpt lat="45.21884" lon="6.04111">
        <ele>1656.5999755859</ele>
        <time>2015-08-24T09:57:56.000Z</time>
      </trkpt>
      <trkpt lat="45.21885" lon="6.0411">
        <ele>1657.1999511719</ele>
        <time>2015-08-24T09:57:57.000Z</time>
      </trkpt>
      <trkpt lat="45.21888" lon="6.0411">
        <ele>1658.8000488281</ele>
        <time>2015-08-24T09:58:00.000Z</time>
      </trkpt>
      <trkpt lat="45.21892" lon="6.0411">
        <ele>1660.1999511719</ele>
        <time>2015-08-24T09:58:03.000Z</time>
      </trkpt>
      <trkpt lat="45.21893" lon="6.04112">
        <ele>1660.5999755859</ele>
        <time>2015-08-24T09:58:05.000Z</time>
      </trkpt>
      <trkpt lat="45.21891" lon="6.04114">
        <ele>1659.5999755859</ele>
        <time>2015-08-24T09:58:06.000Z</time>
      </trkpt>
      <trkpt lat="45.21888" lon="6.0412">
        <ele>1657.4000244141</ele>
        <time>2015-08-24T09:58:11.000Z</time>
      </trkpt>
      <trkpt lat="45.21882" lon="6.04131">
        <ele>1652.8000488281</ele>
        <time>2015-08-24T09:58:19.000Z</time>
      </trkpt>
      <trkpt lat="45.21877" lon="6.0414">
        <ele>1650.4000244141</ele>
        <time>2015-08-24T09:58:27.000Z</time>
      </trkpt>
      <trkpt lat="45.21875" lon="6.04145">
        <ele>1649.4000244141</ele>
        <time>2015-08-24T09:58:33.000Z</time>
      </trkpt>
      <trkpt lat="45.21872" lon="6.04146">
        <ele>1649</ele>
        <time>2015-08-24T09:58:35.000Z</time>
      </trkpt>
      <trkpt lat="45.21871" lon="6.04146">
        <ele>1648.8000488281</ele>
        <time>2015-08-24T09:58:38.000Z</time>
      </trkpt>
      <trkpt lat="45.21866" lon="6.04156">
        <ele>1648.5999755859</ele>
        <time>2015-08-24T09:58:47.000Z</time>
      </trkpt>
      <trkpt lat="45.21863" lon="6.04161">
        <ele>1648.5999755859</ele>
        <time>2015-08-24T09:58:52.000Z</time>
      </trkpt>
      <trkpt lat="45.21859" lon="6.04163">
        <ele>1648</ele>
        <time>2015-08-24T09:58:57.000Z</time>
      </trkpt>
      <trkpt lat="45.21859" lon="6.04163">
        <ele>1648</ele>
        <time>2015-08-24T09:59:02.000Z</time>
      </trkpt>
      <trkpt lat="45.21858" lon="6.04166">
        <ele>1648</ele>
        <time>2015-08-24T09:59:07.000Z</time>
      </trkpt>
      <trkpt lat="45.21854" lon="6.0417">
        <ele>1647.5999755859</ele>
        <time>2015-08-24T09:59:13.000Z</time>
      </trkpt>
      <trkpt lat="45.21851" lon="6.04173">
        <ele>1647.1999511719</ele>
        <time>2015-08-24T09:59:19.000Z</time>
      </trkpt>
      <trkpt lat="45.2185" lon="6.04175">
        <ele>1647.4000244141</ele>
        <time>2015-08-24T09:59:23.000Z</time>
      </trkpt>
      <trkpt lat="45.21847" lon="6.04179">
        <ele>1647</ele>
        <time>2015-08-24T09:59:25.000Z</time>
      </trkpt>
      <trkpt lat="45.21841" lon="6.04182">
        <ele>1646.1999511719</ele>
        <time>2015-08-24T09:59:27.000Z</time>
      </trkpt>
      <trkpt lat="45.21834" lon="6.0419">
        <ele>1642.5999755859</ele>
        <time>2015-08-24T09:59:29.000Z</time>
      </trkpt>
      <trkpt lat="45.21824" lon="6.04196">
        <ele>1636.5999755859</ele>
        <time>2015-08-24T09:59:31.000Z</time>
      </trkpt>
      <trkpt lat="45.21816" lon="6.04203">
        <ele>1631</ele>
        <time>2015-08-24T09:59:34.000Z</time>
      </trkpt>
      <trkpt lat="45.21813" lon="6.04202">
        <ele>1630</ele>
        <time>2015-08-24T09:59:35.000Z</time>
      </trkpt>
      <trkpt lat="45.21815" lon="6.04203">
        <ele>1630.5999755859</ele>
        <time>2015-08-24T09:59:37.000Z</time>
      </trkpt>
      <trkpt lat="45.21813" lon="6.04207">
        <ele>1628.5999755859</ele>
        <time>2015-08-24T09:59:48.000Z</time>
      </trkpt>
      <trkpt lat="45.21808" lon="6.04209">
        <ele>1625.8000488281</ele>
        <time>2015-08-24T09:59:51.000Z</time>
      </trkpt>
      <trkpt lat="45.21804" lon="6.04212">
        <ele>1623.1999511719</ele>
        <time>2015-08-24T09:59:55.000Z</time>
      </trkpt>
      <trkpt lat="45.21796" lon="6.04214">
        <ele>1618.8000488281</ele>
        <time>2015-08-24T10:00:02.000Z</time>
      </trkpt>
      <trkpt lat="45.21782" lon="6.04219">
        <ele>1617.1999511719</ele>
        <time>2015-08-24T10:00:05.000Z</time>
      </trkpt>
      <trkpt lat="45.21766" lon="6.04233">
        <ele>1612</ele>
        <time>2015-08-24T10:00:09.000Z</time>
      </trkpt>
      <trkpt lat="45.21754" lon="6.04236">
        <ele>1610.4000244141</ele>
        <time>2015-08-24T10:00:13.000Z</time>
      </trkpt>
      <trkpt lat="45.21741" lon="6.04236">
        <ele>1608.4000244141</ele>
        <time>2015-08-24T10:00:17.000Z</time>
      </trkpt>
      <trkpt lat="45.21736" lon="6.04237">
        <ele>1607.8000488281</ele>
        <time>2015-08-24T10:00:20.000Z</time>
      </trkpt>
      <trkpt lat="45.21736" lon="6.04237">
        <ele>1607.8000488281</ele>
        <time>2015-08-24T10:00:21.000Z</time>
      </trkpt>
      <trkpt lat="45.21734" lon="6.04238">
        <ele>1607.5999755859</ele>
        <time>2015-08-24T10:00:25.000Z</time>
      </trkpt>
      <trkpt lat="45.21731" lon="6.04239">
        <ele>1607.1999511719</ele>
        <time>2015-08-24T10:00:28.000Z</time>
      </trkpt>
      <trkpt lat="45.21729" lon="6.04238">
        <ele>1606.8000488281</ele>
        <time>2015-08-24T10:00:31.000Z</time>
      </trkpt>
      <trkpt lat="45.21727" lon="6.04239">
        <ele>1606.5999755859</ele>
        <time>2015-08-24T10:00:33.000Z</time>
      </trkpt>
      <trkpt lat="45.2172" lon="6.04243">
        <ele>1603.1999511719</ele>
        <time>2015-08-24T10:00:37.000Z</time>
      </trkpt>
      <trkpt lat="45.21709" lon="6.04251">
        <ele>1598.8000488281</ele>
        <time>2015-08-24T10:00:42.000Z</time>
      </trkpt>
      <trkpt lat="45.21707" lon="6.04252">
        <ele>1598.8000488281</ele>
        <time>2015-08-24T10:00:44.000Z</time>
      </trkpt>
      <trkpt lat="45.21706" lon="6.04255">
        <ele>1598.8000488281</ele>
        <time>2015-08-24T10:00:47.000Z</time>
      </trkpt>
      <trkpt lat="45.21704" lon="6.04256">
        <ele>1599.1999511719</ele>
        <time>2015-08-24T10:00:52.000Z</time>
      </trkpt>
      <trkpt lat="45.21696" lon="6.04262">
        <ele>1600</ele>
        <time>2015-08-24T10:01:00.000Z</time>
      </trkpt>
      <trkpt lat="45.21691" lon="6.04266">
        <ele>1600.5999755859</ele>
        <time>2015-08-24T10:01:03.000Z</time>
      </trkpt>
      <trkpt lat="45.21677" lon="6.04279">
        <ele>1600.8000488281</ele>
        <time>2015-08-24T10:01:08.000Z</time>
      </trkpt>
      <trkpt lat="45.21669" lon="6.04289">
        <ele>1595.8000488281</ele>
        <time>2015-08-24T10:01:12.000Z</time>
      </trkpt>
      <trkpt lat="45.21662" lon="6.04298">
        <ele>1591</ele>
        <time>2015-08-24T10:01:17.000Z</time>
      </trkpt>
      <trkpt lat="45.21655" lon="6.04308">
        <ele>1586.4000244141</ele>
        <time>2015-08-24T10:01:21.000Z</time>
      </trkpt>
      <trkpt lat="45.21648" lon="6.04307">
        <ele>1587</ele>
        <time>2015-08-24T10:01:23.000Z</time>
      </trkpt>
      <trkpt lat="45.21643" lon="6.04307">
        <ele>1587.5999755859</ele>
        <time>2015-08-24T10:01:26.000Z</time>
      </trkpt>
      <trkpt lat="45.21635" lon="6.04305">
        <ele>1588.8000488281</ele>
        <time>2015-08-24T10:01:29.000Z</time>
      </trkpt>
      <trkpt lat="45.2163" lon="6.04305">
        <ele>1589.1999511719</ele>
        <time>2015-08-24T10:01:32.000Z</time>
      </trkpt>
      <trkpt lat="45.21626" lon="6.04306">
        <ele>1589.1999511719</ele>
        <time>2015-08-24T10:01:36.000Z</time>
      </trkpt>
      <trkpt lat="45.21624" lon="6.04306">
        <ele>1590</ele>
        <time>2015-08-24T10:01:38.000Z</time>
      </trkpt>
      <trkpt lat="45.21621" lon="6.04309">
        <ele>1589.4000244141</ele>
        <time>2015-08-24T10:01:45.000Z</time>
      </trkpt>
      <trkpt lat="45.21614" lon="6.0432">
        <ele>1587</ele>
        <time>2015-08-24T10:01:52.000Z</time>
      </trkpt>
      <trkpt lat="45.21604" lon="6.04333">
        <ele>1584.5999755859</ele>
        <time>2015-08-24T10:01:56.000Z</time>
      </trkpt>
      <trkpt lat="45.216" lon="6.04335">
        <ele>1584.8000488281</ele>
        <time>2015-08-24T10:01:57.000Z</time>
      </trkpt>
      <trkpt lat="45.21585" lon="6.0434">
        <ele>1587.1999511719</ele>
        <time>2015-08-24T10:02:01.000Z</time>
      </trkpt>
      <trkpt lat="45.21579" lon="6.04341">
        <ele>1588.5999755859</ele>
        <time>2015-08-24T10:02:02.000Z</time>
      </trkpt>
      <trkpt lat="45.21572" lon="6.04342">
        <ele>1589.1999511719</ele>
        <time>2015-08-24T10:02:05.000Z</time>
      </trkpt>
      <trkpt lat="45.21572" lon="6.04344">
        <ele>1588.4000244141</ele>
        <time>2015-08-24T10:02:06.000Z</time>
      </trkpt>
      <trkpt lat="45.21568" lon="6.04346">
        <ele>1587.5999755859</ele>
        <time>2015-08-24T10:02:09.000Z</time>
      </trkpt>
      <trkpt lat="45.21562" lon="6.04349">
        <ele>1587.4000244141</ele>
        <time>2015-08-24T10:02:11.000Z</time>
      </trkpt>
      <trkpt lat="45.21551" lon="6.04355">
        <ele>1585.5999755859</ele>
        <time>2015-08-24T10:02:14.000Z</time>
      </trkpt>
      <trkpt lat="45.21544" lon="6.04359">
        <ele>1584.4000244141</ele>
        <time>2015-08-24T10:02:16.000Z</time>
      </trkpt>
      <trkpt lat="45.21539" lon="6.04363">
        <ele>1582.4000244141</ele>
        <time>2015-08-24T10:02:18.000Z</time>
      </trkpt>
      <trkpt lat="45.21524" lon="6.04374">
        <ele>1576.4000244141</ele>
        <time>2015-08-24T10:02:24.000Z</time>
      </trkpt>
      <trkpt lat="45.21519" lon="6.04379">
        <ele>1574.8000488281</ele>
        <time>2015-08-24T10:02:26.000Z</time>
      </trkpt>
      <trkpt lat="45.21514" lon="6.04382">
        <ele>1574</ele>
        <time>2015-08-24T10:02:28.000Z</time>
      </trkpt>
      <trkpt lat="45.21505" lon="6.04386">
        <ele>1573.4000244141</ele>
        <time>2015-08-24T10:02:32.000Z</time>
      </trkpt>
      <trkpt lat="45.21504" lon="6.04386">
        <ele>1573.1999511719</ele>
        <time>2015-08-24T10:02:33.000Z</time>
      </trkpt>
      <trkpt lat="45.21497" lon="6.04388">
        <ele>1573.1999511719</ele>
        <time>2015-08-24T10:02:38.000Z</time>
      </trkpt>
      <trkpt lat="45.2149" lon="6.04392">
        <ele>1572</ele>
        <time>2015-08-24T10:02:42.000Z</time>
      </trkpt>
      <trkpt lat="45.21479" lon="6.04403">
        <ele>1567.5999755859</ele>
        <time>2015-08-24T10:02:46.000Z</time>
      </trkpt>
      <trkpt lat="45.2147" lon="6.04408">
        <ele>1566.4000244141</ele>
        <time>2015-08-24T10:02:49.000Z</time>
      </trkpt>
      <trkpt lat="45.21468" lon="6.04408">
        <ele>1566.5999755859</ele>
        <time>2015-08-24T10:02:51.000Z</time>
      </trkpt>
      <trkpt lat="45.21455" lon="6.04417">
        <ele>1561.1999511719</ele>
        <time>2015-08-24T10:02:55.000Z</time>
      </trkpt>
      <trkpt lat="45.21449" lon="6.04417">
        <ele>1560.4000244141</ele>
        <time>2015-08-24T10:03:00.000Z</time>
      </trkpt>
      <trkpt lat="45.21448" lon="6.04418">
        <ele>1559.5999755859</ele>
        <time>2015-08-24T10:03:01.000Z</time>
      </trkpt>
      <trkpt lat="45.21443" lon="6.0442">
        <ele>1558</ele>
        <time>2015-08-24T10:03:05.000Z</time>
      </trkpt>
      <trkpt lat="45.21439" lon="6.04423">
        <ele>1555.4000244141</ele>
        <time>2015-08-24T10:03:07.000Z</time>
      </trkpt>
      <trkpt lat="45.21435" lon="6.04427">
        <ele>1552.8000488281</ele>
        <time>2015-08-24T10:03:09.000Z</time>
      </trkpt>
      <trkpt lat="45.21426" lon="6.0443">
        <ele>1549.8000488281</ele>
        <time>2015-08-24T10:03:14.000Z</time>
      </trkpt>
      <trkpt lat="45.21424" lon="6.04431">
        <ele>1548.8000488281</ele>
        <time>2015-08-24T10:03:15.000Z</time>
      </trkpt>
      <trkpt lat="45.21415" lon="6.04437">
        <ele>1545</ele>
        <time>2015-08-24T10:03:19.000Z</time>
      </trkpt>
      <trkpt lat="45.21405" lon="6.04439">
        <ele>1543.5999755859</ele>
        <time>2015-08-24T10:03:25.000Z</time>
      </trkpt>
      <trkpt lat="45.21398" lon="6.04434">
        <ele>1545</ele>
        <time>2015-08-24T10:03:29.000Z</time>
      </trkpt>
      <trkpt lat="45.21389" lon="6.04429">
        <ele>1546.1999511719</ele>
        <time>2015-08-24T10:03:33.000Z</time>
      </trkpt>
      <trkpt lat="45.21387" lon="6.04429">
        <ele>1546.1999511719</ele>
        <time>2015-08-24T10:03:34.000Z</time>
      </trkpt>
      <trkpt lat="45.21386" lon="6.04429">
        <ele>1546</ele>
        <time>2015-08-24T10:03:40.000Z</time>
      </trkpt>
      <trkpt lat="45.21389" lon="6.04429">
        <ele>1546.4000244141</ele>
        <time>2015-08-24T10:03:44.000Z</time>
      </trkpt>
      <trkpt lat="45.21389" lon="6.04429">
        <ele>1546.4000244141</ele>
        <time>2015-08-24T10:03:45.000Z</time>
      </trkpt>
      <trkpt lat="45.21389" lon="6.04441">
        <ele>1541.5999755859</ele>
        <time>2015-08-24T10:04:03.000Z</time>
      </trkpt>
      <trkpt lat="45.21401" lon="6.04448">
        <ele>1539.8000488281</ele>
        <time>2015-08-24T10:04:08.000Z</time>
      </trkpt>
      <trkpt lat="45.21409" lon="6.04453">
        <ele>1538.1999511719</ele>
        <time>2015-08-24T10:04:14.000Z</time>
      </trkpt>
      <trkpt lat="45.21423" lon="6.04455">
        <ele>1538.1999511719</ele>
        <time>2015-08-24T10:04:20.000Z</time>
      </trkpt>
      <trkpt lat="45.21431" lon="6.04456">
        <ele>1538.5999755859</ele>
        <time>2015-08-24T10:04:25.000Z</time>
      </trkpt>
      <trkpt lat="45.2144" lon="6.04458">
        <ele>1538.4000244141</ele>
        <time>2015-08-24T10:04:32.000Z</time>
      </trkpt>
      <trkpt lat="45.21446" lon="6.04457">
        <ele>1539.4000244141</ele>
        <time>2015-08-24T10:04:37.000Z</time>
      </trkpt>
      <trkpt lat="45.21451" lon="6.04458">
        <ele>1540</ele>
        <time>2015-08-24T10:04:43.000Z</time>
      </trkpt>
      <trkpt lat="45.21453" lon="6.04459">
        <ele>1539.8000488281</ele>
        <time>2015-08-24T10:04:45.000Z</time>
      </trkpt>
      <trkpt lat="45.21455" lon="6.04461">
        <ele>1539.1999511719</ele>
        <time>2015-08-24T10:04:47.000Z</time>
      </trkpt>
      <trkpt lat="45.21461" lon="6.04466">
        <ele>1537.5999755859</ele>
        <time>2015-08-24T10:04:51.000Z</time>
      </trkpt>
      <trkpt lat="45.21459" lon="6.0447">
        <ele>1535.5999755859</ele>
        <time>2015-08-24T10:04:55.000Z</time>
      </trkpt>
      <trkpt lat="45.21455" lon="6.0447">
        <ele>1534.8000488281</ele>
        <time>2015-08-24T10:04:59.000Z</time>
      </trkpt>
      <trkpt lat="45.21449" lon="6.04469">
        <ele>1534.5999755859</ele>
        <time>2015-08-24T10:05:06.000Z</time>
      </trkpt>
      <trkpt lat="45.21444" lon="6.04471">
        <ele>1533.8000488281</ele>
        <time>2015-08-24T10:05:12.000Z</time>
      </trkpt>
      <trkpt lat="45.21443" lon="6.04471">
        <ele>1533.5999755859</ele>
        <time>2015-08-24T10:05:13.000Z</time>
      </trkpt>
      <trkpt lat="45.21432" lon="6.04478">
        <ele>1529.8000488281</ele>
        <time>2015-08-24T10:05:18.000Z</time>
      </trkpt>
      <trkpt lat="45.21425" lon="6.04479">
        <ele>1528.8000488281</ele>
        <time>2015-08-24T10:05:20.000Z</time>
      </trkpt>
      <trkpt lat="45.21422" lon="6.04477">
        <ele>1529.5999755859</ele>
        <time>2015-08-24T10:05:22.000Z</time>
      </trkpt>
      <trkpt lat="45.21422" lon="6.04477">
        <ele>1529.5999755859</ele>
        <time>2015-08-24T10:05:23.000Z</time>
      </trkpt>
      <trkpt lat="45.2142" lon="6.04477">
        <ele>1529.4000244141</ele>
        <time>2015-08-24T10:05:24.000Z</time>
      </trkpt>
      <trkpt lat="45.21416" lon="6.04478">
        <ele>1528.5999755859</ele>
        <time>2015-08-24T10:05:27.000Z</time>
      </trkpt>
      <trkpt lat="45.21411" lon="6.0448">
        <ele>1527.5999755859</ele>
        <time>2015-08-24T10:05:31.000Z</time>
      </trkpt>
      <trkpt lat="45.214" lon="6.04483">
        <ele>1525.4000244141</ele>
        <time>2015-08-24T10:05:35.000Z</time>
      </trkpt>
      <trkpt lat="45.21391" lon="6.04484">
        <ele>1524</ele>
        <time>2015-08-24T10:05:39.000Z</time>
      </trkpt>
      <trkpt lat="45.21376" lon="6.04471">
        <ele>1527.8000488281</ele>
        <time>2015-08-24T10:05:43.000Z</time>
      </trkpt>
      <trkpt lat="45.21361" lon="6.04453">
        <ele>1528.4000244141</ele>
        <time>2015-08-24T10:05:48.000Z</time>
      </trkpt>
      <trkpt lat="45.21359" lon="6.04451">
        <ele>1528.4000244141</ele>
        <time>2015-08-24T10:05:49.000Z</time>
      </trkpt>
      <trkpt lat="45.21348" lon="6.04442">
        <ele>1527</ele>
        <time>2015-08-24T10:05:54.000Z</time>
      </trkpt>
      <trkpt lat="45.21337" lon="6.04431">
        <ele>1526.5999755859</ele>
        <time>2015-08-24T10:06:00.000Z</time>
      </trkpt>
      <trkpt lat="45.21331" lon="6.04426">
        <ele>1526.1999511719</ele>
        <time>2015-08-24T10:06:03.000Z</time>
      </trkpt>
      <trkpt lat="45.21326" lon="6.04423">
        <ele>1525.1999511719</ele>
        <time>2015-08-24T10:06:05.000Z</time>
      </trkpt>
      <trkpt lat="45.21322" lon="6.04418">
        <ele>1525.5999755859</ele>
        <time>2015-08-24T10:06:07.000Z</time>
      </trkpt>
      <trkpt lat="45.21322" lon="6.04415">
        <ele>1526.5999755859</ele>
        <time>2015-08-24T10:06:08.000Z</time>
      </trkpt>
      <trkpt lat="45.2132" lon="6.04412">
        <ele>1526.8000488281</ele>
        <time>2015-08-24T10:06:09.000Z</time>
      </trkpt>
      <trkpt lat="45.21313" lon="6.04404">
        <ele>1527</ele>
        <time>2015-08-24T10:06:14.000Z</time>
      </trkpt>
      <trkpt lat="45.21312" lon="6.04401">
        <ele>1527.8000488281</ele>
        <time>2015-08-24T10:06:15.000Z</time>
      </trkpt>
      <trkpt lat="45.21312" lon="6.04396">
        <ele>1530.1999511719</ele>
        <time>2015-08-24T10:06:18.000Z</time>
      </trkpt>
      <trkpt lat="45.21317" lon="6.04394">
        <ele>1532.5999755859</ele>
        <time>2015-08-24T10:06:21.000Z</time>
      </trkpt>
      <trkpt lat="45.21317" lon="6.04391">
        <ele>1533.4000244141</ele>
        <time>2015-08-24T10:06:23.000Z</time>
      </trkpt>
      <trkpt lat="45.21317" lon="6.04387">
        <ele>1533.1999511719</ele>
        <time>2015-08-24T10:06:26.000Z</time>
      </trkpt>
      <trkpt lat="45.21319" lon="6.04385">
        <ele>1534.1999511719</ele>
        <time>2015-08-24T10:06:29.000Z</time>
      </trkpt>
      <trkpt lat="45.21322" lon="6.04379">
        <ele>1535</ele>
        <time>2015-08-24T10:06:32.000Z</time>
      </trkpt>
      <trkpt lat="45.21321" lon="6.04375">
        <ele>1534.5999755859</ele>
        <time>2015-08-24T10:06:34.000Z</time>
      </trkpt>
      <trkpt lat="45.21318" lon="6.04362">
        <ele>1532.5999755859</ele>
        <time>2015-08-24T10:06:39.000Z</time>
      </trkpt>
      <trkpt lat="45.21318" lon="6.0436">
        <ele>1532.5999755859</ele>
        <time>2015-08-24T10:06:40.000Z</time>
      </trkpt>
      <trkpt lat="45.21314" lon="6.0435">
        <ele>1530.5999755859</ele>
        <time>2015-08-24T10:06:44.000Z</time>
      </trkpt>
      <trkpt lat="45.21313" lon="6.04346">
        <ele>1529.8000488281</ele>
        <time>2015-08-24T10:06:46.000Z</time>
      </trkpt>
      <trkpt lat="45.21313" lon="6.04336">
        <ele>1529.5999755859</ele>
        <time>2015-08-24T10:06:50.000Z</time>
      </trkpt>
      <trkpt lat="45.21311" lon="6.04329">
        <ele>1528.5999755859</ele>
        <time>2015-08-24T10:06:53.000Z</time>
      </trkpt>
      <trkpt lat="45.2131" lon="6.04326">
        <ele>1527.8000488281</ele>
        <time>2015-08-24T10:06:55.000Z</time>
      </trkpt>
      <trkpt lat="45.21308" lon="6.0432">
        <ele>1527.4000244141</ele>
        <time>2015-08-24T10:07:01.000Z</time>
      </trkpt>
      <trkpt lat="45.21306" lon="6.0431">
        <ele>1528.1999511719</ele>
        <time>2015-08-24T10:07:05.000Z</time>
      </trkpt>
      <trkpt lat="45.21305" lon="6.04303">
        <ele>1527.8000488281</ele>
        <time>2015-08-24T10:07:07.000Z</time>
      </trkpt>
      <trkpt lat="45.21308" lon="6.04293">
        <ele>1529.1999511719</ele>
        <time>2015-08-24T10:07:12.000Z</time>
      </trkpt>
      <trkpt lat="45.21308" lon="6.04291">
        <ele>1529.4000244141</ele>
        <time>2015-08-24T10:07:13.000Z</time>
      </trkpt>
      <trkpt lat="45.2131" lon="6.04278">
        <ele>1530.4000244141</ele>
        <time>2015-08-24T10:07:17.000Z</time>
      </trkpt>
      <trkpt lat="45.21312" lon="6.04256">
        <ele>1531</ele>
        <time>2015-08-24T10:07:21.000Z</time>
      </trkpt>
      <trkpt lat="45.2131" lon="6.04248">
        <ele>1529.4000244141</ele>
        <time>2015-08-24T10:07:23.000Z</time>
      </trkpt>
      <trkpt lat="45.2131" lon="6.04245">
        <ele>1529.4000244141</ele>
        <time>2015-08-24T10:07:25.000Z</time>
      </trkpt>
      <trkpt lat="45.21306" lon="6.04242">
        <ele>1526.4000244141</ele>
        <time>2015-08-24T10:07:28.000Z</time>
      </trkpt>
      <trkpt lat="45.21305" lon="6.04244">
        <ele>1525.5999755859</ele>
        <time>2015-08-24T10:07:30.000Z</time>
      </trkpt>
      <trkpt lat="45.21305" lon="6.04246">
        <ele>1525.8000488281</ele>
        <time>2015-08-24T10:07:32.000Z</time>
      </trkpt>
      <trkpt lat="45.21305" lon="6.04248">
        <ele>1525.4000244141</ele>
        <time>2015-08-24T10:07:35.000Z</time>
      </trkpt>
      <trkpt lat="45.21303" lon="6.04251">
        <ele>1524.5999755859</ele>
        <time>2015-08-24T10:07:41.000Z</time>
      </trkpt>
      <trkpt lat="45.21302" lon="6.04245">
        <ele>1523.5999755859</ele>
        <time>2015-08-24T10:07:46.000Z</time>
      </trkpt>
      <trkpt lat="45.21301" lon="6.04244">
        <ele>1522.8000488281</ele>
        <time>2015-08-24T10:07:51.000Z</time>
      </trkpt>
      <trkpt lat="45.213" lon="6.0424">
        <ele>1521.5999755859</ele>
        <time>2015-08-24T10:07:57.000Z</time>
      </trkpt>
      <trkpt lat="45.21297" lon="6.04243">
        <ele>1519.8000488281</ele>
        <time>2015-08-24T10:08:02.000Z</time>
      </trkpt>
      <trkpt lat="45.21295" lon="6.04245">
        <ele>1518.1999511719</ele>
        <time>2015-08-24T10:08:06.000Z</time>
      </trkpt>
      <trkpt lat="45.21293" lon="6.04244">
        <ele>1517</ele>
        <time>2015-08-24T10:08:08.000Z</time>
      </trkpt>
      <trkpt lat="45.2129" lon="6.04237">
        <ele>1515.4000244141</ele>
        <time>2015-08-24T10:08:13.000Z</time>
      </trkpt>
      <trkpt lat="45.21288" lon="6.04235">
        <ele>1514.1999511719</ele>
        <time>2015-08-24T10:08:16.000Z</time>
      </trkpt>
      <trkpt lat="45.21287" lon="6.04234">
        <ele>1513</ele>
        <time>2015-08-24T10:08:19.000Z</time>
      </trkpt>
      <trkpt lat="45.2128" lon="6.04232">
        <ele>1509</ele>
        <time>2015-08-24T10:08:28.000Z</time>
      </trkpt>
      <trkpt lat="45.21264" lon="6.04225">
        <ele>1499.5999755859</ele>
        <time>2015-08-24T10:08:36.000Z</time>
      </trkpt>
      <trkpt lat="45.21262" lon="6.04222">
        <ele>1500</ele>
        <time>2015-08-24T10:08:37.000Z</time>
      </trkpt>
      <trkpt lat="45.21259" lon="6.04213">
        <ele>1501.4000244141</ele>
        <time>2015-08-24T10:08:40.000Z</time>
      </trkpt>
      <trkpt lat="45.21259" lon="6.04212">
        <ele>1502</ele>
        <time>2015-08-24T10:08:43.000Z</time>
      </trkpt>
      <trkpt lat="45.21256" lon="6.0421">
        <ele>1500.8000488281</ele>
        <time>2015-08-24T10:08:46.000Z</time>
      </trkpt>
      <trkpt lat="45.21256" lon="6.04209">
        <ele>1501.5999755859</ele>
        <time>2015-08-24T10:08:49.000Z</time>
      </trkpt>
      <trkpt lat="45.21256" lon="6.0421">
        <ele>1501</ele>
        <time>2015-08-24T10:08:53.000Z</time>
      </trkpt>
      <trkpt lat="45.21251" lon="6.04213">
        <ele>1497.1999511719</ele>
        <time>2015-08-24T10:08:55.000Z</time>
      </trkpt>
      <trkpt lat="45.21233" lon="6.0422">
        <ele>1483.1999511719</ele>
        <time>2015-08-24T10:08:59.000Z</time>
      </trkpt>
      <trkpt lat="45.21223" lon="6.0422">
        <ele>1476.8000488281</ele>
        <time>2015-08-24T10:09:02.000Z</time>
      </trkpt>
      <trkpt lat="45.2122" lon="6.04221">
        <ele>1474.8000488281</ele>
        <time>2015-08-24T10:09:03.000Z</time>
      </trkpt>
      <trkpt lat="45.21209" lon="6.0423">
        <ele>1467.5999755859</ele>
        <time>2015-08-24T10:09:08.000Z</time>
      </trkpt>
      <trkpt lat="45.21209" lon="6.0423">
        <ele>1467.5999755859</ele>
        <time>2015-08-24T10:09:09.000Z</time>
      </trkpt>
      <trkpt lat="45.21203" lon="6.04228">
        <ele>1467.1999511719</ele>
        <time>2015-08-24T10:09:13.000Z</time>
      </trkpt>
      <trkpt lat="45.21195" lon="6.04232">
        <ele>1466.4000244141</ele>
        <time>2015-08-24T10:09:18.000Z</time>
      </trkpt>
      <trkpt lat="45.21184" lon="6.04237">
        <ele>1465.4000244141</ele>
        <time>2015-08-24T10:09:22.000Z</time>
      </trkpt>
      <trkpt lat="45.21181" lon="6.04236">
        <ele>1465</ele>
        <time>2015-08-24T10:09:26.000Z</time>
      </trkpt>
      <trkpt lat="45.21179" lon="6.04237">
        <ele>1464.8000488281</ele>
        <time>2015-08-24T10:09:30.000Z</time>
      </trkpt>
      <trkpt lat="45.21178" lon="6.04239">
        <ele>1464.8000488281</ele>
        <time>2015-08-24T10:09:31.000Z</time>
      </trkpt>
      <trkpt lat="45.21176" lon="6.04247">
        <ele>1464.5999755859</ele>
        <time>2015-08-24T10:09:35.000Z</time>
      </trkpt>
      <trkpt lat="45.21175" lon="6.04249">
        <ele>1464.4000244141</ele>
        <time>2015-08-24T10:09:39.000Z</time>
      </trkpt>
      <trkpt lat="45.2117" lon="6.04249">
        <ele>1464</ele>
        <time>2015-08-24T10:09:41.000Z</time>
      </trkpt>
      <trkpt lat="45.21169" lon="6.04249">
        <ele>1463.8000488281</ele>
        <time>2015-08-24T10:09:44.000Z</time>
      </trkpt>
      <trkpt lat="45.21168" lon="6.04249">
        <ele>1463.8000488281</ele>
        <time>2015-08-24T10:09:45.000Z</time>
      </trkpt>
      <trkpt lat="45.21158" lon="6.04251">
        <ele>1462.8000488281</ele>
        <time>2015-08-24T10:10:01.000Z</time>
      </trkpt>
      <trkpt lat="45.21156" lon="6.0425">
        <ele>1462.5999755859</ele>
        <time>2015-08-24T10:10:02.000Z</time>
      </trkpt>
      <trkpt lat="45.21148" lon="6.04251">
        <ele>1460</ele>
        <time>2015-08-24T10:10:06.000Z</time>
      </trkpt>
      <trkpt lat="45.21146" lon="6.04252">
        <ele>1458.8000488281</ele>
        <time>2015-08-24T10:10:07.000Z</time>
      </trkpt>
      <trkpt lat="45.21144" lon="6.04256">
        <ele>1456.1999511719</ele>
        <time>2015-08-24T10:10:10.000Z</time>
      </trkpt>
      <trkpt lat="45.21141" lon="6.04258">
        <ele>1454.4000244141</ele>
        <time>2015-08-24T10:10:11.000Z</time>
      </trkpt>
      <trkpt lat="45.21127" lon="6.04269">
        <ele>1444.8000488281</ele>
        <time>2015-08-24T10:10:16.000Z</time>
      </trkpt>
      <trkpt lat="45.21124" lon="6.04269">
        <ele>1444.8000488281</ele>
        <time>2015-08-24T10:10:19.000Z</time>
      </trkpt>
      <trkpt lat="45.21118" lon="6.04273">
        <ele>1443.4000244141</ele>
        <time>2015-08-24T10:10:23.000Z</time>
      </trkpt>
      <trkpt lat="45.21106" lon="6.04277">
        <ele>1442</ele>
        <time>2015-08-24T10:10:27.000Z</time>
      </trkpt>
      <trkpt lat="45.21089" lon="6.04282">
        <ele>1436.5999755859</ele>
        <time>2015-08-24T10:10:32.000Z</time>
      </trkpt>
      <trkpt lat="45.21071" lon="6.04293">
        <ele>1425</ele>
        <time>2015-08-24T10:10:36.000Z</time>
      </trkpt>
      <trkpt lat="45.21067" lon="6.04295">
        <ele>1422.8000488281</ele>
        <time>2015-08-24T10:10:39.000Z</time>
      </trkpt>
      <trkpt lat="45.21064" lon="6.04293">
        <ele>1423</ele>
        <time>2015-08-24T10:10:43.000Z</time>
      </trkpt>
      <trkpt lat="45.21063" lon="6.04293">
        <ele>1422.8000488281</ele>
        <time>2015-08-24T10:10:44.000Z</time>
      </trkpt>
      <trkpt lat="45.21062" lon="6.04292">
        <ele>1423</ele>
        <time>2015-08-24T10:10:46.000Z</time>
      </trkpt>
      <trkpt lat="45.21063" lon="6.04291">
        <ele>1423.8000488281</ele>
        <time>2015-08-24T10:10:48.000Z</time>
      </trkpt>
      <trkpt lat="45.21063" lon="6.0429">
        <ele>1424.5999755859</ele>
        <time>2015-08-24T10:10:51.000Z</time>
      </trkpt>
      <trkpt lat="45.21063" lon="6.04289">
        <ele>1425</ele>
        <time>2015-08-24T10:10:53.000Z</time>
      </trkpt>
      <trkpt lat="45.21064" lon="6.04283">
        <ele>1429.4000244141</ele>
        <time>2015-08-24T10:10:57.000Z</time>
      </trkpt>
      <trkpt lat="45.21064" lon="6.04278">
        <ele>1431.8000488281</ele>
        <time>2015-08-24T10:11:00.000Z</time>
      </trkpt>
      <trkpt lat="45.2106" lon="6.0428">
        <ele>1430.1999511719</ele>
        <time>2015-08-24T10:11:04.000Z</time>
      </trkpt>
      <trkpt lat="45.21058" lon="6.04279">
        <ele>1430.1999511719</ele>
        <time>2015-08-24T10:11:07.000Z</time>
      </trkpt>
      <trkpt lat="45.21057" lon="6.04278">
        <ele>1430.5999755859</ele>
        <time>2015-08-24T10:11:08.000Z</time>
      </trkpt>
      <trkpt lat="45.21044" lon="6.04274">
        <ele>1429</ele>
        <time>2015-08-24T10:11:13.000Z</time>
      </trkpt>
      <trkpt lat="45.21027" lon="6.0427">
        <ele>1426.5999755859</ele>
        <time>2015-08-24T10:11:17.000Z</time>
      </trkpt>
      <trkpt lat="45.21012" lon="6.04255">
        <ele>1431.5999755859</ele>
        <time>2015-08-24T10:11:21.000Z</time>
      </trkpt>
      <trkpt lat="45.21009" lon="6.04252">
        <ele>1432.4000244141</ele>
        <time>2015-08-24T10:11:23.000Z</time>
      </trkpt>
      <trkpt lat="45.21003" lon="6.0425">
        <ele>1431.8000488281</ele>
        <time>2015-08-24T10:11:25.000Z</time>
      </trkpt>
      <trkpt lat="45.20984" lon="6.04239">
        <ele>1433.1999511719</ele>
        <time>2015-08-24T10:11:31.000Z</time>
      </trkpt>
      <trkpt lat="45.20969" lon="6.04228">
        <ele>1435.4000244141</ele>
        <time>2015-08-24T10:11:36.000Z</time>
      </trkpt>
      <trkpt lat="45.20954" lon="6.04215">
        <ele>1436.4000244141</ele>
        <time>2015-08-24T10:11:40.000Z</time>
      </trkpt>
      <trkpt lat="45.20939" lon="6.04203">
        <ele>1435.4000244141</ele>
        <time>2015-08-24T10:11:44.000Z</time>
      </trkpt>
      <trkpt lat="45.20931" lon="6.04193">
        <ele>1436</ele>
        <time>2015-08-24T10:11:48.000Z</time>
      </trkpt>
      <trkpt lat="45.20929" lon="6.04189">
        <ele>1437.1999511719</ele>
        <time>2015-08-24T10:11:49.000Z</time>
      </trkpt>
      <trkpt lat="45.20923" lon="6.04181">
        <ele>1438.4000244141</ele>
        <time>2015-08-24T10:11:52.000Z</time>
      </trkpt>
      <trkpt lat="45.20921" lon="6.04181">
        <ele>1437.5999755859</ele>
        <time>2015-08-24T10:11:53.000Z</time>
      </trkpt>
      <trkpt lat="45.20912" lon="6.04174">
        <ele>1436.5999755859</ele>
        <time>2015-08-24T10:11:56.000Z</time>
      </trkpt>
      <trkpt lat="45.20907" lon="6.04172">
        <ele>1435.4000244141</ele>
        <time>2015-08-24T10:11:57.000Z</time>
      </trkpt>
      <trkpt lat="45.20891" lon="6.04164">
        <ele>1431.5999755859</ele>
        <time>2015-08-24T10:12:01.000Z</time>
      </trkpt>
      <trkpt lat="45.20884" lon="6.04154">
        <ele>1433.1999511719</ele>
        <time>2015-08-24T10:12:05.000Z</time>
      </trkpt>
      <trkpt lat="45.20879" lon="6.04151">
        <ele>1432.5999755859</ele>
        <time>2015-08-24T10:12:09.000Z</time>
      </trkpt>
      <trkpt lat="45.20876" lon="6.04147">
        <ele>1432.8000488281</ele>
        <time>2015-08-24T10:12:11.000Z</time>
      </trkpt>
      <trkpt lat="45.20864" lon="6.04139">
        <ele>1430.1999511719</ele>
        <time>2015-08-24T10:12:16.000Z</time>
      </trkpt>
      <trkpt lat="45.20854" lon="6.04138">
        <ele>1426</ele>
        <time>2015-08-24T10:12:21.000Z</time>
      </trkpt>
      <trkpt lat="45.20852" lon="6.04134">
        <ele>1426.1999511719</ele>
        <time>2015-08-24T10:12:26.000Z</time>
      </trkpt>
      <trkpt lat="45.20847" lon="6.04131">
        <ele>1425</ele>
        <time>2015-08-24T10:12:31.000Z</time>
      </trkpt>
      <trkpt lat="45.20844" lon="6.04134">
        <ele>1422.1999511719</ele>
        <time>2015-08-24T10:12:38.000Z</time>
      </trkpt>
      <trkpt lat="45.2084" lon="6.04133">
        <ele>1421</ele>
        <time>2015-08-24T10:12:42.000Z</time>
      </trkpt>
      <trkpt lat="45.20838" lon="6.04124">
        <ele>1422.8000488281</ele>
        <time>2015-08-24T10:12:49.000Z</time>
      </trkpt>
      <trkpt lat="45.20837" lon="6.04123">
        <ele>1422.8000488281</ele>
        <time>2015-08-24T10:12:50.000Z</time>
      </trkpt>
      <trkpt lat="45.20835" lon="6.04122">
        <ele>1422.5999755859</ele>
        <time>2015-08-24T10:12:52.000Z</time>
      </trkpt>
      <trkpt lat="45.20834" lon="6.04122">
        <ele>1422.1999511719</ele>
        <time>2015-08-24T10:12:54.000Z</time>
      </trkpt>
      <trkpt lat="45.20829" lon="6.04119">
        <ele>1420.5999755859</ele>
        <time>2015-08-24T10:13:00.000Z</time>
      </trkpt>
      <trkpt lat="45.20828" lon="6.04119">
        <ele>1420.1999511719</ele>
        <time>2015-08-24T10:13:01.000Z</time>
      </trkpt>
      <trkpt lat="45.20825" lon="6.0412">
        <ele>1418.5999755859</ele>
        <time>2015-08-24T10:13:05.000Z</time>
      </trkpt>
      <trkpt lat="45.2082" lon="6.04122">
        <ele>1415.4000244141</ele>
        <time>2015-08-24T10:13:08.000Z</time>
      </trkpt>
      <trkpt lat="45.20816" lon="6.04123">
        <ele>1413</ele>
        <time>2015-08-24T10:13:11.000Z</time>
      </trkpt>
      <trkpt lat="45.20812" lon="6.04123">
        <ele>1411</ele>
        <time>2015-08-24T10:13:16.000Z</time>
      </trkpt>
      <trkpt lat="45.20807" lon="6.04122">
        <ele>1409</ele>
        <time>2015-08-24T10:13:23.000Z</time>
      </trkpt>
      <trkpt lat="45.20801" lon="6.04122">
        <ele>1406</ele>
        <time>2015-08-24T10:13:26.000Z</time>
      </trkpt>
      <trkpt lat="45.20797" lon="6.04121">
        <ele>1404.5999755859</ele>
        <time>2015-08-24T10:13:27.000Z</time>
      </trkpt>
      <trkpt lat="45.20785" lon="6.04123">
        <ele>1398.1999511719</ele>
        <time>2015-08-24T10:13:31.000Z</time>
      </trkpt>
      <trkpt lat="45.20779" lon="6.04124">
        <ele>1395</ele>
        <time>2015-08-24T10:13:35.000Z</time>
      </trkpt>
      <trkpt lat="45.20777" lon="6.04123">
        <ele>1394.5999755859</ele>
        <time>2015-08-24T10:13:36.000Z</time>
      </trkpt>
      <trkpt lat="45.20777" lon="6.0412">
        <ele>1395.1999511719</ele>
        <time>2015-08-24T10:13:38.000Z</time>
      </trkpt>
      <trkpt lat="45.20772" lon="6.04114">
        <ele>1395</ele>
        <time>2015-08-24T10:13:42.000Z</time>
      </trkpt>
      <trkpt lat="45.20771" lon="6.04112">
        <ele>1395</ele>
        <time>2015-08-24T10:13:43.000Z</time>
      </trkpt>
      <trkpt lat="45.20771" lon="6.04107">
        <ele>1396.8000488281</ele>
        <time>2015-08-24T10:13:47.000Z</time>
      </trkpt>
      <trkpt lat="45.20773" lon="6.04105">
        <ele>1398.5999755859</ele>
        <time>2015-08-24T10:13:49.000Z</time>
      </trkpt>
      <trkpt lat="45.20772" lon="6.04102">
        <ele>1399.4000244141</ele>
        <time>2015-08-24T10:13:53.000Z</time>
      </trkpt>
      <trkpt lat="45.20769" lon="6.04096">
        <ele>1400</ele>
        <time>2015-08-24T10:13:56.000Z</time>
      </trkpt>
      <trkpt lat="45.20766" lon="6.04091">
        <ele>1400.5999755859</ele>
        <time>2015-08-24T10:13:59.000Z</time>
      </trkpt>
      <trkpt lat="45.20767" lon="6.04082">
        <ele>1404</ele>
        <time>2015-08-24T10:14:06.000Z</time>
      </trkpt>
      <trkpt lat="45.20765" lon="6.04084">
        <ele>1402.5999755859</ele>
        <time>2015-08-24T10:14:09.000Z</time>
      </trkpt>
      <trkpt lat="45.20766" lon="6.04084">
        <ele>1402.8000488281</ele>
        <time>2015-08-24T10:14:11.000Z</time>
      </trkpt>
      <trkpt lat="45.20762" lon="6.04086">
        <ele>1400.1999511719</ele>
        <time>2015-08-24T10:14:17.000Z</time>
      </trkpt>
      <trkpt lat="45.20755" lon="6.04084">
        <ele>1397.5999755859</ele>
        <time>2015-08-24T10:14:24.000Z</time>
      </trkpt>
      <trkpt lat="45.20752" lon="6.04078">
        <ele>1398.4000244141</ele>
        <time>2015-08-24T10:14:29.000Z</time>
      </trkpt>
      <trkpt lat="45.20747" lon="6.04069">
        <ele>1399.4000244141</ele>
        <time>2015-08-24T10:14:34.000Z</time>
      </trkpt>
      <trkpt lat="45.20747" lon="6.04069">
        <ele>1399</ele>
        <time>2015-08-24T10:14:36.000Z</time>
      </trkpt>
      <trkpt lat="45.20747" lon="6.0407">
        <ele>1399.1999511719</ele>
        <time>2015-08-24T10:14:42.000Z</time>
      </trkpt>
      <trkpt lat="45.20742" lon="6.0408">
        <ele>1392.8000488281</ele>
        <time>2015-08-24T10:14:50.000Z</time>
      </trkpt>
      <trkpt lat="45.20739" lon="6.04082">
        <ele>1390.8000488281</ele>
        <time>2015-08-24T10:14:55.000Z</time>
      </trkpt>
      <trkpt lat="45.20736" lon="6.04086">
        <ele>1388.1999511719</ele>
        <time>2015-08-24T10:15:00.000Z</time>
      </trkpt>
      <trkpt lat="45.20732" lon="6.04088">
        <ele>1385.1999511719</ele>
        <time>2015-08-24T10:15:08.000Z</time>
      </trkpt>
      <trkpt lat="45.20729" lon="6.04097">
        <ele>1381</ele>
        <time>2015-08-24T10:15:16.000Z</time>
      </trkpt>
      <trkpt lat="45.20725" lon="6.04101">
        <ele>1377.4000244141</ele>
        <time>2015-08-24T10:15:25.000Z</time>
      </trkpt>
      <trkpt lat="45.20716" lon="6.04103">
        <ele>1372.8000488281</ele>
        <time>2015-08-24T10:15:29.000Z</time>
      </trkpt>
      <trkpt lat="45.20713" lon="6.04102">
        <ele>1372</ele>
        <time>2015-08-24T10:15:30.000Z</time>
      </trkpt>
      <trkpt lat="45.20702" lon="6.04105">
        <ele>1367.1999511719</ele>
        <time>2015-08-24T10:15:34.000Z</time>
      </trkpt>
      <trkpt lat="45.20691" lon="6.04113">
        <ele>1361.4000244141</ele>
        <time>2015-08-24T10:15:39.000Z</time>
      </trkpt>
      <trkpt lat="45.20689" lon="6.04114">
        <ele>1360.4000244141</ele>
        <time>2015-08-24T10:15:40.000Z</time>
      </trkpt>
      <trkpt lat="45.20681" lon="6.04121">
        <ele>1356.1999511719</ele>
        <time>2015-08-24T10:15:44.000Z</time>
      </trkpt>
      <trkpt lat="45.20672" lon="6.04123">
        <ele>1353.5999755859</ele>
        <time>2015-08-24T10:15:49.000Z</time>
      </trkpt>
      <trkpt lat="45.20667" lon="6.04119">
        <ele>1353.5999755859</ele>
        <time>2015-08-24T10:15:53.000Z</time>
      </trkpt>
      <trkpt lat="45.20666" lon="6.04119">
        <ele>1353.4000244141</ele>
        <time>2015-08-24T10:15:55.000Z</time>
      </trkpt>
      <trkpt lat="45.20666" lon="6.04124">
        <ele>1351.8000488281</ele>
        <time>2015-08-24T10:16:13.000Z</time>
      </trkpt>
      <trkpt lat="45.20659" lon="6.04123">
        <ele>1350.4000244141</ele>
        <time>2015-08-24T10:16:17.000Z</time>
      </trkpt>
      <trkpt lat="45.20655" lon="6.04115">
        <ele>1352</ele>
        <time>2015-08-24T10:16:21.000Z</time>
      </trkpt>
      <trkpt lat="45.20654" lon="6.04114">
        <ele>1351.8000488281</ele>
        <time>2015-08-24T10:16:22.000Z</time>
      </trkpt>
      <trkpt lat="45.20636" lon="6.04107">
        <ele>1350</ele>
        <time>2015-08-24T10:16:28.000Z</time>
      </trkpt>
      <trkpt lat="45.20622" lon="6.04098">
        <ele>1348</ele>
        <time>2015-08-24T10:16:33.000Z</time>
      </trkpt>
      <trkpt lat="45.20607" lon="6.04086">
        <ele>1345.1999511719</ele>
        <time>2015-08-24T10:16:39.000Z</time>
      </trkpt>
      <trkpt lat="45.20593" lon="6.04083">
        <ele>1340.1999511719</ele>
        <time>2015-08-24T10:16:45.000Z</time>
      </trkpt>
      <trkpt lat="45.2058" lon="6.04075">
        <ele>1337</ele>
        <time>2015-08-24T10:16:50.000Z</time>
      </trkpt>
      <trkpt lat="45.20577" lon="6.04072">
        <ele>1336.5999755859</ele>
        <time>2015-08-24T10:16:54.000Z</time>
      </trkpt>
      <trkpt lat="45.20567" lon="6.04063">
        <ele>1335.1999511719</ele>
        <time>2015-08-24T10:16:57.000Z</time>
      </trkpt>
      <trkpt lat="45.20563" lon="6.04056">
        <ele>1336</ele>
        <time>2015-08-24T10:17:01.000Z</time>
      </trkpt>
      <trkpt lat="45.20564" lon="6.04055">
        <ele>1336.4000244141</ele>
        <time>2015-08-24T10:17:02.000Z</time>
      </trkpt>
      <trkpt lat="45.20562" lon="6.04051">
        <ele>1336.8000488281</ele>
        <time>2015-08-24T10:17:05.000Z</time>
      </trkpt>
      <trkpt lat="45.20554" lon="6.04046">
        <ele>1335</ele>
        <time>2015-08-24T10:17:11.000Z</time>
      </trkpt>
      <trkpt lat="45.20548" lon="6.0405">
        <ele>1331.1999511719</ele>
        <time>2015-08-24T10:17:14.000Z</time>
      </trkpt>
      <trkpt lat="45.20543" lon="6.0405">
        <ele>1329</ele>
        <time>2015-08-24T10:17:16.000Z</time>
      </trkpt>
      <trkpt lat="45.20526" lon="6.04044">
        <ele>1326</ele>
        <time>2015-08-24T10:17:20.000Z</time>
      </trkpt>
      <trkpt lat="45.20512" lon="6.04033">
        <ele>1325</ele>
        <time>2015-08-24T10:17:25.000Z</time>
      </trkpt>
      <trkpt lat="45.20503" lon="6.04033">
        <ele>1322.5999755859</ele>
        <time>2015-08-24T10:17:30.000Z</time>
      </trkpt>
      <trkpt lat="45.20502" lon="6.0404">
        <ele>1320.1999511719</ele>
        <time>2015-08-24T10:17:34.000Z</time>
      </trkpt>
      <trkpt lat="45.20501" lon="6.04042">
        <ele>1319</ele>
        <time>2015-08-24T10:17:35.000Z</time>
      </trkpt>
      <trkpt lat="45.205" lon="6.04046">
        <ele>1317.5999755859</ele>
        <time>2015-08-24T10:17:36.000Z</time>
      </trkpt>
      <trkpt lat="45.20492" lon="6.04047">
        <ele>1315</ele>
        <time>2015-08-24T10:17:39.000Z</time>
      </trkpt>
      <trkpt lat="45.20479" lon="6.04038">
        <ele>1313.5999755859</ele>
        <time>2015-08-24T10:17:44.000Z</time>
      </trkpt>
      <trkpt lat="45.20477" lon="6.04036">
        <ele>1313.8000488281</ele>
        <time>2015-08-24T10:17:45.000Z</time>
      </trkpt>
      <trkpt lat="45.20473" lon="6.04033">
        <ele>1313.5999755859</ele>
        <time>2015-08-24T10:17:48.000Z</time>
      </trkpt>
      <trkpt lat="45.20471" lon="6.0403">
        <ele>1314</ele>
        <time>2015-08-24T10:17:53.000Z</time>
      </trkpt>
      <trkpt lat="45.20469" lon="6.04029">
        <ele>1313.4000244141</ele>
        <time>2015-08-24T10:17:56.000Z</time>
      </trkpt>
      <trkpt lat="45.20467" lon="6.04029">
        <ele>1313</ele>
        <time>2015-08-24T10:17:59.000Z</time>
      </trkpt>
      <trkpt lat="45.20468" lon="6.04032">
        <ele>1312.1999511719</ele>
        <time>2015-08-24T10:18:05.000Z</time>
      </trkpt>
      <trkpt lat="45.20462" lon="6.04037">
        <ele>1308.8000488281</ele>
        <time>2015-08-24T10:18:09.000Z</time>
      </trkpt>
      <trkpt lat="45.20456" lon="6.04034">
        <ele>1307.8000488281</ele>
        <time>2015-08-24T10:18:13.000Z</time>
      </trkpt>
      <trkpt lat="45.20452" lon="6.04037">
        <ele>1305.8000488281</ele>
        <time>2015-08-24T10:18:18.000Z</time>
      </trkpt>
      <trkpt lat="45.20451" lon="6.04038">
        <ele>1305</ele>
        <time>2015-08-24T10:18:19.000Z</time>
      </trkpt>
      <trkpt lat="45.20449" lon="6.04042">
        <ele>1303</ele>
        <time>2015-08-24T10:18:23.000Z</time>
      </trkpt>
      <trkpt lat="45.20447" lon="6.04044">
        <ele>1301.8000488281</ele>
        <time>2015-08-24T10:18:24.000Z</time>
      </trkpt>
      <trkpt lat="45.20437" lon="6.04044">
        <ele>1299.5999755859</ele>
        <time>2015-08-24T10:18:29.000Z</time>
      </trkpt>
      <trkpt lat="45.20422" lon="6.04029">
        <ele>1299.4000244141</ele>
        <time>2015-08-24T10:18:34.000Z</time>
      </trkpt>
      <trkpt lat="45.20414" lon="6.04023">
        <ele>1298.8000488281</ele>
        <time>2015-08-24T10:18:39.000Z</time>
      </trkpt>
      <trkpt lat="45.20416" lon="6.04026">
        <ele>1298.5999755859</ele>
        <time>2015-08-24T10:18:43.000Z</time>
      </trkpt>
      <trkpt lat="45.20419" lon="6.04033">
        <ele>1297.8000488281</ele>
        <time>2015-08-24T10:18:47.000Z</time>
      </trkpt>
      <trkpt lat="45.20411" lon="6.04037">
        <ele>1295.5999755859</ele>
        <time>2015-08-24T10:19:44.000Z</time>
      </trkpt>
      <trkpt lat="45.20399" lon="6.0403">
        <ele>1294.4000244141</ele>
        <time>2015-08-24T10:19:48.000Z</time>
      </trkpt>
      <trkpt lat="45.20388" lon="6.04029">
        <ele>1292.1999511719</ele>
        <time>2015-08-24T10:19:53.000Z</time>
      </trkpt>
      <trkpt lat="45.20385" lon="6.04032">
        <ele>1291.1999511719</ele>
        <time>2015-08-24T10:19:58.000Z</time>
      </trkpt>
      <trkpt lat="45.20385" lon="6.04034">
        <ele>1290.8000488281</ele>
        <time>2015-08-24T10:20:08.000Z</time>
      </trkpt>
      <trkpt lat="45.20382" lon="6.04035">
        <ele>1290</ele>
        <time>2015-08-24T10:20:11.000Z</time>
      </trkpt>
      <trkpt lat="45.20379" lon="6.04031">
        <ele>1290</ele>
        <time>2015-08-24T10:20:24.000Z</time>
      </trkpt>
      <trkpt lat="45.20379" lon="6.0403">
        <ele>1290.1999511719</ele>
        <time>2015-08-24T10:20:28.000Z</time>
      </trkpt>
      <trkpt lat="45.20377" lon="6.04032">
        <ele>1289.5999755859</ele>
        <time>2015-08-24T10:20:36.000Z</time>
      </trkpt>
      <trkpt lat="45.20384" lon="6.04021">
        <ele>1293</ele>
        <time>2015-08-24T10:22:11.000Z</time>
      </trkpt>
      <trkpt lat="45.20374" lon="6.04034">
        <ele>1289</ele>
        <time>2015-08-24T10:23:19.000Z</time>
      </trkpt>
      <trkpt lat="45.20374" lon="6.04037">
        <ele>1288.5999755859</ele>
        <time>2015-08-24T10:23:21.000Z</time>
      </trkpt>
      <trkpt lat="45.20375" lon="6.04038">
        <ele>1288.4000244141</ele>
        <time>2015-08-24T10:23:24.000Z</time>
      </trkpt>
      <trkpt lat="45.20384" lon="6.0404">
        <ele>1289.5999755859</ele>
        <time>2015-08-24T10:25:32.000Z</time>
      </trkpt>
      <trkpt lat="45.20382" lon="6.04041">
        <ele>1289</ele>
        <time>2015-08-24T10:25:36.000Z</time>
      </trkpt>
      <trkpt lat="45.20376" lon="6.04047">
        <ele>1287</ele>
        <time>2015-08-24T10:26:01.000Z</time>
      </trkpt>
      <trkpt lat="45.20376" lon="6.04049">
        <ele>1286.5999755859</ele>
        <time>2015-08-24T10:26:18.000Z</time>
      </trkpt>
      <trkpt lat="45.20377" lon="6.04034">
        <ele>1289.4000244141</ele>
        <time>2015-08-24T10:26:50.000Z</time>
      </trkpt>
      <trkpt lat="45.20377" lon="6.04033">
        <ele>1289.5999755859</ele>
        <time>2015-08-24T10:26:53.000Z</time>
      </trkpt>
      <trkpt lat="45.20377" lon="6.04039">
        <ele>1288.5999755859</ele>
        <time>2015-08-24T10:27:00.000Z</time>
      </trkpt>
      <trkpt lat="45.20377" lon="6.04041">
        <ele>1288</ele>
        <time>2015-08-24T10:27:04.000Z</time>
      </trkpt>
      <trkpt lat="45.20368" lon="6.04062">
        <ele>1282.8000488281</ele>
        <time>2015-08-24T10:27:31.000Z</time>
      </trkpt>
      <trkpt lat="45.20362" lon="6.04058">
        <ele>1282.8000488281</ele>
        <time>2015-08-24T10:28:27.000Z</time>
      </trkpt>
      <trkpt lat="45.20363" lon="6.04058">
        <ele>1283</ele>
        <time>2015-08-24T10:28:28.000Z</time>
      </trkpt>
      <trkpt lat="45.20369" lon="6.04054">
        <ele>1284.8000488281</ele>
        <time>2015-08-24T10:28:34.000Z</time>
      </trkpt>
      <trkpt lat="45.2037" lon="6.04058">
        <ele>1284.1999511719</ele>
        <time>2015-08-24T10:28:42.000Z</time>
      </trkpt>
      <trkpt lat="45.2039" lon="6.04035">
        <ele>1291.8000488281</ele>
        <time>2015-08-24T10:29:16.000Z</time>
      </trkpt>
      <trkpt lat="45.20396" lon="6.04029">
        <ele>1294</ele>
        <time>2015-08-24T10:29:22.000Z</time>
      </trkpt>
      <trkpt lat="45.20399" lon="6.04026">
        <ele>1295</ele>
        <time>2015-08-24T10:29:27.000Z</time>
      </trkpt>
      <trkpt lat="45.20399" lon="6.04024">
        <ele>1295.4000244141</ele>
        <time>2015-08-24T10:29:34.000Z</time>
      </trkpt>
      <trkpt lat="45.20397" lon="6.04022">
        <ele>1295.5999755859</ele>
        <time>2015-08-24T10:29:38.000Z</time>
      </trkpt>
      <trkpt lat="45.20397" lon="6.04018">
        <ele>1296.4000244141</ele>
        <time>2015-08-24T10:29:42.000Z</time>
      </trkpt>
      <trkpt lat="45.20377" lon="6.04028">
        <ele>1290.4000244141</ele>
        <time>2015-08-24T10:33:26.000Z</time>
      </trkpt>
      <trkpt lat="45.20386" lon="6.04005">
        <ele>1296.1999511719</ele>
        <time>2015-08-24T10:34:03.000Z</time>
      </trkpt>
      <trkpt lat="45.20383" lon="6.04024">
        <ele>1292.1999511719</ele>
        <time>2015-08-24T10:34:50.000Z</time>
      </trkpt>
      <trkpt lat="45.20385" lon="6.04031">
        <ele>1291.4000244141</ele>
        <time>2015-08-24T10:36:45.000Z</time>
      </trkpt>
      <trkpt lat="45.20397" lon="6.04012">
        <ele>1297.4000244141</ele>
        <time>2015-08-24T10:39:00.000Z</time>
      </trkpt>
      <trkpt lat="45.20378" lon="6.04015">
        <ele>1293</ele>
        <time>2015-08-24T10:39:35.000Z</time>
      </trkpt>
      <trkpt lat="45.20383" lon="6.04027">
        <ele>1291.5999755859</ele>
        <time>2015-08-24T10:41:01.000Z</time>
      </trkpt>
      <trkpt lat="45.20377" lon="6.04034">
        <ele>1289.1999511719</ele>
        <time>2015-08-24T10:41:04.000Z</time>
      </trkpt>
      <trkpt lat="45.20371" lon="6.04042">
        <ele>1287.4000244141</ele>
        <time>2015-08-24T10:41:09.000Z</time>
      </trkpt>
      <trkpt lat="45.20371" lon="6.04043">
        <ele>1287.1999511719</ele>
        <time>2015-08-24T10:41:19.000Z</time>
      </trkpt>
      <trkpt lat="45.20379" lon="6.04037">
        <ele>1289</ele>
        <time>2015-08-24T10:43:14.000Z</time>
      </trkpt>
      <trkpt lat="45.20371" lon="6.04042">
        <ele>1287.4000244141</ele>
        <time>2015-08-24T10:44:57.000Z</time>
      </trkpt>
      <trkpt lat="45.20368" lon="6.04042">
        <ele>1287</ele>
        <time>2015-08-24T10:45:01.000Z</time>
      </trkpt>
      <trkpt lat="45.20365" lon="6.0404">
        <ele>1287</ele>
        <time>2015-08-24T10:45:04.000Z</time>
      </trkpt>
      <trkpt lat="45.20368" lon="6.04049">
        <ele>1285.8000488281</ele>
        <time>2015-08-24T10:46:49.000Z</time>
      </trkpt>
      <trkpt lat="45.20361" lon="6.04089">
        <ele>1276.5999755859</ele>
        <time>2015-08-24T10:48:24.000Z</time>
      </trkpt>
      <trkpt lat="45.2036" lon="6.04092">
        <ele>1276</ele>
        <time>2015-08-24T10:48:25.000Z</time>
      </trkpt>
      <trkpt lat="45.2036" lon="6.04093">
        <ele>1275.8000488281</ele>
        <time>2015-08-24T10:48:29.000Z</time>
      </trkpt>
      <trkpt lat="45.20375" lon="6.04053">
        <ele>1285.8000488281</ele>
        <time>2015-08-24T10:49:00.000Z</time>
      </trkpt>
      <trkpt lat="45.20377" lon="6.04047">
        <ele>1287</ele>
        <time>2015-08-24T10:49:06.000Z</time>
      </trkpt>
      <trkpt lat="45.20379" lon="6.0404">
        <ele>1288.4000244141</ele>
        <time>2015-08-24T10:49:15.000Z</time>
      </trkpt>
      <trkpt lat="45.20377" lon="6.04041">
        <ele>1288.1999511719</ele>
        <time>2015-08-24T10:49:27.000Z</time>
      </trkpt>
      <trkpt lat="45.20364" lon="6.04054">
        <ele>1284.1999511719</ele>
        <time>2015-08-24T10:49:39.000Z</time>
      </trkpt>
      <trkpt lat="45.20364" lon="6.04053">
        <ele>1284.4000244141</ele>
        <time>2015-08-24T10:49:42.000Z</time>
      </trkpt>
      <trkpt lat="45.20371" lon="6.04032">
        <ele>1289.1999511719</ele>
        <time>2015-08-24T10:50:21.000Z</time>
      </trkpt>
      <trkpt lat="45.20369" lon="6.04031">
        <ele>1289.1999511719</ele>
        <time>2015-08-24T10:50:25.000Z</time>
      </trkpt>
      <trkpt lat="45.20372" lon="6.04043">
        <ele>1287.1999511719</ele>
        <time>2015-08-24T10:53:12.000Z</time>
      </trkpt>
      <trkpt lat="45.20374" lon="6.04027">
        <ele>1290.4000244141</ele>
        <time>2015-08-24T10:54:59.000Z</time>
      </trkpt>
      <trkpt lat="45.20376" lon="6.04028">
        <ele>1290.4000244141</ele>
        <time>2015-08-24T10:55:03.000Z</time>
      </trkpt>
      <trkpt lat="45.20376" lon="6.04037">
        <ele>1288.8000488281</ele>
        <time>2015-08-24T10:57:17.000Z</time>
      </trkpt>
      <trkpt lat="45.20377" lon="6.04037">
        <ele>1288.8000488281</ele>
        <time>2015-08-24T10:57:22.000Z</time>
      </trkpt>
      <trkpt lat="45.20383" lon="6.04026">
        <ele>1291.8000488281</ele>
        <time>2015-08-24T10:58:29.000Z</time>
      </trkpt>
      <trkpt lat="45.20376" lon="6.04036">
        <ele>1288.8000488281</ele>
        <time>2015-08-24T10:59:12.000Z</time>
      </trkpt>
      <trkpt lat="45.2037" lon="6.04042">
        <ele>1287.1999511719</ele>
        <time>2015-08-24T11:00:11.000Z</time>
      </trkpt>
      <trkpt lat="45.20374" lon="6.0404">
        <ele>1288</ele>
        <time>2015-08-24T11:01:17.000Z</time>
      </trkpt>
      <trkpt lat="45.20378" lon="6.04031">
        <ele>1290</ele>
        <time>2015-08-24T11:01:50.000Z</time>
      </trkpt>
      <trkpt lat="45.2038" lon="6.0403">
        <ele>1290.4000244141</ele>
        <time>2015-08-24T11:01:56.000Z</time>
      </trkpt>
      <trkpt lat="45.20382" lon="6.04031">
        <ele>1290.5999755859</ele>
        <time>2015-08-24T11:02:02.000Z</time>
      </trkpt>
      <trkpt lat="45.20378" lon="6.0403">
        <ele>1290.1999511719</ele>
        <time>2015-08-24T11:02:12.000Z</time>
      </trkpt>
      <trkpt lat="45.20377" lon="6.04033">
        <ele>1289.5999755859</ele>
        <time>2015-08-24T11:02:19.000Z</time>
      </trkpt>
      <trkpt lat="45.20369" lon="6.04032">
        <ele>1288.8000488281</ele>
        <time>2015-08-24T11:02:24.000Z</time>
      </trkpt>
      <trkpt lat="45.20364" lon="6.04034">
        <ele>1288.1999511719</ele>
        <time>2015-08-24T11:02:27.000Z</time>
      </trkpt>
      <trkpt lat="45.20362" lon="6.04032">
        <ele>1288.1999511719</ele>
        <time>2015-08-24T11:02:29.000Z</time>
      </trkpt>
      <trkpt lat="45.20361" lon="6.04032">
        <ele>1288</ele>
        <time>2015-08-24T11:02:31.000Z</time>
      </trkpt>
      <trkpt lat="45.20358" lon="6.04027">
        <ele>1288.8000488281</ele>
        <time>2015-08-24T11:02:34.000Z</time>
      </trkpt>
      <trkpt lat="45.20352" lon="6.04021">
        <ele>1289.1999511719</ele>
        <time>2015-08-24T11:02:38.000Z</time>
      </trkpt>
      <trkpt lat="45.20348" lon="6.04022">
        <ele>1288.8000488281</ele>
        <time>2015-08-24T11:02:39.000Z</time>
      </trkpt>
      <trkpt lat="45.20337" lon="6.0401">
        <ele>1289.8000488281</ele>
        <time>2015-08-24T11:02:43.000Z</time>
      </trkpt>
      <trkpt lat="45.2032" lon="6.03987">
        <ele>1292.4000244141</ele>
        <time>2015-08-24T11:02:47.000Z</time>
      </trkpt>
      <trkpt lat="45.20311" lon="6.03986">
        <ele>1291.5999755859</ele>
        <time>2015-08-24T11:02:49.000Z</time>
      </trkpt>
      <trkpt lat="45.20307" lon="6.03989">
        <ele>1290.5999755859</ele>
        <time>2015-08-24T11:02:50.000Z</time>
      </trkpt>
      <trkpt lat="45.20298" lon="6.04001">
        <ele>1286.5999755859</ele>
        <time>2015-08-24T11:02:53.000Z</time>
      </trkpt>
      <trkpt lat="45.20295" lon="6.04004">
        <ele>1285.4000244141</ele>
        <time>2015-08-24T11:02:54.000Z</time>
      </trkpt>
      <trkpt lat="45.20279" lon="6.04012">
        <ele>1279.4000244141</ele>
        <time>2015-08-24T11:02:58.000Z</time>
      </trkpt>
      <trkpt lat="45.20276" lon="6.04014">
        <ele>1278.1999511719</ele>
        <time>2015-08-24T11:02:59.000Z</time>
      </trkpt>
      <trkpt lat="45.20276" lon="6.04016">
        <ele>1277.8000488281</ele>
        <time>2015-08-24T11:03:01.000Z</time>
      </trkpt>
      <trkpt lat="45.20279" lon="6.04016">
        <ele>1278.5999755859</ele>
        <time>2015-08-24T11:03:02.000Z</time>
      </trkpt>
      <trkpt lat="45.20291" lon="6.04014">
        <ele>1282.4000244141</ele>
        <time>2015-08-24T11:03:06.000Z</time>
      </trkpt>
      <trkpt lat="45.20295" lon="6.04013">
        <ele>1283.4000244141</ele>
        <time>2015-08-24T11:03:07.000Z</time>
      </trkpt>
      <trkpt lat="45.20313" lon="6.04021">
        <ele>1284.1999511719</ele>
        <time>2015-08-24T11:03:12.000Z</time>
      </trkpt>
      <trkpt lat="45.20315" lon="6.04035">
        <ele>1281.4000244141</ele>
        <time>2015-08-24T11:03:16.000Z</time>
      </trkpt>
      <trkpt lat="45.20318" lon="6.04041">
        <ele>1280.4000244141</ele>
        <time>2015-08-24T11:03:18.000Z</time>
      </trkpt>
      <trkpt lat="45.20322" lon="6.04046">
        <ele>1279.8000488281</ele>
        <time>2015-08-24T11:03:21.000Z</time>
      </trkpt>
      <trkpt lat="45.20331" lon="6.04054">
        <ele>1279.1999511719</ele>
        <time>2015-08-24T11:03:27.000Z</time>
      </trkpt>
      <trkpt lat="45.20331" lon="6.04056">
        <ele>1278.8000488281</ele>
        <time>2015-08-24T11:03:28.000Z</time>
      </trkpt>
      <trkpt lat="45.20332" lon="6.04063">
        <ele>1277.4000244141</ele>
        <time>2015-08-24T11:03:31.000Z</time>
      </trkpt>
      <trkpt lat="45.20334" lon="6.04065">
        <ele>1277.4000244141</ele>
        <time>2015-08-24T11:03:32.000Z</time>
      </trkpt>
      <trkpt lat="45.20346" lon="6.04079">
        <ele>1276.5999755859</ele>
        <time>2015-08-24T11:03:38.000Z</time>
      </trkpt>
      <trkpt lat="45.20349" lon="6.04082">
        <ele>1276.4000244141</ele>
        <time>2015-08-24T11:03:42.000Z</time>
      </trkpt>
      <trkpt lat="45.20355" lon="6.04079">
        <ele>1277.5999755859</ele>
        <time>2015-08-24T11:03:46.000Z</time>
      </trkpt>
      <trkpt lat="45.20353" lon="6.04072">
        <ele>1278.8000488281</ele>
        <time>2015-08-24T11:03:49.000Z</time>
      </trkpt>
      <trkpt lat="45.20341" lon="6.04064">
        <ele>1278.5999755859</ele>
        <time>2015-08-24T11:03:53.000Z</time>
      </trkpt>
      <trkpt lat="45.20327" lon="6.04045">
        <ele>1280.8000488281</ele>
        <time>2015-08-24T11:03:57.000Z</time>
      </trkpt>
      <trkpt lat="45.20312" lon="6.0403">
        <ele>1282.1999511719</ele>
        <time>2015-08-24T11:04:00.000Z</time>
      </trkpt>
      <trkpt lat="45.20307" lon="6.04027">
        <ele>1282</ele>
        <time>2015-08-24T11:04:01.000Z</time>
      </trkpt>
      <trkpt lat="45.20286" lon="6.04018">
        <ele>1279.8000488281</ele>
        <time>2015-08-24T11:04:05.000Z</time>
      </trkpt>
      <trkpt lat="45.20266" lon="6.04025">
        <ele>1273.1999511719</ele>
        <time>2015-08-24T11:04:08.000Z</time>
      </trkpt>
      <trkpt lat="45.20261" lon="6.04029">
        <ele>1270.8000488281</ele>
        <time>2015-08-24T11:04:09.000Z</time>
      </trkpt>
      <trkpt lat="45.20246" lon="6.04037">
        <ele>1265.1999511719</ele>
        <time>2015-08-24T11:04:12.000Z</time>
      </trkpt>
      <trkpt lat="45.20243" lon="6.04037">
        <ele>1264.4000244141</ele>
        <time>2015-08-24T11:04:13.000Z</time>
      </trkpt>
      <trkpt lat="45.20236" lon="6.04037">
        <ele>1262.4000244141</ele>
        <time>2015-08-24T11:04:15.000Z</time>
      </trkpt>
      <trkpt lat="45.20225" lon="6.04034">
        <ele>1260.1999511719</ele>
        <time>2015-08-24T11:04:18.000Z</time>
      </trkpt>
      <trkpt lat="45.20222" lon="6.04032">
        <ele>1260</ele>
        <time>2015-08-24T11:04:19.000Z</time>
      </trkpt>
      <trkpt lat="45.20211" lon="6.04024">
        <ele>1258.8000488281</ele>
        <time>2015-08-24T11:04:23.000Z</time>
      </trkpt>
      <trkpt lat="45.20199" lon="6.04012">
        <ele>1259.8000488281</ele>
        <time>2015-08-24T11:04:29.000Z</time>
      </trkpt>
      <trkpt lat="45.20185" lon="6.03996">
        <ele>1261.4000244141</ele>
        <time>2015-08-24T11:04:36.000Z</time>
      </trkpt>
      <trkpt lat="45.20169" lon="6.03978">
        <ele>1263.1999511719</ele>
        <time>2015-08-24T11:04:42.000Z</time>
      </trkpt>
      <trkpt lat="45.20162" lon="6.03973">
        <ele>1263.4000244141</ele>
        <time>2015-08-24T11:04:44.000Z</time>
      </trkpt>
      <trkpt lat="45.20143" lon="6.03964">
        <ele>1263.4000244141</ele>
        <time>2015-08-24T11:04:49.000Z</time>
      </trkpt>
      <trkpt lat="45.20135" lon="6.03963">
        <ele>1262.5999755859</ele>
        <time>2015-08-24T11:04:51.000Z</time>
      </trkpt>
      <trkpt lat="45.20114" lon="6.03963">
        <ele>1259.1999511719</ele>
        <time>2015-08-24T11:04:56.000Z</time>
      </trkpt>
      <trkpt lat="45.20109" lon="6.03961">
        <ele>1258.8000488281</ele>
        <time>2015-08-24T11:04:57.000Z</time>
      </trkpt>
      <trkpt lat="45.20093" lon="6.03959">
        <ele>1256.8000488281</ele>
        <time>2015-08-24T11:05:01.000Z</time>
      </trkpt>
      <trkpt lat="45.2008" lon="6.03952">
        <ele>1256.5999755859</ele>
        <time>2015-08-24T11:05:04.000Z</time>
      </trkpt>
      <trkpt lat="45.20065" lon="6.03943">
        <ele>1256.5999755859</ele>
        <time>2015-08-24T11:05:07.000Z</time>
      </trkpt>
      <trkpt lat="45.20045" lon="6.03935">
        <ele>1255.8000488281</ele>
        <time>2015-08-24T11:05:11.000Z</time>
      </trkpt>
      <trkpt lat="45.20029" lon="6.0393">
        <ele>1256</ele>
        <time>2015-08-24T11:05:14.000Z</time>
      </trkpt>
      <trkpt lat="45.20011" lon="6.0392">
        <ele>1257.5999755859</ele>
        <time>2015-08-24T11:05:18.000Z</time>
      </trkpt>
      <trkpt lat="45.20007" lon="6.03919">
        <ele>1257.4000244141</ele>
        <time>2015-08-24T11:05:19.000Z</time>
      </trkpt>
      <trkpt lat="45.19991" lon="6.03916">
        <ele>1257.1999511719</ele>
        <time>2015-08-24T11:05:22.000Z</time>
      </trkpt>
      <trkpt lat="45.19987" lon="6.03917">
        <ele>1256.8000488281</ele>
        <time>2015-08-24T11:05:23.000Z</time>
      </trkpt>
      <trkpt lat="45.1998" lon="6.03916">
        <ele>1256.5999755859</ele>
        <time>2015-08-24T11:05:27.000Z</time>
      </trkpt>
      <trkpt lat="45.1998" lon="6.03916">
        <ele>1256.5999755859</ele>
        <time>2015-08-24T11:05:32.000Z</time>
      </trkpt>
      <trkpt lat="45.19979" lon="6.0392">
        <ele>1255.1999511719</ele>
        <time>2015-08-24T11:05:41.000Z</time>
      </trkpt>
      <trkpt lat="45.1998" lon="6.03911">
        <ele>1257.8000488281</ele>
        <time>2015-08-24T11:08:15.000Z</time>
      </trkpt>
      <trkpt lat="45.19975" lon="6.03925">
        <ele>1253.4000244141</ele>
        <time>2015-08-24T11:10:24.000Z</time>
      </trkpt>
      <trkpt lat="45.19967" lon="6.03932">
        <ele>1250.5999755859</ele>
        <time>2015-08-24T11:11:38.000Z</time>
      </trkpt>
      <trkpt lat="45.19964" lon="6.03949">
        <ele>1245.1999511719</ele>
        <time>2015-08-24T11:12:23.000Z</time>
      </trkpt>
      <trkpt lat="45.19963" lon="6.03951">
        <ele>1244.4000244141</ele>
        <time>2015-08-24T11:12:26.000Z</time>
      </trkpt>
      <trkpt lat="45.19979" lon="6.03922">
        <ele>1254.5999755859</ele>
        <time>2015-08-24T11:13:53.000Z</time>
      </trkpt>
      <trkpt lat="45.19973" lon="6.03928">
        <ele>1252.1999511719</ele>
        <time>2015-08-24T11:14:41.000Z</time>
      </trkpt>
      <trkpt lat="45.19952" lon="6.03945">
        <ele>1246.4000244141</ele>
        <time>2015-08-24T11:15:30.000Z</time>
      </trkpt>
      <trkpt lat="45.19948" lon="6.0397">
        <ele>1238.4000244141</ele>
        <time>2015-08-24T11:15:44.000Z</time>
      </trkpt>
      <trkpt lat="45.1994" lon="6.03963">
        <ele>1240.8000488281</ele>
        <time>2015-08-24T11:16:14.000Z</time>
      </trkpt>
      <trkpt lat="45.19939" lon="6.03962">
        <ele>1241</ele>
        <time>2015-08-24T11:16:20.000Z</time>
      </trkpt>
      <trkpt lat="45.19935" lon="6.03965">
        <ele>1239.5999755859</ele>
        <time>2015-08-24T11:16:29.000Z</time>
      </trkpt>
      <trkpt lat="45.19938" lon="6.03964">
        <ele>1240</ele>
        <time>2015-08-24T11:16:42.000Z</time>
      </trkpt>
      <trkpt lat="45.19935" lon="6.03968">
        <ele>1238.8000488281</ele>
        <time>2015-08-24T11:17:05.000Z</time>
      </trkpt>
      <trkpt lat="45.19935" lon="6.03967">
        <ele>1239</ele>
        <time>2015-08-24T11:17:09.000Z</time>
      </trkpt>
      <trkpt lat="45.19937" lon="6.03964">
        <ele>1240</ele>
        <time>2015-08-24T11:17:25.000Z</time>
      </trkpt>
      <trkpt lat="45.19945" lon="6.03956">
        <ele>1243.1999511719</ele>
        <time>2015-08-24T11:17:29.000Z</time>
      </trkpt>
      <trkpt lat="45.1996" lon="6.03941">
        <ele>1247.4000244141</ele>
        <time>2015-08-24T11:17:43.000Z</time>
      </trkpt>
      <trkpt lat="45.19959" lon="6.03933">
        <ele>1249.8000488281</ele>
        <time>2015-08-24T11:18:11.000Z</time>
      </trkpt>
      <trkpt lat="45.19956" lon="6.03934">
        <ele>1249.4000244141</ele>
        <time>2015-08-24T11:18:15.000Z</time>
      </trkpt>
      <trkpt lat="45.19956" lon="6.03935">
        <ele>1249.1999511719</ele>
        <time>2015-08-24T11:18:21.000Z</time>
      </trkpt>
      <trkpt lat="45.19951" lon="6.03936">
        <ele>1249</ele>
        <time>2015-08-24T11:18:52.000Z</time>
      </trkpt>
      <trkpt lat="45.19953" lon="6.03935">
        <ele>1249.4000244141</ele>
        <time>2015-08-24T11:18:53.000Z</time>
      </trkpt>
      <trkpt lat="45.19953" lon="6.03938">
        <ele>1248.1999511719</ele>
        <time>2015-08-24T11:19:49.000Z</time>
      </trkpt>
      <trkpt lat="45.19971" lon="6.03947">
        <ele>1246.1999511719</ele>
        <time>2015-08-24T11:20:34.000Z</time>
      </trkpt>
      <trkpt lat="45.1997" lon="6.03968">
        <ele>1240</ele>
        <time>2015-08-24T11:21:07.000Z</time>
      </trkpt>
      <trkpt lat="45.19975" lon="6.03959">
        <ele>1243.1999511719</ele>
        <time>2015-08-24T11:21:28.000Z</time>
      </trkpt>
      <trkpt lat="45.19973" lon="6.03951">
        <ele>1245.1999511719</ele>
        <time>2015-08-24T11:21:46.000Z</time>
      </trkpt>
      <trkpt lat="45.19976" lon="6.03929">
        <ele>1252.1999511719</ele>
        <time>2015-08-24T11:22:31.000Z</time>
      </trkpt>
      <trkpt lat="45.19982" lon="6.03921">
        <ele>1255.1999511719</ele>
        <time>2015-08-24T11:23:22.000Z</time>
      </trkpt>
      <trkpt lat="45.19974" lon="6.03935">
        <ele>1250.1999511719</ele>
        <time>2015-08-24T11:23:42.000Z</time>
      </trkpt>
      <trkpt lat="45.1998" lon="6.03939">
        <ele>1249.5999755859</ele>
        <time>2015-08-24T11:24:14.000Z</time>
      </trkpt>
      <trkpt lat="45.19976" lon="6.03921">
        <ele>1254.5999755859</ele>
        <time>2015-08-24T11:25:01.000Z</time>
      </trkpt>
      <trkpt lat="45.19982" lon="6.03911">
        <ele>1258</ele>
        <time>2015-08-24T11:25:05.000Z</time>
      </trkpt>
      <trkpt lat="45.19989" lon="6.03897">
        <ele>1262.5999755859</ele>
        <time>2015-08-24T11:25:14.000Z</time>
      </trkpt>
      <trkpt lat="45.19981" lon="6.03914">
        <ele>1257</ele>
        <time>2015-08-24T11:27:08.000Z</time>
      </trkpt>
      <trkpt lat="45.19983" lon="6.03912">
        <ele>1258</ele>
        <time>2015-08-24T11:27:23.000Z</time>
      </trkpt>
      <trkpt lat="45.19978" lon="6.03925">
        <ele>1253.5999755859</ele>
        <time>2015-08-24T11:29:13.000Z</time>
      </trkpt>
      <trkpt lat="45.19978" lon="6.03919">
        <ele>1255.4000244141</ele>
        <time>2015-08-24T11:29:18.000Z</time>
      </trkpt>
      <trkpt lat="45.19979" lon="6.03915">
        <ele>1256.5999755859</ele>
        <time>2015-08-24T11:29:30.000Z</time>
      </trkpt>
      <trkpt lat="45.19981" lon="6.03914">
        <ele>1257</ele>
        <time>2015-08-24T11:31:41.000Z</time>
      </trkpt>
      <trkpt lat="45.19979" lon="6.03921">
        <ele>1255</ele>
        <time>2015-08-24T11:33:46.000Z</time>
      </trkpt>
      <trkpt lat="45.19984" lon="6.03912">
        <ele>1257.8000488281</ele>
        <time>2015-08-24T11:34:25.000Z</time>
      </trkpt>
      <trkpt lat="45.1998" lon="6.03913">
        <ele>1257.1999511719</ele>
        <time>2015-08-24T11:36:07.000Z</time>
      </trkpt>
      <trkpt lat="45.1998" lon="6.03927">
        <ele>1253.1999511719</ele>
        <time>2015-08-24T11:37:04.000Z</time>
      </trkpt>
      <trkpt lat="45.19991" lon="6.03892">
        <ele>1264.1999511719</ele>
        <time>2015-08-24T11:37:20.000Z</time>
      </trkpt>
      <trkpt lat="45.19992" lon="6.03888">
        <ele>1265.4000244141</ele>
        <time>2015-08-24T11:37:23.000Z</time>
      </trkpt>
      <trkpt lat="45.19985" lon="6.03918">
        <ele>1256.4000244141</ele>
        <time>2015-08-24T11:37:51.000Z</time>
      </trkpt>
      <trkpt lat="45.19985" lon="6.03919">
        <ele>1256</ele>
        <time>2015-08-24T11:37:57.000Z</time>
      </trkpt>
      <trkpt lat="45.19984" lon="6.0392">
        <ele>1255.5999755859</ele>
        <time>2015-08-24T11:38:59.000Z</time>
      </trkpt>
      <trkpt lat="45.19985" lon="6.03922">
        <ele>1255.1999511719</ele>
        <time>2015-08-24T11:40:20.000Z</time>
      </trkpt>
      <trkpt lat="45.19984" lon="6.03924">
        <ele>1254.4000244141</ele>
        <time>2015-08-24T11:40:23.000Z</time>
      </trkpt>
      <trkpt lat="45.19981" lon="6.03923">
        <ele>1254.4000244141</ele>
        <time>2015-08-24T11:41:37.000Z</time>
      </trkpt>
      <trkpt lat="45.19975" lon="6.03916">
        <ele>1256.1999511719</ele>
        <time>2015-08-24T11:41:46.000Z</time>
      </trkpt>
      <trkpt lat="45.19981" lon="6.03908">
        <ele>1258.8000488281</ele>
        <time>2015-08-24T11:42:14.000Z</time>
      </trkpt>
      <trkpt lat="45.19979" lon="6.03906">
        <ele>1259.1999511719</ele>
        <time>2015-08-24T11:42:20.000Z</time>
      </trkpt>
      <trkpt lat="45.19967" lon="6.03911">
        <ele>1256.8000488281</ele>
        <time>2015-08-24T11:42:26.000Z</time>
      </trkpt>
      <trkpt lat="45.19953" lon="6.0392">
        <ele>1253.8000488281</ele>
        <time>2015-08-24T11:42:31.000Z</time>
      </trkpt>
      <trkpt lat="45.19933" lon="6.03928">
        <ele>1251.5999755859</ele>
        <time>2015-08-24T11:42:36.000Z</time>
      </trkpt>
      <trkpt lat="45.19915" lon="6.0393">
        <ele>1251.1999511719</ele>
        <time>2015-08-24T11:42:40.000Z</time>
      </trkpt>
      <trkpt lat="45.19912" lon="6.03933">
        <ele>1250</ele>
        <time>2015-08-24T11:42:41.000Z</time>
      </trkpt>
      <trkpt lat="45.19892" lon="6.03946">
        <ele>1245</ele>
        <time>2015-08-24T11:42:45.000Z</time>
      </trkpt>
      <trkpt lat="45.19886" lon="6.03948">
        <ele>1243.8000488281</ele>
        <time>2015-08-24T11:42:46.000Z</time>
      </trkpt>
      <trkpt lat="45.1988" lon="6.03949">
        <ele>1243.4000244141</ele>
        <time>2015-08-24T11:42:47.000Z</time>
      </trkpt>
      <trkpt lat="45.19867" lon="6.03946">
        <ele>1244.1999511719</ele>
        <time>2015-08-24T11:42:50.000Z</time>
      </trkpt>
      <trkpt lat="45.1986" lon="6.03943">
        <ele>1245</ele>
        <time>2015-08-24T11:42:51.000Z</time>
      </trkpt>
      <trkpt lat="45.19839" lon="6.03933">
        <ele>1248.4000244141</ele>
        <time>2015-08-24T11:42:54.000Z</time>
      </trkpt>
      <trkpt lat="45.1983" lon="6.03931">
        <ele>1248.5999755859</ele>
        <time>2015-08-24T11:42:55.000Z</time>
      </trkpt>
      <trkpt lat="45.19821" lon="6.03929">
        <ele>1248.4000244141</ele>
        <time>2015-08-24T11:42:56.000Z</time>
      </trkpt>
      <trkpt lat="45.19801" lon="6.03927">
        <ele>1247.1999511719</ele>
        <time>2015-08-24T11:42:58.000Z</time>
      </trkpt>
      <trkpt lat="45.19791" lon="6.03923">
        <ele>1247.4000244141</ele>
        <time>2015-08-24T11:42:59.000Z</time>
      </trkpt>
      <trkpt lat="45.1977" lon="6.03916">
        <ele>1246.1999511719</ele>
        <time>2015-08-24T11:43:01.000Z</time>
      </trkpt>
      <trkpt lat="45.19745" lon="6.03911">
        <ele>1243.1999511719</ele>
        <time>2015-08-24T11:43:03.000Z</time>
      </trkpt>
      <trkpt lat="45.19719" lon="6.03908">
        <ele>1238.5999755859</ele>
        <time>2015-08-24T11:43:05.000Z</time>
      </trkpt>
      <trkpt lat="45.19693" lon="6.03904">
        <ele>1234.5999755859</ele>
        <time>2015-08-24T11:43:07.000Z</time>
      </trkpt>
      <trkpt lat="45.19667" lon="6.03898">
        <ele>1232.4000244141</ele>
        <time>2015-08-24T11:43:09.000Z</time>
      </trkpt>
      <trkpt lat="45.19642" lon="6.03891">
        <ele>1230.8000488281</ele>
        <time>2015-08-24T11:43:11.000Z</time>
      </trkpt>
      <trkpt lat="45.19615" lon="6.03884">
        <ele>1227.5999755859</ele>
        <time>2015-08-24T11:43:13.000Z</time>
      </trkpt>
      <trkpt lat="45.19601" lon="6.03881">
        <ele>1225.8000488281</ele>
        <time>2015-08-24T11:43:14.000Z</time>
      </trkpt>
      <trkpt lat="45.19575" lon="6.03867">
        <ele>1225.5999755859</ele>
        <time>2015-08-24T11:43:16.000Z</time>
      </trkpt>
      <trkpt lat="45.19564" lon="6.03856">
        <ele>1228</ele>
        <time>2015-08-24T11:43:17.000Z</time>
      </trkpt>
      <trkpt lat="45.19554" lon="6.03846">
        <ele>1230.1999511719</ele>
        <time>2015-08-24T11:43:18.000Z</time>
      </trkpt>
      <trkpt lat="45.1953" lon="6.03819">
        <ele>1234.5999755859</ele>
        <time>2015-08-24T11:43:20.000Z</time>
      </trkpt>
      <trkpt lat="45.19518" lon="6.03811">
        <ele>1234.1999511719</ele>
        <time>2015-08-24T11:43:21.000Z</time>
      </trkpt>
      <trkpt lat="45.19499" lon="6.03798">
        <ele>1235</ele>
        <time>2015-08-24T11:43:23.000Z</time>
      </trkpt>
      <trkpt lat="45.19487" lon="6.03795">
        <ele>1232.5999755859</ele>
        <time>2015-08-24T11:43:24.000Z</time>
      </trkpt>
      <trkpt lat="45.19458" lon="6.03786">
        <ele>1227.8000488281</ele>
        <time>2015-08-24T11:43:26.000Z</time>
      </trkpt>
      <trkpt lat="45.19442" lon="6.0378">
        <ele>1223.8000488281</ele>
        <time>2015-08-24T11:43:27.000Z</time>
      </trkpt>
      <trkpt lat="45.1941" lon="6.03764">
        <ele>1219.5999755859</ele>
        <time>2015-08-24T11:43:29.000Z</time>
      </trkpt>
      <trkpt lat="45.1938" lon="6.03745">
        <ele>1218.1999511719</ele>
        <time>2015-08-24T11:43:31.000Z</time>
      </trkpt>
      <trkpt lat="45.19351" lon="6.03723">
        <ele>1217.5999755859</ele>
        <time>2015-08-24T11:43:33.000Z</time>
      </trkpt>
      <trkpt lat="45.19325" lon="6.03698">
        <ele>1216</ele>
        <time>2015-08-24T11:43:35.000Z</time>
      </trkpt>
      <trkpt lat="45.193" lon="6.03672">
        <ele>1216.4000244141</ele>
        <time>2015-08-24T11:43:37.000Z</time>
      </trkpt>
      <trkpt lat="45.19274" lon="6.03655">
        <ele>1212.8000488281</ele>
        <time>2015-08-24T11:43:39.000Z</time>
      </trkpt>
      <trkpt lat="45.19248" lon="6.03644">
        <ele>1207.1999511719</ele>
        <time>2015-08-24T11:43:41.000Z</time>
      </trkpt>
      <trkpt lat="45.19222" lon="6.03638">
        <ele>1199.4000244141</ele>
        <time>2015-08-24T11:43:43.000Z</time>
      </trkpt>
      <trkpt lat="45.19194" lon="6.03627">
        <ele>1194.8000488281</ele>
        <time>2015-08-24T11:43:45.000Z</time>
      </trkpt>
      <trkpt lat="45.19164" lon="6.03617">
        <ele>1190.8000488281</ele>
        <time>2015-08-24T11:43:47.000Z</time>
      </trkpt>
      <trkpt lat="45.19133" lon="6.03605">
        <ele>1186.1999511719</ele>
        <time>2015-08-24T11:43:49.000Z</time>
      </trkpt>
      <trkpt lat="45.19103" lon="6.03595">
        <ele>1182.5999755859</ele>
        <time>2015-08-24T11:43:51.000Z</time>
      </trkpt>
      <trkpt lat="45.19074" lon="6.03585">
        <ele>1179</ele>
        <time>2015-08-24T11:43:53.000Z</time>
      </trkpt>
      <trkpt lat="45.19043" lon="6.03574">
        <ele>1175.4000244141</ele>
        <time>2015-08-24T11:43:55.000Z</time>
      </trkpt>
      <trkpt lat="45.19011" lon="6.03562">
        <ele>1172</ele>
        <time>2015-08-24T11:43:57.000Z</time>
      </trkpt>
      <trkpt lat="45.18995" lon="6.03554">
        <ele>1171.1999511719</ele>
        <time>2015-08-24T11:43:58.000Z</time>
      </trkpt>
      <trkpt lat="45.18965" lon="6.03538">
        <ele>1171.1999511719</ele>
        <time>2015-08-24T11:44:00.000Z</time>
      </trkpt>
      <trkpt lat="45.18933" lon="6.03523">
        <ele>1165.8000488281</ele>
        <time>2015-08-24T11:44:02.000Z</time>
      </trkpt>
      <trkpt lat="45.18901" lon="6.0351">
        <ele>1160.1999511719</ele>
        <time>2015-08-24T11:44:04.000Z</time>
      </trkpt>
      <trkpt lat="45.18869" lon="6.03495">
        <ele>1155.8000488281</ele>
        <time>2015-08-24T11:44:06.000Z</time>
      </trkpt>
      <trkpt lat="45.18853" lon="6.03485">
        <ele>1153.8000488281</ele>
        <time>2015-08-24T11:44:07.000Z</time>
      </trkpt>
      <trkpt lat="45.18822" lon="6.03464">
        <ele>1150.4000244141</ele>
        <time>2015-08-24T11:44:09.000Z</time>
      </trkpt>
      <trkpt lat="45.18792" lon="6.03443">
        <ele>1147</ele>
        <time>2015-08-24T11:44:11.000Z</time>
      </trkpt>
      <trkpt lat="45.18777" lon="6.03432">
        <ele>1145</ele>
        <time>2015-08-24T11:44:12.000Z</time>
      </trkpt>
      <trkpt lat="45.18747" lon="6.03409">
        <ele>1140.5999755859</ele>
        <time>2015-08-24T11:44:14.000Z</time>
      </trkpt>
      <trkpt lat="45.18722" lon="6.0339">
        <ele>1137.1999511719</ele>
        <time>2015-08-24T11:44:16.000Z</time>
      </trkpt>
      <trkpt lat="45.18711" lon="6.03384">
        <ele>1135.5999755859</ele>
        <time>2015-08-24T11:44:17.000Z</time>
      </trkpt>
      <trkpt lat="45.187" lon="6.03381">
        <ele>1137.4000244141</ele>
        <time>2015-08-24T11:44:18.000Z</time>
      </trkpt>
      <trkpt lat="45.18689" lon="6.03381">
        <ele>1135.5999755859</ele>
        <time>2015-08-24T11:44:19.000Z</time>
      </trkpt>
      <trkpt lat="45.18667" lon="6.03389">
        <ele>1127.8000488281</ele>
        <time>2015-08-24T11:44:21.000Z</time>
      </trkpt>
      <trkpt lat="45.18653" lon="6.03395">
        <ele>1122.1999511719</ele>
        <time>2015-08-24T11:44:22.000Z</time>
      </trkpt>
      <trkpt lat="45.1863" lon="6.03409">
        <ele>1111.5999755859</ele>
        <time>2015-08-24T11:44:24.000Z</time>
      </trkpt>
      <trkpt lat="45.18608" lon="6.03425">
        <ele>1104.4000244141</ele>
        <time>2015-08-24T11:44:26.000Z</time>
      </trkpt>
      <trkpt lat="45.18595" lon="6.03435">
        <ele>1100.4000244141</ele>
        <time>2015-08-24T11:44:27.000Z</time>
      </trkpt>
      <trkpt lat="45.18564" lon="6.03456">
        <ele>1096</ele>
        <time>2015-08-24T11:44:29.000Z</time>
      </trkpt>
      <trkpt lat="45.1853" lon="6.03471">
        <ele>1092.5999755859</ele>
        <time>2015-08-24T11:44:31.000Z</time>
      </trkpt>
      <trkpt lat="45.18512" lon="6.03477">
        <ele>1088.5999755859</ele>
        <time>2015-08-24T11:44:32.000Z</time>
      </trkpt>
      <trkpt lat="45.18487" lon="6.03479">
        <ele>1086.5999755859</ele>
        <time>2015-08-24T11:44:34.000Z</time>
      </trkpt>
      <trkpt lat="45.18454" lon="6.03484">
        <ele>1082.5999755859</ele>
        <time>2015-08-24T11:44:36.000Z</time>
      </trkpt>
      <trkpt lat="45.18436" lon="6.03486">
        <ele>1082</ele>
        <time>2015-08-24T11:44:37.000Z</time>
      </trkpt>
      <trkpt lat="45.18407" lon="6.03497">
        <ele>1076.4000244141</ele>
        <time>2015-08-24T11:44:39.000Z</time>
      </trkpt>
      <trkpt lat="45.18373" lon="6.03507">
        <ele>1070.8000488281</ele>
        <time>2015-08-24T11:44:41.000Z</time>
      </trkpt>
      <trkpt lat="45.18341" lon="6.03516">
        <ele>1064.5999755859</ele>
        <time>2015-08-24T11:44:43.000Z</time>
      </trkpt>
      <trkpt lat="45.18324" lon="6.03519">
        <ele>1060.4000244141</ele>
        <time>2015-08-24T11:44:44.000Z</time>
      </trkpt>
      <trkpt lat="45.18305" lon="6.03523">
        <ele>1055.8000488281</ele>
        <time>2015-08-24T11:44:45.000Z</time>
      </trkpt>
      <trkpt lat="45.18272" lon="6.03531">
        <ele>1050.1999511719</ele>
        <time>2015-08-24T11:44:47.000Z</time>
      </trkpt>
      <trkpt lat="45.18257" lon="6.03533">
        <ele>1048.1999511719</ele>
        <time>2015-08-24T11:44:48.000Z</time>
      </trkpt>
      <trkpt lat="45.18228" lon="6.03535">
        <ele>1044.5999755859</ele>
        <time>2015-08-24T11:44:50.000Z</time>
      </trkpt>
      <trkpt lat="45.18196" lon="6.03537">
        <ele>1042</ele>
        <time>2015-08-24T11:44:52.000Z</time>
      </trkpt>
      <trkpt lat="45.18162" lon="6.03544">
        <ele>1041.1999511719</ele>
        <time>2015-08-24T11:44:54.000Z</time>
      </trkpt>
      <trkpt lat="45.18129" lon="6.03554">
        <ele>1038</ele>
        <time>2015-08-24T11:44:56.000Z</time>
      </trkpt>
      <trkpt lat="45.181" lon="6.03568">
        <ele>1033</ele>
        <time>2015-08-24T11:44:58.000Z</time>
      </trkpt>
      <trkpt lat="45.18074" lon="6.03583">
        <ele>1027.5999755859</ele>
        <time>2015-08-24T11:45:00.000Z</time>
      </trkpt>
      <trkpt lat="45.1804" lon="6.03595">
        <ele>1025.4000244141</ele>
        <time>2015-08-24T11:45:02.000Z</time>
      </trkpt>
      <trkpt lat="45.18007" lon="6.03606">
        <ele>1022.5999755859</ele>
        <time>2015-08-24T11:45:04.000Z</time>
      </trkpt>
      <trkpt lat="45.17992" lon="6.03612">
        <ele>1023.5999755859</ele>
        <time>2015-08-24T11:45:05.000Z</time>
      </trkpt>
      <trkpt lat="45.1796" lon="6.03628">
        <ele>1023.4000244141</ele>
        <time>2015-08-24T11:45:07.000Z</time>
      </trkpt>
      <trkpt lat="45.1793" lon="6.03653">
        <ele>1016.5999755859</ele>
        <time>2015-08-24T11:45:09.000Z</time>
      </trkpt>
      <trkpt lat="45.17901" lon="6.03681">
        <ele>1009</ele>
        <time>2015-08-24T11:45:11.000Z</time>
      </trkpt>
      <trkpt lat="45.17873" lon="6.03707">
        <ele>1003.5999755859</ele>
        <time>2015-08-24T11:45:13.000Z</time>
      </trkpt>
      <trkpt lat="45.17854" lon="6.03719">
        <ele>998.79998779297</ele>
        <time>2015-08-24T11:45:14.000Z</time>
      </trkpt>
      <trkpt lat="45.17836" lon="6.03726">
        <ele>997</ele>
        <time>2015-08-24T11:45:15.000Z</time>
      </trkpt>
      <trkpt lat="45.17817" lon="6.03726">
        <ele>996.79998779297</ele>
        <time>2015-08-24T11:45:16.000Z</time>
      </trkpt>
      <trkpt lat="45.17798" lon="6.0372">
        <ele>998.59997558594</ele>
        <time>2015-08-24T11:45:17.000Z</time>
      </trkpt>
      <trkpt lat="45.17786" lon="6.03719">
        <ele>997.79998779297</ele>
        <time>2015-08-24T11:45:18.000Z</time>
      </trkpt>
      <trkpt lat="45.1776" lon="6.03721">
        <ele>993.79998779297</ele>
        <time>2015-08-24T11:45:20.000Z</time>
      </trkpt>
      <trkpt lat="45.17746" lon="6.03725">
        <ele>990.59997558594</ele>
        <time>2015-08-24T11:45:21.000Z</time>
      </trkpt>
      <trkpt lat="45.17721" lon="6.03724">
        <ele>987.59997558594</ele>
        <time>2015-08-24T11:45:23.000Z</time>
      </trkpt>
      <trkpt lat="45.17709" lon="6.03718">
        <ele>988.40002441406</ele>
        <time>2015-08-24T11:45:24.000Z</time>
      </trkpt>
      <trkpt lat="45.17685" lon="6.03694">
        <ele>995.40002441406</ele>
        <time>2015-08-24T11:45:26.000Z</time>
      </trkpt>
      <trkpt lat="45.17677" lon="6.03682">
        <ele>998.59997558594</ele>
        <time>2015-08-24T11:45:27.000Z</time>
      </trkpt>
      <trkpt lat="45.17656" lon="6.03666">
        <ele>1003.200012207</ele>
        <time>2015-08-24T11:45:29.000Z</time>
      </trkpt>
      <trkpt lat="45.17644" lon="6.03663">
        <ele>1004</ele>
        <time>2015-08-24T11:45:30.000Z</time>
      </trkpt>
      <trkpt lat="45.17621" lon="6.03669">
        <ele>1001.4000244141</ele>
        <time>2015-08-24T11:45:32.000Z</time>
      </trkpt>
      <trkpt lat="45.17606" lon="6.03688">
        <ele>996.59997558594</ele>
        <time>2015-08-24T11:45:34.000Z</time>
      </trkpt>
      <trkpt lat="45.17599" lon="6.03698">
        <ele>993.79998779297</ele>
        <time>2015-08-24T11:45:35.000Z</time>
      </trkpt>
      <trkpt lat="45.17591" lon="6.03706">
        <ele>991</ele>
        <time>2015-08-24T11:45:36.000Z</time>
      </trkpt>
      <trkpt lat="45.17576" lon="6.03718">
        <ele>986.79998779297</ele>
        <time>2015-08-24T11:45:38.000Z</time>
      </trkpt>
      <trkpt lat="45.1757" lon="6.03723">
        <ele>985.20001220703</ele>
        <time>2015-08-24T11:45:39.000Z</time>
      </trkpt>
      <trkpt lat="45.17545" lon="6.03727">
        <ele>984.59997558594</ele>
        <time>2015-08-24T11:45:42.000Z</time>
      </trkpt>
      <trkpt lat="45.17535" lon="6.03726">
        <ele>985.40002441406</ele>
        <time>2015-08-24T11:45:43.000Z</time>
      </trkpt>
      <trkpt lat="45.17526" lon="6.03726">
        <ele>985.79998779297</ele>
        <time>2015-08-24T11:45:44.000Z</time>
      </trkpt>
      <trkpt lat="45.17518" lon="6.03727">
        <ele>985.59997558594</ele>
        <time>2015-08-24T11:45:45.000Z</time>
      </trkpt>
      <trkpt lat="45.17504" lon="6.03734">
        <ele>984.20001220703</ele>
        <time>2015-08-24T11:45:47.000Z</time>
      </trkpt>
      <trkpt lat="45.17485" lon="6.03741">
        <ele>982.59997558594</ele>
        <time>2015-08-24T11:45:49.000Z</time>
      </trkpt>
      <trkpt lat="45.17475" lon="6.03743">
        <ele>982.20001220703</ele>
        <time>2015-08-24T11:45:50.000Z</time>
      </trkpt>
      <trkpt lat="45.17451" lon="6.03746">
        <ele>981.40002441406</ele>
        <time>2015-08-24T11:45:52.000Z</time>
      </trkpt>
      <trkpt lat="45.17429" lon="6.0375">
        <ele>982.40002441406</ele>
        <time>2015-08-24T11:45:54.000Z</time>
      </trkpt>
      <trkpt lat="45.17407" lon="6.03756">
        <ele>982.20001220703</ele>
        <time>2015-08-24T11:45:56.000Z</time>
      </trkpt>
      <trkpt lat="45.17384" lon="6.03768">
        <ele>978.59997558594</ele>
        <time>2015-08-24T11:45:58.000Z</time>
      </trkpt>
      <trkpt lat="45.17363" lon="6.03785">
        <ele>971.20001220703</ele>
        <time>2015-08-24T11:46:00.000Z</time>
      </trkpt>
      <trkpt lat="45.1734" lon="6.03802">
        <ele>963</ele>
        <time>2015-08-24T11:46:02.000Z</time>
      </trkpt>
      <trkpt lat="45.17311" lon="6.03815">
        <ele>958.59997558594</ele>
        <time>2015-08-24T11:46:04.000Z</time>
      </trkpt>
      <trkpt lat="45.17296" lon="6.03818">
        <ele>958</ele>
        <time>2015-08-24T11:46:05.000Z</time>
      </trkpt>
      <trkpt lat="45.17266" lon="6.0382">
        <ele>958.79998779297</ele>
        <time>2015-08-24T11:46:07.000Z</time>
      </trkpt>
      <trkpt lat="45.17252" lon="6.03821">
        <ele>959.20001220703</ele>
        <time>2015-08-24T11:46:08.000Z</time>
      </trkpt>
      <trkpt lat="45.17225" lon="6.03827">
        <ele>959.40002441406</ele>
        <time>2015-08-24T11:46:10.000Z</time>
      </trkpt>
      <trkpt lat="45.17209" lon="6.03832">
        <ele>958.79998779297</ele>
        <time>2015-08-24T11:46:11.000Z</time>
      </trkpt>
      <trkpt lat="45.1718" lon="6.03842">
        <ele>962.79998779297</ele>
        <time>2015-08-24T11:46:13.000Z</time>
      </trkpt>
      <trkpt lat="45.17152" lon="6.03852">
        <ele>962.59997558594</ele>
        <time>2015-08-24T11:46:15.000Z</time>
      </trkpt>
      <trkpt lat="45.17139" lon="6.03859">
        <ele>959.79998779297</ele>
        <time>2015-08-24T11:46:16.000Z</time>
      </trkpt>
      <trkpt lat="45.17109" lon="6.03876">
        <ele>957.20001220703</ele>
        <time>2015-08-24T11:46:18.000Z</time>
      </trkpt>
      <trkpt lat="45.17055" lon="6.03913">
        <ele>949.79998779297</ele>
        <time>2015-08-24T11:46:22.000Z</time>
      </trkpt>
      <trkpt lat="45.17027" lon="6.03931">
        <ele>948</ele>
        <time>2015-08-24T11:46:24.000Z</time>
      </trkpt>
      <trkpt lat="45.17002" lon="6.03947">
        <ele>947.79998779297</ele>
        <time>2015-08-24T11:46:26.000Z</time>
      </trkpt>
      <trkpt lat="45.1699" lon="6.03957">
        <ele>944.20001220703</ele>
        <time>2015-08-24T11:46:27.000Z</time>
      </trkpt>
      <trkpt lat="45.16964" lon="6.03981">
        <ele>939.20001220703</ele>
        <time>2015-08-24T11:46:29.000Z</time>
      </trkpt>
      <trkpt lat="45.16952" lon="6.03993">
        <ele>940.40002441406</ele>
        <time>2015-08-24T11:46:30.000Z</time>
      </trkpt>
      <trkpt lat="45.16907" lon="6.04022">
        <ele>939</ele>
        <time>2015-08-24T11:46:33.000Z</time>
      </trkpt>
      <trkpt lat="45.1688" lon="6.04033">
        <ele>925.20001220703</ele>
        <time>2015-08-24T11:46:35.000Z</time>
      </trkpt>
      <trkpt lat="45.16855" lon="6.04042">
        <ele>928.79998779297</ele>
        <time>2015-08-24T11:46:37.000Z</time>
      </trkpt>
      <trkpt lat="45.16845" lon="6.04049">
        <ele>929.20001220703</ele>
        <time>2015-08-24T11:46:38.000Z</time>
      </trkpt>
      <trkpt lat="45.16835" lon="6.04059">
        <ele>929</ele>
        <time>2015-08-24T11:46:39.000Z</time>
      </trkpt>
      <trkpt lat="45.16816" lon="6.04083">
        <ele>939.79998779297</ele>
        <time>2015-08-24T11:46:41.000Z</time>
      </trkpt>
      <trkpt lat="45.16808" lon="6.04096">
        <ele>934.79998779297</ele>
        <time>2015-08-24T11:46:42.000Z</time>
      </trkpt>
      <trkpt lat="45.16792" lon="6.04125">
        <ele>925.79998779297</ele>
        <time>2015-08-24T11:46:44.000Z</time>
      </trkpt>
      <trkpt lat="45.16782" lon="6.04138">
        <ele>923.20001220703</ele>
        <time>2015-08-24T11:46:45.000Z</time>
      </trkpt>
      <trkpt lat="45.16772" lon="6.04149">
        <ele>922.20001220703</ele>
        <time>2015-08-24T11:46:46.000Z</time>
      </trkpt>
      <trkpt lat="45.16755" lon="6.04176">
        <ele>927.59997558594</ele>
        <time>2015-08-24T11:46:48.000Z</time>
      </trkpt>
      <trkpt lat="45.16731" lon="6.04188">
        <ele>923.40002441406</ele>
        <time>2015-08-24T11:46:50.000Z</time>
      </trkpt>
      <trkpt lat="45.16705" lon="6.04201">
        <ele>917.79998779297</ele>
        <time>2015-08-24T11:46:52.000Z</time>
      </trkpt>
      <trkpt lat="45.16677" lon="6.04214">
        <ele>917.59997558594</ele>
        <time>2015-08-24T11:46:54.000Z</time>
      </trkpt>
      <trkpt lat="45.16644" lon="6.04223">
        <ele>916.20001220703</ele>
        <time>2015-08-24T11:46:56.000Z</time>
      </trkpt>
      <trkpt lat="45.16612" lon="6.04228">
        <ele>913.20001220703</ele>
        <time>2015-08-24T11:46:58.000Z</time>
      </trkpt>
      <trkpt lat="45.16582" lon="6.04229">
        <ele>907.20001220703</ele>
        <time>2015-08-24T11:47:00.000Z</time>
      </trkpt>
      <trkpt lat="45.16553" lon="6.04227">
        <ele>900.40002441406</ele>
        <time>2015-08-24T11:47:02.000Z</time>
      </trkpt>
      <trkpt lat="45.16539" lon="6.04229">
        <ele>899</ele>
        <time>2015-08-24T11:47:03.000Z</time>
      </trkpt>
      <trkpt lat="45.16509" lon="6.04237">
        <ele>901.40002441406</ele>
        <time>2015-08-24T11:47:05.000Z</time>
      </trkpt>
      <trkpt lat="45.16494" lon="6.04242">
        <ele>903</ele>
        <time>2015-08-24T11:47:06.000Z</time>
      </trkpt>
      <trkpt lat="45.16464" lon="6.04248">
        <ele>898.79998779297</ele>
        <time>2015-08-24T11:47:08.000Z</time>
      </trkpt>
      <trkpt lat="45.16451" lon="6.04248">
        <ele>896.79998779297</ele>
        <time>2015-08-24T11:47:09.000Z</time>
      </trkpt>
      <trkpt lat="45.16421" lon="6.04251">
        <ele>894.40002441406</ele>
        <time>2015-08-24T11:47:11.000Z</time>
      </trkpt>
      <trkpt lat="45.1639" lon="6.04256">
        <ele>890.59997558594</ele>
        <time>2015-08-24T11:47:13.000Z</time>
      </trkpt>
      <trkpt lat="45.16359" lon="6.04262">
        <ele>886.59997558594</ele>
        <time>2015-08-24T11:47:15.000Z</time>
      </trkpt>
      <trkpt lat="45.16327" lon="6.0426">
        <ele>883.79998779297</ele>
        <time>2015-08-24T11:47:17.000Z</time>
      </trkpt>
      <trkpt lat="45.16297" lon="6.04258">
        <ele>883</ele>
        <time>2015-08-24T11:47:19.000Z</time>
      </trkpt>
      <trkpt lat="45.16267" lon="6.04259">
        <ele>881.59997558594</ele>
        <time>2015-08-24T11:47:21.000Z</time>
      </trkpt>
      <trkpt lat="45.16253" lon="6.0426">
        <ele>881</ele>
        <time>2015-08-24T11:47:22.000Z</time>
      </trkpt>
      <trkpt lat="45.16225" lon="6.04261">
        <ele>877.40002441406</ele>
        <time>2015-08-24T11:47:24.000Z</time>
      </trkpt>
      <trkpt lat="45.16194" lon="6.04262">
        <ele>872.40002441406</ele>
        <time>2015-08-24T11:47:26.000Z</time>
      </trkpt>
      <trkpt lat="45.16166" lon="6.04259">
        <ele>867.79998779297</ele>
        <time>2015-08-24T11:47:28.000Z</time>
      </trkpt>
      <trkpt lat="45.16139" lon="6.04252">
        <ele>864</ele>
        <time>2015-08-24T11:47:30.000Z</time>
      </trkpt>
      <trkpt lat="45.16111" lon="6.04245">
        <ele>863.40002441406</ele>
        <time>2015-08-24T11:47:32.000Z</time>
      </trkpt>
      <trkpt lat="45.16093" lon="6.04242">
        <ele>864</ele>
        <time>2015-08-24T11:47:33.000Z</time>
      </trkpt>
      <trkpt lat="45.16064" lon="6.0424">
        <ele>865</ele>
        <time>2015-08-24T11:47:35.000Z</time>
      </trkpt>
      <trkpt lat="45.16037" lon="6.04241">
        <ele>864.59997558594</ele>
        <time>2015-08-24T11:47:37.000Z</time>
      </trkpt>
      <trkpt lat="45.16011" lon="6.04244">
        <ele>867.20001220703</ele>
        <time>2015-08-24T11:47:39.000Z</time>
      </trkpt>
      <trkpt lat="45.15988" lon="6.04251">
        <ele>868.79998779297</ele>
        <time>2015-08-24T11:47:41.000Z</time>
      </trkpt>
      <trkpt lat="45.15968" lon="6.04263">
        <ele>865.20001220703</ele>
        <time>2015-08-24T11:47:43.000Z</time>
      </trkpt>
      <trkpt lat="45.15948" lon="6.04277">
        <ele>860.59997558594</ele>
        <time>2015-08-24T11:47:45.000Z</time>
      </trkpt>
      <trkpt lat="45.15927" lon="6.04292">
        <ele>855.40002441406</ele>
        <time>2015-08-24T11:47:47.000Z</time>
      </trkpt>
      <trkpt lat="45.15907" lon="6.04305">
        <ele>850</ele>
        <time>2015-08-24T11:47:49.000Z</time>
      </trkpt>
      <trkpt lat="45.15889" lon="6.04317">
        <ele>849.79998779297</ele>
        <time>2015-08-24T11:47:51.000Z</time>
      </trkpt>
      <trkpt lat="45.15869" lon="6.04327">
        <ele>849.79998779297</ele>
        <time>2015-08-24T11:47:53.000Z</time>
      </trkpt>
      <trkpt lat="45.15849" lon="6.04334">
        <ele>851.59997558594</ele>
        <time>2015-08-24T11:47:55.000Z</time>
      </trkpt>
      <trkpt lat="45.15826" lon="6.04337">
        <ele>853.40002441406</ele>
        <time>2015-08-24T11:47:57.000Z</time>
      </trkpt>
      <trkpt lat="45.15808" lon="6.0434">
        <ele>852.20001220703</ele>
        <time>2015-08-24T11:47:59.000Z</time>
      </trkpt>
      <trkpt lat="45.15789" lon="6.0435">
        <ele>850.20001220703</ele>
        <time>2015-08-24T11:48:01.000Z</time>
      </trkpt>
      <trkpt lat="45.1578" lon="6.04357">
        <ele>850</ele>
        <time>2015-08-24T11:48:02.000Z</time>
      </trkpt>
      <trkpt lat="45.15762" lon="6.0437">
        <ele>848.20001220703</ele>
        <time>2015-08-24T11:48:04.000Z</time>
      </trkpt>
      <trkpt lat="45.15752" lon="6.04373">
        <ele>845.79998779297</ele>
        <time>2015-08-24T11:48:05.000Z</time>
      </trkpt>
      <trkpt lat="45.15741" lon="6.04376">
        <ele>843.40002441406</ele>
        <time>2015-08-24T11:48:06.000Z</time>
      </trkpt>
      <trkpt lat="45.15718" lon="6.04382">
        <ele>838.79998779297</ele>
        <time>2015-08-24T11:48:08.000Z</time>
      </trkpt>
      <trkpt lat="45.15691" lon="6.04389">
        <ele>837.20001220703</ele>
        <time>2015-08-24T11:48:10.000Z</time>
      </trkpt>
      <trkpt lat="45.15679" lon="6.04395">
        <ele>837.20001220703</ele>
        <time>2015-08-24T11:48:11.000Z</time>
      </trkpt>
      <trkpt lat="45.15666" lon="6.04403">
        <ele>840.40002441406</ele>
        <time>2015-08-24T11:48:12.000Z</time>
      </trkpt>
      <trkpt lat="45.15642" lon="6.04423">
        <ele>842.40002441406</ele>
        <time>2015-08-24T11:48:14.000Z</time>
      </trkpt>
      <trkpt lat="45.15619" lon="6.04444">
        <ele>839</ele>
        <time>2015-08-24T11:48:16.000Z</time>
      </trkpt>
      <trkpt lat="45.15595" lon="6.04461">
        <ele>834.79998779297</ele>
        <time>2015-08-24T11:48:18.000Z</time>
      </trkpt>
      <trkpt lat="45.15582" lon="6.04468">
        <ele>829.59997558594</ele>
        <time>2015-08-24T11:48:19.000Z</time>
      </trkpt>
      <trkpt lat="45.15557" lon="6.04482">
        <ele>823.40002441406</ele>
        <time>2015-08-24T11:48:21.000Z</time>
      </trkpt>
      <trkpt lat="45.15536" lon="6.04499">
        <ele>822.40002441406</ele>
        <time>2015-08-24T11:48:23.000Z</time>
      </trkpt>
      <trkpt lat="45.15526" lon="6.04509">
        <ele>824.40002441406</ele>
        <time>2015-08-24T11:48:24.000Z</time>
      </trkpt>
      <trkpt lat="45.15509" lon="6.0453">
        <ele>826.59997558594</ele>
        <time>2015-08-24T11:48:26.000Z</time>
      </trkpt>
      <trkpt lat="45.15492" lon="6.04551">
        <ele>819.40002441406</ele>
        <time>2015-08-24T11:48:28.000Z</time>
      </trkpt>
      <trkpt lat="45.15473" lon="6.04573">
        <ele>819.59997558594</ele>
        <time>2015-08-24T11:48:30.000Z</time>
      </trkpt>
      <trkpt lat="45.15462" lon="6.0458">
        <ele>818.20001220703</ele>
        <time>2015-08-24T11:48:31.000Z</time>
      </trkpt>
      <trkpt lat="45.1545" lon="6.04584">
        <ele>818.40002441406</ele>
        <time>2015-08-24T11:48:32.000Z</time>
      </trkpt>
      <trkpt lat="45.15423" lon="6.04597">
        <ele>821</ele>
        <time>2015-08-24T11:48:34.000Z</time>
      </trkpt>
      <trkpt lat="45.15393" lon="6.04605">
        <ele>817.40002441406</ele>
        <time>2015-08-24T11:48:36.000Z</time>
      </trkpt>
      <trkpt lat="45.15379" lon="6.04607">
        <ele>814.79998779297</ele>
        <time>2015-08-24T11:48:37.000Z</time>
      </trkpt>
      <trkpt lat="45.15365" lon="6.04606">
        <ele>813.20001220703</ele>
        <time>2015-08-24T11:48:38.000Z</time>
      </trkpt>
      <trkpt lat="45.15335" lon="6.04607">
        <ele>811</ele>
        <time>2015-08-24T11:48:40.000Z</time>
      </trkpt>
      <trkpt lat="45.15307" lon="6.0461">
        <ele>809.79998779297</ele>
        <time>2015-08-24T11:48:42.000Z</time>
      </trkpt>
      <trkpt lat="45.1528" lon="6.04622">
        <ele>811</ele>
        <time>2015-08-24T11:48:44.000Z</time>
      </trkpt>
      <trkpt lat="45.15257" lon="6.04638">
        <ele>809.59997558594</ele>
        <time>2015-08-24T11:48:46.000Z</time>
      </trkpt>
      <trkpt lat="45.15247" lon="6.04648">
        <ele>810.59997558594</ele>
        <time>2015-08-24T11:48:47.000Z</time>
      </trkpt>
      <trkpt lat="45.15231" lon="6.04648">
        <ele>807.79998779297</ele>
        <time>2015-08-24T11:48:48.000Z</time>
      </trkpt>
      <trkpt lat="45.15205" lon="6.04659">
        <ele>806.40002441406</ele>
        <time>2015-08-24T11:48:50.000Z</time>
      </trkpt>
      <trkpt lat="45.15192" lon="6.04663">
        <ele>805.79998779297</ele>
        <time>2015-08-24T11:48:51.000Z</time>
      </trkpt>
      <trkpt lat="45.1518" lon="6.04665">
        <ele>804.59997558594</ele>
        <time>2015-08-24T11:48:52.000Z</time>
      </trkpt>
      <trkpt lat="45.15159" lon="6.04672">
        <ele>802.79998779297</ele>
        <time>2015-08-24T11:48:54.000Z</time>
      </trkpt>
      <trkpt lat="45.15149" lon="6.04674">
        <ele>801.40002441406</ele>
        <time>2015-08-24T11:48:55.000Z</time>
      </trkpt>
      <trkpt lat="45.15128" lon="6.04685">
        <ele>800</ele>
        <time>2015-08-24T11:48:57.000Z</time>
      </trkpt>
      <trkpt lat="45.15121" lon="6.04691">
        <ele>801</ele>
        <time>2015-08-24T11:48:58.000Z</time>
      </trkpt>
      <trkpt lat="45.15106" lon="6.04708">
        <ele>804.40002441406</ele>
        <time>2015-08-24T11:49:00.000Z</time>
      </trkpt>
      <trkpt lat="45.15087" lon="6.04724">
        <ele>803.79998779297</ele>
        <time>2015-08-24T11:49:03.000Z</time>
      </trkpt>
      <trkpt lat="45.1508" lon="6.04729">
        <ele>804</ele>
        <time>2015-08-24T11:49:04.000Z</time>
      </trkpt>
      <trkpt lat="45.15074" lon="6.04733">
        <ele>804.79998779297</ele>
        <time>2015-08-24T11:49:05.000Z</time>
      </trkpt>
      <trkpt lat="45.15056" lon="6.04744">
        <ele>805.59997558594</ele>
        <time>2015-08-24T11:49:08.000Z</time>
      </trkpt>
      <trkpt lat="45.15041" lon="6.04753">
        <ele>804.20001220703</ele>
        <time>2015-08-24T11:49:11.000Z</time>
      </trkpt>
      <trkpt lat="45.15025" lon="6.04762">
        <ele>804.79998779297</ele>
        <time>2015-08-24T11:49:14.000Z</time>
      </trkpt>
      <trkpt lat="45.15005" lon="6.04774">
        <ele>806</ele>
        <time>2015-08-24T11:49:18.000Z</time>
      </trkpt>
      <trkpt lat="45.15001" lon="6.04777">
        <ele>806.59997558594</ele>
        <time>2015-08-24T11:49:19.000Z</time>
      </trkpt>
      <trkpt lat="45.14984" lon="6.04788">
        <ele>807.79998779297</ele>
        <time>2015-08-24T11:49:25.000Z</time>
      </trkpt>
      <trkpt lat="45.14969" lon="6.04804">
        <ele>811.20001220703</ele>
        <time>2015-08-24T11:49:31.000Z</time>
      </trkpt>
      <trkpt lat="45.14969" lon="6.04806">
        <ele>811.79998779297</ele>
        <time>2015-08-24T11:49:32.000Z</time>
      </trkpt>
      <trkpt lat="45.14958" lon="6.0482">
        <ele>815.40002441406</ele>
        <time>2015-08-24T11:49:39.000Z</time>
      </trkpt>
      <trkpt lat="45.14946" lon="6.04822">
        <ele>814.40002441406</ele>
        <time>2015-08-24T11:49:44.000Z</time>
      </trkpt>
      <trkpt lat="45.14929" lon="6.04821">
        <ele>811.59997558594</ele>
        <time>2015-08-24T11:49:49.000Z</time>
      </trkpt>
      <trkpt lat="45.1491" lon="6.04828">
        <ele>811.40002441406</ele>
        <time>2015-08-24T11:49:55.000Z</time>
      </trkpt>
      <trkpt lat="45.1489" lon="6.04835">
        <ele>810.59997558594</ele>
        <time>2015-08-24T11:50:01.000Z</time>
      </trkpt>
      <trkpt lat="45.14871" lon="6.04842">
        <ele>810</ele>
        <time>2015-08-24T11:50:07.000Z</time>
      </trkpt>
      <trkpt lat="45.14853" lon="6.0485">
        <ele>810.20001220703</ele>
        <time>2015-08-24T11:50:13.000Z</time>
      </trkpt>
      <trkpt lat="45.14847" lon="6.04856">
        <ele>810.79998779297</ele>
        <time>2015-08-24T11:50:16.000Z</time>
      </trkpt>
      <trkpt lat="45.14828" lon="6.04867">
        <ele>809.20001220703</ele>
        <time>2015-08-24T11:50:23.000Z</time>
      </trkpt>
      <trkpt lat="45.14815" lon="6.04884">
        <ele>809.79998779297</ele>
        <time>2015-08-24T11:50:30.000Z</time>
      </trkpt>
      <trkpt lat="45.14812" lon="6.04903">
        <ele>813.79998779297</ele>
        <time>2015-08-24T11:50:37.000Z</time>
      </trkpt>
      <trkpt lat="45.14808" lon="6.04932">
        <ele>818</ele>
        <time>2015-08-24T11:50:46.000Z</time>
      </trkpt>
      <trkpt lat="45.14807" lon="6.04934">
        <ele>818.20001220703</ele>
        <time>2015-08-24T11:50:47.000Z</time>
      </trkpt>
      <trkpt lat="45.14801" lon="6.04959">
        <ele>820.40002441406</ele>
        <time>2015-08-24T11:50:56.000Z</time>
      </trkpt>
      <trkpt lat="45.14799" lon="6.04962">
        <ele>820.40002441406</ele>
        <time>2015-08-24T11:50:57.000Z</time>
      </trkpt>
      <trkpt lat="45.14789" lon="6.04985">
        <ele>821.79998779297</ele>
        <time>2015-08-24T11:51:05.000Z</time>
      </trkpt>
      <trkpt lat="45.14776" lon="6.05005">
        <ele>823.59997558594</ele>
        <time>2015-08-24T11:51:12.000Z</time>
      </trkpt>
      <trkpt lat="45.14772" lon="6.0501">
        <ele>823.59997558594</ele>
        <time>2015-08-24T11:51:14.000Z</time>
      </trkpt>
      <trkpt lat="45.14765" lon="6.05016">
        <ele>823</ele>
        <time>2015-08-24T11:51:20.000Z</time>
      </trkpt>
      <trkpt lat="45.14766" lon="6.05014">
        <ele>823</ele>
        <time>2015-08-24T11:51:32.000Z</time>
      </trkpt>
      <trkpt lat="45.14772" lon="6.05007">
        <ele>822.79998779297</ele>
        <time>2015-08-24T11:57:39.000Z</time>
      </trkpt>
      <trkpt lat="45.1477" lon="6.05011">
        <ele>823.40002441406</ele>
        <time>2015-08-24T11:57:46.000Z</time>
      </trkpt>
      <trkpt lat="45.14763" lon="6.05024">
        <ele>824.79998779297</ele>
        <time>2015-08-24T11:57:53.000Z</time>
      </trkpt>
      <trkpt lat="45.14753" lon="6.05038">
        <ele>825.79998779297</ele>
        <time>2015-08-24T11:58:01.000Z</time>
      </trkpt>
      <trkpt lat="45.14743" lon="6.05047">
        <ele>825.59997558594</ele>
        <time>2015-08-24T11:58:08.000Z</time>
      </trkpt>
      <trkpt lat="45.1473" lon="6.0506">
        <ele>825.79998779297</ele>
        <time>2015-08-24T11:58:16.000Z</time>
      </trkpt>
      <trkpt lat="45.14716" lon="6.05071">
        <ele>825.59997558594</ele>
        <time>2015-08-24T11:58:23.000Z</time>
      </trkpt>
      <trkpt lat="45.14702" lon="6.05078">
        <ele>824.79998779297</ele>
        <time>2015-08-24T11:58:31.000Z</time>
      </trkpt>
      <trkpt lat="45.14687" lon="6.05086">
        <ele>824</ele>
        <time>2015-08-24T11:58:39.000Z</time>
      </trkpt>
      <trkpt lat="45.14671" lon="6.05099">
        <ele>824.79998779297</ele>
        <time>2015-08-24T11:58:46.000Z</time>
      </trkpt>
      <trkpt lat="45.14654" lon="6.05118">
        <ele>825</ele>
        <time>2015-08-24T11:58:53.000Z</time>
      </trkpt>
      <trkpt lat="45.1465" lon="6.05125">
        <ele>825.59997558594</ele>
        <time>2015-08-24T11:58:55.000Z</time>
      </trkpt>
      <trkpt lat="45.1465" lon="6.05139">
        <ele>828.40002441406</ele>
        <time>2015-08-24T11:58:58.000Z</time>
      </trkpt>
      <trkpt lat="45.14651" lon="6.05143">
        <ele>829.79998779297</ele>
        <time>2015-08-24T11:58:59.000Z</time>
      </trkpt>
      <trkpt lat="45.1466" lon="6.05144">
        <ele>832</ele>
        <time>2015-08-24T11:59:02.000Z</time>
      </trkpt>
      <trkpt lat="45.14667" lon="6.05134">
        <ele>831.59997558594</ele>
        <time>2015-08-24T11:59:06.000Z</time>
      </trkpt>
      <trkpt lat="45.14669" lon="6.05131">
        <ele>831.40002441406</ele>
        <time>2015-08-24T11:59:07.000Z</time>
      </trkpt>
      <trkpt lat="45.14683" lon="6.05114">
        <ele>831</ele>
        <time>2015-08-24T11:59:14.000Z</time>
      </trkpt>
      <trkpt lat="45.14695" lon="6.0511">
        <ele>832</ele>
        <time>2015-08-24T11:59:20.000Z</time>
      </trkpt>
      <trkpt lat="45.14709" lon="6.05107">
        <ele>833.79998779297</ele>
        <time>2015-08-24T11:59:28.000Z</time>
      </trkpt>
      <trkpt lat="45.14721" lon="6.05104">
        <ele>836</ele>
        <time>2015-08-24T11:59:36.000Z</time>
      </trkpt>
      <trkpt lat="45.14728" lon="6.05099">
        <ele>836.40002441406</ele>
        <time>2015-08-24T11:59:42.000Z</time>
      </trkpt>
      <trkpt lat="45.14733" lon="6.05092">
        <ele>835.59997558594</ele>
        <time>2015-08-24T11:59:48.000Z</time>
      </trkpt>
      <trkpt lat="45.14739" lon="6.05083">
        <ele>834.59997558594</ele>
        <time>2015-08-24T11:59:54.000Z</time>
      </trkpt>
      <trkpt lat="45.14741" lon="6.05083">
        <ele>835.20001220703</ele>
        <time>2015-08-24T11:59:56.000Z</time>
      </trkpt>
      <trkpt lat="45.14751" lon="6.0508">
        <ele>836.79998779297</ele>
        <time>2015-08-24T12:00:03.000Z</time>
      </trkpt>
      <trkpt lat="45.14763" lon="6.05081">
        <ele>839.79998779297</ele>
        <time>2015-08-24T12:00:11.000Z</time>
      </trkpt>
      <trkpt lat="45.14775" lon="6.05078">
        <ele>841.79998779297</ele>
        <time>2015-08-24T12:00:19.000Z</time>
      </trkpt>
      <trkpt lat="45.14789" lon="6.05079">
        <ele>845.59997558594</ele>
        <time>2015-08-24T12:00:25.000Z</time>
      </trkpt>
      <trkpt lat="45.14802" lon="6.05077">
        <ele>849</ele>
        <time>2015-08-24T12:00:34.000Z</time>
      </trkpt>
      <trkpt lat="45.14813" lon="6.05071">
        <ele>851.20001220703</ele>
        <time>2015-08-24T12:00:42.000Z</time>
      </trkpt>
      <trkpt lat="45.14824" lon="6.05067">
        <ele>854.20001220703</ele>
        <time>2015-08-24T12:00:48.000Z</time>
      </trkpt>
      <trkpt lat="45.14836" lon="6.05063">
        <ele>857</ele>
        <time>2015-08-24T12:00:54.000Z</time>
      </trkpt>
      <trkpt lat="45.14847" lon="6.05053">
        <ele>858.40002441406</ele>
        <time>2015-08-24T12:01:01.000Z</time>
      </trkpt>
      <trkpt lat="45.14858" lon="6.05036">
        <ele>858.40002441406</ele>
        <time>2015-08-24T12:01:08.000Z</time>
      </trkpt>
      <trkpt lat="45.14871" lon="6.05016">
        <ele>858.20001220703</ele>
        <time>2015-08-24T12:01:17.000Z</time>
      </trkpt>
      <trkpt lat="45.14873" lon="6.05015">
        <ele>858.59997558594</ele>
        <time>2015-08-24T12:01:18.000Z</time>
      </trkpt>
      <trkpt lat="45.14883" lon="6.05021">
        <ele>864.20001220703</ele>
        <time>2015-08-24T12:01:23.000Z</time>
      </trkpt>
      <trkpt lat="45.14883" lon="6.05034">
        <ele>867.40002441406</ele>
        <time>2015-08-24T12:01:27.000Z</time>
      </trkpt>
      <trkpt lat="45.14876" lon="6.05048">
        <ele>867.79998779297</ele>
        <time>2015-08-24T12:01:32.000Z</time>
      </trkpt>
      <trkpt lat="45.1486" lon="6.05061">
        <ele>865</ele>
        <time>2015-08-24T12:01:40.000Z</time>
      </trkpt>
      <trkpt lat="45.14849" lon="6.0508">
        <ele>866.40002441406</ele>
        <time>2015-08-24T12:01:47.000Z</time>
      </trkpt>
      <trkpt lat="45.14844" lon="6.05086">
        <ele>866.40002441406</ele>
        <time>2015-08-24T12:01:50.000Z</time>
      </trkpt>
      <trkpt lat="45.14839" lon="6.05094">
        <ele>866.79998779297</ele>
        <time>2015-08-24T12:01:54.000Z</time>
      </trkpt>
      <trkpt lat="45.14832" lon="6.05104">
        <ele>866.79998779297</ele>
        <time>2015-08-24T12:02:00.000Z</time>
      </trkpt>
      <trkpt lat="45.14823" lon="6.05115">
        <ele>867.20001220703</ele>
        <time>2015-08-24T12:02:06.000Z</time>
      </trkpt>
      <trkpt lat="45.14814" lon="6.05131">
        <ele>868.59997558594</ele>
        <time>2015-08-24T12:02:13.000Z</time>
      </trkpt>
      <trkpt lat="45.14809" lon="6.05157">
        <ele>873.20001220703</ele>
        <time>2015-08-24T12:02:22.000Z</time>
      </trkpt>
      <trkpt lat="45.14807" lon="6.05161">
        <ele>873</ele>
        <time>2015-08-24T12:02:24.000Z</time>
      </trkpt>
      <trkpt lat="45.14802" lon="6.05172">
        <ele>873.59997558594</ele>
        <time>2015-08-24T12:02:29.000Z</time>
      </trkpt>
      <trkpt lat="45.14796" lon="6.05186">
        <ele>874.20001220703</ele>
        <time>2015-08-24T12:02:35.000Z</time>
      </trkpt>
      <trkpt lat="45.14788" lon="6.05202">
        <ele>874.79998779297</ele>
        <time>2015-08-24T12:02:42.000Z</time>
      </trkpt>
      <trkpt lat="45.14781" lon="6.05218">
        <ele>876</ele>
        <time>2015-08-24T12:02:50.000Z</time>
      </trkpt>
      <trkpt lat="45.14769" lon="6.05228">
        <ele>874.79998779297</ele>
        <time>2015-08-24T12:02:58.000Z</time>
      </trkpt>
      <trkpt lat="45.14758" lon="6.05242">
        <ele>875</ele>
        <time>2015-08-24T12:03:06.000Z</time>
      </trkpt>
      <trkpt lat="45.14752" lon="6.05253">
        <ele>875.59997558594</ele>
        <time>2015-08-24T12:03:12.000Z</time>
      </trkpt>
      <trkpt lat="45.1475" lon="6.05268">
        <ele>878</ele>
        <time>2015-08-24T12:03:20.000Z</time>
      </trkpt>
      <trkpt lat="45.14737" lon="6.05287">
        <ele>876.20001220703</ele>
        <time>2015-08-24T12:03:29.000Z</time>
      </trkpt>
      <trkpt lat="45.14731" lon="6.05303">
        <ele>876.40002441406</ele>
        <time>2015-08-24T12:03:36.000Z</time>
      </trkpt>
      <trkpt lat="45.14724" lon="6.05314">
        <ele>876</ele>
        <time>2015-08-24T12:03:42.000Z</time>
      </trkpt>
      <trkpt lat="45.14715" lon="6.05322">
        <ele>874</ele>
        <time>2015-08-24T12:03:48.000Z</time>
      </trkpt>
      <trkpt lat="45.14713" lon="6.05342">
        <ele>876.20001220703</ele>
        <time>2015-08-24T12:03:55.000Z</time>
      </trkpt>
      <trkpt lat="45.14722" lon="6.05365">
        <ele>882.40002441406</ele>
        <time>2015-08-24T12:04:03.000Z</time>
      </trkpt>
      <trkpt lat="45.14728" lon="6.05377">
        <ele>886.20001220703</ele>
        <time>2015-08-24T12:04:10.000Z</time>
      </trkpt>
      <trkpt lat="45.14743" lon="6.05388">
        <ele>893</ele>
        <time>2015-08-24T12:04:20.000Z</time>
      </trkpt>
      <trkpt lat="45.14754" lon="6.05401">
        <ele>898.79998779297</ele>
        <time>2015-08-24T12:04:28.000Z</time>
      </trkpt>
      <trkpt lat="45.14756" lon="6.05416">
        <ele>901.59997558594</ele>
        <time>2015-08-24T12:04:34.000Z</time>
      </trkpt>
      <trkpt lat="45.14751" lon="6.05422">
        <ele>900.79998779297</ele>
        <time>2015-08-24T12:04:38.000Z</time>
      </trkpt>
      <trkpt lat="45.14747" lon="6.05424">
        <ele>899.40002441406</ele>
        <time>2015-08-24T12:04:40.000Z</time>
      </trkpt>
      <trkpt lat="45.14735" lon="6.05433">
        <ele>899</ele>
        <time>2015-08-24T12:04:47.000Z</time>
      </trkpt>
      <trkpt lat="45.14725" lon="6.05444">
        <ele>899.79998779297</ele>
        <time>2015-08-24T12:04:54.000Z</time>
      </trkpt>
      <trkpt lat="45.14713" lon="6.05455">
        <ele>900.59997558594</ele>
        <time>2015-08-24T12:05:02.000Z</time>
      </trkpt>
      <trkpt lat="45.14705" lon="6.05465">
        <ele>901.20001220703</ele>
        <time>2015-08-24T12:05:08.000Z</time>
      </trkpt>
      <trkpt lat="45.14696" lon="6.05481">
        <ele>901.59997558594</ele>
        <time>2015-08-24T12:05:16.000Z</time>
      </trkpt>
      <trkpt lat="45.14693" lon="6.05499">
        <ele>904</ele>
        <time>2015-08-24T12:05:23.000Z</time>
      </trkpt>
      <trkpt lat="45.1469" lon="6.05513">
        <ele>905.40002441406</ele>
        <time>2015-08-24T12:05:29.000Z</time>
      </trkpt>
      <trkpt lat="45.14686" lon="6.05534">
        <ele>908</ele>
        <time>2015-08-24T12:05:37.000Z</time>
      </trkpt>
      <trkpt lat="45.14682" lon="6.05554">
        <ele>909</ele>
        <time>2015-08-24T12:05:45.000Z</time>
      </trkpt>
      <trkpt lat="45.14677" lon="6.05569">
        <ele>909</ele>
        <time>2015-08-24T12:05:52.000Z</time>
      </trkpt>
      <trkpt lat="45.14675" lon="6.05591">
        <ele>910</ele>
        <time>2015-08-24T12:06:01.000Z</time>
      </trkpt>
      <trkpt lat="45.14672" lon="6.05609">
        <ele>910</ele>
        <time>2015-08-24T12:06:08.000Z</time>
      </trkpt>
      <trkpt lat="45.14672" lon="6.05624">
        <ele>911</ele>
        <time>2015-08-24T12:06:13.000Z</time>
      </trkpt>
      <trkpt lat="45.14678" lon="6.0564">
        <ele>914.40002441406</ele>
        <time>2015-08-24T12:06:20.000Z</time>
      </trkpt>
      <trkpt lat="45.14679" lon="6.05641">
        <ele>915</ele>
        <time>2015-08-24T12:06:21.000Z</time>
      </trkpt>
      <trkpt lat="45.14687" lon="6.05642">
        <ele>919</ele>
        <time>2015-08-24T12:06:25.000Z</time>
      </trkpt>
      <trkpt lat="45.14693" lon="6.05635">
        <ele>921.40002441406</ele>
        <time>2015-08-24T12:06:30.000Z</time>
      </trkpt>
      <trkpt lat="45.14701" lon="6.05617">
        <ele>923.59997558594</ele>
        <time>2015-08-24T12:06:37.000Z</time>
      </trkpt>
      <trkpt lat="45.14708" lon="6.05599">
        <ele>924.79998779297</ele>
        <time>2015-08-24T12:06:44.000Z</time>
      </trkpt>
      <trkpt lat="45.14712" lon="6.05585">
        <ele>924.79998779297</ele>
        <time>2015-08-24T12:06:51.000Z</time>
      </trkpt>
      <trkpt lat="45.14722" lon="6.05573">
        <ele>927.40002441406</ele>
        <time>2015-08-24T12:06:58.000Z</time>
      </trkpt>
      <trkpt lat="45.14728" lon="6.05561">
        <ele>926.40002441406</ele>
        <time>2015-08-24T12:07:05.000Z</time>
      </trkpt>
      <trkpt lat="45.14736" lon="6.05547">
        <ele>925.59997558594</ele>
        <time>2015-08-24T12:07:13.000Z</time>
      </trkpt>
      <trkpt lat="45.14741" lon="6.05539">
        <ele>925.40002441406</ele>
        <time>2015-08-24T12:07:20.000Z</time>
      </trkpt>
      <trkpt lat="45.14749" lon="6.05531">
        <ele>925.79998779297</ele>
        <time>2015-08-24T12:07:26.000Z</time>
      </trkpt>
      <trkpt lat="45.14758" lon="6.05524">
        <ele>926.40002441406</ele>
        <time>2015-08-24T12:07:33.000Z</time>
      </trkpt>
      <trkpt lat="45.14769" lon="6.05521">
        <ele>928.40002441406</ele>
        <time>2015-08-24T12:07:40.000Z</time>
      </trkpt>
      <trkpt lat="45.14785" lon="6.05519">
        <ele>931.20001220703</ele>
        <time>2015-08-24T12:07:48.000Z</time>
      </trkpt>
      <trkpt lat="45.14799" lon="6.05517">
        <ele>933.79998779297</ele>
        <time>2015-08-24T12:07:55.000Z</time>
      </trkpt>
      <trkpt lat="45.14808" lon="6.05515">
        <ele>935.59997558594</ele>
        <time>2015-08-24T12:08:01.000Z</time>
      </trkpt>
      <trkpt lat="45.14817" lon="6.05516">
        <ele>937.79998779297</ele>
        <time>2015-08-24T12:08:07.000Z</time>
      </trkpt>
      <trkpt lat="45.14827" lon="6.05516">
        <ele>940.20001220703</ele>
        <time>2015-08-24T12:08:12.000Z</time>
      </trkpt>
      <trkpt lat="45.14836" lon="6.05517">
        <ele>942.40002441406</ele>
        <time>2015-08-24T12:08:18.000Z</time>
      </trkpt>
      <trkpt lat="45.14839" lon="6.05517">
        <ele>943.40002441406</ele>
        <time>2015-08-24T12:08:20.000Z</time>
      </trkpt>
      <trkpt lat="45.14843" lon="6.05518">
        <ele>945</ele>
        <time>2015-08-24T12:08:23.000Z</time>
      </trkpt>
      <trkpt lat="45.14848" lon="6.05516">
        <ele>946.40002441406</ele>
        <time>2015-08-24T12:08:27.000Z</time>
      </trkpt>
      <trkpt lat="45.14864" lon="6.05516">
        <ele>951.79998779297</ele>
        <time>2015-08-24T12:08:34.000Z</time>
      </trkpt>
      <trkpt lat="45.14876" lon="6.05512">
        <ele>955.40002441406</ele>
        <time>2015-08-24T12:08:39.000Z</time>
      </trkpt>
      <trkpt lat="45.14875" lon="6.05513">
        <ele>955.20001220703</ele>
        <time>2015-08-24T12:08:41.000Z</time>
      </trkpt>
      <trkpt lat="45.14874" lon="6.05513">
        <ele>955</ele>
        <time>2015-08-24T12:08:43.000Z</time>
      </trkpt>
      <trkpt lat="45.14869" lon="6.05501">
        <ele>951.79998779297</ele>
        <time>2015-08-24T12:08:50.000Z</time>
      </trkpt>
      <trkpt lat="45.14862" lon="6.05486">
        <ele>948</ele>
        <time>2015-08-24T12:08:57.000Z</time>
      </trkpt>
      <trkpt lat="45.14862" lon="6.05484">
        <ele>947.79998779297</ele>
        <time>2015-08-24T12:08:58.000Z</time>
      </trkpt>
      <trkpt lat="45.14862" lon="6.05474">
        <ele>946.59997558594</ele>
        <time>2015-08-24T12:09:02.000Z</time>
      </trkpt>
      <trkpt lat="45.14867" lon="6.0546">
        <ele>945.79998779297</ele>
        <time>2015-08-24T12:09:08.000Z</time>
      </trkpt>
      <trkpt lat="45.14875" lon="6.05449">
        <ele>946.59997558594</ele>
        <time>2015-08-24T12:09:14.000Z</time>
      </trkpt>
      <trkpt lat="45.14887" lon="6.05435">
        <ele>948.20001220703</ele>
        <time>2015-08-24T12:09:21.000Z</time>
      </trkpt>
      <trkpt lat="45.14898" lon="6.05425">
        <ele>950.79998779297</ele>
        <time>2015-08-24T12:09:28.000Z</time>
      </trkpt>
      <trkpt lat="45.14908" lon="6.0542">
        <ele>954</ele>
        <time>2015-08-24T12:09:34.000Z</time>
      </trkpt>
      <trkpt lat="45.14916" lon="6.05415">
        <ele>956.59997558594</ele>
        <time>2015-08-24T12:09:40.000Z</time>
      </trkpt>
      <trkpt lat="45.14926" lon="6.05405">
        <ele>959.40002441406</ele>
        <time>2015-08-24T12:09:47.000Z</time>
      </trkpt>
      <trkpt lat="45.14941" lon="6.05394">
        <ele>963.59997558594</ele>
        <time>2015-08-24T12:09:56.000Z</time>
      </trkpt>
      <trkpt lat="45.14948" lon="6.05386">
        <ele>965.40002441406</ele>
        <time>2015-08-24T12:10:02.000Z</time>
      </trkpt>
      <trkpt lat="45.14958" lon="6.05373">
        <ele>967.59997558594</ele>
        <time>2015-08-24T12:10:11.000Z</time>
      </trkpt>
      <trkpt lat="45.14964" lon="6.05364">
        <ele>968.79998779297</ele>
        <time>2015-08-24T12:10:16.000Z</time>
      </trkpt>
      <trkpt lat="45.14968" lon="6.05359">
        <ele>969.40002441406</ele>
        <time>2015-08-24T12:10:19.000Z</time>
      </trkpt>
      <trkpt lat="45.14972" lon="6.05343">
        <ele>969</ele>
        <time>2015-08-24T12:10:25.000Z</time>
      </trkpt>
      <trkpt lat="45.14974" lon="6.05332">
        <ele>968</ele>
        <time>2015-08-24T12:10:30.000Z</time>
      </trkpt>
      <trkpt lat="45.14975" lon="6.05313">
        <ele>965.40002441406</ele>
        <time>2015-08-24T12:10:37.000Z</time>
      </trkpt>
      <trkpt lat="45.14981" lon="6.05304">
        <ele>967.59997558594</ele>
        <time>2015-08-24T12:10:42.000Z</time>
      </trkpt>
      <trkpt lat="45.1499" lon="6.05306">
        <ele>973</ele>
        <time>2015-08-24T12:10:47.000Z</time>
      </trkpt>
      <trkpt lat="45.14995" lon="6.05317">
        <ele>977.40002441406</ele>
        <time>2015-08-24T12:10:52.000Z</time>
      </trkpt>
      <trkpt lat="45.14993" lon="6.05333">
        <ele>978.59997558594</ele>
        <time>2015-08-24T12:10:58.000Z</time>
      </trkpt>
      <trkpt lat="45.14988" lon="6.05346">
        <ele>978</ele>
        <time>2015-08-24T12:11:03.000Z</time>
      </trkpt>
      <trkpt lat="45.14987" lon="6.05349">
        <ele>978.20001220703</ele>
        <time>2015-08-24T12:11:04.000Z</time>
      </trkpt>
      <trkpt lat="45.14986" lon="6.05361">
        <ele>979.59997558594</ele>
        <time>2015-08-24T12:11:08.000Z</time>
      </trkpt>
      <trkpt lat="45.14984" lon="6.05371">
        <ele>980.40002441406</ele>
        <time>2015-08-24T12:11:11.000Z</time>
      </trkpt>
      <trkpt lat="45.14981" lon="6.05383">
        <ele>981.20001220703</ele>
        <time>2015-08-24T12:11:17.000Z</time>
      </trkpt>
      <trkpt lat="45.14978" lon="6.054">
        <ele>982.59997558594</ele>
        <time>2015-08-24T12:11:23.000Z</time>
      </trkpt>
      <trkpt lat="45.14978" lon="6.05416">
        <ele>986</ele>
        <time>2015-08-24T12:11:29.000Z</time>
      </trkpt>
      <trkpt lat="45.14975" lon="6.05431">
        <ele>986.20001220703</ele>
        <time>2015-08-24T12:11:35.000Z</time>
      </trkpt>
      <trkpt lat="45.14973" lon="6.05433">
        <ele>985.79998779297</ele>
        <time>2015-08-24T12:11:36.000Z</time>
      </trkpt>
      <trkpt lat="45.14972" lon="6.05441">
        <ele>986.20001220703</ele>
        <time>2015-08-24T12:11:39.000Z</time>
      </trkpt>
      <trkpt lat="45.14971" lon="6.05451">
        <ele>987</ele>
        <time>2015-08-24T12:11:43.000Z</time>
      </trkpt>
      <trkpt lat="45.14969" lon="6.05457">
        <ele>987</ele>
        <time>2015-08-24T12:11:46.000Z</time>
      </trkpt>
      <trkpt lat="45.14968" lon="6.05461">
        <ele>987.20001220703</ele>
        <time>2015-08-24T12:11:48.000Z</time>
      </trkpt>
      <trkpt lat="45.14965" lon="6.05477">
        <ele>987.40002441406</ele>
        <time>2015-08-24T12:11:55.000Z</time>
      </trkpt>
      <trkpt lat="45.14961" lon="6.05497">
        <ele>987.59997558594</ele>
        <time>2015-08-24T12:12:03.000Z</time>
      </trkpt>
      <trkpt lat="45.14957" lon="6.0551">
        <ele>987.20001220703</ele>
        <time>2015-08-24T12:12:09.000Z</time>
      </trkpt>
      <trkpt lat="45.14955" lon="6.05528">
        <ele>988.20001220703</ele>
        <time>2015-08-24T12:12:17.000Z</time>
      </trkpt>
      <trkpt lat="45.14964" lon="6.05545">
        <ele>994.40002441406</ele>
        <time>2015-08-24T12:12:25.000Z</time>
      </trkpt>
      <trkpt lat="45.14972" lon="6.05558">
        <ele>1000.5999755859</ele>
        <time>2015-08-24T12:12:34.000Z</time>
      </trkpt>
      <trkpt lat="45.1498" lon="6.05569">
        <ele>1005.5999755859</ele>
        <time>2015-08-24T12:12:40.000Z</time>
      </trkpt>
      <trkpt lat="45.14984" lon="6.05584">
        <ele>1008.200012207</ele>
        <time>2015-08-24T12:12:45.000Z</time>
      </trkpt>
      <trkpt lat="45.14988" lon="6.05604">
        <ele>1011.5999755859</ele>
        <time>2015-08-24T12:12:52.000Z</time>
      </trkpt>
      <trkpt lat="45.1499" lon="6.05625">
        <ele>1014.5999755859</ele>
        <time>2015-08-24T12:12:59.000Z</time>
      </trkpt>
      <trkpt lat="45.1499" lon="6.05642">
        <ele>1016</ele>
        <time>2015-08-24T12:13:05.000Z</time>
      </trkpt>
      <trkpt lat="45.14979" lon="6.05659">
        <ele>1010</ele>
        <time>2015-08-24T12:13:12.000Z</time>
      </trkpt>
      <trkpt lat="45.14966" lon="6.0567">
        <ele>1005.799987793</ele>
        <time>2015-08-24T12:13:20.000Z</time>
      </trkpt>
      <trkpt lat="45.14953" lon="6.05683">
        <ele>1003</ele>
        <time>2015-08-24T12:13:28.000Z</time>
      </trkpt>
      <trkpt lat="45.14944" lon="6.057">
        <ele>1002.200012207</ele>
        <time>2015-08-24T12:13:36.000Z</time>
      </trkpt>
      <trkpt lat="45.1494" lon="6.05714">
        <ele>1002.799987793</ele>
        <time>2015-08-24T12:13:42.000Z</time>
      </trkpt>
      <trkpt lat="45.14931" lon="6.05733">
        <ele>1003.200012207</ele>
        <time>2015-08-24T12:13:50.000Z</time>
      </trkpt>
      <trkpt lat="45.14924" lon="6.05748">
        <ele>1002.4000244141</ele>
        <time>2015-08-24T12:13:58.000Z</time>
      </trkpt>
      <trkpt lat="45.14919" lon="6.05768">
        <ele>1002.5999755859</ele>
        <time>2015-08-24T12:14:06.000Z</time>
      </trkpt>
      <trkpt lat="45.14919" lon="6.05791">
        <ele>1005.4000244141</ele>
        <time>2015-08-24T12:14:14.000Z</time>
      </trkpt>
      <trkpt lat="45.14922" lon="6.05816">
        <ele>1008.4000244141</ele>
        <time>2015-08-24T12:14:22.000Z</time>
      </trkpt>
      <trkpt lat="45.14922" lon="6.05835">
        <ele>1009.5999755859</ele>
        <time>2015-08-24T12:14:29.000Z</time>
      </trkpt>
      <trkpt lat="45.14925" lon="6.05862">
        <ele>1011.5999755859</ele>
        <time>2015-08-24T12:14:39.000Z</time>
      </trkpt>
      <trkpt lat="45.14925" lon="6.05882">
        <ele>1012</ele>
        <time>2015-08-24T12:14:46.000Z</time>
      </trkpt>
      <trkpt lat="45.14929" lon="6.05905">
        <ele>1013.4000244141</ele>
        <time>2015-08-24T12:14:54.000Z</time>
      </trkpt>
      <trkpt lat="45.14934" lon="6.05927">
        <ele>1015.4000244141</ele>
        <time>2015-08-24T12:15:01.000Z</time>
      </trkpt>
      <trkpt lat="45.1494" lon="6.05943">
        <ele>1017.4000244141</ele>
        <time>2015-08-24T12:15:08.000Z</time>
      </trkpt>
      <trkpt lat="45.14943" lon="6.05956">
        <ele>1018.5999755859</ele>
        <time>2015-08-24T12:15:14.000Z</time>
      </trkpt>
      <trkpt lat="45.14949" lon="6.05972">
        <ele>1019.799987793</ele>
        <time>2015-08-24T12:15:20.000Z</time>
      </trkpt>
      <trkpt lat="45.14956" lon="6.0599">
        <ele>1021.200012207</ele>
        <time>2015-08-24T12:15:27.000Z</time>
      </trkpt>
      <trkpt lat="45.14963" lon="6.06008">
        <ele>1022.5999755859</ele>
        <time>2015-08-24T12:15:34.000Z</time>
      </trkpt>
      <trkpt lat="45.14972" lon="6.06025">
        <ele>1025.1999511719</ele>
        <time>2015-08-24T12:15:40.000Z</time>
      </trkpt>
      <trkpt lat="45.14983" lon="6.06049">
        <ele>1028</ele>
        <time>2015-08-24T12:15:49.000Z</time>
      </trkpt>
      <trkpt lat="45.14993" lon="6.06072">
        <ele>1031.8000488281</ele>
        <time>2015-08-24T12:15:58.000Z</time>
      </trkpt>
      <trkpt lat="45.15002" lon="6.06079">
        <ele>1035</ele>
        <time>2015-08-24T12:16:04.000Z</time>
      </trkpt>
      <trkpt lat="45.15009" lon="6.06083">
        <ele>1037.8000488281</ele>
        <time>2015-08-24T12:16:09.000Z</time>
      </trkpt>
      <trkpt lat="45.1501" lon="6.06085">
        <ele>1038.4000244141</ele>
        <time>2015-08-24T12:16:10.000Z</time>
      </trkpt>
      <trkpt lat="45.15011" lon="6.06088">
        <ele>1038.8000488281</ele>
        <time>2015-08-24T12:16:13.000Z</time>
      </trkpt>
      <trkpt lat="45.1501" lon="6.06088">
        <ele>1038.5999755859</ele>
        <time>2015-08-24T12:16:15.000Z</time>
      </trkpt>
      <trkpt lat="45.15008" lon="6.06098">
        <ele>1038.1999511719</ele>
        <time>2015-08-24T12:16:42.000Z</time>
      </trkpt>
      <trkpt lat="45.15003" lon="6.06119">
        <ele>1037</ele>
        <time>2015-08-24T12:16:47.000Z</time>
      </trkpt>
      <trkpt lat="45.14991" lon="6.06144">
        <ele>1033.1999511719</ele>
        <time>2015-08-24T12:16:51.000Z</time>
      </trkpt>
      <trkpt lat="45.14976" lon="6.0617">
        <ele>1029.4000244141</ele>
        <time>2015-08-24T12:16:55.000Z</time>
      </trkpt>
      <trkpt lat="45.14969" lon="6.06182">
        <ele>1026.8000488281</ele>
        <time>2015-08-24T12:16:57.000Z</time>
      </trkpt>
      <trkpt lat="45.14966" lon="6.06189">
        <ele>1026</ele>
        <time>2015-08-24T12:16:58.000Z</time>
      </trkpt>
      <trkpt lat="45.14966" lon="6.06202">
        <ele>1026.4000244141</ele>
        <time>2015-08-24T12:17:00.000Z</time>
      </trkpt>
      <trkpt lat="45.14967" lon="6.06216">
        <ele>1027.1999511719</ele>
        <time>2015-08-24T12:17:03.000Z</time>
      </trkpt>
      <trkpt lat="45.1497" lon="6.06226">
        <ele>1029</ele>
        <time>2015-08-24T12:17:05.000Z</time>
      </trkpt>
      <trkpt lat="45.14973" lon="6.0624">
        <ele>1031.4000244141</ele>
        <time>2015-08-24T12:17:08.000Z</time>
      </trkpt>
      <trkpt lat="45.1498" lon="6.06268">
        <ele>1035.1999511719</ele>
        <time>2015-08-24T12:17:14.000Z</time>
      </trkpt>
      <trkpt lat="45.14985" lon="6.06296">
        <ele>1037.8000488281</ele>
        <time>2015-08-24T12:17:20.000Z</time>
      </trkpt>
      <trkpt lat="45.14987" lon="6.0631">
        <ele>1039</ele>
        <time>2015-08-24T12:17:23.000Z</time>
      </trkpt>
      <trkpt lat="45.1499" lon="6.06336">
        <ele>1041.5999755859</ele>
        <time>2015-08-24T12:17:29.000Z</time>
      </trkpt>
      <trkpt lat="45.14996" lon="6.06363">
        <ele>1044.4000244141</ele>
        <time>2015-08-24T12:17:35.000Z</time>
      </trkpt>
      <trkpt lat="45.14997" lon="6.06367">
        <ele>1044.8000488281</ele>
        <time>2015-08-24T12:17:36.000Z</time>
      </trkpt>
      <trkpt lat="45.15001" lon="6.06388">
        <ele>1046.5999755859</ele>
        <time>2015-08-24T12:17:41.000Z</time>
      </trkpt>
      <trkpt lat="45.15004" lon="6.06413">
        <ele>1049</ele>
        <time>2015-08-24T12:17:47.000Z</time>
      </trkpt>
      <trkpt lat="45.15005" lon="6.06417">
        <ele>1049.4000244141</ele>
        <time>2015-08-24T12:17:48.000Z</time>
      </trkpt>
      <trkpt lat="45.1501" lon="6.06444">
        <ele>1052.1999511719</ele>
        <time>2015-08-24T12:17:54.000Z</time>
      </trkpt>
      <trkpt lat="45.15011" lon="6.06452">
        <ele>1052</ele>
        <time>2015-08-24T12:17:56.000Z</time>
      </trkpt>
      <trkpt lat="45.15015" lon="6.0648">
        <ele>1051</ele>
        <time>2015-08-24T12:18:03.000Z</time>
      </trkpt>
      <trkpt lat="45.15016" lon="6.06484">
        <ele>1050.5999755859</ele>
        <time>2015-08-24T12:18:04.000Z</time>
      </trkpt>
      <trkpt lat="45.15023" lon="6.06511">
        <ele>1048</ele>
        <time>2015-08-24T12:18:12.000Z</time>
      </trkpt>
      <trkpt lat="45.15025" lon="6.06518">
        <ele>1047.4000244141</ele>
        <time>2015-08-24T12:18:14.000Z</time>
      </trkpt>
      <trkpt lat="45.15033" lon="6.06542">
        <ele>1046</ele>
        <time>2015-08-24T12:18:20.000Z</time>
      </trkpt>
      <trkpt lat="45.15036" lon="6.06553">
        <ele>1045.5999755859</ele>
        <time>2015-08-24T12:18:23.000Z</time>
      </trkpt>
      <trkpt lat="45.15047" lon="6.06576">
        <ele>1041.4000244141</ele>
        <time>2015-08-24T12:18:30.000Z</time>
      </trkpt>
      <trkpt lat="45.15051" lon="6.06581">
        <ele>1041.1999511719</ele>
        <time>2015-08-24T12:18:32.000Z</time>
      </trkpt>
      <trkpt lat="45.1507" lon="6.06587">
        <ele>1050</ele>
        <time>2015-08-24T12:18:39.000Z</time>
      </trkpt>
      <trkpt lat="45.15073" lon="6.06587">
        <ele>1051.8000488281</ele>
        <time>2015-08-24T12:18:40.000Z</time>
      </trkpt>
      <trkpt lat="45.15092" lon="6.06591">
        <ele>1059.4000244141</ele>
        <time>2015-08-24T12:18:47.000Z</time>
      </trkpt>
      <trkpt lat="45.15095" lon="6.06592">
        <ele>1060.4000244141</ele>
        <time>2015-08-24T12:18:48.000Z</time>
      </trkpt>
      <trkpt lat="45.15112" lon="6.06601">
        <ele>1064.8000488281</ele>
        <time>2015-08-24T12:18:55.000Z</time>
      </trkpt>
      <trkpt lat="45.15114" lon="6.06603">
        <ele>1065.4000244141</ele>
        <time>2015-08-24T12:18:56.000Z</time>
      </trkpt>
      <trkpt lat="45.15131" lon="6.06619">
        <ele>1067.5999755859</ele>
        <time>2015-08-24T12:19:03.000Z</time>
      </trkpt>
      <trkpt lat="45.15133" lon="6.06622">
        <ele>1067.8000488281</ele>
        <time>2015-08-24T12:19:04.000Z</time>
      </trkpt>
      <trkpt lat="45.15147" lon="6.06643">
        <ele>1067.4000244141</ele>
        <time>2015-08-24T12:19:10.000Z</time>
      </trkpt>
      <trkpt lat="45.15151" lon="6.0665">
        <ele>1067.8000488281</ele>
        <time>2015-08-24T12:19:12.000Z</time>
      </trkpt>
      <trkpt lat="45.15166" lon="6.06671">
        <ele>1069.4000244141</ele>
        <time>2015-08-24T12:19:18.000Z</time>
      </trkpt>
      <trkpt lat="45.15172" lon="6.0668">
        <ele>1070.1999511719</ele>
        <time>2015-08-24T12:19:21.000Z</time>
      </trkpt>
      <trkpt lat="45.15185" lon="6.06699">
        <ele>1071</ele>
        <time>2015-08-24T12:19:26.000Z</time>
      </trkpt>
      <trkpt lat="45.15192" lon="6.0671">
        <ele>1072</ele>
        <time>2015-08-24T12:19:29.000Z</time>
      </trkpt>
      <trkpt lat="45.15205" lon="6.06728">
        <ele>1072.8000488281</ele>
        <time>2015-08-24T12:19:34.000Z</time>
      </trkpt>
      <trkpt lat="45.1521" lon="6.06741">
        <ele>1072</ele>
        <time>2015-08-24T12:19:37.000Z</time>
      </trkpt>
      <trkpt lat="45.15219" lon="6.06765">
        <ele>1067.5999755859</ele>
        <time>2015-08-24T12:19:42.000Z</time>
      </trkpt>
      <trkpt lat="45.15223" lon="6.06785">
        <ele>1062.8000488281</ele>
        <time>2015-08-24T12:19:46.000Z</time>
      </trkpt>
      <trkpt lat="45.15233" lon="6.0681">
        <ele>1059</ele>
        <time>2015-08-24T12:19:52.000Z</time>
      </trkpt>
      <trkpt lat="45.15237" lon="6.06817">
        <ele>1059.4000244141</ele>
        <time>2015-08-24T12:19:54.000Z</time>
      </trkpt>
      <trkpt lat="45.1525" lon="6.06836">
        <ele>1060.8000488281</ele>
        <time>2015-08-24T12:19:59.000Z</time>
      </trkpt>
      <trkpt lat="45.15258" lon="6.06848">
        <ele>1062.1999511719</ele>
        <time>2015-08-24T12:20:03.000Z</time>
      </trkpt>
      <trkpt lat="45.15276" lon="6.06865">
        <ele>1067.8000488281</ele>
        <time>2015-08-24T12:20:10.000Z</time>
      </trkpt>
      <trkpt lat="45.15279" lon="6.06867">
        <ele>1069.5999755859</ele>
        <time>2015-08-24T12:20:11.000Z</time>
      </trkpt>
      <trkpt lat="45.15296" lon="6.06875">
        <ele>1077.4000244141</ele>
        <time>2015-08-24T12:20:16.000Z</time>
      </trkpt>
      <trkpt lat="45.15308" lon="6.06891">
        <ele>1080.5999755859</ele>
        <time>2015-08-24T12:20:21.000Z</time>
      </trkpt>
      <trkpt lat="45.15317" lon="6.0692">
        <ele>1082.8000488281</ele>
        <time>2015-08-24T12:20:27.000Z</time>
      </trkpt>
      <trkpt lat="45.15319" lon="6.06939">
        <ele>1085.1999511719</ele>
        <time>2015-08-24T12:20:31.000Z</time>
      </trkpt>
      <trkpt lat="45.1531" lon="6.06964">
        <ele>1081.4000244141</ele>
        <time>2015-08-24T12:20:36.000Z</time>
      </trkpt>
      <trkpt lat="45.15299" lon="6.06985">
        <ele>1076.5999755859</ele>
        <time>2015-08-24T12:20:41.000Z</time>
      </trkpt>
      <trkpt lat="45.15291" lon="6.07002">
        <ele>1073.4000244141</ele>
        <time>2015-08-24T12:20:45.000Z</time>
      </trkpt>
      <trkpt lat="45.15281" lon="6.07025">
        <ele>1069.5999755859</ele>
        <time>2015-08-24T12:20:51.000Z</time>
      </trkpt>
      <trkpt lat="45.15279" lon="6.07048">
        <ele>1069.5999755859</ele>
        <time>2015-08-24T12:20:56.000Z</time>
      </trkpt>
      <trkpt lat="45.1528" lon="6.07075">
        <ele>1067.4000244141</ele>
        <time>2015-08-24T12:21:01.000Z</time>
      </trkpt>
      <trkpt lat="45.1528" lon="6.0708">
        <ele>1066.4000244141</ele>
        <time>2015-08-24T12:21:02.000Z</time>
      </trkpt>
      <trkpt lat="45.15282" lon="6.07105">
        <ele>1062.5999755859</ele>
        <time>2015-08-24T12:21:07.000Z</time>
      </trkpt>
      <trkpt lat="45.15282" lon="6.0711">
        <ele>1061.5999755859</ele>
        <time>2015-08-24T12:21:08.000Z</time>
      </trkpt>
      <trkpt lat="45.15289" lon="6.07129">
        <ele>1062</ele>
        <time>2015-08-24T12:21:13.000Z</time>
      </trkpt>
      <trkpt lat="45.15306" lon="6.0714">
        <ele>1067</ele>
        <time>2015-08-24T12:21:19.000Z</time>
      </trkpt>
      <trkpt lat="45.15325" lon="6.07152">
        <ele>1074.1999511719</ele>
        <time>2015-08-24T12:21:26.000Z</time>
      </trkpt>
      <trkpt lat="45.15334" lon="6.07171">
        <ele>1079.1999511719</ele>
        <time>2015-08-24T12:21:31.000Z</time>
      </trkpt>
      <trkpt lat="45.15334" lon="6.07192">
        <ele>1080</ele>
        <time>2015-08-24T12:21:35.000Z</time>
      </trkpt>
      <trkpt lat="45.15323" lon="6.07202">
        <ele>1076</ele>
        <time>2015-08-24T12:21:40.000Z</time>
      </trkpt>
      <trkpt lat="45.1531" lon="6.0722">
        <ele>1072</ele>
        <time>2015-08-24T12:21:46.000Z</time>
      </trkpt>
      <trkpt lat="45.15311" lon="6.0724">
        <ele>1072.4000244141</ele>
        <time>2015-08-24T12:21:51.000Z</time>
      </trkpt>
      <trkpt lat="45.15317" lon="6.07266">
        <ele>1075.5999755859</ele>
        <time>2015-08-24T12:21:57.000Z</time>
      </trkpt>
      <trkpt lat="45.15317" lon="6.0727">
        <ele>1075.8000488281</ele>
        <time>2015-08-24T12:21:58.000Z</time>
      </trkpt>
      <trkpt lat="45.15313" lon="6.07277">
        <ele>1075.4000244141</ele>
        <time>2015-08-24T12:22:00.000Z</time>
      </trkpt>
      <trkpt lat="45.15311" lon="6.07278">
        <ele>1074.8000488281</ele>
        <time>2015-08-24T12:22:01.000Z</time>
      </trkpt>
      <trkpt lat="45.15299" lon="6.07273">
        <ele>1070.8000488281</ele>
        <time>2015-08-24T12:22:05.000Z</time>
      </trkpt>
      <trkpt lat="45.15294" lon="6.07269">
        <ele>1069</ele>
        <time>2015-08-24T12:22:07.000Z</time>
      </trkpt>
      <trkpt lat="45.15279" lon="6.0726">
        <ele>1067</ele>
        <time>2015-08-24T12:22:12.000Z</time>
      </trkpt>
      <trkpt lat="45.15269" lon="6.07251">
        <ele>1065.4000244141</ele>
        <time>2015-08-24T12:22:16.000Z</time>
      </trkpt>
      <trkpt lat="45.15263" lon="6.07245">
        <ele>1064.1999511719</ele>
        <time>2015-08-24T12:22:18.000Z</time>
      </trkpt>
      <trkpt lat="45.15243" lon="6.07233">
        <ele>1061.5999755859</ele>
        <time>2015-08-24T12:22:24.000Z</time>
      </trkpt>
      <trkpt lat="45.15227" lon="6.07243">
        <ele>1061</ele>
        <time>2015-08-24T12:22:29.000Z</time>
      </trkpt>
      <trkpt lat="45.15211" lon="6.07248">
        <ele>1063.5999755859</ele>
        <time>2015-08-24T12:22:34.000Z</time>
      </trkpt>
      <trkpt lat="45.15194" lon="6.07246">
        <ele>1065.5999755859</ele>
        <time>2015-08-24T12:22:40.000Z</time>
      </trkpt>
      <trkpt lat="45.15179" lon="6.07236">
        <ele>1065.1999511719</ele>
        <time>2015-08-24T12:22:46.000Z</time>
      </trkpt>
      <trkpt lat="45.15173" lon="6.07221">
        <ele>1062</ele>
        <time>2015-08-24T12:22:51.000Z</time>
      </trkpt>
      <trkpt lat="45.15164" lon="6.07205">
        <ele>1058.8000488281</ele>
        <time>2015-08-24T12:22:57.000Z</time>
      </trkpt>
      <trkpt lat="45.15156" lon="6.07197">
        <ele>1057.5999755859</ele>
        <time>2015-08-24T12:23:04.000Z</time>
      </trkpt>
      <trkpt lat="45.15151" lon="6.07194">
        <ele>1057.4000244141</ele>
        <time>2015-08-24T12:23:08.000Z</time>
      </trkpt>
      <trkpt lat="45.15138" lon="6.0719">
        <ele>1058.1999511719</ele>
        <time>2015-08-24T12:23:14.000Z</time>
      </trkpt>
      <trkpt lat="45.1512" lon="6.0719">
        <ele>1061.5999755859</ele>
        <time>2015-08-24T12:23:22.000Z</time>
      </trkpt>
      <trkpt lat="45.15108" lon="6.07189">
        <ele>1064.5999755859</ele>
        <time>2015-08-24T12:23:27.000Z</time>
      </trkpt>
      <trkpt lat="45.15093" lon="6.07189">
        <ele>1068.4000244141</ele>
        <time>2015-08-24T12:23:33.000Z</time>
      </trkpt>
      <trkpt lat="45.15078" lon="6.07183">
        <ele>1070</ele>
        <time>2015-08-24T12:23:41.000Z</time>
      </trkpt>
      <trkpt lat="45.15064" lon="6.07172">
        <ele>1070.1999511719</ele>
        <time>2015-08-24T12:23:49.000Z</time>
      </trkpt>
      <trkpt lat="45.15051" lon="6.07154">
        <ele>1069</ele>
        <time>2015-08-24T12:23:56.000Z</time>
      </trkpt>
      <trkpt lat="45.15049" lon="6.07152">
        <ele>1069</ele>
        <time>2015-08-24T12:23:57.000Z</time>
      </trkpt>
      <trkpt lat="45.15036" lon="6.07146">
        <ele>1069.8000488281</ele>
        <time>2015-08-24T12:24:02.000Z</time>
      </trkpt>
      <trkpt lat="45.15019" lon="6.07137">
        <ele>1071</ele>
        <time>2015-08-24T12:24:10.000Z</time>
      </trkpt>
      <trkpt lat="45.15001" lon="6.07127">
        <ele>1072.4000244141</ele>
        <time>2015-08-24T12:24:17.000Z</time>
      </trkpt>
      <trkpt lat="45.14998" lon="6.07125">
        <ele>1072.4000244141</ele>
        <time>2015-08-24T12:24:18.000Z</time>
      </trkpt>
      <trkpt lat="45.14983" lon="6.07112">
        <ele>1072.5999755859</ele>
        <time>2015-08-24T12:24:26.000Z</time>
      </trkpt>
      <trkpt lat="45.1497" lon="6.07095">
        <ele>1072.1999511719</ele>
        <time>2015-08-24T12:24:34.000Z</time>
      </trkpt>
      <trkpt lat="45.14969" lon="6.07093">
        <ele>1072.1999511719</ele>
        <time>2015-08-24T12:24:35.000Z</time>
      </trkpt>
      <trkpt lat="45.14959" lon="6.07087">
        <ele>1072.1999511719</ele>
        <time>2015-08-24T12:24:41.000Z</time>
      </trkpt>
      <trkpt lat="45.14949" lon="6.07093">
        <ele>1073.5999755859</ele>
        <time>2015-08-24T12:24:46.000Z</time>
      </trkpt>
      <trkpt lat="45.14942" lon="6.07113">
        <ele>1076.8000488281</ele>
        <time>2015-08-24T12:24:53.000Z</time>
      </trkpt>
      <trkpt lat="45.14936" lon="6.07138">
        <ele>1081.8000488281</ele>
        <time>2015-08-24T12:25:01.000Z</time>
      </trkpt>
      <trkpt lat="45.14934" lon="6.07142">
        <ele>1082.5999755859</ele>
        <time>2015-08-24T12:25:02.000Z</time>
      </trkpt>
      <trkpt lat="45.14924" lon="6.07162">
        <ele>1086.1999511719</ele>
        <time>2015-08-24T12:25:10.000Z</time>
      </trkpt>
      <trkpt lat="45.14911" lon="6.07184">
        <ele>1090.1999511719</ele>
        <time>2015-08-24T12:25:18.000Z</time>
      </trkpt>
      <trkpt lat="45.14911" lon="6.07187">
        <ele>1090.8000488281</ele>
        <time>2015-08-24T12:25:19.000Z</time>
      </trkpt>
      <trkpt lat="45.14916" lon="6.07191">
        <ele>1091</ele>
        <time>2015-08-24T12:25:22.000Z</time>
      </trkpt>
      <trkpt lat="45.14921" lon="6.07184">
        <ele>1089.4000244141</ele>
        <time>2015-08-24T12:25:26.000Z</time>
      </trkpt>
      <trkpt lat="45.14922" lon="6.07183">
        <ele>1089</ele>
        <time>2015-08-24T12:25:27.000Z</time>
      </trkpt>
      <trkpt lat="45.14933" lon="6.07171">
        <ele>1086.8000488281</ele>
        <time>2015-08-24T12:25:34.000Z</time>
      </trkpt>
      <trkpt lat="45.14947" lon="6.07166">
        <ele>1085</ele>
        <time>2015-08-24T12:25:41.000Z</time>
      </trkpt>
      <trkpt lat="45.14953" lon="6.07163">
        <ele>1084.1999511719</ele>
        <time>2015-08-24T12:25:47.000Z</time>
      </trkpt>
      <trkpt lat="45.14946" lon="6.07157">
        <ele>1083.8000488281</ele>
        <time>2015-08-24T12:26:00.000Z</time>
      </trkpt>
      <trkpt lat="45.14941" lon="6.07153">
        <ele>1083.8000488281</ele>
        <time>2015-08-24T12:26:05.000Z</time>
      </trkpt>
      <trkpt lat="45.14939" lon="6.07155">
        <ele>1084.1999511719</ele>
        <time>2015-08-24T12:26:09.000Z</time>
      </trkpt>
      <trkpt lat="45.14942" lon="6.07157">
        <ele>1084.1999511719</ele>
        <time>2015-08-24T12:26:22.000Z</time>
      </trkpt>
      <trkpt lat="45.14943" lon="6.07158">
        <ele>1084.1999511719</ele>
        <time>2015-08-24T12:26:26.000Z</time>
      </trkpt>
      <trkpt lat="45.14945" lon="6.07157">
        <ele>1084</ele>
        <time>2015-08-24T12:26:48.000Z</time>
      </trkpt>
      <trkpt lat="45.14946" lon="6.0716">
        <ele>1084.4000244141</ele>
        <time>2015-08-24T12:26:55.000Z</time>
      </trkpt>
      <trkpt lat="45.14947" lon="6.07162">
        <ele>1084.5999755859</ele>
        <time>2015-08-24T12:27:12.000Z</time>
      </trkpt>
    </trkseg>
  </trk>
</gpx>